<?xml version="1.0" encoding="UTF-8" standalone="no" ?>
<gpx xmlns="http://www.topografix.com/GPX/1/1" xmlns:xsi="http://www.w3.org/2001/XMLSchema-instance" xsi:schemaLocation="http://www.topografix.com/GPX/1/1 http://www.topografix.com/GPX/1/1/gpx.xsd" version="1.1" creator="VisuGPX - https://www.visugpx.com">
  <metadata>
    <name>Bielsa 2 cols</name>
  </metadata>
  <trk>
    <name><![CDATA[Bielsa 2 cols_1]]></name>
    <trkseg>
      <trkpt lat="42.63229" lon="0.21949">
        <ele>1015.8</ele>
        <time>2011-07-10T06:24:54Z</time>
      </trkpt>
      <trkpt lat="42.63227" lon="0.21947">
        <ele>1015.8</ele>
        <time>2011-07-10T06:25:01Z</time>
      </trkpt>
      <trkpt lat="42.63228" lon="0.21946">
        <ele>1015.8</ele>
        <time>2011-07-10T06:25:03Z</time>
      </trkpt>
      <trkpt lat="42.63228" lon="0.21946">
        <ele>1015.8</ele>
        <time>2011-07-10T06:25:17Z</time>
      </trkpt>
      <trkpt lat="42.63229" lon="0.21946">
        <ele>1015.8</ele>
        <time>2011-07-10T06:25:31Z</time>
      </trkpt>
      <trkpt lat="42.63227" lon="0.21943">
        <ele>1016.3</ele>
        <time>2011-07-10T06:25:35Z</time>
      </trkpt>
      <trkpt lat="42.63223" lon="0.21946">
        <ele>1016.3</ele>
        <time>2011-07-10T06:25:38Z</time>
      </trkpt>
      <trkpt lat="42.63227" lon="0.21948">
        <ele>1015.8</ele>
        <time>2011-07-10T06:25:44Z</time>
      </trkpt>
      <trkpt lat="42.63228" lon="0.21946">
        <ele>1016.3</ele>
        <time>2011-07-10T06:26:00Z</time>
      </trkpt>
      <trkpt lat="42.63227" lon="0.21943">
        <ele>1016.3</ele>
        <time>2011-07-10T06:27:16Z</time>
      </trkpt>
      <trkpt lat="42.63228" lon="0.21938">
        <ele>1016.3</ele>
        <time>2011-07-10T06:27:19Z</time>
      </trkpt>
      <trkpt lat="42.63226" lon="0.21934">
        <ele>1016.7</ele>
        <time>2011-07-10T06:27:30Z</time>
      </trkpt>
      <trkpt lat="42.63226" lon="0.21937">
        <ele>1016.7</ele>
        <time>2011-07-10T06:33:12Z</time>
      </trkpt>
      <trkpt lat="42.63218" lon="0.21965">
        <ele>1016.3</ele>
        <time>2011-07-10T06:33:23Z</time>
      </trkpt>
      <trkpt lat="42.63217" lon="0.21968">
        <ele>1016.3</ele>
        <time>2011-07-10T06:33:24Z</time>
      </trkpt>
      <trkpt lat="42.63203" lon="0.21974">
        <ele>1016.3</ele>
        <time>2011-07-10T06:33:31Z</time>
      </trkpt>
      <trkpt lat="42.63205" lon="0.21979">
        <ele>1015.8</ele>
        <time>2011-07-10T06:33:37Z</time>
      </trkpt>
      <trkpt lat="42.63192" lon="0.21987">
        <ele>1015.3</ele>
        <time>2011-07-10T06:33:44Z</time>
      </trkpt>
      <trkpt lat="42.63187" lon="0.2199">
        <ele>1014.8</ele>
        <time>2011-07-10T06:33:46Z</time>
      </trkpt>
      <trkpt lat="42.63147" lon="0.22064">
        <ele>1010</ele>
        <time>2011-07-10T06:34:01Z</time>
      </trkpt>
      <trkpt lat="42.63125" lon="0.22108">
        <ele>1008.1</ele>
        <time>2011-07-10T06:34:07Z</time>
      </trkpt>
      <trkpt lat="42.63119" lon="0.22142">
        <ele>1007.1</ele>
        <time>2011-07-10T06:34:11Z</time>
      </trkpt>
      <trkpt lat="42.63134" lon="0.22174">
        <ele>1006.2</ele>
        <time>2011-07-10T06:34:19Z</time>
      </trkpt>
      <trkpt lat="42.63183" lon="0.22158">
        <ele>1007.6</ele>
        <time>2011-07-10T06:34:39Z</time>
      </trkpt>
      <trkpt lat="42.63268" lon="0.22143">
        <ele>1010</ele>
        <time>2011-07-10T06:35:14Z</time>
      </trkpt>
      <trkpt lat="42.63302" lon="0.22135">
        <ele>1011.4</ele>
        <time>2011-07-10T06:35:28Z</time>
      </trkpt>
      <trkpt lat="42.63347" lon="0.2212">
        <ele>1013.4</ele>
        <time>2011-07-10T06:35:47Z</time>
      </trkpt>
      <trkpt lat="42.63392" lon="0.22093">
        <ele>1015.8</ele>
        <time>2011-07-10T06:36:07Z</time>
      </trkpt>
      <trkpt lat="42.635" lon="0.22014">
        <ele>1020.1</ele>
        <time>2011-07-10T06:36:53Z</time>
      </trkpt>
      <trkpt lat="42.63543" lon="0.21958">
        <ele>1022</ele>
        <time>2011-07-10T06:37:14Z</time>
      </trkpt>
      <trkpt lat="42.63625" lon="0.21815">
        <ele>1025.4</ele>
        <time>2011-07-10T06:37:58Z</time>
      </trkpt>
      <trkpt lat="42.63694" lon="0.21647">
        <ele>1028.7</ele>
        <time>2011-07-10T06:38:42Z</time>
      </trkpt>
      <trkpt lat="42.63735" lon="0.21603">
        <ele>1030.2</ele>
        <time>2011-07-10T06:38:58Z</time>
      </trkpt>
      <trkpt lat="42.63857" lon="0.21542">
        <ele>1033.6</ele>
        <time>2011-07-10T06:39:37Z</time>
      </trkpt>
      <trkpt lat="42.63933" lon="0.21507">
        <ele>1035.5</ele>
        <time>2011-07-10T06:40:00Z</time>
      </trkpt>
      <trkpt lat="42.63964" lon="0.21503">
        <ele>1036</ele>
        <time>2011-07-10T06:40:09Z</time>
      </trkpt>
      <trkpt lat="42.63976" lon="0.21512">
        <ele>1035</ele>
        <time>2011-07-10T06:40:12Z</time>
      </trkpt>
      <trkpt lat="42.63985" lon="0.21524">
        <ele>1035.5</ele>
        <time>2011-07-10T06:40:15Z</time>
      </trkpt>
      <trkpt lat="42.63999" lon="0.21529">
        <ele>1036.4</ele>
        <time>2011-07-10T06:40:19Z</time>
      </trkpt>
      <trkpt lat="42.64044" lon="0.21526">
        <ele>1037.9</ele>
        <time>2011-07-10T06:40:34Z</time>
      </trkpt>
      <trkpt lat="42.64073" lon="0.21522">
        <ele>1039.3</ele>
        <time>2011-07-10T06:40:45Z</time>
      </trkpt>
      <trkpt lat="42.64085" lon="0.21487">
        <ele>1039.8</ele>
        <time>2011-07-10T06:40:55Z</time>
      </trkpt>
      <trkpt lat="42.64104" lon="0.21473">
        <ele>1040.3</ele>
        <time>2011-07-10T06:41:03Z</time>
      </trkpt>
      <trkpt lat="42.64134" lon="0.21456">
        <ele>1042.2</ele>
        <time>2011-07-10T06:41:16Z</time>
      </trkpt>
      <trkpt lat="42.64136" lon="0.21454">
        <ele>1043.6</ele>
        <time>2011-07-10T06:41:18Z</time>
      </trkpt>
      <trkpt lat="42.64137" lon="0.21453">
        <ele>1043.6</ele>
        <time>2011-07-10T06:41:27Z</time>
      </trkpt>
      <trkpt lat="42.64207" lon="0.2145">
        <ele>1046.5</ele>
        <time>2011-07-10T06:41:59Z</time>
      </trkpt>
      <trkpt lat="42.64243" lon="0.21428">
        <ele>1047.5</ele>
        <time>2011-07-10T06:42:14Z</time>
      </trkpt>
      <trkpt lat="42.64265" lon="0.21378">
        <ele>1048.9</ele>
        <time>2011-07-10T06:42:29Z</time>
      </trkpt>
      <trkpt lat="42.64291" lon="0.21296">
        <ele>1050.9</ele>
        <time>2011-07-10T06:42:51Z</time>
      </trkpt>
      <trkpt lat="42.64327" lon="0.21244">
        <ele>1052.8</ele>
        <time>2011-07-10T06:43:08Z</time>
      </trkpt>
      <trkpt lat="42.64369" lon="0.21224">
        <ele>1054.7</ele>
        <time>2011-07-10T06:43:23Z</time>
      </trkpt>
      <trkpt lat="42.64483" lon="0.2122">
        <ele>1060</ele>
        <time>2011-07-10T06:44:00Z</time>
      </trkpt>
      <trkpt lat="42.64537" lon="0.21211">
        <ele>1062.4</ele>
        <time>2011-07-10T06:44:18Z</time>
      </trkpt>
      <trkpt lat="42.64598" lon="0.21178">
        <ele>1064.8</ele>
        <time>2011-07-10T06:44:39Z</time>
      </trkpt>
      <trkpt lat="42.64642" lon="0.21143">
        <ele>1067.2</ele>
        <time>2011-07-10T06:44:55Z</time>
      </trkpt>
      <trkpt lat="42.64698" lon="0.21078">
        <ele>1069.6</ele>
        <time>2011-07-10T06:45:17Z</time>
      </trkpt>
      <trkpt lat="42.6476" lon="0.20993">
        <ele>1071</ele>
        <time>2011-07-10T06:45:40Z</time>
      </trkpt>
      <trkpt lat="42.64816" lon="0.20945">
        <ele>1071.5</ele>
        <time>2011-07-10T06:45:56Z</time>
      </trkpt>
      <trkpt lat="42.64829" lon="0.20941">
        <ele>1072</ele>
        <time>2011-07-10T06:45:59Z</time>
      </trkpt>
      <trkpt lat="42.64837" lon="0.20939">
        <ele>1072</ele>
        <time>2011-07-10T06:46:01Z</time>
      </trkpt>
      <trkpt lat="42.6497" lon="0.20948">
        <ele>1076.3</ele>
        <time>2011-07-10T06:46:36Z</time>
      </trkpt>
      <trkpt lat="42.65043" lon="0.20933">
        <ele>1078.3</ele>
        <time>2011-07-10T06:46:56Z</time>
      </trkpt>
      <trkpt lat="42.65102" lon="0.20901">
        <ele>1080.7</ele>
        <time>2011-07-10T06:47:14Z</time>
      </trkpt>
      <trkpt lat="42.6519" lon="0.20847">
        <ele>1085</ele>
        <time>2011-07-10T06:47:45Z</time>
      </trkpt>
      <trkpt lat="42.65246" lon="0.20819">
        <ele>1087.4</ele>
        <time>2011-07-10T06:48:04Z</time>
      </trkpt>
      <trkpt lat="42.65309" lon="0.20802">
        <ele>1089.8</ele>
        <time>2011-07-10T06:48:24Z</time>
      </trkpt>
      <trkpt lat="42.6545" lon="0.20792">
        <ele>1093.6</ele>
        <time>2011-07-10T06:49:03Z</time>
      </trkpt>
      <trkpt lat="42.65519" lon="0.20812">
        <ele>1096</ele>
        <time>2011-07-10T06:49:22Z</time>
      </trkpt>
      <trkpt lat="42.65598" lon="0.20866">
        <ele>1101.8</ele>
        <time>2011-07-10T06:49:53Z</time>
      </trkpt>
      <trkpt lat="42.65603" lon="0.20868">
        <ele>1102.3</ele>
        <time>2011-07-10T06:49:55Z</time>
      </trkpt>
      <trkpt lat="42.65631" lon="0.20889">
        <ele>1105.2</ele>
        <time>2011-07-10T06:50:10Z</time>
      </trkpt>
      <trkpt lat="42.65688" lon="0.20915">
        <ele>1109.5</ele>
        <time>2011-07-10T06:50:37Z</time>
      </trkpt>
      <trkpt lat="42.65741" lon="0.20927">
        <ele>1112.4</ele>
        <time>2011-07-10T06:50:57Z</time>
      </trkpt>
      <trkpt lat="42.65782" lon="0.20932">
        <ele>1113.8</ele>
        <time>2011-07-10T06:51:11Z</time>
      </trkpt>
      <trkpt lat="42.65901" lon="0.20928">
        <ele>1114.8</ele>
        <time>2011-07-10T06:51:47Z</time>
      </trkpt>
      <trkpt lat="42.66007" lon="0.20927">
        <ele>1114.3</ele>
        <time>2011-07-10T06:52:17Z</time>
      </trkpt>
      <trkpt lat="42.66127" lon="0.20928">
        <ele>1117.7</ele>
        <time>2011-07-10T06:52:54Z</time>
      </trkpt>
      <trkpt lat="42.66188" lon="0.20933">
        <ele>1120.1</ele>
        <time>2011-07-10T06:53:14Z</time>
      </trkpt>
      <trkpt lat="42.66247" lon="0.20945">
        <ele>1122.5</ele>
        <time>2011-07-10T06:53:33Z</time>
      </trkpt>
      <trkpt lat="42.66296" lon="0.20969">
        <ele>1124.9</ele>
        <time>2011-07-10T06:53:50Z</time>
      </trkpt>
      <trkpt lat="42.66358" lon="0.21015">
        <ele>1127.8</ele>
        <time>2011-07-10T06:54:13Z</time>
      </trkpt>
      <trkpt lat="42.66403" lon="0.21064">
        <ele>1130.6</ele>
        <time>2011-07-10T06:54:32Z</time>
      </trkpt>
      <trkpt lat="42.66497" lon="0.21181">
        <ele>1136.9</ele>
        <time>2011-07-10T06:55:15Z</time>
      </trkpt>
      <trkpt lat="42.66549" lon="0.21223">
        <ele>1139.8</ele>
        <time>2011-07-10T06:55:34Z</time>
      </trkpt>
      <trkpt lat="42.66593" lon="0.21245">
        <ele>1141.2</ele>
        <time>2011-07-10T06:55:49Z</time>
      </trkpt>
      <trkpt lat="42.66681" lon="0.21282">
        <ele>1146.5</ele>
        <time>2011-07-10T06:56:21Z</time>
      </trkpt>
      <trkpt lat="42.6672" lon="0.213">
        <ele>1149.9</ele>
        <time>2011-07-10T06:56:36Z</time>
      </trkpt>
      <trkpt lat="42.66798" lon="0.21329">
        <ele>1155.2</ele>
        <time>2011-07-10T06:57:07Z</time>
      </trkpt>
      <trkpt lat="42.66799" lon="0.21331">
        <ele>1155.2</ele>
        <time>2011-07-10T06:57:21Z</time>
      </trkpt>
      <trkpt lat="42.668" lon="0.21331">
        <ele>1155.6</ele>
        <time>2011-07-10T06:57:42Z</time>
      </trkpt>
      <trkpt lat="42.66864" lon="0.21359">
        <ele>1160</ele>
        <time>2011-07-10T06:58:11Z</time>
      </trkpt>
      <trkpt lat="42.66913" lon="0.21377">
        <ele>1163.3</ele>
        <time>2011-07-10T06:58:33Z</time>
      </trkpt>
      <trkpt lat="42.66976" lon="0.21401">
        <ele>1167.2</ele>
        <time>2011-07-10T06:58:59Z</time>
      </trkpt>
      <trkpt lat="42.67077" lon="0.21427">
        <ele>1171.5</ele>
        <time>2011-07-10T06:59:33Z</time>
      </trkpt>
      <trkpt lat="42.67184" lon="0.21447">
        <ele>1174.9</ele>
        <time>2011-07-10T07:00:05Z</time>
      </trkpt>
      <trkpt lat="42.67184" lon="0.21447">
        <ele>1174.9</ele>
        <time>2011-07-10T07:00:05Z</time>
      </trkpt>
      <trkpt lat="42.67261" lon="0.21459">
        <ele>1179.2</ele>
        <time>2011-07-10T07:00:34Z</time>
      </trkpt>
      <trkpt lat="42.67321" lon="0.21467">
        <ele>1183</ele>
        <time>2011-07-10T07:00:59Z</time>
      </trkpt>
      <trkpt lat="42.67339" lon="0.21465">
        <ele>1182.6</ele>
        <time>2011-07-10T07:01:04Z</time>
      </trkpt>
      <trkpt lat="42.67346" lon="0.21479">
        <ele>1182.1</ele>
        <time>2011-07-10T07:01:08Z</time>
      </trkpt>
      <trkpt lat="42.6734" lon="0.21525">
        <ele>1183</ele>
        <time>2011-07-10T07:01:20Z</time>
      </trkpt>
      <trkpt lat="42.6734" lon="0.21525">
        <ele>1183</ele>
        <time>2011-07-10T07:08:32Z</time>
      </trkpt>
      <trkpt lat="42.67336" lon="0.21549">
        <ele>1182.1</ele>
        <time>2011-07-10T07:08:39Z</time>
      </trkpt>
      <trkpt lat="42.67326" lon="0.21582">
        <ele>1184</ele>
        <time>2011-07-10T07:08:51Z</time>
      </trkpt>
      <trkpt lat="42.67307" lon="0.21607">
        <ele>1185</ele>
        <time>2011-07-10T07:09:04Z</time>
      </trkpt>
      <trkpt lat="42.6729" lon="0.21624">
        <ele>1186.9</ele>
        <time>2011-07-10T07:09:16Z</time>
      </trkpt>
      <trkpt lat="42.67276" lon="0.21629">
        <ele>1188.8</ele>
        <time>2011-07-10T07:09:27Z</time>
      </trkpt>
      <trkpt lat="42.67261" lon="0.21644">
        <ele>1191.2</ele>
        <time>2011-07-10T07:09:41Z</time>
      </trkpt>
      <trkpt lat="42.67243" lon="0.21655">
        <ele>1193.6</ele>
        <time>2011-07-10T07:09:56Z</time>
      </trkpt>
      <trkpt lat="42.67228" lon="0.21661">
        <ele>1195.1</ele>
        <time>2011-07-10T07:10:06Z</time>
      </trkpt>
      <trkpt lat="42.67214" lon="0.21669">
        <ele>1197.5</ele>
        <time>2011-07-10T07:10:20Z</time>
      </trkpt>
      <trkpt lat="42.67212" lon="0.21671">
        <ele>1197.9</ele>
        <time>2011-07-10T07:10:22Z</time>
      </trkpt>
      <trkpt lat="42.67197" lon="0.21681">
        <ele>1199.4</ele>
        <time>2011-07-10T07:10:34Z</time>
      </trkpt>
      <trkpt lat="42.67177" lon="0.21703">
        <ele>1202.3</ele>
        <time>2011-07-10T07:10:52Z</time>
      </trkpt>
      <trkpt lat="42.67176" lon="0.21708">
        <ele>1202.7</ele>
        <time>2011-07-10T07:10:55Z</time>
      </trkpt>
      <trkpt lat="42.67164" lon="0.21721">
        <ele>1204.7</ele>
        <time>2011-07-10T07:11:08Z</time>
      </trkpt>
      <trkpt lat="42.67159" lon="0.2173">
        <ele>1205.6</ele>
        <time>2011-07-10T07:11:15Z</time>
      </trkpt>
      <trkpt lat="42.67158" lon="0.21736">
        <ele>1206.1</ele>
        <time>2011-07-10T07:11:19Z</time>
      </trkpt>
      <trkpt lat="42.67162" lon="0.21743">
        <ele>1207.1</ele>
        <time>2011-07-10T07:11:24Z</time>
      </trkpt>
      <trkpt lat="42.67179" lon="0.21738">
        <ele>1208.5</ele>
        <time>2011-07-10T07:11:38Z</time>
      </trkpt>
      <trkpt lat="42.67201" lon="0.21722">
        <ele>1211.4</ele>
        <time>2011-07-10T07:11:56Z</time>
      </trkpt>
      <trkpt lat="42.67215" lon="0.21724">
        <ele>1212.8</ele>
        <time>2011-07-10T07:12:06Z</time>
      </trkpt>
      <trkpt lat="42.67216" lon="0.21727">
        <ele>1212.8</ele>
        <time>2011-07-10T07:12:08Z</time>
      </trkpt>
      <trkpt lat="42.67219" lon="0.21729">
        <ele>1213.3</ele>
        <time>2011-07-10T07:12:10Z</time>
      </trkpt>
      <trkpt lat="42.67233" lon="0.21727">
        <ele>1214.8</ele>
        <time>2011-07-10T07:12:21Z</time>
      </trkpt>
      <trkpt lat="42.67247" lon="0.21722">
        <ele>1216.7</ele>
        <time>2011-07-10T07:12:34Z</time>
      </trkpt>
      <trkpt lat="42.67251" lon="0.21726">
        <ele>1217.6</ele>
        <time>2011-07-10T07:12:39Z</time>
      </trkpt>
      <trkpt lat="42.67244" lon="0.21745">
        <ele>1220.1</ele>
        <time>2011-07-10T07:12:53Z</time>
      </trkpt>
      <trkpt lat="42.67233" lon="0.2175">
        <ele>1221.5</ele>
        <time>2011-07-10T07:13:01Z</time>
      </trkpt>
      <trkpt lat="42.67228" lon="0.21747">
        <ele>1222</ele>
        <time>2011-07-10T07:13:05Z</time>
      </trkpt>
      <trkpt lat="42.67207" lon="0.21752">
        <ele>1225.3</ele>
        <time>2011-07-10T07:13:22Z</time>
      </trkpt>
      <trkpt lat="42.67184" lon="0.21764">
        <ele>1228.7</ele>
        <time>2011-07-10T07:13:40Z</time>
      </trkpt>
      <trkpt lat="42.67171" lon="0.21768">
        <ele>1230.6</ele>
        <time>2011-07-10T07:13:50Z</time>
      </trkpt>
      <trkpt lat="42.67152" lon="0.21777">
        <ele>1234</ele>
        <time>2011-07-10T07:14:07Z</time>
      </trkpt>
      <trkpt lat="42.67132" lon="0.21784">
        <ele>1237.4</ele>
        <time>2011-07-10T07:14:24Z</time>
      </trkpt>
      <trkpt lat="42.67123" lon="0.21783">
        <ele>1238.3</ele>
        <time>2011-07-10T07:14:32Z</time>
      </trkpt>
      <trkpt lat="42.67108" lon="0.21786">
        <ele>1241.2</ele>
        <time>2011-07-10T07:14:44Z</time>
      </trkpt>
      <trkpt lat="42.67082" lon="0.21798">
        <ele>1245.5</ele>
        <time>2011-07-10T07:15:06Z</time>
      </trkpt>
      <trkpt lat="42.67078" lon="0.21797">
        <ele>1246</ele>
        <time>2011-07-10T07:15:09Z</time>
      </trkpt>
      <trkpt lat="42.67038" lon="0.21814">
        <ele>1252.7</ele>
        <time>2011-07-10T07:15:41Z</time>
      </trkpt>
      <trkpt lat="42.67022" lon="0.21821">
        <ele>1255.6</ele>
        <time>2011-07-10T07:15:55Z</time>
      </trkpt>
      <trkpt lat="42.67004" lon="0.21825">
        <ele>1258.5</ele>
        <time>2011-07-10T07:16:10Z</time>
      </trkpt>
      <trkpt lat="42.67002" lon="0.21824">
        <ele>1259</ele>
        <time>2011-07-10T07:16:12Z</time>
      </trkpt>
      <trkpt lat="42.66983" lon="0.21828">
        <ele>1262.3</ele>
        <time>2011-07-10T07:16:28Z</time>
      </trkpt>
      <trkpt lat="42.6696" lon="0.21841">
        <ele>1266.7</ele>
        <time>2011-07-10T07:16:49Z</time>
      </trkpt>
      <trkpt lat="42.66941" lon="0.21849">
        <ele>1269.6</ele>
        <time>2011-07-10T07:17:06Z</time>
      </trkpt>
      <trkpt lat="42.6693" lon="0.21858">
        <ele>1271.5</ele>
        <time>2011-07-10T07:17:17Z</time>
      </trkpt>
      <trkpt lat="42.66896" lon="0.21886">
        <ele>1278.2</ele>
        <time>2011-07-10T07:17:48Z</time>
      </trkpt>
      <trkpt lat="42.66881" lon="0.21903">
        <ele>1281.1</ele>
        <time>2011-07-10T07:18:03Z</time>
      </trkpt>
      <trkpt lat="42.66875" lon="0.21914">
        <ele>1282.5</ele>
        <time>2011-07-10T07:18:11Z</time>
      </trkpt>
      <trkpt lat="42.66864" lon="0.21928">
        <ele>1284.9</ele>
        <time>2011-07-10T07:18:24Z</time>
      </trkpt>
      <trkpt lat="42.66846" lon="0.21949">
        <ele>1289.3</ele>
        <time>2011-07-10T07:18:47Z</time>
      </trkpt>
      <trkpt lat="42.66845" lon="0.21949">
        <ele>1289.7</ele>
        <time>2011-07-10T07:18:48Z</time>
      </trkpt>
      <trkpt lat="42.66841" lon="0.21958">
        <ele>1290.7</ele>
        <time>2011-07-10T07:18:54Z</time>
      </trkpt>
      <trkpt lat="42.66835" lon="0.21967">
        <ele>1292.1</ele>
        <time>2011-07-10T07:19:02Z</time>
      </trkpt>
      <trkpt lat="42.66833" lon="0.21975">
        <ele>1293.1</ele>
        <time>2011-07-10T07:19:07Z</time>
      </trkpt>
      <trkpt lat="42.66829" lon="0.21981">
        <ele>1294.1</ele>
        <time>2011-07-10T07:19:12Z</time>
      </trkpt>
      <trkpt lat="42.66829" lon="0.2199">
        <ele>1294.6</ele>
        <time>2011-07-10T07:19:18Z</time>
      </trkpt>
      <trkpt lat="42.66826" lon="0.21993">
        <ele>1295.5</ele>
        <time>2011-07-10T07:19:21Z</time>
      </trkpt>
      <trkpt lat="42.66825" lon="0.21999">
        <ele>1296</ele>
        <time>2011-07-10T07:19:25Z</time>
      </trkpt>
      <trkpt lat="42.6682" lon="0.22018">
        <ele>1298.4</ele>
        <time>2011-07-10T07:19:37Z</time>
      </trkpt>
      <trkpt lat="42.66821" lon="0.22037">
        <ele>1300.3</ele>
        <time>2011-07-10T07:19:48Z</time>
      </trkpt>
      <trkpt lat="42.66817" lon="0.22048">
        <ele>1301.8</ele>
        <time>2011-07-10T07:19:57Z</time>
      </trkpt>
      <trkpt lat="42.66817" lon="0.2205">
        <ele>1302.2</ele>
        <time>2011-07-10T07:19:58Z</time>
      </trkpt>
      <trkpt lat="42.66815" lon="0.22052">
        <ele>1302.2</ele>
        <time>2011-07-10T07:20:00Z</time>
      </trkpt>
      <trkpt lat="42.66812" lon="0.22063">
        <ele>1303.2</ele>
        <time>2011-07-10T07:20:06Z</time>
      </trkpt>
      <trkpt lat="42.66806" lon="0.22072">
        <ele>1304.6</ele>
        <time>2011-07-10T07:20:14Z</time>
      </trkpt>
      <trkpt lat="42.66805" lon="0.22078">
        <ele>1305.1</ele>
        <time>2011-07-10T07:20:18Z</time>
      </trkpt>
      <trkpt lat="42.66801" lon="0.22092">
        <ele>1307</ele>
        <time>2011-07-10T07:20:27Z</time>
      </trkpt>
      <trkpt lat="42.66804" lon="0.22102">
        <ele>1308</ele>
        <time>2011-07-10T07:20:35Z</time>
      </trkpt>
      <trkpt lat="42.66807" lon="0.22102">
        <ele>1308.5</ele>
        <time>2011-07-10T07:20:38Z</time>
      </trkpt>
      <trkpt lat="42.66817" lon="0.2209">
        <ele>1310.4</ele>
        <time>2011-07-10T07:20:49Z</time>
      </trkpt>
      <trkpt lat="42.66825" lon="0.22067">
        <ele>1313.3</ele>
        <time>2011-07-10T07:21:05Z</time>
      </trkpt>
      <trkpt lat="42.66828" lon="0.2206">
        <ele>1314.3</ele>
        <time>2011-07-10T07:21:09Z</time>
      </trkpt>
      <trkpt lat="42.66837" lon="0.22044">
        <ele>1316.2</ele>
        <time>2011-07-10T07:21:22Z</time>
      </trkpt>
      <trkpt lat="42.66848" lon="0.22029">
        <ele>1318.6</ele>
        <time>2011-07-10T07:21:35Z</time>
      </trkpt>
      <trkpt lat="42.66864" lon="0.22012">
        <ele>1321.9</ele>
        <time>2011-07-10T07:21:51Z</time>
      </trkpt>
      <trkpt lat="42.66882" lon="0.22004">
        <ele>1324.4</ele>
        <time>2011-07-10T07:22:05Z</time>
      </trkpt>
      <trkpt lat="42.6689" lon="0.22002">
        <ele>1325.8</ele>
        <time>2011-07-10T07:22:12Z</time>
      </trkpt>
      <trkpt lat="42.66895" lon="0.22001">
        <ele>1326.3</ele>
        <time>2011-07-10T07:22:16Z</time>
      </trkpt>
      <trkpt lat="42.66898" lon="0.22001">
        <ele>1326.3</ele>
        <time>2011-07-10T07:22:18Z</time>
      </trkpt>
      <trkpt lat="42.66903" lon="0.22007">
        <ele>1326.8</ele>
        <time>2011-07-10T07:22:22Z</time>
      </trkpt>
      <trkpt lat="42.66904" lon="0.22013">
        <ele>1327.7</ele>
        <time>2011-07-10T07:22:25Z</time>
      </trkpt>
      <trkpt lat="42.6689" lon="0.22027">
        <ele>1330.1</ele>
        <time>2011-07-10T07:22:39Z</time>
      </trkpt>
      <trkpt lat="42.66884" lon="0.22029">
        <ele>1331.1</ele>
        <time>2011-07-10T07:22:44Z</time>
      </trkpt>
      <trkpt lat="42.66866" lon="0.22046">
        <ele>1334.4</ele>
        <time>2011-07-10T07:23:01Z</time>
      </trkpt>
      <trkpt lat="42.66859" lon="0.22065">
        <ele>1336.9</ele>
        <time>2011-07-10T07:23:14Z</time>
      </trkpt>
      <trkpt lat="42.66858" lon="0.22072">
        <ele>1337.3</ele>
        <time>2011-07-10T07:23:18Z</time>
      </trkpt>
      <trkpt lat="42.66854" lon="0.22107">
        <ele>1341.2</ele>
        <time>2011-07-10T07:23:39Z</time>
      </trkpt>
      <trkpt lat="42.66856" lon="0.22114">
        <ele>1341.7</ele>
        <time>2011-07-10T07:23:43Z</time>
      </trkpt>
      <trkpt lat="42.66856" lon="0.2212">
        <ele>1342.1</ele>
        <time>2011-07-10T07:23:47Z</time>
      </trkpt>
      <trkpt lat="42.66853" lon="0.22142">
        <ele>1345</ele>
        <time>2011-07-10T07:24:01Z</time>
      </trkpt>
      <trkpt lat="42.66852" lon="0.22147">
        <ele>1345.5</ele>
        <time>2011-07-10T07:24:04Z</time>
      </trkpt>
      <trkpt lat="42.66848" lon="0.22182">
        <ele>1350.3</ele>
        <time>2011-07-10T07:24:29Z</time>
      </trkpt>
      <trkpt lat="42.66845" lon="0.22206">
        <ele>1352.7</ele>
        <time>2011-07-10T07:24:43Z</time>
      </trkpt>
      <trkpt lat="42.6684" lon="0.22226">
        <ele>1354.6</ele>
        <time>2011-07-10T07:24:57Z</time>
      </trkpt>
      <trkpt lat="42.66837" lon="0.22254">
        <ele>1358</ele>
        <time>2011-07-10T07:25:14Z</time>
      </trkpt>
      <trkpt lat="42.66835" lon="0.22277">
        <ele>1360.4</ele>
        <time>2011-07-10T07:25:28Z</time>
      </trkpt>
      <trkpt lat="42.66834" lon="0.22282">
        <ele>1360.9</ele>
        <time>2011-07-10T07:25:31Z</time>
      </trkpt>
      <trkpt lat="42.66833" lon="0.22285">
        <ele>1361.4</ele>
        <time>2011-07-10T07:25:33Z</time>
      </trkpt>
      <trkpt lat="42.66829" lon="0.22321">
        <ele>1363.3</ele>
        <time>2011-07-10T07:25:50Z</time>
      </trkpt>
      <trkpt lat="42.66822" lon="0.22347">
        <ele>1364.2</ele>
        <time>2011-07-10T07:26:01Z</time>
      </trkpt>
      <trkpt lat="42.66821" lon="0.22381">
        <ele>1365.7</ele>
        <time>2011-07-10T07:26:14Z</time>
      </trkpt>
      <trkpt lat="42.66808" lon="0.22423">
        <ele>1367.1</ele>
        <time>2011-07-10T07:26:29Z</time>
      </trkpt>
      <trkpt lat="42.66807" lon="0.22468">
        <ele>1369.1</ele>
        <time>2011-07-10T07:26:46Z</time>
      </trkpt>
      <trkpt lat="42.66807" lon="0.225">
        <ele>1371.5</ele>
        <time>2011-07-10T07:27:02Z</time>
      </trkpt>
      <trkpt lat="42.66805" lon="0.22555">
        <ele>1375.8</ele>
        <time>2011-07-10T07:27:32Z</time>
      </trkpt>
      <trkpt lat="42.66793" lon="0.22625">
        <ele>1380.1</ele>
        <time>2011-07-10T07:28:06Z</time>
      </trkpt>
      <trkpt lat="42.66792" lon="0.22638">
        <ele>1381.1</ele>
        <time>2011-07-10T07:28:13Z</time>
      </trkpt>
      <trkpt lat="42.66794" lon="0.22642">
        <ele>1381.1</ele>
        <time>2011-07-10T07:28:15Z</time>
      </trkpt>
      <trkpt lat="42.66795" lon="0.22652">
        <ele>1382</ele>
        <time>2011-07-10T07:28:20Z</time>
      </trkpt>
      <trkpt lat="42.66794" lon="0.22659">
        <ele>1382.5</ele>
        <time>2011-07-10T07:28:24Z</time>
      </trkpt>
      <trkpt lat="42.66796" lon="0.22682">
        <ele>1384.9</ele>
        <time>2011-07-10T07:28:38Z</time>
      </trkpt>
      <trkpt lat="42.66796" lon="0.22686">
        <ele>1385.4</ele>
        <time>2011-07-10T07:28:41Z</time>
      </trkpt>
      <trkpt lat="42.66797" lon="0.22693">
        <ele>1386.8</ele>
        <time>2011-07-10T07:28:46Z</time>
      </trkpt>
      <trkpt lat="42.66796" lon="0.22702">
        <ele>1387.8</ele>
        <time>2011-07-10T07:28:51Z</time>
      </trkpt>
      <trkpt lat="42.66797" lon="0.22705">
        <ele>1387.8</ele>
        <time>2011-07-10T07:28:53Z</time>
      </trkpt>
      <trkpt lat="42.66802" lon="0.22754">
        <ele>1394</ele>
        <time>2011-07-10T07:29:24Z</time>
      </trkpt>
      <trkpt lat="42.66804" lon="0.22757">
        <ele>1394</ele>
        <time>2011-07-10T07:29:26Z</time>
      </trkpt>
      <trkpt lat="42.66805" lon="0.22764">
        <ele>1394.5</ele>
        <time>2011-07-10T07:29:30Z</time>
      </trkpt>
      <trkpt lat="42.66807" lon="0.22787">
        <ele>1396.9</ele>
        <time>2011-07-10T07:29:43Z</time>
      </trkpt>
      <trkpt lat="42.66805" lon="0.22838">
        <ele>1399.8</ele>
        <time>2011-07-10T07:30:07Z</time>
      </trkpt>
      <trkpt lat="42.66806" lon="0.2287">
        <ele>1400.3</ele>
        <time>2011-07-10T07:30:18Z</time>
      </trkpt>
      <trkpt lat="42.66805" lon="0.22874">
        <ele>1400.3</ele>
        <time>2011-07-10T07:30:29Z</time>
      </trkpt>
      <trkpt lat="42.66809" lon="0.22896">
        <ele>1400.3</ele>
        <time>2011-07-10T07:30:39Z</time>
      </trkpt>
      <trkpt lat="42.66809" lon="0.22909">
        <ele>1400.3</ele>
        <time>2011-07-10T07:30:43Z</time>
      </trkpt>
      <trkpt lat="42.66811" lon="0.22982">
        <ele>1403.7</ele>
        <time>2011-07-10T07:31:13Z</time>
      </trkpt>
      <trkpt lat="42.66816" lon="0.23019">
        <ele>1405.6</ele>
        <time>2011-07-10T07:31:29Z</time>
      </trkpt>
      <trkpt lat="42.66825" lon="0.23039">
        <ele>1406.5</ele>
        <time>2011-07-10T07:31:38Z</time>
      </trkpt>
      <trkpt lat="42.66831" lon="0.23077">
        <ele>1406.1</ele>
        <time>2011-07-10T07:31:53Z</time>
      </trkpt>
      <trkpt lat="42.66841" lon="0.23163">
        <ele>1411.4</ele>
        <time>2011-07-10T07:32:30Z</time>
      </trkpt>
      <trkpt lat="42.66848" lon="0.23196">
        <ele>1414.7</ele>
        <time>2011-07-10T07:32:47Z</time>
      </trkpt>
      <trkpt lat="42.66848" lon="0.23219">
        <ele>1416.2</ele>
        <time>2011-07-10T07:32:58Z</time>
      </trkpt>
      <trkpt lat="42.66853" lon="0.23261">
        <ele>1420.5</ele>
        <time>2011-07-10T07:33:21Z</time>
      </trkpt>
      <trkpt lat="42.6686" lon="0.23283">
        <ele>1423.4</ele>
        <time>2011-07-10T07:33:35Z</time>
      </trkpt>
      <trkpt lat="42.66863" lon="0.23299">
        <ele>1425.3</ele>
        <time>2011-07-10T07:33:45Z</time>
      </trkpt>
      <trkpt lat="42.66863" lon="0.23327">
        <ele>1428.2</ele>
        <time>2011-07-10T07:34:00Z</time>
      </trkpt>
      <trkpt lat="42.66863" lon="0.23328">
        <ele>1428.2</ele>
        <time>2011-07-10T07:34:01Z</time>
      </trkpt>
      <trkpt lat="42.66864" lon="0.23333">
        <ele>1428.7</ele>
        <time>2011-07-10T07:34:04Z</time>
      </trkpt>
      <trkpt lat="42.66864" lon="0.23336">
        <ele>1429.1</ele>
        <time>2011-07-10T07:34:06Z</time>
      </trkpt>
      <trkpt lat="42.66857" lon="0.23356">
        <ele>1431.5</ele>
        <time>2011-07-10T07:34:19Z</time>
      </trkpt>
      <trkpt lat="42.66854" lon="0.23361">
        <ele>1432</ele>
        <time>2011-07-10T07:34:22Z</time>
      </trkpt>
      <trkpt lat="42.66853" lon="0.23363">
        <ele>1432.5</ele>
        <time>2011-07-10T07:34:24Z</time>
      </trkpt>
      <trkpt lat="42.66848" lon="0.23374">
        <ele>1433.9</ele>
        <time>2011-07-10T07:34:32Z</time>
      </trkpt>
      <trkpt lat="42.66842" lon="0.23391">
        <ele>1436.3</ele>
        <time>2011-07-10T07:34:44Z</time>
      </trkpt>
      <trkpt lat="42.66837" lon="0.23402">
        <ele>1438.3</ele>
        <time>2011-07-10T07:34:53Z</time>
      </trkpt>
      <trkpt lat="42.66838" lon="0.23424">
        <ele>1440.7</ele>
        <time>2011-07-10T07:35:08Z</time>
      </trkpt>
      <trkpt lat="42.66839" lon="0.23427">
        <ele>1441.2</ele>
        <time>2011-07-10T07:35:10Z</time>
      </trkpt>
      <trkpt lat="42.66841" lon="0.23432">
        <ele>1441.6</ele>
        <time>2011-07-10T07:35:13Z</time>
      </trkpt>
      <trkpt lat="42.66841" lon="0.23435">
        <ele>1441.6</ele>
        <time>2011-07-10T07:35:15Z</time>
      </trkpt>
      <trkpt lat="42.66843" lon="0.23439">
        <ele>1442.1</ele>
        <time>2011-07-10T07:35:18Z</time>
      </trkpt>
      <trkpt lat="42.66845" lon="0.23454">
        <ele>1443.6</ele>
        <time>2011-07-10T07:35:27Z</time>
      </trkpt>
      <trkpt lat="42.66849" lon="0.23469">
        <ele>1446</ele>
        <time>2011-07-10T07:35:38Z</time>
      </trkpt>
      <trkpt lat="42.6685" lon="0.23477">
        <ele>1446.9</ele>
        <time>2011-07-10T07:35:44Z</time>
      </trkpt>
      <trkpt lat="42.66849" lon="0.23483">
        <ele>1447.9</ele>
        <time>2011-07-10T07:35:48Z</time>
      </trkpt>
      <trkpt lat="42.66853" lon="0.23505">
        <ele>1450.3</ele>
        <time>2011-07-10T07:36:04Z</time>
      </trkpt>
      <trkpt lat="42.66853" lon="0.23507">
        <ele>1450.8</ele>
        <time>2011-07-10T07:36:05Z</time>
      </trkpt>
      <trkpt lat="42.66854" lon="0.2351">
        <ele>1450.8</ele>
        <time>2011-07-10T07:36:08Z</time>
      </trkpt>
      <trkpt lat="42.66855" lon="0.23518">
        <ele>1451.7</ele>
        <time>2011-07-10T07:36:13Z</time>
      </trkpt>
      <trkpt lat="42.66867" lon="0.2354">
        <ele>1454.6</ele>
        <time>2011-07-10T07:36:30Z</time>
      </trkpt>
      <trkpt lat="42.66867" lon="0.23546">
        <ele>1455.1</ele>
        <time>2011-07-10T07:36:34Z</time>
      </trkpt>
      <trkpt lat="42.66871" lon="0.23561">
        <ele>1456.5</ele>
        <time>2011-07-10T07:36:44Z</time>
      </trkpt>
      <trkpt lat="42.66877" lon="0.23577">
        <ele>1458.9</ele>
        <time>2011-07-10T07:36:57Z</time>
      </trkpt>
      <trkpt lat="42.6689" lon="0.23625">
        <ele>1464.7</ele>
        <time>2011-07-10T07:37:29Z</time>
      </trkpt>
      <trkpt lat="42.66893" lon="0.23638">
        <ele>1466.1</ele>
        <time>2011-07-10T07:37:37Z</time>
      </trkpt>
      <trkpt lat="42.66893" lon="0.23642">
        <ele>1466.6</ele>
        <time>2011-07-10T07:37:40Z</time>
      </trkpt>
      <trkpt lat="42.66898" lon="0.23673">
        <ele>1469.5</ele>
        <time>2011-07-10T07:37:59Z</time>
      </trkpt>
      <trkpt lat="42.66914" lon="0.23713">
        <ele>1474.3</ele>
        <time>2011-07-10T07:38:27Z</time>
      </trkpt>
      <trkpt lat="42.66914" lon="0.23719">
        <ele>1474.8</ele>
        <time>2011-07-10T07:38:31Z</time>
      </trkpt>
      <trkpt lat="42.66912" lon="0.23741">
        <ele>1477.2</ele>
        <time>2011-07-10T07:38:45Z</time>
      </trkpt>
      <trkpt lat="42.66916" lon="0.23751">
        <ele>1478.6</ele>
        <time>2011-07-10T07:38:52Z</time>
      </trkpt>
      <trkpt lat="42.66919" lon="0.23766">
        <ele>1480.6</ele>
        <time>2011-07-10T07:39:03Z</time>
      </trkpt>
      <trkpt lat="42.66925" lon="0.23786">
        <ele>1483</ele>
        <time>2011-07-10T07:39:18Z</time>
      </trkpt>
      <trkpt lat="42.66929" lon="0.23807">
        <ele>1484.9</ele>
        <time>2011-07-10T07:39:31Z</time>
      </trkpt>
      <trkpt lat="42.6693" lon="0.23809">
        <ele>1485.4</ele>
        <time>2011-07-10T07:39:33Z</time>
      </trkpt>
      <trkpt lat="42.66925" lon="0.2383">
        <ele>1487.3</ele>
        <time>2011-07-10T07:39:47Z</time>
      </trkpt>
      <trkpt lat="42.66926" lon="0.23843">
        <ele>1489.2</ele>
        <time>2011-07-10T07:39:56Z</time>
      </trkpt>
      <trkpt lat="42.6692" lon="0.23863">
        <ele>1491.6</ele>
        <time>2011-07-10T07:40:11Z</time>
      </trkpt>
      <trkpt lat="42.66918" lon="0.23872">
        <ele>1492.6</ele>
        <time>2011-07-10T07:40:17Z</time>
      </trkpt>
      <trkpt lat="42.66905" lon="0.2391">
        <ele>1496.9</ele>
        <time>2011-07-10T07:40:43Z</time>
      </trkpt>
      <trkpt lat="42.66901" lon="0.23915">
        <ele>1497.9</ele>
        <time>2011-07-10T07:40:49Z</time>
      </trkpt>
      <trkpt lat="42.66897" lon="0.23929">
        <ele>1499.3</ele>
        <time>2011-07-10T07:40:59Z</time>
      </trkpt>
      <trkpt lat="42.66898" lon="0.23933">
        <ele>1500.3</ele>
        <time>2011-07-10T07:41:02Z</time>
      </trkpt>
      <trkpt lat="42.66893" lon="0.23962">
        <ele>1502.7</ele>
        <time>2011-07-10T07:41:21Z</time>
      </trkpt>
      <trkpt lat="42.66895" lon="0.23965">
        <ele>1503.2</ele>
        <time>2011-07-10T07:41:24Z</time>
      </trkpt>
      <trkpt lat="42.66899" lon="0.23968">
        <ele>1504.1</ele>
        <time>2011-07-10T07:41:28Z</time>
      </trkpt>
      <trkpt lat="42.66906" lon="0.23966">
        <ele>1505.1</ele>
        <time>2011-07-10T07:41:34Z</time>
      </trkpt>
      <trkpt lat="42.66909" lon="0.23957">
        <ele>1506</ele>
        <time>2011-07-10T07:41:40Z</time>
      </trkpt>
      <trkpt lat="42.66909" lon="0.23955">
        <ele>1506.5</ele>
        <time>2011-07-10T07:41:42Z</time>
      </trkpt>
      <trkpt lat="42.66912" lon="0.23947">
        <ele>1507.5</ele>
        <time>2011-07-10T07:41:49Z</time>
      </trkpt>
      <trkpt lat="42.66914" lon="0.23937">
        <ele>1508.9</ele>
        <time>2011-07-10T07:41:56Z</time>
      </trkpt>
      <trkpt lat="42.6692" lon="0.23918">
        <ele>1511.8</ele>
        <time>2011-07-10T07:42:12Z</time>
      </trkpt>
      <trkpt lat="42.66922" lon="0.23911">
        <ele>1512.3</ele>
        <time>2011-07-10T07:42:17Z</time>
      </trkpt>
      <trkpt lat="42.6693" lon="0.23896">
        <ele>1514.2</ele>
        <time>2011-07-10T07:42:29Z</time>
      </trkpt>
      <trkpt lat="42.66932" lon="0.23893">
        <ele>1514.7</ele>
        <time>2011-07-10T07:42:32Z</time>
      </trkpt>
      <trkpt lat="42.66948" lon="0.23865">
        <ele>1518.5</ele>
        <time>2011-07-10T07:42:55Z</time>
      </trkpt>
      <trkpt lat="42.66961" lon="0.23844">
        <ele>1521.9</ele>
        <time>2011-07-10T07:43:14Z</time>
      </trkpt>
      <trkpt lat="42.66961" lon="0.23839">
        <ele>1522.4</ele>
        <time>2011-07-10T07:43:17Z</time>
      </trkpt>
      <trkpt lat="42.66964" lon="0.23833">
        <ele>1523.3</ele>
        <time>2011-07-10T07:43:22Z</time>
      </trkpt>
      <trkpt lat="42.66965" lon="0.23825">
        <ele>1524.3</ele>
        <time>2011-07-10T07:43:27Z</time>
      </trkpt>
      <trkpt lat="42.66976" lon="0.23802">
        <ele>1527.7</ele>
        <time>2011-07-10T07:43:45Z</time>
      </trkpt>
      <trkpt lat="42.66985" lon="0.23786">
        <ele>1530.1</ele>
        <time>2011-07-10T07:43:58Z</time>
      </trkpt>
      <trkpt lat="42.66991" lon="0.23774">
        <ele>1531.5</ele>
        <time>2011-07-10T07:44:07Z</time>
      </trkpt>
      <trkpt lat="42.66996" lon="0.23733">
        <ele>1535.8</ele>
        <time>2011-07-10T07:44:34Z</time>
      </trkpt>
      <trkpt lat="42.66997" lon="0.23725">
        <ele>1536.8</ele>
        <time>2011-07-10T07:44:39Z</time>
      </trkpt>
      <trkpt lat="42.67009" lon="0.23718">
        <ele>1538.2</ele>
        <time>2011-07-10T07:44:50Z</time>
      </trkpt>
      <trkpt lat="42.67015" lon="0.23731">
        <ele>1539.7</ele>
        <time>2011-07-10T07:45:00Z</time>
      </trkpt>
      <trkpt lat="42.67013" lon="0.23742">
        <ele>1541.1</ele>
        <time>2011-07-10T07:45:09Z</time>
      </trkpt>
      <trkpt lat="42.67013" lon="0.23748">
        <ele>1542.1</ele>
        <time>2011-07-10T07:45:13Z</time>
      </trkpt>
      <trkpt lat="42.67013" lon="0.23768">
        <ele>1544</ele>
        <time>2011-07-10T07:45:26Z</time>
      </trkpt>
      <trkpt lat="42.6702" lon="0.23786">
        <ele>1546.4</ele>
        <time>2011-07-10T07:45:41Z</time>
      </trkpt>
      <trkpt lat="42.6702" lon="0.23787">
        <ele>1546.4</ele>
        <time>2011-07-10T07:45:42Z</time>
      </trkpt>
      <trkpt lat="42.67019" lon="0.23792">
        <ele>1546.9</ele>
        <time>2011-07-10T07:45:45Z</time>
      </trkpt>
      <trkpt lat="42.67013" lon="0.238">
        <ele>1547.9</ele>
        <time>2011-07-10T07:45:50Z</time>
      </trkpt>
      <trkpt lat="42.67009" lon="0.23816">
        <ele>1549.3</ele>
        <time>2011-07-10T07:45:59Z</time>
      </trkpt>
      <trkpt lat="42.67006" lon="0.23837">
        <ele>1551.7</ele>
        <time>2011-07-10T07:46:13Z</time>
      </trkpt>
      <trkpt lat="42.67005" lon="0.23839">
        <ele>1551.7</ele>
        <time>2011-07-10T07:46:14Z</time>
      </trkpt>
      <trkpt lat="42.67004" lon="0.23844">
        <ele>1552.2</ele>
        <time>2011-07-10T07:46:17Z</time>
      </trkpt>
      <trkpt lat="42.67002" lon="0.23866">
        <ele>1554.1</ele>
        <time>2011-07-10T07:46:30Z</time>
      </trkpt>
      <trkpt lat="42.67002" lon="0.23871">
        <ele>1554.6</ele>
        <time>2011-07-10T07:46:34Z</time>
      </trkpt>
      <trkpt lat="42.66998" lon="0.23886">
        <ele>1556.5</ele>
        <time>2011-07-10T07:46:44Z</time>
      </trkpt>
      <trkpt lat="42.66999" lon="0.23892">
        <ele>1557</ele>
        <time>2011-07-10T07:46:48Z</time>
      </trkpt>
      <trkpt lat="42.67004" lon="0.23897">
        <ele>1558</ele>
        <time>2011-07-10T07:46:53Z</time>
      </trkpt>
      <trkpt lat="42.67009" lon="0.23895">
        <ele>1558.4</ele>
        <time>2011-07-10T07:46:58Z</time>
      </trkpt>
      <trkpt lat="42.67014" lon="0.23882">
        <ele>1559.4</ele>
        <time>2011-07-10T07:47:07Z</time>
      </trkpt>
      <trkpt lat="42.67014" lon="0.23875">
        <ele>1559.9</ele>
        <time>2011-07-10T07:47:11Z</time>
      </trkpt>
      <trkpt lat="42.67017" lon="0.23859">
        <ele>1561.8</ele>
        <time>2011-07-10T07:47:20Z</time>
      </trkpt>
      <trkpt lat="42.67029" lon="0.23837">
        <ele>1564.2</ele>
        <time>2011-07-10T07:47:37Z</time>
      </trkpt>
      <trkpt lat="42.67037" lon="0.2384">
        <ele>1565.6</ele>
        <time>2011-07-10T07:47:43Z</time>
      </trkpt>
      <trkpt lat="42.67041" lon="0.23847">
        <ele>1566.1</ele>
        <time>2011-07-10T07:47:47Z</time>
      </trkpt>
      <trkpt lat="42.67036" lon="0.23866">
        <ele>1567.6</ele>
        <time>2011-07-10T07:47:59Z</time>
      </trkpt>
      <trkpt lat="42.67033" lon="0.23874">
        <ele>1568.5</ele>
        <time>2011-07-10T07:48:04Z</time>
      </trkpt>
      <trkpt lat="42.67033" lon="0.23881">
        <ele>1569</ele>
        <time>2011-07-10T07:48:08Z</time>
      </trkpt>
      <trkpt lat="42.67032" lon="0.2389">
        <ele>1570</ele>
        <time>2011-07-10T07:48:14Z</time>
      </trkpt>
      <trkpt lat="42.67031" lon="0.23893">
        <ele>1570.5</ele>
        <time>2011-07-10T07:48:16Z</time>
      </trkpt>
      <trkpt lat="42.6702" lon="0.23918">
        <ele>1573.3</ele>
        <time>2011-07-10T07:48:34Z</time>
      </trkpt>
      <trkpt lat="42.67014" lon="0.23941">
        <ele>1576.2</ele>
        <time>2011-07-10T07:48:51Z</time>
      </trkpt>
      <trkpt lat="42.67015" lon="0.2396">
        <ele>1578.6</ele>
        <time>2011-07-10T07:49:03Z</time>
      </trkpt>
      <trkpt lat="42.67024" lon="0.23974">
        <ele>1580.1</ele>
        <time>2011-07-10T07:49:16Z</time>
      </trkpt>
      <trkpt lat="42.67034" lon="0.23992">
        <ele>1582.9</ele>
        <time>2011-07-10T07:49:31Z</time>
      </trkpt>
      <trkpt lat="42.67036" lon="0.24004">
        <ele>1584.9</ele>
        <time>2011-07-10T07:49:39Z</time>
      </trkpt>
      <trkpt lat="42.67038" lon="0.24013">
        <ele>1585.8</ele>
        <time>2011-07-10T07:49:45Z</time>
      </trkpt>
      <trkpt lat="42.67038" lon="0.24019">
        <ele>1586.3</ele>
        <time>2011-07-10T07:49:49Z</time>
      </trkpt>
      <trkpt lat="42.67047" lon="0.24043">
        <ele>1589.2</ele>
        <time>2011-07-10T07:50:06Z</time>
      </trkpt>
      <trkpt lat="42.6705" lon="0.24047">
        <ele>1590.2</ele>
        <time>2011-07-10T07:50:09Z</time>
      </trkpt>
      <trkpt lat="42.67073" lon="0.24071">
        <ele>1593</ele>
        <time>2011-07-10T07:50:31Z</time>
      </trkpt>
      <trkpt lat="42.6708" lon="0.24086">
        <ele>1595</ele>
        <time>2011-07-10T07:50:42Z</time>
      </trkpt>
      <trkpt lat="42.67073" lon="0.24104">
        <ele>1597.8</ele>
        <time>2011-07-10T07:50:56Z</time>
      </trkpt>
      <trkpt lat="42.67068" lon="0.24128">
        <ele>1600.3</ele>
        <time>2011-07-10T07:51:11Z</time>
      </trkpt>
      <trkpt lat="42.67086" lon="0.2414">
        <ele>1600.7</ele>
        <time>2011-07-10T07:51:21Z</time>
      </trkpt>
      <trkpt lat="42.67089" lon="0.24141">
        <ele>1600.3</ele>
        <time>2011-07-10T07:51:22Z</time>
      </trkpt>
      <trkpt lat="42.67097" lon="0.24166">
        <ele>1601.2</ele>
        <time>2011-07-10T07:51:32Z</time>
      </trkpt>
      <trkpt lat="42.67101" lon="0.24195">
        <ele>1604.1</ele>
        <time>2011-07-10T07:51:45Z</time>
      </trkpt>
      <trkpt lat="42.67122" lon="0.24226">
        <ele>1607</ele>
        <time>2011-07-10T07:52:04Z</time>
      </trkpt>
      <trkpt lat="42.67149" lon="0.24254">
        <ele>1609.4</ele>
        <time>2011-07-10T07:52:22Z</time>
      </trkpt>
      <trkpt lat="42.67171" lon="0.24273">
        <ele>1609.9</ele>
        <time>2011-07-10T07:52:35Z</time>
      </trkpt>
      <trkpt lat="42.67189" lon="0.24295">
        <ele>1609.9</ele>
        <time>2011-07-10T07:52:46Z</time>
      </trkpt>
      <trkpt lat="42.67216" lon="0.24311">
        <ele>1611.3</ele>
        <time>2011-07-10T07:53:00Z</time>
      </trkpt>
      <trkpt lat="42.67234" lon="0.24328">
        <ele>1611.8</ele>
        <time>2011-07-10T07:53:13Z</time>
      </trkpt>
      <trkpt lat="42.67254" lon="0.2434">
        <ele>1612.3</ele>
        <time>2011-07-10T07:53:25Z</time>
      </trkpt>
      <trkpt lat="42.67267" lon="0.24344">
        <ele>1612.3</ele>
        <time>2011-07-10T07:53:33Z</time>
      </trkpt>
      <trkpt lat="42.67272" lon="0.24349">
        <ele>1612.3</ele>
        <time>2011-07-10T07:53:38Z</time>
      </trkpt>
      <trkpt lat="42.67298" lon="0.2435">
        <ele>1611.3</ele>
        <time>2011-07-10T07:53:47Z</time>
      </trkpt>
      <trkpt lat="42.67339" lon="0.24346">
        <ele>1612.3</ele>
        <time>2011-07-10T07:54:04Z</time>
      </trkpt>
      <trkpt lat="42.67352" lon="0.24353">
        <ele>1613.7</ele>
        <time>2011-07-10T07:54:12Z</time>
      </trkpt>
      <trkpt lat="42.67392" lon="0.24385">
        <ele>1619.5</ele>
        <time>2011-07-10T07:54:43Z</time>
      </trkpt>
      <trkpt lat="42.67416" lon="0.24402">
        <ele>1621.4</ele>
        <time>2011-07-10T07:55:00Z</time>
      </trkpt>
      <trkpt lat="42.67442" lon="0.24423">
        <ele>1624.3</ele>
        <time>2011-07-10T07:55:21Z</time>
      </trkpt>
      <trkpt lat="42.67451" lon="0.24434">
        <ele>1626.7</ele>
        <time>2011-07-10T07:55:31Z</time>
      </trkpt>
      <trkpt lat="42.6746" lon="0.24455">
        <ele>1630.1</ele>
        <time>2011-07-10T07:55:48Z</time>
      </trkpt>
      <trkpt lat="42.67475" lon="0.24474">
        <ele>1632.9</ele>
        <time>2011-07-10T07:56:03Z</time>
      </trkpt>
      <trkpt lat="42.67507" lon="0.24509">
        <ele>1635.8</ele>
        <time>2011-07-10T07:56:30Z</time>
      </trkpt>
      <trkpt lat="42.67504" lon="0.24531">
        <ele>1635.8</ele>
        <time>2011-07-10T07:56:39Z</time>
      </trkpt>
      <trkpt lat="42.67506" lon="0.24563">
        <ele>1638.7</ele>
        <time>2011-07-10T07:56:56Z</time>
      </trkpt>
      <trkpt lat="42.67509" lon="0.24589">
        <ele>1642.1</ele>
        <time>2011-07-10T07:57:11Z</time>
      </trkpt>
      <trkpt lat="42.67521" lon="0.24606">
        <ele>1645</ele>
        <time>2011-07-10T07:57:26Z</time>
      </trkpt>
      <trkpt lat="42.6754" lon="0.24605">
        <ele>1648.3</ele>
        <time>2011-07-10T07:57:43Z</time>
      </trkpt>
      <trkpt lat="42.67549" lon="0.24603">
        <ele>1649.8</ele>
        <time>2011-07-10T07:57:50Z</time>
      </trkpt>
      <trkpt lat="42.67567" lon="0.24601">
        <ele>1651.7</ele>
        <time>2011-07-10T07:58:04Z</time>
      </trkpt>
      <trkpt lat="42.67582" lon="0.24609">
        <ele>1653.6</ele>
        <time>2011-07-10T07:58:16Z</time>
      </trkpt>
      <trkpt lat="42.67613" lon="0.24647">
        <ele>1659.9</ele>
        <time>2011-07-10T07:58:47Z</time>
      </trkpt>
      <trkpt lat="42.67625" lon="0.24666">
        <ele>1662.7</ele>
        <time>2011-07-10T07:59:04Z</time>
      </trkpt>
      <trkpt lat="42.67627" lon="0.24671">
        <ele>1663.2</ele>
        <time>2011-07-10T07:59:07Z</time>
      </trkpt>
      <trkpt lat="42.67633" lon="0.24677">
        <ele>1664.7</ele>
        <time>2011-07-10T07:59:15Z</time>
      </trkpt>
      <trkpt lat="42.67636" lon="0.24683">
        <ele>1665.1</ele>
        <time>2011-07-10T07:59:20Z</time>
      </trkpt>
      <trkpt lat="42.6764" lon="0.24693">
        <ele>1666.1</ele>
        <time>2011-07-10T07:59:27Z</time>
      </trkpt>
      <trkpt lat="42.67662" lon="0.2474">
        <ele>1671.9</ele>
        <time>2011-07-10T08:00:00Z</time>
      </trkpt>
      <trkpt lat="42.6767" lon="0.24758">
        <ele>1673.3</ele>
        <time>2011-07-10T08:00:11Z</time>
      </trkpt>
      <trkpt lat="42.67678" lon="0.24783">
        <ele>1674.8</ele>
        <time>2011-07-10T08:00:23Z</time>
      </trkpt>
      <trkpt lat="42.67683" lon="0.24786">
        <ele>1674.3</ele>
        <time>2011-07-10T08:00:36Z</time>
      </trkpt>
      <trkpt lat="42.67682" lon="0.24786">
        <ele>1677.2</ele>
        <time>2011-07-10T08:04:11Z</time>
      </trkpt>
      <trkpt lat="42.67684" lon="0.24809">
        <ele>1679.1</ele>
        <time>2011-07-10T08:04:26Z</time>
      </trkpt>
      <trkpt lat="42.67684" lon="0.24809">
        <ele>1679.1</ele>
        <time>2011-07-10T08:04:39Z</time>
      </trkpt>
      <trkpt lat="42.67688" lon="0.2482">
        <ele>1680</ele>
        <time>2011-07-10T08:04:48Z</time>
      </trkpt>
      <trkpt lat="42.67689" lon="0.24826">
        <ele>1680</ele>
        <time>2011-07-10T08:04:51Z</time>
      </trkpt>
      <trkpt lat="42.67702" lon="0.2486">
        <ele>1682.4</ele>
        <time>2011-07-10T08:05:09Z</time>
      </trkpt>
      <trkpt lat="42.67714" lon="0.24884">
        <ele>1683.9</ele>
        <time>2011-07-10T08:05:23Z</time>
      </trkpt>
      <trkpt lat="42.6772" lon="0.24888">
        <ele>1684.8</ele>
        <time>2011-07-10T08:05:27Z</time>
      </trkpt>
      <trkpt lat="42.67735" lon="0.24909">
        <ele>1687.3</ele>
        <time>2011-07-10T08:05:43Z</time>
      </trkpt>
      <trkpt lat="42.67735" lon="0.24917">
        <ele>1687.7</ele>
        <time>2011-07-10T08:05:47Z</time>
      </trkpt>
      <trkpt lat="42.67741" lon="0.24944">
        <ele>1690.1</ele>
        <time>2011-07-10T08:06:02Z</time>
      </trkpt>
      <trkpt lat="42.67745" lon="0.24957">
        <ele>1691.1</ele>
        <time>2011-07-10T08:06:09Z</time>
      </trkpt>
      <trkpt lat="42.67759" lon="0.24993">
        <ele>1694.5</ele>
        <time>2011-07-10T08:06:29Z</time>
      </trkpt>
      <trkpt lat="42.67761" lon="0.25067">
        <ele>1698.8</ele>
        <time>2011-07-10T08:07:03Z</time>
      </trkpt>
      <trkpt lat="42.67762" lon="0.2508">
        <ele>1699.7</ele>
        <time>2011-07-10T08:07:09Z</time>
      </trkpt>
      <trkpt lat="42.67776" lon="0.25134">
        <ele>1705.5</ele>
        <time>2011-07-10T08:07:42Z</time>
      </trkpt>
      <trkpt lat="42.67781" lon="0.25147">
        <ele>1706.5</ele>
        <time>2011-07-10T08:07:50Z</time>
      </trkpt>
      <trkpt lat="42.67783" lon="0.25153">
        <ele>1707.4</ele>
        <time>2011-07-10T08:07:54Z</time>
      </trkpt>
      <trkpt lat="42.67803" lon="0.25195">
        <ele>1711.3</ele>
        <time>2011-07-10T08:08:22Z</time>
      </trkpt>
      <trkpt lat="42.6782" lon="0.25243">
        <ele>1716.6</ele>
        <time>2011-07-10T08:08:53Z</time>
      </trkpt>
      <trkpt lat="42.67828" lon="0.25258">
        <ele>1718</ele>
        <time>2011-07-10T08:09:04Z</time>
      </trkpt>
      <trkpt lat="42.6783" lon="0.25262">
        <ele>1718.5</ele>
        <time>2011-07-10T08:09:06Z</time>
      </trkpt>
      <trkpt lat="42.67838" lon="0.25288">
        <ele>1720.4</ele>
        <time>2011-07-10T08:09:21Z</time>
      </trkpt>
      <trkpt lat="42.67842" lon="0.25321">
        <ele>1723.3</ele>
        <time>2011-07-10T08:09:39Z</time>
      </trkpt>
      <trkpt lat="42.67844" lon="0.25344">
        <ele>1725.7</ele>
        <time>2011-07-10T08:09:53Z</time>
      </trkpt>
      <trkpt lat="42.67846" lon="0.25358">
        <ele>1726.7</ele>
        <time>2011-07-10T08:10:00Z</time>
      </trkpt>
      <trkpt lat="42.67849" lon="0.25382">
        <ele>1729.1</ele>
        <time>2011-07-10T08:10:14Z</time>
      </trkpt>
      <trkpt lat="42.67844" lon="0.2542">
        <ele>1731.5</ele>
        <time>2011-07-10T08:10:32Z</time>
      </trkpt>
      <trkpt lat="42.67839" lon="0.25489">
        <ele>1735.3</ele>
        <time>2011-07-10T08:11:00Z</time>
      </trkpt>
      <trkpt lat="42.67832" lon="0.25514">
        <ele>1737.2</ele>
        <time>2011-07-10T08:11:12Z</time>
      </trkpt>
      <trkpt lat="42.6783" lon="0.2555">
        <ele>1739.6</ele>
        <time>2011-07-10T08:11:29Z</time>
      </trkpt>
      <trkpt lat="42.67827" lon="0.25577">
        <ele>1742.5</ele>
        <time>2011-07-10T08:11:43Z</time>
      </trkpt>
      <trkpt lat="42.67825" lon="0.25607">
        <ele>1745.9</ele>
        <time>2011-07-10T08:12:00Z</time>
      </trkpt>
      <trkpt lat="42.67832" lon="0.2563">
        <ele>1748.8</ele>
        <time>2011-07-10T08:12:14Z</time>
      </trkpt>
      <trkpt lat="42.67837" lon="0.2567">
        <ele>1753.6</ele>
        <time>2011-07-10T08:12:39Z</time>
      </trkpt>
      <trkpt lat="42.67836" lon="0.25677">
        <ele>1754.1</ele>
        <time>2011-07-10T08:12:44Z</time>
      </trkpt>
      <trkpt lat="42.67839" lon="0.25687">
        <ele>1755.5</ele>
        <time>2011-07-10T08:12:52Z</time>
      </trkpt>
      <trkpt lat="42.67844" lon="0.25693">
        <ele>1756.5</ele>
        <time>2011-07-10T08:12:57Z</time>
      </trkpt>
      <trkpt lat="42.67846" lon="0.25702">
        <ele>1756.9</ele>
        <time>2011-07-10T08:13:02Z</time>
      </trkpt>
      <trkpt lat="42.67849" lon="0.25706">
        <ele>1757.9</ele>
        <time>2011-07-10T08:13:06Z</time>
      </trkpt>
      <trkpt lat="42.67851" lon="0.25713">
        <ele>1758.9</ele>
        <time>2011-07-10T08:13:11Z</time>
      </trkpt>
      <trkpt lat="42.67852" lon="0.2572">
        <ele>1759.4</ele>
        <time>2011-07-10T08:13:16Z</time>
      </trkpt>
      <trkpt lat="42.6785" lon="0.25724">
        <ele>1759.8</ele>
        <time>2011-07-10T08:13:19Z</time>
      </trkpt>
      <trkpt lat="42.67852" lon="0.2573">
        <ele>1760.3</ele>
        <time>2011-07-10T08:13:23Z</time>
      </trkpt>
      <trkpt lat="42.67851" lon="0.2576">
        <ele>1763.2</ele>
        <time>2011-07-10T08:13:42Z</time>
      </trkpt>
      <trkpt lat="42.67849" lon="0.25781">
        <ele>1766.1</ele>
        <time>2011-07-10T08:13:56Z</time>
      </trkpt>
      <trkpt lat="42.67857" lon="0.25819">
        <ele>1769.4</ele>
        <time>2011-07-10T08:14:19Z</time>
      </trkpt>
      <trkpt lat="42.67859" lon="0.25843">
        <ele>1771.8</ele>
        <time>2011-07-10T08:14:35Z</time>
      </trkpt>
      <trkpt lat="42.67859" lon="0.25866">
        <ele>1773.8</ele>
        <time>2011-07-10T08:14:48Z</time>
      </trkpt>
      <trkpt lat="42.67853" lon="0.25897">
        <ele>1776.2</ele>
        <time>2011-07-10T08:15:04Z</time>
      </trkpt>
      <trkpt lat="42.67858" lon="0.25931">
        <ele>1778.6</ele>
        <time>2011-07-10T08:15:21Z</time>
      </trkpt>
      <trkpt lat="42.6786" lon="0.25941">
        <ele>1779.1</ele>
        <time>2011-07-10T08:15:26Z</time>
      </trkpt>
      <trkpt lat="42.67857" lon="0.25968">
        <ele>1781</ele>
        <time>2011-07-10T08:15:40Z</time>
      </trkpt>
      <trkpt lat="42.67844" lon="0.26033">
        <ele>1786.7</ele>
        <time>2011-07-10T08:16:16Z</time>
      </trkpt>
      <trkpt lat="42.67844" lon="0.26058">
        <ele>1789.2</ele>
        <time>2011-07-10T08:16:32Z</time>
      </trkpt>
      <trkpt lat="42.67844" lon="0.26062">
        <ele>1789.6</ele>
        <time>2011-07-10T08:16:35Z</time>
      </trkpt>
      <trkpt lat="42.67845" lon="0.26065">
        <ele>1790.1</ele>
        <time>2011-07-10T08:16:37Z</time>
      </trkpt>
      <trkpt lat="42.67848" lon="0.26082">
        <ele>1792</ele>
        <time>2011-07-10T08:16:50Z</time>
      </trkpt>
      <trkpt lat="42.67849" lon="0.26096">
        <ele>1793</ele>
        <time>2011-07-10T08:16:58Z</time>
      </trkpt>
      <trkpt lat="42.67854" lon="0.26116">
        <ele>1794.4</ele>
        <time>2011-07-10T08:17:08Z</time>
      </trkpt>
      <trkpt lat="42.67848" lon="0.26141">
        <ele>1798.3</ele>
        <time>2011-07-10T08:17:26Z</time>
      </trkpt>
      <trkpt lat="42.67844" lon="0.26148">
        <ele>1799.2</ele>
        <time>2011-07-10T08:17:33Z</time>
      </trkpt>
      <trkpt lat="42.67842" lon="0.26151">
        <ele>1799.7</ele>
        <time>2011-07-10T08:17:36Z</time>
      </trkpt>
      <trkpt lat="42.67837" lon="0.26157">
        <ele>1801.2</ele>
        <time>2011-07-10T08:17:43Z</time>
      </trkpt>
      <trkpt lat="42.67831" lon="0.2617">
        <ele>1803.1</ele>
        <time>2011-07-10T08:17:53Z</time>
      </trkpt>
      <trkpt lat="42.67828" lon="0.26179">
        <ele>1804.1</ele>
        <time>2011-07-10T08:17:59Z</time>
      </trkpt>
      <trkpt lat="42.67826" lon="0.26189">
        <ele>1805</ele>
        <time>2011-07-10T08:18:05Z</time>
      </trkpt>
      <trkpt lat="42.67818" lon="0.262">
        <ele>1806.9</ele>
        <time>2011-07-10T08:18:17Z</time>
      </trkpt>
      <trkpt lat="42.67817" lon="0.26203">
        <ele>1807.4</ele>
        <time>2011-07-10T08:18:19Z</time>
      </trkpt>
      <trkpt lat="42.67811" lon="0.26212">
        <ele>1808.4</ele>
        <time>2011-07-10T08:18:28Z</time>
      </trkpt>
      <trkpt lat="42.67809" lon="0.26218">
        <ele>1809.3</ele>
        <time>2011-07-10T08:18:33Z</time>
      </trkpt>
      <trkpt lat="42.67805" lon="0.26229">
        <ele>1810.8</ele>
        <time>2011-07-10T08:18:41Z</time>
      </trkpt>
      <trkpt lat="42.67802" lon="0.26241">
        <ele>1812.2</ele>
        <time>2011-07-10T08:18:49Z</time>
      </trkpt>
      <trkpt lat="42.67809" lon="0.26253">
        <ele>1813.7</ele>
        <time>2011-07-10T08:18:58Z</time>
      </trkpt>
      <trkpt lat="42.67819" lon="0.26253">
        <ele>1814.1</ele>
        <time>2011-07-10T08:19:05Z</time>
      </trkpt>
      <trkpt lat="42.6784" lon="0.26239">
        <ele>1817</ele>
        <time>2011-07-10T08:19:22Z</time>
      </trkpt>
      <trkpt lat="42.67852" lon="0.26229">
        <ele>1819</ele>
        <time>2011-07-10T08:19:33Z</time>
      </trkpt>
      <trkpt lat="42.67858" lon="0.26219">
        <ele>1819.9</ele>
        <time>2011-07-10T08:19:39Z</time>
      </trkpt>
      <trkpt lat="42.67859" lon="0.26213">
        <ele>1820.9</ele>
        <time>2011-07-10T08:19:42Z</time>
      </trkpt>
      <trkpt lat="42.67861" lon="0.26209">
        <ele>1820.9</ele>
        <time>2011-07-10T08:19:45Z</time>
      </trkpt>
      <trkpt lat="42.6787" lon="0.26208">
        <ele>1822.3</ele>
        <time>2011-07-10T08:19:51Z</time>
      </trkpt>
      <trkpt lat="42.67873" lon="0.2621">
        <ele>1822.8</ele>
        <time>2011-07-10T08:19:54Z</time>
      </trkpt>
      <trkpt lat="42.67876" lon="0.26215">
        <ele>1823.3</ele>
        <time>2011-07-10T08:19:58Z</time>
      </trkpt>
      <trkpt lat="42.67876" lon="0.26227">
        <ele>1824.2</ele>
        <time>2011-07-10T08:20:06Z</time>
      </trkpt>
      <trkpt lat="42.67872" lon="0.26232">
        <ele>1825.2</ele>
        <time>2011-07-10T08:20:10Z</time>
      </trkpt>
      <trkpt lat="42.6787" lon="0.26249">
        <ele>1827.1</ele>
        <time>2011-07-10T08:20:23Z</time>
      </trkpt>
      <trkpt lat="42.67864" lon="0.26262">
        <ele>1829.5</ele>
        <time>2011-07-10T08:20:34Z</time>
      </trkpt>
      <trkpt lat="42.67863" lon="0.26271">
        <ele>1830</ele>
        <time>2011-07-10T08:20:40Z</time>
      </trkpt>
      <trkpt lat="42.67858" lon="0.2628">
        <ele>1831.9</ele>
        <time>2011-07-10T08:20:48Z</time>
      </trkpt>
      <trkpt lat="42.6785" lon="0.26305">
        <ele>1834.3</ele>
        <time>2011-07-10T08:21:04Z</time>
      </trkpt>
      <trkpt lat="42.67839" lon="0.26329">
        <ele>1837.2</ele>
        <time>2011-07-10T08:21:22Z</time>
      </trkpt>
      <trkpt lat="42.67836" lon="0.26331">
        <ele>1837.7</ele>
        <time>2011-07-10T08:21:25Z</time>
      </trkpt>
      <trkpt lat="42.67832" lon="0.26338">
        <ele>1838.7</ele>
        <time>2011-07-10T08:21:32Z</time>
      </trkpt>
      <trkpt lat="42.67828" lon="0.26342">
        <ele>1839.6</ele>
        <time>2011-07-10T08:21:37Z</time>
      </trkpt>
      <trkpt lat="42.67826" lon="0.26347">
        <ele>1840.1</ele>
        <time>2011-07-10T08:21:41Z</time>
      </trkpt>
      <trkpt lat="42.67823" lon="0.26349">
        <ele>1840.6</ele>
        <time>2011-07-10T08:21:44Z</time>
      </trkpt>
      <trkpt lat="42.67819" lon="0.26366">
        <ele>1842</ele>
        <time>2011-07-10T08:21:54Z</time>
      </trkpt>
      <trkpt lat="42.67823" lon="0.26397">
        <ele>1845.4</ele>
        <time>2011-07-10T08:22:14Z</time>
      </trkpt>
      <trkpt lat="42.67835" lon="0.26421">
        <ele>1848.3</ele>
        <time>2011-07-10T08:22:32Z</time>
      </trkpt>
      <trkpt lat="42.67851" lon="0.26439">
        <ele>1851.2</ele>
        <time>2011-07-10T08:22:49Z</time>
      </trkpt>
      <trkpt lat="42.67861" lon="0.26462">
        <ele>1854</ele>
        <time>2011-07-10T08:23:07Z</time>
      </trkpt>
      <trkpt lat="42.6787" lon="0.26479">
        <ele>1856.4</ele>
        <time>2011-07-10T08:23:21Z</time>
      </trkpt>
      <trkpt lat="42.67884" lon="0.26496">
        <ele>1859.3</ele>
        <time>2011-07-10T08:23:39Z</time>
      </trkpt>
      <trkpt lat="42.67887" lon="0.26501">
        <ele>1859.3</ele>
        <time>2011-07-10T08:23:43Z</time>
      </trkpt>
      <trkpt lat="42.67886" lon="0.26507">
        <ele>1859.8</ele>
        <time>2011-07-10T08:23:49Z</time>
      </trkpt>
      <trkpt lat="42.67881" lon="0.26518">
        <ele>1861.2</ele>
        <time>2011-07-10T08:23:59Z</time>
      </trkpt>
      <trkpt lat="42.67881" lon="0.26521">
        <ele>1861.7</ele>
        <time>2011-07-10T08:24:01Z</time>
      </trkpt>
      <trkpt lat="42.67878" lon="0.26532">
        <ele>1862.7</ele>
        <time>2011-07-10T08:24:10Z</time>
      </trkpt>
      <trkpt lat="42.67875" lon="0.26561">
        <ele>1864.6</ele>
        <time>2011-07-10T08:24:28Z</time>
      </trkpt>
      <trkpt lat="42.67871" lon="0.26586">
        <ele>1866.1</ele>
        <time>2011-07-10T08:24:42Z</time>
      </trkpt>
      <trkpt lat="42.67865" lon="0.26606">
        <ele>1867.5</ele>
        <time>2011-07-10T08:24:55Z</time>
      </trkpt>
      <trkpt lat="42.67863" lon="0.26608">
        <ele>1868</ele>
        <time>2011-07-10T08:24:57Z</time>
      </trkpt>
      <trkpt lat="42.67859" lon="0.2661">
        <ele>1868.5</ele>
        <time>2011-07-10T08:25:00Z</time>
      </trkpt>
      <trkpt lat="42.67844" lon="0.26627">
        <ele>1870.9</ele>
        <time>2011-07-10T08:25:18Z</time>
      </trkpt>
      <trkpt lat="42.6783" lon="0.26645">
        <ele>1874.2</ele>
        <time>2011-07-10T08:25:33Z</time>
      </trkpt>
      <trkpt lat="42.67829" lon="0.26648">
        <ele>1874.2</ele>
        <time>2011-07-10T08:25:35Z</time>
      </trkpt>
      <trkpt lat="42.67816" lon="0.2667">
        <ele>1877.6</ele>
        <time>2011-07-10T08:25:53Z</time>
      </trkpt>
      <trkpt lat="42.67807" lon="0.26694">
        <ele>1880.5</ele>
        <time>2011-07-10T08:26:10Z</time>
      </trkpt>
      <trkpt lat="42.67798" lon="0.26707">
        <ele>1882.9</ele>
        <time>2011-07-10T08:26:23Z</time>
      </trkpt>
      <trkpt lat="42.67784" lon="0.2672">
        <ele>1885.8</ele>
        <time>2011-07-10T08:26:39Z</time>
      </trkpt>
      <trkpt lat="42.67773" lon="0.26742">
        <ele>1888.2</ele>
        <time>2011-07-10T08:26:54Z</time>
      </trkpt>
      <trkpt lat="42.67773" lon="0.26744">
        <ele>1888.6</ele>
        <time>2011-07-10T08:26:55Z</time>
      </trkpt>
      <trkpt lat="42.67773" lon="0.26756">
        <ele>1890.1</ele>
        <time>2011-07-10T08:27:03Z</time>
      </trkpt>
      <trkpt lat="42.67761" lon="0.26773">
        <ele>1892.5</ele>
        <time>2011-07-10T08:27:18Z</time>
      </trkpt>
      <trkpt lat="42.6776" lon="0.26776">
        <ele>1892.5</ele>
        <time>2011-07-10T08:27:20Z</time>
      </trkpt>
      <trkpt lat="42.67762" lon="0.2678">
        <ele>1893</ele>
        <time>2011-07-10T08:27:32Z</time>
      </trkpt>
      <trkpt lat="42.67768" lon="0.26785">
        <ele>1894.4</ele>
        <time>2011-07-10T08:28:40Z</time>
      </trkpt>
      <trkpt lat="42.67771" lon="0.26786">
        <ele>1893.9</ele>
        <time>2011-07-10T08:28:43Z</time>
      </trkpt>
      <trkpt lat="42.67785" lon="0.26773">
        <ele>1895.9</ele>
        <time>2011-07-10T08:28:58Z</time>
      </trkpt>
      <trkpt lat="42.67807" lon="0.26742">
        <ele>1898.7</ele>
        <time>2011-07-10T08:29:21Z</time>
      </trkpt>
      <trkpt lat="42.67815" lon="0.26738">
        <ele>1899.2</ele>
        <time>2011-07-10T08:29:30Z</time>
      </trkpt>
      <trkpt lat="42.67836" lon="0.26724">
        <ele>1902.6</ele>
        <time>2011-07-10T08:29:48Z</time>
      </trkpt>
      <trkpt lat="42.67849" lon="0.26708">
        <ele>1905</ele>
        <time>2011-07-10T08:30:03Z</time>
      </trkpt>
      <trkpt lat="42.67865" lon="0.26696">
        <ele>1906.9</ele>
        <time>2011-07-10T08:30:20Z</time>
      </trkpt>
      <trkpt lat="42.67867" lon="0.26694">
        <ele>1907.9</ele>
        <time>2011-07-10T08:30:22Z</time>
      </trkpt>
      <trkpt lat="42.67874" lon="0.26692">
        <ele>1908.8</ele>
        <time>2011-07-10T08:30:28Z</time>
      </trkpt>
      <trkpt lat="42.67878" lon="0.26688">
        <ele>1909.3</ele>
        <time>2011-07-10T08:30:33Z</time>
      </trkpt>
      <trkpt lat="42.67881" lon="0.26688">
        <ele>1909.8</ele>
        <time>2011-07-10T08:30:36Z</time>
      </trkpt>
      <trkpt lat="42.67885" lon="0.26683">
        <ele>1910.8</ele>
        <time>2011-07-10T08:30:42Z</time>
      </trkpt>
      <trkpt lat="42.67894" lon="0.26677">
        <ele>1911.7</ele>
        <time>2011-07-10T08:30:51Z</time>
      </trkpt>
      <trkpt lat="42.67901" lon="0.26672">
        <ele>1913.6</ele>
        <time>2011-07-10T08:30:58Z</time>
      </trkpt>
      <trkpt lat="42.67905" lon="0.26671">
        <ele>1913.6</ele>
        <time>2011-07-10T08:31:01Z</time>
      </trkpt>
      <trkpt lat="42.67919" lon="0.26658">
        <ele>1917</ele>
        <time>2011-07-10T08:31:18Z</time>
      </trkpt>
      <trkpt lat="42.67933" lon="0.26639">
        <ele>1919.4</ele>
        <time>2011-07-10T08:31:34Z</time>
      </trkpt>
      <trkpt lat="42.67943" lon="0.26623">
        <ele>1921.8</ele>
        <time>2011-07-10T08:31:49Z</time>
      </trkpt>
      <trkpt lat="42.67952" lon="0.26606">
        <ele>1924.7</ele>
        <time>2011-07-10T08:32:02Z</time>
      </trkpt>
      <trkpt lat="42.67958" lon="0.26601">
        <ele>1925.2</ele>
        <time>2011-07-10T08:32:09Z</time>
      </trkpt>
      <trkpt lat="42.67962" lon="0.26607">
        <ele>1925.7</ele>
        <time>2011-07-10T08:32:13Z</time>
      </trkpt>
      <trkpt lat="42.67961" lon="0.26616">
        <ele>1927.1</ele>
        <time>2011-07-10T08:32:18Z</time>
      </trkpt>
      <trkpt lat="42.67959" lon="0.26623">
        <ele>1928.1</ele>
        <time>2011-07-10T08:32:23Z</time>
      </trkpt>
      <trkpt lat="42.67955" lon="0.26629">
        <ele>1929</ele>
        <time>2011-07-10T08:32:29Z</time>
      </trkpt>
      <trkpt lat="42.67946" lon="0.26649">
        <ele>1931.4</ele>
        <time>2011-07-10T08:32:44Z</time>
      </trkpt>
      <trkpt lat="42.67928" lon="0.26676">
        <ele>1935.3</ele>
        <time>2011-07-10T08:33:08Z</time>
      </trkpt>
      <trkpt lat="42.67904" lon="0.26726">
        <ele>1941</ele>
        <time>2011-07-10T08:33:44Z</time>
      </trkpt>
      <trkpt lat="42.67888" lon="0.26751">
        <ele>1943.9</ele>
        <time>2011-07-10T08:34:03Z</time>
      </trkpt>
      <trkpt lat="42.67879" lon="0.26772">
        <ele>1946.3</ele>
        <time>2011-07-10T08:34:18Z</time>
      </trkpt>
      <trkpt lat="42.67873" lon="0.26785">
        <ele>1947.8</ele>
        <time>2011-07-10T08:34:29Z</time>
      </trkpt>
      <trkpt lat="42.67871" lon="0.26788">
        <ele>1949.2</ele>
        <time>2011-07-10T08:34:33Z</time>
      </trkpt>
      <trkpt lat="42.6787" lon="0.26792">
        <ele>1949.2</ele>
        <time>2011-07-10T08:34:36Z</time>
      </trkpt>
      <trkpt lat="42.67864" lon="0.26807">
        <ele>1951.1</ele>
        <time>2011-07-10T08:34:47Z</time>
      </trkpt>
      <trkpt lat="42.6786" lon="0.26814">
        <ele>1952.1</ele>
        <time>2011-07-10T08:34:53Z</time>
      </trkpt>
      <trkpt lat="42.67847" lon="0.2683">
        <ele>1954.5</ele>
        <time>2011-07-10T08:35:09Z</time>
      </trkpt>
      <trkpt lat="42.67833" lon="0.2684">
        <ele>1956.9</ele>
        <time>2011-07-10T08:35:23Z</time>
      </trkpt>
      <trkpt lat="42.67829" lon="0.2685">
        <ele>1958.8</ele>
        <time>2011-07-10T08:35:29Z</time>
      </trkpt>
      <trkpt lat="42.67829" lon="0.26853">
        <ele>1959.3</ele>
        <time>2011-07-10T08:35:31Z</time>
      </trkpt>
      <trkpt lat="42.67823" lon="0.26874">
        <ele>1961.2</ele>
        <time>2011-07-10T08:35:42Z</time>
      </trkpt>
      <trkpt lat="42.67823" lon="0.2688">
        <ele>1961.7</ele>
        <time>2011-07-10T08:35:44Z</time>
      </trkpt>
      <trkpt lat="42.67813" lon="0.26914">
        <ele>1961.2</ele>
        <time>2011-07-10T08:35:56Z</time>
      </trkpt>
      <trkpt lat="42.67799" lon="0.26947">
        <ele>1961.2</ele>
        <time>2011-07-10T08:36:06Z</time>
      </trkpt>
      <trkpt lat="42.67779" lon="0.27018">
        <ele>1961.7</ele>
        <time>2011-07-10T08:36:27Z</time>
      </trkpt>
      <trkpt lat="42.6778" lon="0.27058">
        <ele>1961.2</ele>
        <time>2011-07-10T08:36:38Z</time>
      </trkpt>
      <trkpt lat="42.67765" lon="0.27152">
        <ele>1963.1</ele>
        <time>2011-07-10T08:37:05Z</time>
      </trkpt>
      <trkpt lat="42.67766" lon="0.27153">
        <ele>1962.7</ele>
        <time>2011-07-10T08:37:16Z</time>
      </trkpt>
      <trkpt lat="42.67768" lon="0.27153">
        <ele>1965.6</ele>
        <time>2011-07-10T08:49:38Z</time>
      </trkpt>
      <trkpt lat="42.67769" lon="0.27153">
        <ele>1968.9</ele>
        <time>2011-07-10T09:07:41Z</time>
      </trkpt>
      <trkpt lat="42.67772" lon="0.27202">
        <ele>1970.8</ele>
        <time>2011-07-10T09:08:10Z</time>
      </trkpt>
      <trkpt lat="42.67771" lon="0.27233">
        <ele>1974.2</ele>
        <time>2011-07-10T09:08:28Z</time>
      </trkpt>
      <trkpt lat="42.67768" lon="0.27242">
        <ele>1975.6</ele>
        <time>2011-07-10T09:08:34Z</time>
      </trkpt>
      <trkpt lat="42.67756" lon="0.27273">
        <ele>1979.5</ele>
        <time>2011-07-10T09:08:58Z</time>
      </trkpt>
      <trkpt lat="42.67755" lon="0.27276">
        <ele>1980</ele>
        <time>2011-07-10T09:09:00Z</time>
      </trkpt>
      <trkpt lat="42.67752" lon="0.27282">
        <ele>1980.5</ele>
        <time>2011-07-10T09:09:04Z</time>
      </trkpt>
      <trkpt lat="42.67743" lon="0.2731">
        <ele>1983.3</ele>
        <time>2011-07-10T09:09:22Z</time>
      </trkpt>
      <trkpt lat="42.67736" lon="0.27342">
        <ele>1986.2</ele>
        <time>2011-07-10T09:09:40Z</time>
      </trkpt>
      <trkpt lat="42.6774" lon="0.27373">
        <ele>1988.1</ele>
        <time>2011-07-10T09:09:56Z</time>
      </trkpt>
      <trkpt lat="42.67748" lon="0.27402">
        <ele>1991</ele>
        <time>2011-07-10T09:10:16Z</time>
      </trkpt>
      <trkpt lat="42.67751" lon="0.27421">
        <ele>1993</ele>
        <time>2011-07-10T09:10:27Z</time>
      </trkpt>
      <trkpt lat="42.67751" lon="0.27443">
        <ele>1996.3</ele>
        <time>2011-07-10T09:10:41Z</time>
      </trkpt>
      <trkpt lat="42.67743" lon="0.27468">
        <ele>1998.7</ele>
        <time>2011-07-10T09:10:58Z</time>
      </trkpt>
      <trkpt lat="42.67736" lon="0.27471">
        <ele>2000.6</ele>
        <time>2011-07-10T09:11:10Z</time>
      </trkpt>
      <trkpt lat="42.67736" lon="0.27471">
        <ele>2000.6</ele>
        <time>2011-07-10T09:11:26Z</time>
      </trkpt>
      <trkpt lat="42.67733" lon="0.27474">
        <ele>2001.1</ele>
        <time>2011-07-10T09:11:29Z</time>
      </trkpt>
      <trkpt lat="42.67728" lon="0.27474">
        <ele>2002.1</ele>
        <time>2011-07-10T09:11:34Z</time>
      </trkpt>
      <trkpt lat="42.67716" lon="0.27483">
        <ele>2004</ele>
        <time>2011-07-10T09:11:44Z</time>
      </trkpt>
      <trkpt lat="42.67715" lon="0.27505">
        <ele>2006.4</ele>
        <time>2011-07-10T09:11:57Z</time>
      </trkpt>
      <trkpt lat="42.67716" lon="0.2751">
        <ele>2007.4</ele>
        <time>2011-07-10T09:12:01Z</time>
      </trkpt>
      <trkpt lat="42.67717" lon="0.27521">
        <ele>2008.8</ele>
        <time>2011-07-10T09:12:08Z</time>
      </trkpt>
      <trkpt lat="42.67724" lon="0.27555">
        <ele>2011.7</ele>
        <time>2011-07-10T09:12:30Z</time>
      </trkpt>
      <trkpt lat="42.67726" lon="0.27574">
        <ele>2014.1</ele>
        <time>2011-07-10T09:12:42Z</time>
      </trkpt>
      <trkpt lat="42.67726" lon="0.27575">
        <ele>2014.1</ele>
        <time>2011-07-10T09:12:43Z</time>
      </trkpt>
      <trkpt lat="42.67726" lon="0.27579">
        <ele>2014.6</ele>
        <time>2011-07-10T09:12:45Z</time>
      </trkpt>
      <trkpt lat="42.67721" lon="0.27598">
        <ele>2017</ele>
        <time>2011-07-10T09:12:57Z</time>
      </trkpt>
      <trkpt lat="42.67719" lon="0.27601">
        <ele>2017.5</ele>
        <time>2011-07-10T09:13:00Z</time>
      </trkpt>
      <trkpt lat="42.67714" lon="0.27616">
        <ele>2019.4</ele>
        <time>2011-07-10T09:13:10Z</time>
      </trkpt>
      <trkpt lat="42.67712" lon="0.27641">
        <ele>2023.2</ele>
        <time>2011-07-10T09:13:27Z</time>
      </trkpt>
      <trkpt lat="42.67716" lon="0.27653">
        <ele>2024.2</ele>
        <time>2011-07-10T09:13:34Z</time>
      </trkpt>
      <trkpt lat="42.6772" lon="0.27659">
        <ele>2025.2</ele>
        <time>2011-07-10T09:13:40Z</time>
      </trkpt>
      <trkpt lat="42.6772" lon="0.2767">
        <ele>2026.6</ele>
        <time>2011-07-10T09:13:48Z</time>
      </trkpt>
      <trkpt lat="42.67722" lon="0.27695">
        <ele>2029.5</ele>
        <time>2011-07-10T09:14:04Z</time>
      </trkpt>
      <trkpt lat="42.67725" lon="0.2771">
        <ele>2030.4</ele>
        <time>2011-07-10T09:14:15Z</time>
      </trkpt>
      <trkpt lat="42.67728" lon="0.27713">
        <ele>2031.4</ele>
        <time>2011-07-10T09:14:19Z</time>
      </trkpt>
      <trkpt lat="42.67736" lon="0.2772">
        <ele>2032.4</ele>
        <time>2011-07-10T09:14:27Z</time>
      </trkpt>
      <trkpt lat="42.67744" lon="0.27736">
        <ele>2033.8</ele>
        <time>2011-07-10T09:14:40Z</time>
      </trkpt>
      <trkpt lat="42.67748" lon="0.27756">
        <ele>2036.2</ele>
        <time>2011-07-10T09:14:53Z</time>
      </trkpt>
      <trkpt lat="42.6774" lon="0.27783">
        <ele>2037.7</ele>
        <time>2011-07-10T09:15:11Z</time>
      </trkpt>
      <trkpt lat="42.67727" lon="0.27805">
        <ele>2040.5</ele>
        <time>2011-07-10T09:15:27Z</time>
      </trkpt>
      <trkpt lat="42.67723" lon="0.27828">
        <ele>2043.4</ele>
        <time>2011-07-10T09:15:42Z</time>
      </trkpt>
      <trkpt lat="42.6772" lon="0.27853">
        <ele>2045.3</ele>
        <time>2011-07-10T09:15:59Z</time>
      </trkpt>
      <trkpt lat="42.67714" lon="0.27866">
        <ele>2047.3</ele>
        <time>2011-07-10T09:16:09Z</time>
      </trkpt>
      <trkpt lat="42.67695" lon="0.27902">
        <ele>2052.6</ele>
        <time>2011-07-10T09:16:39Z</time>
      </trkpt>
      <trkpt lat="42.67686" lon="0.27923">
        <ele>2055.4</ele>
        <time>2011-07-10T09:16:55Z</time>
      </trkpt>
      <trkpt lat="42.67673" lon="0.27941">
        <ele>2058.8</ele>
        <time>2011-07-10T09:17:12Z</time>
      </trkpt>
      <trkpt lat="42.67657" lon="0.27964">
        <ele>2062.2</ele>
        <time>2011-07-10T09:17:33Z</time>
      </trkpt>
      <trkpt lat="42.67657" lon="0.27966">
        <ele>2062.6</ele>
        <time>2011-07-10T09:17:35Z</time>
      </trkpt>
      <trkpt lat="42.67628" lon="0.27997">
        <ele>2068.4</ele>
        <time>2011-07-10T09:18:07Z</time>
      </trkpt>
      <trkpt lat="42.6762" lon="0.28009">
        <ele>2070.8</ele>
        <time>2011-07-10T09:18:18Z</time>
      </trkpt>
      <trkpt lat="42.67618" lon="0.28013">
        <ele>2071.3</ele>
        <time>2011-07-10T09:18:21Z</time>
      </trkpt>
      <trkpt lat="42.67606" lon="0.28033">
        <ele>2074.2</ele>
        <time>2011-07-10T09:18:38Z</time>
      </trkpt>
      <trkpt lat="42.67595" lon="0.28057">
        <ele>2077.5</ele>
        <time>2011-07-10T09:18:56Z</time>
      </trkpt>
      <trkpt lat="42.67593" lon="0.28076">
        <ele>2079</ele>
        <time>2011-07-10T09:19:08Z</time>
      </trkpt>
      <trkpt lat="42.6759" lon="0.28111">
        <ele>2081.4</ele>
        <time>2011-07-10T09:19:32Z</time>
      </trkpt>
      <trkpt lat="42.67581" lon="0.28131">
        <ele>2084.8</ele>
        <time>2011-07-10T09:19:48Z</time>
      </trkpt>
      <trkpt lat="42.67572" lon="0.28146">
        <ele>2087.2</ele>
        <time>2011-07-10T09:20:00Z</time>
      </trkpt>
      <trkpt lat="42.6757" lon="0.28152">
        <ele>2087.6</ele>
        <time>2011-07-10T09:20:05Z</time>
      </trkpt>
      <trkpt lat="42.67559" lon="0.28167">
        <ele>2090.5</ele>
        <time>2011-07-10T09:20:18Z</time>
      </trkpt>
      <trkpt lat="42.67554" lon="0.28176">
        <ele>2092.4</ele>
        <time>2011-07-10T09:20:27Z</time>
      </trkpt>
      <trkpt lat="42.67552" lon="0.28182">
        <ele>2092.9</ele>
        <time>2011-07-10T09:20:32Z</time>
      </trkpt>
      <trkpt lat="42.67551" lon="0.28184">
        <ele>2093.4</ele>
        <time>2011-07-10T09:20:34Z</time>
      </trkpt>
      <trkpt lat="42.67543" lon="0.28209">
        <ele>2096.3</ele>
        <time>2011-07-10T09:20:51Z</time>
      </trkpt>
      <trkpt lat="42.67542" lon="0.28215">
        <ele>2096.8</ele>
        <time>2011-07-10T09:20:55Z</time>
      </trkpt>
      <trkpt lat="42.67538" lon="0.28246">
        <ele>2100.1</ele>
        <time>2011-07-10T09:21:15Z</time>
      </trkpt>
      <trkpt lat="42.67537" lon="0.28253">
        <ele>2100.6</ele>
        <time>2011-07-10T09:21:19Z</time>
      </trkpt>
      <trkpt lat="42.67539" lon="0.28263">
        <ele>2102.1</ele>
        <time>2011-07-10T09:21:26Z</time>
      </trkpt>
      <trkpt lat="42.67539" lon="0.28268">
        <ele>2102.5</ele>
        <time>2011-07-10T09:21:29Z</time>
      </trkpt>
      <trkpt lat="42.67537" lon="0.28274">
        <ele>2103</ele>
        <time>2011-07-10T09:21:34Z</time>
      </trkpt>
      <trkpt lat="42.67535" lon="0.28288">
        <ele>2104.5</ele>
        <time>2011-07-10T09:21:43Z</time>
      </trkpt>
      <trkpt lat="42.67528" lon="0.28301">
        <ele>2106.4</ele>
        <time>2011-07-10T09:21:54Z</time>
      </trkpt>
      <trkpt lat="42.6752" lon="0.28313">
        <ele>2107.8</ele>
        <time>2011-07-10T09:22:05Z</time>
      </trkpt>
      <trkpt lat="42.67509" lon="0.28329">
        <ele>2110.7</ele>
        <time>2011-07-10T09:22:20Z</time>
      </trkpt>
      <trkpt lat="42.67499" lon="0.2835">
        <ele>2114.1</ele>
        <time>2011-07-10T09:22:37Z</time>
      </trkpt>
      <trkpt lat="42.67494" lon="0.28373">
        <ele>2116.5</ele>
        <time>2011-07-10T09:22:53Z</time>
      </trkpt>
      <trkpt lat="42.67494" lon="0.28394">
        <ele>2119.4</ele>
        <time>2011-07-10T09:23:08Z</time>
      </trkpt>
      <trkpt lat="42.67491" lon="0.28423">
        <ele>2121.8</ele>
        <time>2011-07-10T09:23:28Z</time>
      </trkpt>
      <trkpt lat="42.67487" lon="0.28436">
        <ele>2123.7</ele>
        <time>2011-07-10T09:23:36Z</time>
      </trkpt>
      <trkpt lat="42.67474" lon="0.28455">
        <ele>2126.6</ele>
        <time>2011-07-10T09:23:51Z</time>
      </trkpt>
      <trkpt lat="42.67468" lon="0.28473">
        <ele>2128.5</ele>
        <time>2011-07-10T09:24:03Z</time>
      </trkpt>
      <trkpt lat="42.67465" lon="0.28479">
        <ele>2129</ele>
        <time>2011-07-10T09:24:08Z</time>
      </trkpt>
      <trkpt lat="42.67462" lon="0.28481">
        <ele>2129.5</ele>
        <time>2011-07-10T09:24:11Z</time>
      </trkpt>
      <trkpt lat="42.67459" lon="0.28489">
        <ele>2130.9</ele>
        <time>2011-07-10T09:24:18Z</time>
      </trkpt>
      <trkpt lat="42.67456" lon="0.28492">
        <ele>2131.4</ele>
        <time>2011-07-10T09:24:22Z</time>
      </trkpt>
      <trkpt lat="42.67458" lon="0.28505">
        <ele>2131.9</ele>
        <time>2011-07-10T09:24:36Z</time>
      </trkpt>
      <trkpt lat="42.67459" lon="0.28506">
        <ele>2132.8</ele>
        <time>2011-07-10T09:24:55Z</time>
      </trkpt>
      <trkpt lat="42.67468" lon="0.28507">
        <ele>2133.3</ele>
        <time>2011-07-10T09:25:02Z</time>
      </trkpt>
      <trkpt lat="42.67471" lon="0.28504">
        <ele>2133.8</ele>
        <time>2011-07-10T09:25:05Z</time>
      </trkpt>
      <trkpt lat="42.67488" lon="0.28488">
        <ele>2136.2</ele>
        <time>2011-07-10T09:25:21Z</time>
      </trkpt>
      <trkpt lat="42.67489" lon="0.28485">
        <ele>2136.2</ele>
        <time>2011-07-10T09:25:23Z</time>
      </trkpt>
      <trkpt lat="42.67496" lon="0.2848">
        <ele>2137.1</ele>
        <time>2011-07-10T09:25:28Z</time>
      </trkpt>
      <trkpt lat="42.67497" lon="0.28476">
        <ele>2137.6</ele>
        <time>2011-07-10T09:25:31Z</time>
      </trkpt>
      <trkpt lat="42.67506" lon="0.2847">
        <ele>2139.6</ele>
        <time>2011-07-10T09:25:40Z</time>
      </trkpt>
      <trkpt lat="42.67508" lon="0.28466">
        <ele>2140.5</ele>
        <time>2011-07-10T09:25:44Z</time>
      </trkpt>
      <trkpt lat="42.67513" lon="0.28462">
        <ele>2141</ele>
        <time>2011-07-10T09:25:49Z</time>
      </trkpt>
      <trkpt lat="42.67516" lon="0.28463">
        <ele>2141.5</ele>
        <time>2011-07-10T09:25:52Z</time>
      </trkpt>
      <trkpt lat="42.67532" lon="0.28458">
        <ele>2143.4</ele>
        <time>2011-07-10T09:26:06Z</time>
      </trkpt>
      <trkpt lat="42.67547" lon="0.28452">
        <ele>2145.3</ele>
        <time>2011-07-10T09:26:17Z</time>
      </trkpt>
      <trkpt lat="42.67555" lon="0.28446">
        <ele>2147.2</ele>
        <time>2011-07-10T09:26:25Z</time>
      </trkpt>
      <trkpt lat="42.67554" lon="0.28441">
        <ele>2147.7</ele>
        <time>2011-07-10T09:26:29Z</time>
      </trkpt>
      <trkpt lat="42.67567" lon="0.28427">
        <ele>2151.1</ele>
        <time>2011-07-10T09:26:43Z</time>
      </trkpt>
      <trkpt lat="42.6757" lon="0.28427">
        <ele>2151.1</ele>
        <time>2011-07-10T09:26:45Z</time>
      </trkpt>
      <trkpt lat="42.67583" lon="0.28411">
        <ele>2154</ele>
        <time>2011-07-10T09:26:58Z</time>
      </trkpt>
      <trkpt lat="42.67585" lon="0.2841">
        <ele>2154</ele>
        <time>2011-07-10T09:27:00Z</time>
      </trkpt>
      <trkpt lat="42.67594" lon="0.28401">
        <ele>2155.4</ele>
        <time>2011-07-10T09:27:09Z</time>
      </trkpt>
      <trkpt lat="42.67602" lon="0.28403">
        <ele>2155.9</ele>
        <time>2011-07-10T09:27:17Z</time>
      </trkpt>
      <trkpt lat="42.67604" lon="0.28402">
        <ele>2156.4</ele>
        <time>2011-07-10T09:27:19Z</time>
      </trkpt>
      <trkpt lat="42.67612" lon="0.28402">
        <ele>2156.9</ele>
        <time>2011-07-10T09:27:26Z</time>
      </trkpt>
      <trkpt lat="42.67628" lon="0.28397">
        <ele>2159.3</ele>
        <time>2011-07-10T09:27:40Z</time>
      </trkpt>
      <trkpt lat="42.67636" lon="0.28396">
        <ele>2160.2</ele>
        <time>2011-07-10T09:27:47Z</time>
      </trkpt>
      <trkpt lat="42.67637" lon="0.28395">
        <ele>2160.2</ele>
        <time>2011-07-10T09:27:49Z</time>
      </trkpt>
      <trkpt lat="42.6764" lon="0.28395">
        <ele>2161.2</ele>
        <time>2011-07-10T09:27:52Z</time>
      </trkpt>
      <trkpt lat="42.67646" lon="0.28393">
        <ele>2161.7</ele>
        <time>2011-07-10T09:27:58Z</time>
      </trkpt>
      <trkpt lat="42.67647" lon="0.28391">
        <ele>2162.1</ele>
        <time>2011-07-10T09:28:00Z</time>
      </trkpt>
      <trkpt lat="42.67651" lon="0.28386">
        <ele>2162.6</ele>
        <time>2011-07-10T09:28:05Z</time>
      </trkpt>
      <trkpt lat="42.67659" lon="0.28372">
        <ele>2164.1</ele>
        <time>2011-07-10T09:28:17Z</time>
      </trkpt>
      <trkpt lat="42.67663" lon="0.2837">
        <ele>2164.5</ele>
        <time>2011-07-10T09:28:21Z</time>
      </trkpt>
      <trkpt lat="42.67667" lon="0.28371">
        <ele>2166</ele>
        <time>2011-07-10T09:28:26Z</time>
      </trkpt>
      <trkpt lat="42.67667" lon="0.28379">
        <ele>2166.9</ele>
        <time>2011-07-10T09:28:32Z</time>
      </trkpt>
      <trkpt lat="42.67661" lon="0.28403">
        <ele>2169.8</ele>
        <time>2011-07-10T09:28:50Z</time>
      </trkpt>
      <trkpt lat="42.67654" lon="0.28409">
        <ele>2172.7</ele>
        <time>2011-07-10T09:28:58Z</time>
      </trkpt>
      <trkpt lat="42.67652" lon="0.28411">
        <ele>2173.7</ele>
        <time>2011-07-10T09:29:00Z</time>
      </trkpt>
      <trkpt lat="42.67649" lon="0.28416">
        <ele>2174.2</ele>
        <time>2011-07-10T09:29:04Z</time>
      </trkpt>
      <trkpt lat="42.67642" lon="0.28426">
        <ele>2175.6</ele>
        <time>2011-07-10T09:29:13Z</time>
      </trkpt>
      <trkpt lat="42.67632" lon="0.28444">
        <ele>2177.5</ele>
        <time>2011-07-10T09:29:27Z</time>
      </trkpt>
      <trkpt lat="42.67623" lon="0.28468">
        <ele>2179.4</ele>
        <time>2011-07-10T09:29:43Z</time>
      </trkpt>
      <trkpt lat="42.67618" lon="0.28497">
        <ele>2182.8</ele>
        <time>2011-07-10T09:30:02Z</time>
      </trkpt>
      <trkpt lat="42.67615" lon="0.28509">
        <ele>2184.3</ele>
        <time>2011-07-10T09:30:10Z</time>
      </trkpt>
      <trkpt lat="42.67604" lon="0.28537">
        <ele>2188.1</ele>
        <time>2011-07-10T09:30:30Z</time>
      </trkpt>
      <trkpt lat="42.67601" lon="0.28544">
        <ele>2189.1</ele>
        <time>2011-07-10T09:30:34Z</time>
      </trkpt>
      <trkpt lat="42.67589" lon="0.28569">
        <ele>2192.4</ele>
        <time>2011-07-10T09:30:55Z</time>
      </trkpt>
      <trkpt lat="42.67584" lon="0.28582">
        <ele>2193.9</ele>
        <time>2011-07-10T09:31:08Z</time>
      </trkpt>
      <trkpt lat="42.67582" lon="0.28584">
        <ele>2194.3</ele>
        <time>2011-07-10T09:31:10Z</time>
      </trkpt>
      <trkpt lat="42.6758" lon="0.28585">
        <ele>2194.3</ele>
        <time>2011-07-10T09:31:13Z</time>
      </trkpt>
      <trkpt lat="42.6757" lon="0.28601">
        <ele>2196.7</ele>
        <time>2011-07-10T09:31:27Z</time>
      </trkpt>
      <trkpt lat="42.6757" lon="0.28605">
        <ele>2197.2</ele>
        <time>2011-07-10T09:31:30Z</time>
      </trkpt>
      <trkpt lat="42.67567" lon="0.28611">
        <ele>2198.7</ele>
        <time>2011-07-10T09:31:47Z</time>
      </trkpt>
      <trkpt lat="42.67563" lon="0.28623">
        <ele>2200.1</ele>
        <time>2011-07-10T09:32:29Z</time>
      </trkpt>
      <trkpt lat="42.67551" lon="0.28631">
        <ele>2202</ele>
        <time>2011-07-10T09:32:41Z</time>
      </trkpt>
      <trkpt lat="42.67549" lon="0.28632">
        <ele>2202.5</ele>
        <time>2011-07-10T09:32:43Z</time>
      </trkpt>
      <trkpt lat="42.67546" lon="0.28633">
        <ele>2203</ele>
        <time>2011-07-10T09:32:46Z</time>
      </trkpt>
      <trkpt lat="42.67538" lon="0.28642">
        <ele>2205.4</ele>
        <time>2011-07-10T09:33:04Z</time>
      </trkpt>
      <trkpt lat="42.67538" lon="0.28641">
        <ele>2203.5</ele>
        <time>2011-07-10T09:33:56Z</time>
      </trkpt>
      <trkpt lat="42.67532" lon="0.28643">
        <ele>2204.4</ele>
        <time>2011-07-10T09:34:00Z</time>
      </trkpt>
      <trkpt lat="42.67527" lon="0.28646">
        <ele>2204.9</ele>
        <time>2011-07-10T09:34:04Z</time>
      </trkpt>
      <trkpt lat="42.67509" lon="0.28652">
        <ele>2208.3</ele>
        <time>2011-07-10T09:34:20Z</time>
      </trkpt>
      <trkpt lat="42.67492" lon="0.28663">
        <ele>2211.7</ele>
        <time>2011-07-10T09:34:36Z</time>
      </trkpt>
      <trkpt lat="42.6749" lon="0.28666">
        <ele>2211.7</ele>
        <time>2011-07-10T09:34:38Z</time>
      </trkpt>
      <trkpt lat="42.67461" lon="0.2871">
        <ele>2218.4</ele>
        <time>2011-07-10T09:35:11Z</time>
      </trkpt>
      <trkpt lat="42.67452" lon="0.28722">
        <ele>2219.8</ele>
        <time>2011-07-10T09:35:22Z</time>
      </trkpt>
      <trkpt lat="42.67449" lon="0.28725">
        <ele>2220.3</ele>
        <time>2011-07-10T09:35:25Z</time>
      </trkpt>
      <trkpt lat="42.67441" lon="0.28732">
        <ele>2222.7</ele>
        <time>2011-07-10T09:35:34Z</time>
      </trkpt>
      <trkpt lat="42.67426" lon="0.28746">
        <ele>2225.1</ele>
        <time>2011-07-10T09:35:48Z</time>
      </trkpt>
      <trkpt lat="42.67422" lon="0.28749">
        <ele>2225.6</ele>
        <time>2011-07-10T09:35:51Z</time>
      </trkpt>
      <trkpt lat="42.67417" lon="0.28752">
        <ele>2226.6</ele>
        <time>2011-07-10T09:35:55Z</time>
      </trkpt>
      <trkpt lat="42.67411" lon="0.28761">
        <ele>2227.5</ele>
        <time>2011-07-10T09:36:01Z</time>
      </trkpt>
      <trkpt lat="42.67399" lon="0.28791">
        <ele>2229.4</ele>
        <time>2011-07-10T09:36:17Z</time>
      </trkpt>
      <trkpt lat="42.67387" lon="0.28812">
        <ele>2230.4</ele>
        <time>2011-07-10T09:36:31Z</time>
      </trkpt>
      <trkpt lat="42.67365" lon="0.28826">
        <ele>2232.8</ele>
        <time>2011-07-10T09:36:47Z</time>
      </trkpt>
      <trkpt lat="42.67336" lon="0.28855">
        <ele>2236.6</ele>
        <time>2011-07-10T09:37:11Z</time>
      </trkpt>
      <trkpt lat="42.67328" lon="0.28867">
        <ele>2237.6</ele>
        <time>2011-07-10T09:37:18Z</time>
      </trkpt>
      <trkpt lat="42.67274" lon="0.28878">
        <ele>2243.9</ele>
        <time>2011-07-10T09:37:53Z</time>
      </trkpt>
      <trkpt lat="42.67228" lon="0.28902">
        <ele>2249.1</ele>
        <time>2011-07-10T09:38:28Z</time>
      </trkpt>
      <trkpt lat="42.67211" lon="0.28915">
        <ele>2251.5</ele>
        <time>2011-07-10T09:38:46Z</time>
      </trkpt>
      <trkpt lat="42.67211" lon="0.28915">
        <ele>2251.5</ele>
        <time>2011-07-10T09:38:58Z</time>
      </trkpt>
      <trkpt lat="42.6721" lon="0.28915">
        <ele>2251.5</ele>
        <time>2011-07-10T09:39:10Z</time>
      </trkpt>
      <trkpt lat="42.67209" lon="0.28914">
        <ele>2252</ele>
        <time>2011-07-10T09:40:58Z</time>
      </trkpt>
      <trkpt lat="42.67208" lon="0.28916">
        <ele>2253.5</ele>
        <time>2011-07-10T09:41:00Z</time>
      </trkpt>
      <trkpt lat="42.67208" lon="0.28916">
        <ele>2253.5</ele>
        <time>2011-07-10T09:41:00Z</time>
      </trkpt>
      <trkpt lat="42.67213" lon="0.2892">
        <ele>2253.5</ele>
        <time>2011-07-10T09:41:09Z</time>
      </trkpt>
      <trkpt lat="42.67215" lon="0.28921">
        <ele>2253.9</ele>
        <time>2011-07-10T09:41:21Z</time>
      </trkpt>
      <trkpt lat="42.67218" lon="0.2892">
        <ele>2255.9</ele>
        <time>2011-07-10T09:41:33Z</time>
      </trkpt>
      <trkpt lat="42.67222" lon="0.28917">
        <ele>2255.9</ele>
        <time>2011-07-10T09:41:56Z</time>
      </trkpt>
      <trkpt lat="42.67232" lon="0.28913">
        <ele>2257.3</ele>
        <time>2011-07-10T09:42:06Z</time>
      </trkpt>
      <trkpt lat="42.67232" lon="0.28913">
        <ele>2257.3</ele>
        <time>2011-07-10T09:42:08Z</time>
      </trkpt>
      <trkpt lat="42.67252" lon="0.28908">
        <ele>2258.8</ele>
        <time>2011-07-10T09:42:28Z</time>
      </trkpt>
      <trkpt lat="42.67265" lon="0.28905">
        <ele>2258.8</ele>
        <time>2011-07-10T09:42:37Z</time>
      </trkpt>
      <trkpt lat="42.67286" lon="0.28903">
        <ele>2260.2</ele>
        <time>2011-07-10T09:42:50Z</time>
      </trkpt>
      <trkpt lat="42.67299" lon="0.28915">
        <ele>2257.8</ele>
        <time>2011-07-10T09:42:57Z</time>
      </trkpt>
      <trkpt lat="42.67315" lon="0.28922">
        <ele>2257.8</ele>
        <time>2011-07-10T09:43:04Z</time>
      </trkpt>
      <trkpt lat="42.67339" lon="0.28927">
        <ele>2256.8</ele>
        <time>2011-07-10T09:43:16Z</time>
      </trkpt>
      <trkpt lat="42.67356" lon="0.28921">
        <ele>2257.8</ele>
        <time>2011-07-10T09:43:28Z</time>
      </trkpt>
      <trkpt lat="42.67361" lon="0.28918">
        <ele>2256.8</ele>
        <time>2011-07-10T09:43:56Z</time>
      </trkpt>
      <trkpt lat="42.67364" lon="0.28917">
        <ele>2257.3</ele>
        <time>2011-07-10T09:43:58Z</time>
      </trkpt>
      <trkpt lat="42.67374" lon="0.28917">
        <ele>2257.8</ele>
        <time>2011-07-10T09:44:03Z</time>
      </trkpt>
      <trkpt lat="42.6738" lon="0.28916">
        <ele>2258.8</ele>
        <time>2011-07-10T09:44:07Z</time>
      </trkpt>
      <trkpt lat="42.67397" lon="0.28907">
        <ele>2259.2</ele>
        <time>2011-07-10T09:44:17Z</time>
      </trkpt>
      <trkpt lat="42.67404" lon="0.28908">
        <ele>2262.6</ele>
        <time>2011-07-10T09:44:27Z</time>
      </trkpt>
      <trkpt lat="42.67408" lon="0.28907">
        <ele>2262.6</ele>
        <time>2011-07-10T09:44:36Z</time>
      </trkpt>
      <trkpt lat="42.67417" lon="0.28902">
        <ele>2264</ele>
        <time>2011-07-10T09:44:49Z</time>
      </trkpt>
      <trkpt lat="42.67422" lon="0.28904">
        <ele>2264</ele>
        <time>2011-07-10T09:45:00Z</time>
      </trkpt>
      <trkpt lat="42.67437" lon="0.28894">
        <ele>2262.1</ele>
        <time>2011-07-10T09:45:11Z</time>
      </trkpt>
      <trkpt lat="42.67466" lon="0.2889">
        <ele>2265.5</ele>
        <time>2011-07-10T09:45:31Z</time>
      </trkpt>
      <trkpt lat="42.67467" lon="0.2889">
        <ele>2266.9</ele>
        <time>2011-07-10T09:45:43Z</time>
      </trkpt>
      <trkpt lat="42.67482" lon="0.2889">
        <ele>2268.8</ele>
        <time>2011-07-10T09:46:00Z</time>
      </trkpt>
      <trkpt lat="42.67493" lon="0.28896">
        <ele>2272.2</ele>
        <time>2011-07-10T09:46:20Z</time>
      </trkpt>
      <trkpt lat="42.67505" lon="0.28894">
        <ele>2275.6</ele>
        <time>2011-07-10T09:46:36Z</time>
      </trkpt>
      <trkpt lat="42.67529" lon="0.28886">
        <ele>2281.3</ele>
        <time>2011-07-10T09:47:19Z</time>
      </trkpt>
      <trkpt lat="42.67539" lon="0.28883">
        <ele>2283.7</ele>
        <time>2011-07-10T09:47:40Z</time>
      </trkpt>
      <trkpt lat="42.67549" lon="0.28874">
        <ele>2286.6</ele>
        <time>2011-07-10T09:48:02Z</time>
      </trkpt>
      <trkpt lat="42.6756" lon="0.28864">
        <ele>2289.5</ele>
        <time>2011-07-10T09:48:22Z</time>
      </trkpt>
      <trkpt lat="42.67562" lon="0.28861">
        <ele>2290</ele>
        <time>2011-07-10T09:48:26Z</time>
      </trkpt>
      <trkpt lat="42.67569" lon="0.28849">
        <ele>2292.4</ele>
        <time>2011-07-10T09:48:45Z</time>
      </trkpt>
      <trkpt lat="42.67571" lon="0.2884">
        <ele>2294.8</ele>
        <time>2011-07-10T09:49:03Z</time>
      </trkpt>
      <trkpt lat="42.67579" lon="0.28834">
        <ele>2295.8</ele>
        <time>2011-07-10T09:49:13Z</time>
      </trkpt>
      <trkpt lat="42.67589" lon="0.28831">
        <ele>2297.2</ele>
        <time>2011-07-10T09:49:29Z</time>
      </trkpt>
      <trkpt lat="42.67595" lon="0.28823">
        <ele>2299.6</ele>
        <time>2011-07-10T09:49:43Z</time>
      </trkpt>
      <trkpt lat="42.67609" lon="0.28819">
        <ele>2301.5</ele>
        <time>2011-07-10T09:50:01Z</time>
      </trkpt>
      <trkpt lat="42.67624" lon="0.28813">
        <ele>2301.5</ele>
        <time>2011-07-10T09:50:16Z</time>
      </trkpt>
      <trkpt lat="42.67654" lon="0.28804">
        <ele>2307.3</ele>
        <time>2011-07-10T09:50:56Z</time>
      </trkpt>
      <trkpt lat="42.6766" lon="0.28797">
        <ele>2307.3</ele>
        <time>2011-07-10T09:51:09Z</time>
      </trkpt>
      <trkpt lat="42.67671" lon="0.28787">
        <ele>2307.8</ele>
        <time>2011-07-10T09:51:24Z</time>
      </trkpt>
      <trkpt lat="42.67683" lon="0.28786">
        <ele>2311.6</ele>
        <time>2011-07-10T09:51:40Z</time>
      </trkpt>
      <trkpt lat="42.67684" lon="0.28785">
        <ele>2312.1</ele>
        <time>2011-07-10T09:51:42Z</time>
      </trkpt>
      <trkpt lat="42.67696" lon="0.28783">
        <ele>2316.9</ele>
        <time>2011-07-10T09:52:11Z</time>
      </trkpt>
      <trkpt lat="42.67697" lon="0.28785">
        <ele>2316.4</ele>
        <time>2011-07-10T09:52:23Z</time>
      </trkpt>
      <trkpt lat="42.67703" lon="0.28783">
        <ele>2319.8</ele>
        <time>2011-07-10T09:52:42Z</time>
      </trkpt>
      <trkpt lat="42.67732" lon="0.28767">
        <ele>2322.7</ele>
        <time>2011-07-10T09:53:24Z</time>
      </trkpt>
      <trkpt lat="42.67735" lon="0.28764">
        <ele>2324.1</ele>
        <time>2011-07-10T09:53:40Z</time>
      </trkpt>
      <trkpt lat="42.67742" lon="0.28757">
        <ele>2326.5</ele>
        <time>2011-07-10T09:54:03Z</time>
      </trkpt>
      <trkpt lat="42.67751" lon="0.28748">
        <ele>2329.9</ele>
        <time>2011-07-10T09:54:23Z</time>
      </trkpt>
      <trkpt lat="42.6776" lon="0.28741">
        <ele>2332.3</ele>
        <time>2011-07-10T09:54:42Z</time>
      </trkpt>
      <trkpt lat="42.67768" lon="0.28728">
        <ele>2334.2</ele>
        <time>2011-07-10T09:55:00Z</time>
      </trkpt>
      <trkpt lat="42.67775" lon="0.28722">
        <ele>2335.7</ele>
        <time>2011-07-10T09:55:13Z</time>
      </trkpt>
      <trkpt lat="42.6778" lon="0.28714">
        <ele>2338.5</ele>
        <time>2011-07-10T09:55:32Z</time>
      </trkpt>
      <trkpt lat="42.67782" lon="0.28707">
        <ele>2340.5</ele>
        <time>2011-07-10T09:55:46Z</time>
      </trkpt>
      <trkpt lat="42.67789" lon="0.28701">
        <ele>2343.8</ele>
        <time>2011-07-10T09:56:06Z</time>
      </trkpt>
      <trkpt lat="42.67795" lon="0.28697">
        <ele>2346.7</ele>
        <time>2011-07-10T09:56:25Z</time>
      </trkpt>
      <trkpt lat="42.67799" lon="0.28689">
        <ele>2350.1</ele>
        <time>2011-07-10T09:56:45Z</time>
      </trkpt>
      <trkpt lat="42.67801" lon="0.28692">
        <ele>2351.5</ele>
        <time>2011-07-10T09:57:00Z</time>
      </trkpt>
      <trkpt lat="42.67805" lon="0.28687">
        <ele>2353</ele>
        <time>2011-07-10T09:57:11Z</time>
      </trkpt>
      <trkpt lat="42.67811" lon="0.28683">
        <ele>2355.8</ele>
        <time>2011-07-10T09:57:28Z</time>
      </trkpt>
      <trkpt lat="42.67812" lon="0.28677">
        <ele>2358.7</ele>
        <time>2011-07-10T09:57:44Z</time>
      </trkpt>
      <trkpt lat="42.67811" lon="0.28672">
        <ele>2359.7</ele>
        <time>2011-07-10T09:58:00Z</time>
      </trkpt>
      <trkpt lat="42.67811" lon="0.2867">
        <ele>2365</ele>
        <time>2011-07-10T09:58:14Z</time>
      </trkpt>
      <trkpt lat="42.67812" lon="0.2867">
        <ele>2361.6</ele>
        <time>2011-07-10T09:58:24Z</time>
      </trkpt>
      <trkpt lat="42.67814" lon="0.28647">
        <ele>2362.1</ele>
        <time>2011-07-10T09:59:26Z</time>
      </trkpt>
      <trkpt lat="42.67816" lon="0.28645">
        <ele>2362.1</ele>
        <time>2011-07-10T09:59:37Z</time>
      </trkpt>
      <trkpt lat="42.67818" lon="0.28648">
        <ele>2362.6</ele>
        <time>2011-07-10T09:59:46Z</time>
      </trkpt>
      <trkpt lat="42.67818" lon="0.28648">
        <ele>2361.1</ele>
        <time>2011-07-10T10:01:12Z</time>
      </trkpt>
      <trkpt lat="42.6782" lon="0.28635">
        <ele>2363.1</ele>
        <time>2011-07-10T10:03:46Z</time>
      </trkpt>
      <trkpt lat="42.67826" lon="0.28625">
        <ele>2365</ele>
        <time>2011-07-10T10:03:58Z</time>
      </trkpt>
      <trkpt lat="42.67824" lon="0.28624">
        <ele>2365.5</ele>
        <time>2011-07-10T10:04:06Z</time>
      </trkpt>
      <trkpt lat="42.67825" lon="0.28623">
        <ele>2365.5</ele>
        <time>2011-07-10T10:04:16Z</time>
      </trkpt>
      <trkpt lat="42.67826" lon="0.28621">
        <ele>2365</ele>
        <time>2011-07-10T10:04:51Z</time>
      </trkpt>
      <trkpt lat="42.67828" lon="0.28615">
        <ele>2365.5</ele>
        <time>2011-07-10T10:05:11Z</time>
      </trkpt>
      <trkpt lat="42.67832" lon="0.28603">
        <ele>2367.9</ele>
        <time>2011-07-10T10:05:26Z</time>
      </trkpt>
      <trkpt lat="42.67837" lon="0.28599">
        <ele>2370.7</ele>
        <time>2011-07-10T10:05:36Z</time>
      </trkpt>
      <trkpt lat="42.67838" lon="0.28599">
        <ele>2370.7</ele>
        <time>2011-07-10T10:05:37Z</time>
      </trkpt>
      <trkpt lat="42.67842" lon="0.28595">
        <ele>2374.1</ele>
        <time>2011-07-10T10:05:47Z</time>
      </trkpt>
      <trkpt lat="42.67845" lon="0.28595">
        <ele>2375.1</ele>
        <time>2011-07-10T10:06:02Z</time>
      </trkpt>
      <trkpt lat="42.67846" lon="0.28592">
        <ele>2378.4</ele>
        <time>2011-07-10T10:06:12Z</time>
      </trkpt>
      <trkpt lat="42.67859" lon="0.28588">
        <ele>2380.4</ele>
        <time>2011-07-10T10:06:28Z</time>
      </trkpt>
      <trkpt lat="42.67863" lon="0.28587">
        <ele>2377</ele>
        <time>2011-07-10T10:06:33Z</time>
      </trkpt>
      <trkpt lat="42.67876" lon="0.28583">
        <ele>2376.5</ele>
        <time>2011-07-10T10:06:46Z</time>
      </trkpt>
      <trkpt lat="42.67888" lon="0.28581">
        <ele>2379.9</ele>
        <time>2011-07-10T10:07:04Z</time>
      </trkpt>
      <trkpt lat="42.67949" lon="0.28556">
        <ele>2409.2</ele>
        <time>2011-07-10T10:15:34Z</time>
      </trkpt>
      <trkpt lat="42.6795" lon="0.28555">
        <ele>2405.4</ele>
        <time>2011-07-10T10:15:50Z</time>
      </trkpt>
      <trkpt lat="42.67952" lon="0.28555">
        <ele>2405</ele>
        <time>2011-07-10T10:16:07Z</time>
      </trkpt>
      <trkpt lat="42.67952" lon="0.28558">
        <ele>2404</ele>
        <time>2011-07-10T10:16:09Z</time>
      </trkpt>
      <trkpt lat="42.67963" lon="0.28565">
        <ele>2390</ele>
        <time>2011-07-10T10:16:13Z</time>
      </trkpt>
      <trkpt lat="42.67963" lon="0.28565">
        <ele>2390</ele>
        <time>2011-07-10T10:16:13Z</time>
      </trkpt>
      <trkpt lat="42.67965" lon="0.28567">
        <ele>2380</ele>
        <time>2011-07-10T10:16:14Z</time>
      </trkpt>
      <trkpt lat="42.6797" lon="0.28561">
        <ele>2370</ele>
        <time>2011-07-10T10:16:16Z</time>
      </trkpt>
      <trkpt lat="42.67984" lon="0.28559">
        <ele>2360</ele>
        <time>2011-07-10T10:16:19Z</time>
      </trkpt>
      <trkpt lat="42.67994" lon="0.28555">
        <ele>2365</ele>
        <time>2011-07-10T10:16:21Z</time>
      </trkpt>
      <trkpt lat="42.68002" lon="0.28545">
        <ele>2361</ele>
        <time>2011-07-10T10:16:23Z</time>
      </trkpt>
      <trkpt lat="42.68009" lon="0.28538">
        <ele>2355</ele>
        <time>2011-07-10T10:16:25Z</time>
      </trkpt>
      <trkpt lat="42.68014" lon="0.28535">
        <ele>2353</ele>
        <time>2011-07-10T10:16:27Z</time>
      </trkpt>
      <trkpt lat="42.6802" lon="0.28533">
        <ele>2355.8</ele>
        <time>2011-07-10T10:16:32Z</time>
      </trkpt>
      <trkpt lat="42.6802" lon="0.28564">
        <ele>2355.4</ele>
        <time>2011-07-10T10:16:40Z</time>
      </trkpt>
      <trkpt lat="42.68031" lon="0.28561">
        <ele>2355.8</ele>
        <time>2011-07-10T10:16:46Z</time>
      </trkpt>
      <trkpt lat="42.68041" lon="0.28551">
        <ele>2355.8</ele>
        <time>2011-07-10T10:16:53Z</time>
      </trkpt>
      <trkpt lat="42.68051" lon="0.28575">
        <ele>2355.8</ele>
        <time>2011-07-10T10:16:58Z</time>
      </trkpt>
      <trkpt lat="42.68055" lon="0.28588">
        <ele>2355.4</ele>
        <time>2011-07-10T10:17:02Z</time>
      </trkpt>
      <trkpt lat="42.68058" lon="0.28603">
        <ele>2356.8</ele>
        <time>2011-07-10T10:17:35Z</time>
      </trkpt>
      <trkpt lat="42.68056" lon="0.28613">
        <ele>2354.9</ele>
        <time>2011-07-10T10:17:39Z</time>
      </trkpt>
      <trkpt lat="42.68058" lon="0.28618">
        <ele>2351</ele>
        <time>2011-07-10T10:17:45Z</time>
      </trkpt>
      <trkpt lat="42.68048" lon="0.28648">
        <ele>2350.6</ele>
        <time>2011-07-10T10:17:48Z</time>
      </trkpt>
      <trkpt lat="42.68046" lon="0.28651">
        <ele>2350.6</ele>
        <time>2011-07-10T10:18:02Z</time>
      </trkpt>
      <trkpt lat="42.68046" lon="0.28657">
        <ele>2353</ele>
        <time>2011-07-10T10:18:46Z</time>
      </trkpt>
      <trkpt lat="42.68044" lon="0.28667">
        <ele>2349.6</ele>
        <time>2011-07-10T10:20:02Z</time>
      </trkpt>
      <trkpt lat="42.68043" lon="0.28685">
        <ele>2344.3</ele>
        <time>2011-07-10T10:20:06Z</time>
      </trkpt>
      <trkpt lat="42.6804" lon="0.28696">
        <ele>2343.8</ele>
        <time>2011-07-10T10:20:08Z</time>
      </trkpt>
      <trkpt lat="42.6803" lon="0.28725">
        <ele>2340</ele>
        <time>2011-07-10T10:20:14Z</time>
      </trkpt>
      <trkpt lat="42.6803" lon="0.28744">
        <ele>2336.6</ele>
        <time>2011-07-10T10:20:20Z</time>
      </trkpt>
      <trkpt lat="42.68029" lon="0.28758">
        <ele>2333.3</ele>
        <time>2011-07-10T10:20:23Z</time>
      </trkpt>
      <trkpt lat="42.68026" lon="0.28779">
        <ele>2329.4</ele>
        <time>2011-07-10T10:20:29Z</time>
      </trkpt>
      <trkpt lat="42.68026" lon="0.28783">
        <ele>2328.9</ele>
        <time>2011-07-10T10:20:30Z</time>
      </trkpt>
      <trkpt lat="42.68022" lon="0.28793">
        <ele>2327</ele>
        <time>2011-07-10T10:20:33Z</time>
      </trkpt>
      <trkpt lat="42.68019" lon="0.28797">
        <ele>2327.5</ele>
        <time>2011-07-10T10:20:35Z</time>
      </trkpt>
      <trkpt lat="42.68017" lon="0.28799">
        <ele>2327.5</ele>
        <time>2011-07-10T10:20:45Z</time>
      </trkpt>
      <trkpt lat="42.68016" lon="0.28804">
        <ele>2326.5</ele>
        <time>2011-07-10T10:20:53Z</time>
      </trkpt>
      <trkpt lat="42.68009" lon="0.28818">
        <ele>2323.2</ele>
        <time>2011-07-10T10:20:58Z</time>
      </trkpt>
      <trkpt lat="42.68001" lon="0.28829">
        <ele>2320.3</ele>
        <time>2011-07-10T10:21:01Z</time>
      </trkpt>
      <trkpt lat="42.6799" lon="0.28842">
        <ele>2316.9</ele>
        <time>2011-07-10T10:21:05Z</time>
      </trkpt>
      <trkpt lat="42.67983" lon="0.28852">
        <ele>2314.5</ele>
        <time>2011-07-10T10:21:08Z</time>
      </trkpt>
      <trkpt lat="42.6797" lon="0.28869">
        <ele>2310.7</ele>
        <time>2011-07-10T10:21:13Z</time>
      </trkpt>
      <trkpt lat="42.67966" lon="0.28874">
        <ele>2311.1</ele>
        <time>2011-07-10T10:21:19Z</time>
      </trkpt>
      <trkpt lat="42.67961" lon="0.28886">
        <ele>2307.8</ele>
        <time>2011-07-10T10:21:31Z</time>
      </trkpt>
      <trkpt lat="42.67957" lon="0.28901">
        <ele>2305.9</ele>
        <time>2011-07-10T10:21:37Z</time>
      </trkpt>
      <trkpt lat="42.6795" lon="0.28917">
        <ele>2304.4</ele>
        <time>2011-07-10T10:21:44Z</time>
      </trkpt>
      <trkpt lat="42.6795" lon="0.28929">
        <ele>2300.1</ele>
        <time>2011-07-10T10:21:47Z</time>
      </trkpt>
      <trkpt lat="42.67951" lon="0.28944">
        <ele>2296.7</ele>
        <time>2011-07-10T10:21:50Z</time>
      </trkpt>
      <trkpt lat="42.67941" lon="0.28997">
        <ele>2290.5</ele>
        <time>2011-07-10T10:21:59Z</time>
      </trkpt>
      <trkpt lat="42.67935" lon="0.29026">
        <ele>2284.7</ele>
        <time>2011-07-10T10:22:05Z</time>
      </trkpt>
      <trkpt lat="42.67935" lon="0.29044">
        <ele>2280.9</ele>
        <time>2011-07-10T10:22:08Z</time>
      </trkpt>
      <trkpt lat="42.6793" lon="0.29073">
        <ele>2280.9</ele>
        <time>2011-07-10T10:22:15Z</time>
      </trkpt>
      <trkpt lat="42.67929" lon="0.29085">
        <ele>2280.4</ele>
        <time>2011-07-10T10:22:19Z</time>
      </trkpt>
      <trkpt lat="42.67933" lon="0.29098">
        <ele>2279.4</ele>
        <time>2011-07-10T10:22:26Z</time>
      </trkpt>
      <trkpt lat="42.67932" lon="0.29103">
        <ele>2280.9</ele>
        <time>2011-07-10T10:22:28Z</time>
      </trkpt>
      <trkpt lat="42.67931" lon="0.29115">
        <ele>2279.4</ele>
        <time>2011-07-10T10:22:33Z</time>
      </trkpt>
      <trkpt lat="42.67932" lon="0.29123">
        <ele>2280.4</ele>
        <time>2011-07-10T10:22:37Z</time>
      </trkpt>
      <trkpt lat="42.67929" lon="0.29129">
        <ele>2279.9</ele>
        <time>2011-07-10T10:22:45Z</time>
      </trkpt>
      <trkpt lat="42.6793" lon="0.29129">
        <ele>2280.9</ele>
        <time>2011-07-10T10:22:52Z</time>
      </trkpt>
      <trkpt lat="42.67927" lon="0.29141">
        <ele>2280.9</ele>
        <time>2011-07-10T10:23:17Z</time>
      </trkpt>
      <trkpt lat="42.67925" lon="0.29156">
        <ele>2280.9</ele>
        <time>2011-07-10T10:23:26Z</time>
      </trkpt>
      <trkpt lat="42.67923" lon="0.29164">
        <ele>2282.3</ele>
        <time>2011-07-10T10:23:31Z</time>
      </trkpt>
      <trkpt lat="42.67922" lon="0.29165">
        <ele>2282.8</ele>
        <time>2011-07-10T10:23:32Z</time>
      </trkpt>
      <trkpt lat="42.67922" lon="0.29179">
        <ele>2284.7</ele>
        <time>2011-07-10T10:23:43Z</time>
      </trkpt>
      <trkpt lat="42.67921" lon="0.29181">
        <ele>2280.9</ele>
        <time>2011-07-10T10:23:45Z</time>
      </trkpt>
      <trkpt lat="42.67921" lon="0.29184">
        <ele>2284.2</ele>
        <time>2011-07-10T10:23:48Z</time>
      </trkpt>
      <trkpt lat="42.6792" lon="0.29196">
        <ele>2284.2</ele>
        <time>2011-07-10T10:23:55Z</time>
      </trkpt>
      <trkpt lat="42.67916" lon="0.29229">
        <ele>2284.7</ele>
        <time>2011-07-10T10:24:16Z</time>
      </trkpt>
      <trkpt lat="42.67914" lon="0.29252">
        <ele>2288.1</ele>
        <time>2011-07-10T10:24:33Z</time>
      </trkpt>
      <trkpt lat="42.67908" lon="0.29269">
        <ele>2287.1</ele>
        <time>2011-07-10T10:24:47Z</time>
      </trkpt>
      <trkpt lat="42.67908" lon="0.29271">
        <ele>2287.6</ele>
        <time>2011-07-10T10:24:48Z</time>
      </trkpt>
      <trkpt lat="42.67907" lon="0.29287">
        <ele>2289</ele>
        <time>2011-07-10T10:25:02Z</time>
      </trkpt>
      <trkpt lat="42.67906" lon="0.29293">
        <ele>2291</ele>
        <time>2011-07-10T10:25:15Z</time>
      </trkpt>
      <trkpt lat="42.67912" lon="0.29332">
        <ele>2291</ele>
        <time>2011-07-10T10:25:48Z</time>
      </trkpt>
      <trkpt lat="42.67912" lon="0.29333">
        <ele>2291</ele>
        <time>2011-07-10T10:25:49Z</time>
      </trkpt>
      <trkpt lat="42.67915" lon="0.29346">
        <ele>2291</ele>
        <time>2011-07-10T10:25:57Z</time>
      </trkpt>
      <trkpt lat="42.67917" lon="0.29368">
        <ele>2291.4</ele>
        <time>2011-07-10T10:26:10Z</time>
      </trkpt>
      <trkpt lat="42.67919" lon="0.29378">
        <ele>2291.9</ele>
        <time>2011-07-10T10:26:16Z</time>
      </trkpt>
      <trkpt lat="42.67916" lon="0.29379">
        <ele>2291</ele>
        <time>2011-07-10T10:26:18Z</time>
      </trkpt>
      <trkpt lat="42.67914" lon="0.29385">
        <ele>2292.4</ele>
        <time>2011-07-10T10:26:23Z</time>
      </trkpt>
      <trkpt lat="42.67907" lon="0.29412">
        <ele>2291.4</ele>
        <time>2011-07-10T10:26:39Z</time>
      </trkpt>
      <trkpt lat="42.67903" lon="0.29431">
        <ele>2289.5</ele>
        <time>2011-07-10T10:26:45Z</time>
      </trkpt>
      <trkpt lat="42.67898" lon="0.29453">
        <ele>2288.1</ele>
        <time>2011-07-10T10:26:54Z</time>
      </trkpt>
      <trkpt lat="42.679" lon="0.29461">
        <ele>2289</ele>
        <time>2011-07-10T10:27:07Z</time>
      </trkpt>
      <trkpt lat="42.67901" lon="0.29466">
        <ele>2288.6</ele>
        <time>2011-07-10T10:27:18Z</time>
      </trkpt>
      <trkpt lat="42.67901" lon="0.29466">
        <ele>2288.6</ele>
        <time>2011-07-10T10:27:57Z</time>
      </trkpt>
      <trkpt lat="42.6792" lon="0.29501">
        <ele>2288.6</ele>
        <time>2011-07-10T10:28:19Z</time>
      </trkpt>
      <trkpt lat="42.67925" lon="0.29507">
        <ele>2287.6</ele>
        <time>2011-07-10T10:28:23Z</time>
      </trkpt>
      <trkpt lat="42.67925" lon="0.29514">
        <ele>2288.1</ele>
        <time>2011-07-10T10:28:27Z</time>
      </trkpt>
      <trkpt lat="42.6795" lon="0.29553">
        <ele>2290</ele>
        <time>2011-07-10T10:28:54Z</time>
      </trkpt>
      <trkpt lat="42.67961" lon="0.29566">
        <ele>2290</ele>
        <time>2011-07-10T10:29:05Z</time>
      </trkpt>
      <trkpt lat="42.67975" lon="0.29577">
        <ele>2291</ele>
        <time>2011-07-10T10:29:16Z</time>
      </trkpt>
      <trkpt lat="42.67978" lon="0.29583">
        <ele>2291.4</ele>
        <time>2011-07-10T10:29:25Z</time>
      </trkpt>
      <trkpt lat="42.67979" lon="0.29583">
        <ele>2291.4</ele>
        <time>2011-07-10T10:29:35Z</time>
      </trkpt>
      <trkpt lat="42.67982" lon="0.29585">
        <ele>2291.9</ele>
        <time>2011-07-10T10:29:38Z</time>
      </trkpt>
      <trkpt lat="42.67995" lon="0.29603">
        <ele>2294.8</ele>
        <time>2011-07-10T10:29:53Z</time>
      </trkpt>
      <trkpt lat="42.67999" lon="0.29613">
        <ele>2294.8</ele>
        <time>2011-07-10T10:30:03Z</time>
      </trkpt>
      <trkpt lat="42.68016" lon="0.29643">
        <ele>2297.7</ele>
        <time>2011-07-10T10:30:29Z</time>
      </trkpt>
      <trkpt lat="42.68037" lon="0.2967">
        <ele>2299.6</ele>
        <time>2011-07-10T10:30:58Z</time>
      </trkpt>
      <trkpt lat="42.68044" lon="0.29674">
        <ele>2300.1</ele>
        <time>2011-07-10T10:31:05Z</time>
      </trkpt>
      <trkpt lat="42.68056" lon="0.29684">
        <ele>2299.6</ele>
        <time>2011-07-10T10:31:16Z</time>
      </trkpt>
      <trkpt lat="42.68068" lon="0.29688">
        <ele>2299.1</ele>
        <time>2011-07-10T10:31:29Z</time>
      </trkpt>
      <trkpt lat="42.68068" lon="0.29689">
        <ele>2299.1</ele>
        <time>2011-07-10T10:32:23Z</time>
      </trkpt>
      <trkpt lat="42.68079" lon="0.29695">
        <ele>2298.2</ele>
        <time>2011-07-10T10:32:32Z</time>
      </trkpt>
      <trkpt lat="42.68103" lon="0.29686">
        <ele>2298.2</ele>
        <time>2011-07-10T10:32:43Z</time>
      </trkpt>
      <trkpt lat="42.68103" lon="0.29686">
        <ele>2298.2</ele>
        <time>2011-07-10T10:32:43Z</time>
      </trkpt>
      <trkpt lat="42.68116" lon="0.29686">
        <ele>2301.1</ele>
        <time>2011-07-10T10:32:51Z</time>
      </trkpt>
      <trkpt lat="42.68122" lon="0.29691">
        <ele>2302.5</ele>
        <time>2011-07-10T10:33:00Z</time>
      </trkpt>
      <trkpt lat="42.68124" lon="0.29693">
        <ele>2303</ele>
        <time>2011-07-10T10:33:17Z</time>
      </trkpt>
      <trkpt lat="42.68129" lon="0.29697">
        <ele>2301.1</ele>
        <time>2011-07-10T10:34:41Z</time>
      </trkpt>
      <trkpt lat="42.68135" lon="0.29703">
        <ele>2299.6</ele>
        <time>2011-07-10T10:34:45Z</time>
      </trkpt>
      <trkpt lat="42.68138" lon="0.29711">
        <ele>2298.2</ele>
        <time>2011-07-10T10:34:55Z</time>
      </trkpt>
      <trkpt lat="42.68145" lon="0.29729">
        <ele>2297.2</ele>
        <time>2011-07-10T10:35:08Z</time>
      </trkpt>
      <trkpt lat="42.68143" lon="0.29737">
        <ele>2297.7</ele>
        <time>2011-07-10T10:35:49Z</time>
      </trkpt>
      <trkpt lat="42.68141" lon="0.29751">
        <ele>2300.6</ele>
        <time>2011-07-10T10:36:00Z</time>
      </trkpt>
      <trkpt lat="42.6814" lon="0.29755">
        <ele>2301.1</ele>
        <time>2011-07-10T10:36:03Z</time>
      </trkpt>
      <trkpt lat="42.6814" lon="0.29762">
        <ele>2301.1</ele>
        <time>2011-07-10T10:36:09Z</time>
      </trkpt>
      <trkpt lat="42.68137" lon="0.29767">
        <ele>2302</ele>
        <time>2011-07-10T10:36:19Z</time>
      </trkpt>
      <trkpt lat="42.68139" lon="0.29781">
        <ele>2304.9</ele>
        <time>2011-07-10T10:36:34Z</time>
      </trkpt>
      <trkpt lat="42.68139" lon="0.2979">
        <ele>2306.3</ele>
        <time>2011-07-10T10:36:47Z</time>
      </trkpt>
      <trkpt lat="42.6814" lon="0.298">
        <ele>2309.7</ele>
        <time>2011-07-10T10:36:59Z</time>
      </trkpt>
      <trkpt lat="42.68153" lon="0.29823">
        <ele>2312.1</ele>
        <time>2011-07-10T10:37:23Z</time>
      </trkpt>
      <trkpt lat="42.68159" lon="0.29838">
        <ele>2313.5</ele>
        <time>2011-07-10T10:37:36Z</time>
      </trkpt>
      <trkpt lat="42.68163" lon="0.29851">
        <ele>2315</ele>
        <time>2011-07-10T10:37:47Z</time>
      </trkpt>
      <trkpt lat="42.68164" lon="0.29865">
        <ele>2312.1</ele>
        <time>2011-07-10T10:37:57Z</time>
      </trkpt>
      <trkpt lat="42.68176" lon="0.29905">
        <ele>2315</ele>
        <time>2011-07-10T10:38:23Z</time>
      </trkpt>
      <trkpt lat="42.68179" lon="0.29914">
        <ele>2315</ele>
        <time>2011-07-10T10:38:31Z</time>
      </trkpt>
      <trkpt lat="42.68186" lon="0.29925">
        <ele>2316</ele>
        <time>2011-07-10T10:38:43Z</time>
      </trkpt>
      <trkpt lat="42.6819" lon="0.29938">
        <ele>2314.5</ele>
        <time>2011-07-10T10:38:59Z</time>
      </trkpt>
      <trkpt lat="42.68186" lon="0.29951">
        <ele>2318.4</ele>
        <time>2011-07-10T10:39:42Z</time>
      </trkpt>
      <trkpt lat="42.68185" lon="0.29959">
        <ele>2323.6</ele>
        <time>2011-07-10T10:39:57Z</time>
      </trkpt>
      <trkpt lat="42.68186" lon="0.29959">
        <ele>2323.2</ele>
        <time>2011-07-10T10:39:58Z</time>
      </trkpt>
      <trkpt lat="42.68185" lon="0.29966">
        <ele>2326</ele>
        <time>2011-07-10T10:40:07Z</time>
      </trkpt>
      <trkpt lat="42.68185" lon="0.29967">
        <ele>2324.1</ele>
        <time>2011-07-10T10:40:10Z</time>
      </trkpt>
      <trkpt lat="42.68179" lon="0.29967">
        <ele>2327.5</ele>
        <time>2011-07-10T10:40:21Z</time>
      </trkpt>
      <trkpt lat="42.68177" lon="0.29972">
        <ele>2327</ele>
        <time>2011-07-10T10:40:36Z</time>
      </trkpt>
      <trkpt lat="42.68172" lon="0.29975">
        <ele>2329.9</ele>
        <time>2011-07-10T10:40:50Z</time>
      </trkpt>
      <trkpt lat="42.68167" lon="0.29974">
        <ele>2329.9</ele>
        <time>2011-07-10T10:40:58Z</time>
      </trkpt>
      <trkpt lat="42.68163" lon="0.29978">
        <ele>2330.9</ele>
        <time>2011-07-10T10:41:08Z</time>
      </trkpt>
      <trkpt lat="42.68172" lon="0.29991">
        <ele>2334.2</ele>
        <time>2011-07-10T10:41:23Z</time>
      </trkpt>
      <trkpt lat="42.68173" lon="0.3">
        <ele>2335.7</ele>
        <time>2011-07-10T10:41:37Z</time>
      </trkpt>
      <trkpt lat="42.68177" lon="0.30013">
        <ele>2338.5</ele>
        <time>2011-07-10T10:41:54Z</time>
      </trkpt>
      <trkpt lat="42.68186" lon="0.30031">
        <ele>2340</ele>
        <time>2011-07-10T10:42:13Z</time>
      </trkpt>
      <trkpt lat="42.68192" lon="0.30038">
        <ele>2344.3</ele>
        <time>2011-07-10T10:42:23Z</time>
      </trkpt>
      <trkpt lat="42.68196" lon="0.30053">
        <ele>2342.4</ele>
        <time>2011-07-10T10:42:35Z</time>
      </trkpt>
      <trkpt lat="42.682" lon="0.30071">
        <ele>2342.4</ele>
        <time>2011-07-10T10:42:48Z</time>
      </trkpt>
      <trkpt lat="42.682" lon="0.30073">
        <ele>2343.8</ele>
        <time>2011-07-10T10:42:51Z</time>
      </trkpt>
      <trkpt lat="42.68202" lon="0.30084">
        <ele>2342.9</ele>
        <time>2011-07-10T10:43:00Z</time>
      </trkpt>
      <trkpt lat="42.68199" lon="0.30093">
        <ele>2346.2</ele>
        <time>2011-07-10T10:43:08Z</time>
      </trkpt>
      <trkpt lat="42.68198" lon="0.30094">
        <ele>2347.2</ele>
        <time>2011-07-10T10:43:10Z</time>
      </trkpt>
      <trkpt lat="42.68196" lon="0.30106">
        <ele>2347.2</ele>
        <time>2011-07-10T10:43:27Z</time>
      </trkpt>
      <trkpt lat="42.68195" lon="0.30122">
        <ele>2353</ele>
        <time>2011-07-10T10:43:38Z</time>
      </trkpt>
      <trkpt lat="42.68195" lon="0.30123">
        <ele>2351</ele>
        <time>2011-07-10T10:43:39Z</time>
      </trkpt>
      <trkpt lat="42.68191" lon="0.3015">
        <ele>2349.6</ele>
        <time>2011-07-10T10:43:58Z</time>
      </trkpt>
      <trkpt lat="42.68186" lon="0.30172">
        <ele>2350.6</ele>
        <time>2011-07-10T10:44:13Z</time>
      </trkpt>
      <trkpt lat="42.68182" lon="0.30193">
        <ele>2352.5</ele>
        <time>2011-07-10T10:44:29Z</time>
      </trkpt>
      <trkpt lat="42.68188" lon="0.30213">
        <ele>2354.9</ele>
        <time>2011-07-10T10:44:47Z</time>
      </trkpt>
      <trkpt lat="42.68187" lon="0.3023">
        <ele>2354.4</ele>
        <time>2011-07-10T10:45:46Z</time>
      </trkpt>
      <trkpt lat="42.68187" lon="0.30242">
        <ele>2352</ele>
        <time>2011-07-10T10:46:00Z</time>
      </trkpt>
      <trkpt lat="42.68187" lon="0.30259">
        <ele>2352</ele>
        <time>2011-07-10T10:46:12Z</time>
      </trkpt>
      <trkpt lat="42.68184" lon="0.30274">
        <ele>2354.4</ele>
        <time>2011-07-10T10:46:27Z</time>
      </trkpt>
      <trkpt lat="42.68184" lon="0.30291">
        <ele>2356.8</ele>
        <time>2011-07-10T10:46:43Z</time>
      </trkpt>
      <trkpt lat="42.68183" lon="0.30306">
        <ele>2359.2</ele>
        <time>2011-07-10T10:46:59Z</time>
      </trkpt>
      <trkpt lat="42.68183" lon="0.30323">
        <ele>2362.6</ele>
        <time>2011-07-10T10:47:15Z</time>
      </trkpt>
      <trkpt lat="42.68181" lon="0.30338">
        <ele>2365</ele>
        <time>2011-07-10T10:47:29Z</time>
      </trkpt>
      <trkpt lat="42.68183" lon="0.30341">
        <ele>2365.9</ele>
        <time>2011-07-10T10:47:42Z</time>
      </trkpt>
      <trkpt lat="42.68192" lon="0.30342">
        <ele>2366.9</ele>
        <time>2011-07-10T10:47:53Z</time>
      </trkpt>
      <trkpt lat="42.68193" lon="0.30342">
        <ele>2366.9</ele>
        <time>2011-07-10T10:47:54Z</time>
      </trkpt>
      <trkpt lat="42.68203" lon="0.30347">
        <ele>2367.4</ele>
        <time>2011-07-10T10:48:09Z</time>
      </trkpt>
      <trkpt lat="42.68203" lon="0.3035">
        <ele>2367.9</ele>
        <time>2011-07-10T10:48:50Z</time>
      </trkpt>
      <trkpt lat="42.68203" lon="0.30351">
        <ele>2368.3</ele>
        <time>2011-07-10T10:48:57Z</time>
      </trkpt>
      <trkpt lat="42.68207" lon="0.30374">
        <ele>2370.7</ele>
        <time>2011-07-10T10:49:13Z</time>
      </trkpt>
      <trkpt lat="42.68213" lon="0.30393">
        <ele>2373.2</ele>
        <time>2011-07-10T10:49:27Z</time>
      </trkpt>
      <trkpt lat="42.68204" lon="0.30404">
        <ele>2375.1</ele>
        <time>2011-07-10T10:49:44Z</time>
      </trkpt>
      <trkpt lat="42.68198" lon="0.30407">
        <ele>2376.5</ele>
        <time>2011-07-10T10:49:52Z</time>
      </trkpt>
      <trkpt lat="42.68194" lon="0.30411">
        <ele>2377.5</ele>
        <time>2011-07-10T10:49:59Z</time>
      </trkpt>
      <trkpt lat="42.68195" lon="0.30426">
        <ele>2379.9</ele>
        <time>2011-07-10T10:50:12Z</time>
      </trkpt>
      <trkpt lat="42.68203" lon="0.3046">
        <ele>2385.6</ele>
        <time>2011-07-10T10:50:45Z</time>
      </trkpt>
      <trkpt lat="42.68204" lon="0.30475">
        <ele>2388.5</ele>
        <time>2011-07-10T10:51:00Z</time>
      </trkpt>
      <trkpt lat="42.68209" lon="0.30505">
        <ele>2391.4</ele>
        <time>2011-07-10T10:51:27Z</time>
      </trkpt>
      <trkpt lat="42.6821" lon="0.30519">
        <ele>2394.3</ele>
        <time>2011-07-10T10:51:42Z</time>
      </trkpt>
      <trkpt lat="42.68208" lon="0.3053">
        <ele>2397.2</ele>
        <time>2011-07-10T10:51:56Z</time>
      </trkpt>
      <trkpt lat="42.68208" lon="0.30539">
        <ele>2398.6</ele>
        <time>2011-07-10T10:52:08Z</time>
      </trkpt>
      <trkpt lat="42.68209" lon="0.30546">
        <ele>2400.1</ele>
        <time>2011-07-10T10:52:18Z</time>
      </trkpt>
      <trkpt lat="42.68209" lon="0.3055">
        <ele>2400.5</ele>
        <time>2011-07-10T10:52:29Z</time>
      </trkpt>
      <trkpt lat="42.68212" lon="0.30561">
        <ele>2401.5</ele>
        <time>2011-07-10T10:52:53Z</time>
      </trkpt>
      <trkpt lat="42.68214" lon="0.30585">
        <ele>2405.4</ele>
        <time>2011-07-10T10:53:18Z</time>
      </trkpt>
      <trkpt lat="42.6822" lon="0.30597">
        <ele>2407.8</ele>
        <time>2011-07-10T10:53:32Z</time>
      </trkpt>
      <trkpt lat="42.68226" lon="0.30617">
        <ele>2412.1</ele>
        <time>2011-07-10T10:53:58Z</time>
      </trkpt>
      <trkpt lat="42.68236" lon="0.30626">
        <ele>2411.6</ele>
        <time>2011-07-10T10:54:13Z</time>
      </trkpt>
      <trkpt lat="42.68239" lon="0.30631">
        <ele>2411.1</ele>
        <time>2011-07-10T10:54:17Z</time>
      </trkpt>
      <trkpt lat="42.68248" lon="0.30634">
        <ele>2411.6</ele>
        <time>2011-07-10T10:54:28Z</time>
      </trkpt>
      <trkpt lat="42.68251" lon="0.30631">
        <ele>2413</ele>
        <time>2011-07-10T10:54:37Z</time>
      </trkpt>
      <trkpt lat="42.68262" lon="0.3063">
        <ele>2413</ele>
        <time>2011-07-10T10:54:59Z</time>
      </trkpt>
      <trkpt lat="42.68276" lon="0.30636">
        <ele>2415</ele>
        <time>2011-07-10T10:55:21Z</time>
      </trkpt>
      <trkpt lat="42.68285" lon="0.30645">
        <ele>2415.4</ele>
        <time>2011-07-10T10:55:35Z</time>
      </trkpt>
      <trkpt lat="42.6828" lon="0.3065">
        <ele>2417.4</ele>
        <time>2011-07-10T10:56:19Z</time>
      </trkpt>
      <trkpt lat="42.68272" lon="0.30657">
        <ele>2420.7</ele>
        <time>2011-07-10T10:56:33Z</time>
      </trkpt>
      <trkpt lat="42.6827" lon="0.30659">
        <ele>2422.7</ele>
        <time>2011-07-10T10:56:38Z</time>
      </trkpt>
      <trkpt lat="42.68268" lon="0.30667">
        <ele>2423.1</ele>
        <time>2011-07-10T10:56:53Z</time>
      </trkpt>
      <trkpt lat="42.6826" lon="0.30678">
        <ele>2426</ele>
        <time>2011-07-10T10:57:09Z</time>
      </trkpt>
      <trkpt lat="42.68256" lon="0.30689">
        <ele>2427</ele>
        <time>2011-07-10T10:57:21Z</time>
      </trkpt>
      <trkpt lat="42.68255" lon="0.30697">
        <ele>2429.9</ele>
        <time>2011-07-10T10:57:35Z</time>
      </trkpt>
      <trkpt lat="42.68259" lon="0.30704">
        <ele>2429.9</ele>
        <time>2011-07-10T10:57:45Z</time>
      </trkpt>
      <trkpt lat="42.68258" lon="0.30714">
        <ele>2432.8</ele>
        <time>2011-07-10T10:58:01Z</time>
      </trkpt>
      <trkpt lat="42.68258" lon="0.30715">
        <ele>2433.7</ele>
        <time>2011-07-10T10:58:03Z</time>
      </trkpt>
      <trkpt lat="42.68256" lon="0.30721">
        <ele>2434.2</ele>
        <time>2011-07-10T10:58:12Z</time>
      </trkpt>
      <trkpt lat="42.68256" lon="0.30736">
        <ele>2436.1</ele>
        <time>2011-07-10T10:58:28Z</time>
      </trkpt>
      <trkpt lat="42.68254" lon="0.30745">
        <ele>2438</ele>
        <time>2011-07-10T10:58:40Z</time>
      </trkpt>
      <trkpt lat="42.68248" lon="0.30755">
        <ele>2440.9</ele>
        <time>2011-07-10T10:58:53Z</time>
      </trkpt>
      <trkpt lat="42.68244" lon="0.30763">
        <ele>2441.9</ele>
        <time>2011-07-10T10:59:04Z</time>
      </trkpt>
      <trkpt lat="42.68242" lon="0.3077">
        <ele>2444.8</ele>
        <time>2011-07-10T10:59:11Z</time>
      </trkpt>
      <trkpt lat="42.68242" lon="0.30771">
        <ele>2444.3</ele>
        <time>2011-07-10T10:59:12Z</time>
      </trkpt>
      <trkpt lat="42.68243" lon="0.30775">
        <ele>2446.2</ele>
        <time>2011-07-10T10:59:17Z</time>
      </trkpt>
      <trkpt lat="42.68241" lon="0.30781">
        <ele>2444.3</ele>
        <time>2011-07-10T10:59:24Z</time>
      </trkpt>
      <trkpt lat="42.68238" lon="0.30783">
        <ele>2447.7</ele>
        <time>2011-07-10T10:59:31Z</time>
      </trkpt>
      <trkpt lat="42.68238" lon="0.30784">
        <ele>2446.7</ele>
        <time>2011-07-10T10:59:32Z</time>
      </trkpt>
      <trkpt lat="42.68236" lon="0.3079">
        <ele>2448.1</ele>
        <time>2011-07-10T10:59:48Z</time>
      </trkpt>
      <trkpt lat="42.68233" lon="0.30795">
        <ele>2448.1</ele>
        <time>2011-07-10T11:00:03Z</time>
      </trkpt>
      <trkpt lat="42.6823" lon="0.30797">
        <ele>2451.5</ele>
        <time>2011-07-10T11:00:09Z</time>
      </trkpt>
      <trkpt lat="42.68227" lon="0.308">
        <ele>2451.5</ele>
        <time>2011-07-10T11:00:22Z</time>
      </trkpt>
      <trkpt lat="42.68224" lon="0.30805">
        <ele>2454.4</ele>
        <time>2011-07-10T11:00:36Z</time>
      </trkpt>
      <trkpt lat="42.68222" lon="0.30816">
        <ele>2456.8</ele>
        <time>2011-07-10T11:00:54Z</time>
      </trkpt>
      <trkpt lat="42.68217" lon="0.30814">
        <ele>2458.7</ele>
        <time>2011-07-10T11:01:15Z</time>
      </trkpt>
      <trkpt lat="42.68212" lon="0.30816">
        <ele>2459.7</ele>
        <time>2011-07-10T11:01:29Z</time>
      </trkpt>
      <trkpt lat="42.68209" lon="0.3082">
        <ele>2462.1</ele>
        <time>2011-07-10T11:01:45Z</time>
      </trkpt>
      <trkpt lat="42.68206" lon="0.30823">
        <ele>2465.4</ele>
        <time>2011-07-10T11:01:56Z</time>
      </trkpt>
      <trkpt lat="42.68202" lon="0.30829">
        <ele>2465.4</ele>
        <time>2011-07-10T11:02:06Z</time>
      </trkpt>
      <trkpt lat="42.68201" lon="0.30832">
        <ele>2466.9</ele>
        <time>2011-07-10T11:02:16Z</time>
      </trkpt>
      <trkpt lat="42.68198" lon="0.30832">
        <ele>2467.4</ele>
        <time>2011-07-10T11:02:27Z</time>
      </trkpt>
      <trkpt lat="42.68196" lon="0.30835">
        <ele>2470.7</ele>
        <time>2011-07-10T11:02:39Z</time>
      </trkpt>
      <trkpt lat="42.68196" lon="0.30837">
        <ele>2471.7</ele>
        <time>2011-07-10T11:02:43Z</time>
      </trkpt>
      <trkpt lat="42.68193" lon="0.30841">
        <ele>2473.6</ele>
        <time>2011-07-10T11:02:55Z</time>
      </trkpt>
      <trkpt lat="42.68189" lon="0.30843">
        <ele>2474.6</ele>
        <time>2011-07-10T11:03:05Z</time>
      </trkpt>
      <trkpt lat="42.68185" lon="0.30842">
        <ele>2473.1</ele>
        <time>2011-07-10T11:03:15Z</time>
      </trkpt>
      <trkpt lat="42.68185" lon="0.30841">
        <ele>2474.1</ele>
        <time>2011-07-10T11:03:55Z</time>
      </trkpt>
      <trkpt lat="42.68185" lon="0.30843">
        <ele>2474.1</ele>
        <time>2011-07-10T11:03:57Z</time>
      </trkpt>
      <trkpt lat="42.68183" lon="0.30848">
        <ele>2475.1</ele>
        <time>2011-07-10T11:04:01Z</time>
      </trkpt>
      <trkpt lat="42.6818" lon="0.30863">
        <ele>2477.5</ele>
        <time>2011-07-10T11:04:15Z</time>
      </trkpt>
      <trkpt lat="42.68172" lon="0.30873">
        <ele>2479.9</ele>
        <time>2011-07-10T11:04:31Z</time>
      </trkpt>
      <trkpt lat="42.68165" lon="0.30878">
        <ele>2482.3</ele>
        <time>2011-07-10T11:04:48Z</time>
      </trkpt>
      <trkpt lat="42.68161" lon="0.30883">
        <ele>2484.7</ele>
        <time>2011-07-10T11:05:18Z</time>
      </trkpt>
      <trkpt lat="42.68154" lon="0.30884">
        <ele>2487.1</ele>
        <time>2011-07-10T11:05:35Z</time>
      </trkpt>
      <trkpt lat="42.6815" lon="0.30886">
        <ele>2489</ele>
        <time>2011-07-10T11:05:45Z</time>
      </trkpt>
      <trkpt lat="42.68148" lon="0.30893">
        <ele>2490.4</ele>
        <time>2011-07-10T11:05:58Z</time>
      </trkpt>
      <trkpt lat="42.68147" lon="0.30901">
        <ele>2492.8</ele>
        <time>2011-07-10T11:06:12Z</time>
      </trkpt>
      <trkpt lat="42.68145" lon="0.30905">
        <ele>2493.8</ele>
        <time>2011-07-10T11:06:24Z</time>
      </trkpt>
      <trkpt lat="42.68141" lon="0.30909">
        <ele>2495.7</ele>
        <time>2011-07-10T11:06:38Z</time>
      </trkpt>
      <trkpt lat="42.6814" lon="0.30915">
        <ele>2497.6</ele>
        <time>2011-07-10T11:06:50Z</time>
      </trkpt>
      <trkpt lat="42.68136" lon="0.3092">
        <ele>2499.6</ele>
        <time>2011-07-10T11:07:08Z</time>
      </trkpt>
      <trkpt lat="42.68136" lon="0.30926">
        <ele>2502</ele>
        <time>2011-07-10T11:07:26Z</time>
      </trkpt>
      <trkpt lat="42.68132" lon="0.30931">
        <ele>2503.9</ele>
        <time>2011-07-10T11:07:41Z</time>
      </trkpt>
      <trkpt lat="42.68118" lon="0.30927">
        <ele>2509.2</ele>
        <time>2011-07-10T11:08:12Z</time>
      </trkpt>
      <trkpt lat="42.68111" lon="0.30927">
        <ele>2512.1</ele>
        <time>2011-07-10T11:08:30Z</time>
      </trkpt>
      <trkpt lat="42.68102" lon="0.30923">
        <ele>2515.4</ele>
        <time>2011-07-10T11:08:50Z</time>
      </trkpt>
      <trkpt lat="42.68097" lon="0.30925">
        <ele>2516.9</ele>
        <time>2011-07-10T11:09:08Z</time>
      </trkpt>
      <trkpt lat="42.68089" lon="0.30929">
        <ele>2519.8</ele>
        <time>2011-07-10T11:09:23Z</time>
      </trkpt>
      <trkpt lat="42.68089" lon="0.30929">
        <ele>2519.8</ele>
        <time>2011-07-10T11:09:23Z</time>
      </trkpt>
      <trkpt lat="42.68084" lon="0.30939">
        <ele>2521.7</ele>
        <time>2011-07-10T11:09:40Z</time>
      </trkpt>
      <trkpt lat="42.68088" lon="0.30947">
        <ele>2522.6</ele>
        <time>2011-07-10T11:09:52Z</time>
      </trkpt>
      <trkpt lat="42.68089" lon="0.30953">
        <ele>2522.6</ele>
        <time>2011-07-10T11:10:07Z</time>
      </trkpt>
      <trkpt lat="42.6809" lon="0.30956">
        <ele>2523.6</ele>
        <time>2011-07-10T11:10:09Z</time>
      </trkpt>
      <trkpt lat="42.68095" lon="0.30997">
        <ele>2529.8</ele>
        <time>2011-07-10T11:10:33Z</time>
      </trkpt>
      <trkpt lat="42.68095" lon="0.30999">
        <ele>2529.4</ele>
        <time>2011-07-10T11:10:34Z</time>
      </trkpt>
      <trkpt lat="42.68102" lon="0.31004">
        <ele>2532.7</ele>
        <time>2011-07-10T11:10:40Z</time>
      </trkpt>
      <trkpt lat="42.68106" lon="0.31009">
        <ele>2532.7</ele>
        <time>2011-07-10T11:10:45Z</time>
      </trkpt>
      <trkpt lat="42.68107" lon="0.3102">
        <ele>2534.7</ele>
        <time>2011-07-10T11:10:53Z</time>
      </trkpt>
      <trkpt lat="42.68103" lon="0.31024">
        <ele>2534.7</ele>
        <time>2011-07-10T11:11:03Z</time>
      </trkpt>
      <trkpt lat="42.68103" lon="0.31022">
        <ele>2534.7</ele>
        <time>2011-07-10T11:11:41Z</time>
      </trkpt>
      <trkpt lat="42.68103" lon="0.31026">
        <ele>2535.6</ele>
        <time>2011-07-10T11:16:02Z</time>
      </trkpt>
      <trkpt lat="42.68105" lon="0.31051">
        <ele>2536.6</ele>
        <time>2011-07-10T11:16:53Z</time>
      </trkpt>
      <trkpt lat="42.68106" lon="0.31083">
        <ele>2536.6</ele>
        <time>2011-07-10T11:17:06Z</time>
      </trkpt>
      <trkpt lat="42.68107" lon="0.31089">
        <ele>2538.5</ele>
        <time>2011-07-10T11:17:09Z</time>
      </trkpt>
      <trkpt lat="42.68106" lon="0.31105">
        <ele>2542.3</ele>
        <time>2011-07-10T11:17:16Z</time>
      </trkpt>
      <trkpt lat="42.68109" lon="0.31123">
        <ele>2542.3</ele>
        <time>2011-07-10T11:17:24Z</time>
      </trkpt>
      <trkpt lat="42.68109" lon="0.31135">
        <ele>2545.7</ele>
        <time>2011-07-10T11:17:31Z</time>
      </trkpt>
      <trkpt lat="42.68112" lon="0.31141">
        <ele>2545.7</ele>
        <time>2011-07-10T11:17:35Z</time>
      </trkpt>
      <trkpt lat="42.68113" lon="0.31164">
        <ele>2545.2</ele>
        <time>2011-07-10T11:17:49Z</time>
      </trkpt>
      <trkpt lat="42.68112" lon="0.31168">
        <ele>2544.7</ele>
        <time>2011-07-10T11:17:52Z</time>
      </trkpt>
      <trkpt lat="42.6812" lon="0.31184">
        <ele>2546.7</ele>
        <time>2011-07-10T11:18:05Z</time>
      </trkpt>
      <trkpt lat="42.68127" lon="0.31193">
        <ele>2547.2</ele>
        <time>2011-07-10T11:18:14Z</time>
      </trkpt>
      <trkpt lat="42.68145" lon="0.31214">
        <ele>2551</ele>
        <time>2011-07-10T11:18:39Z</time>
      </trkpt>
      <trkpt lat="42.6815" lon="0.31219">
        <ele>2552.4</ele>
        <time>2011-07-10T11:18:45Z</time>
      </trkpt>
      <trkpt lat="42.68152" lon="0.3122">
        <ele>2552.4</ele>
        <time>2011-07-10T11:18:47Z</time>
      </trkpt>
      <trkpt lat="42.68154" lon="0.31223">
        <ele>2552</ele>
        <time>2011-07-10T11:18:50Z</time>
      </trkpt>
      <trkpt lat="42.68162" lon="0.31255">
        <ele>2553.4</ele>
        <time>2011-07-10T11:19:12Z</time>
      </trkpt>
      <trkpt lat="42.68164" lon="0.31257">
        <ele>2556.3</ele>
        <time>2011-07-10T11:19:15Z</time>
      </trkpt>
      <trkpt lat="42.68169" lon="0.31256">
        <ele>2556.8</ele>
        <time>2011-07-10T11:19:21Z</time>
      </trkpt>
      <trkpt lat="42.68178" lon="0.31254">
        <ele>2559.6</ele>
        <time>2011-07-10T11:19:29Z</time>
      </trkpt>
      <trkpt lat="42.6819" lon="0.31259">
        <ele>2561.1</ele>
        <time>2011-07-10T11:19:42Z</time>
      </trkpt>
      <trkpt lat="42.68194" lon="0.31262">
        <ele>2560.1</ele>
        <time>2011-07-10T11:19:48Z</time>
      </trkpt>
      <trkpt lat="42.68193" lon="0.31264">
        <ele>2559.2</ele>
        <time>2011-07-10T11:19:50Z</time>
      </trkpt>
      <trkpt lat="42.68193" lon="0.31267">
        <ele>2559.6</ele>
        <time>2011-07-10T11:19:52Z</time>
      </trkpt>
      <trkpt lat="42.68191" lon="0.31284">
        <ele>2560.6</ele>
        <time>2011-07-10T11:20:03Z</time>
      </trkpt>
      <trkpt lat="42.6819" lon="0.31292">
        <ele>2560.6</ele>
        <time>2011-07-10T11:20:09Z</time>
      </trkpt>
      <trkpt lat="42.68197" lon="0.31318">
        <ele>2563.5</ele>
        <time>2011-07-10T11:20:33Z</time>
      </trkpt>
      <trkpt lat="42.68202" lon="0.31331">
        <ele>2565.9</ele>
        <time>2011-07-10T11:20:45Z</time>
      </trkpt>
      <trkpt lat="42.68207" lon="0.31351">
        <ele>2567.3</ele>
        <time>2011-07-10T11:20:59Z</time>
      </trkpt>
      <trkpt lat="42.6821" lon="0.31359">
        <ele>2568.3</ele>
        <time>2011-07-10T11:21:05Z</time>
      </trkpt>
      <trkpt lat="42.68212" lon="0.31363">
        <ele>2569.3</ele>
        <time>2011-07-10T11:21:08Z</time>
      </trkpt>
      <trkpt lat="42.68216" lon="0.31382">
        <ele>2571.7</ele>
        <time>2011-07-10T11:21:23Z</time>
      </trkpt>
      <trkpt lat="42.68217" lon="0.31387">
        <ele>2570.7</ele>
        <time>2011-07-10T11:21:30Z</time>
      </trkpt>
      <trkpt lat="42.68222" lon="0.31401">
        <ele>2575.5</ele>
        <time>2011-07-10T11:21:51Z</time>
      </trkpt>
      <trkpt lat="42.68229" lon="0.31424">
        <ele>2576.5</ele>
        <time>2011-07-10T11:22:37Z</time>
      </trkpt>
      <trkpt lat="42.68231" lon="0.31428">
        <ele>2576.5</ele>
        <time>2011-07-10T11:22:41Z</time>
      </trkpt>
      <trkpt lat="42.68234" lon="0.31432">
        <ele>2578.9</ele>
        <time>2011-07-10T11:22:45Z</time>
      </trkpt>
      <trkpt lat="42.6824" lon="0.3144">
        <ele>2580.8</ele>
        <time>2011-07-10T11:23:01Z</time>
      </trkpt>
      <trkpt lat="42.6824" lon="0.31442">
        <ele>2580.8</ele>
        <time>2011-07-10T11:23:16Z</time>
      </trkpt>
      <trkpt lat="42.68244" lon="0.31438">
        <ele>2584.2</ele>
        <time>2011-07-10T11:23:46Z</time>
      </trkpt>
      <trkpt lat="42.6825" lon="0.31433">
        <ele>2587.5</ele>
        <time>2011-07-10T11:23:59Z</time>
      </trkpt>
      <trkpt lat="42.68258" lon="0.31441">
        <ele>2588.5</ele>
        <time>2011-07-10T11:24:15Z</time>
      </trkpt>
      <trkpt lat="42.68264" lon="0.31435">
        <ele>2591.9</ele>
        <time>2011-07-10T11:24:29Z</time>
      </trkpt>
      <trkpt lat="42.68268" lon="0.31426">
        <ele>2595.2</ele>
        <time>2011-07-10T11:24:43Z</time>
      </trkpt>
      <trkpt lat="42.6827" lon="0.31425">
        <ele>2596.7</ele>
        <time>2011-07-10T11:24:48Z</time>
      </trkpt>
      <trkpt lat="42.68274" lon="0.31426">
        <ele>2599.5</ele>
        <time>2011-07-10T11:24:54Z</time>
      </trkpt>
      <trkpt lat="42.68278" lon="0.31432">
        <ele>2599.1</ele>
        <time>2011-07-10T11:25:02Z</time>
      </trkpt>
      <trkpt lat="42.68282" lon="0.31438">
        <ele>2599.5</ele>
        <time>2011-07-10T11:25:10Z</time>
      </trkpt>
      <trkpt lat="42.68286" lon="0.31442">
        <ele>2599.1</ele>
        <time>2011-07-10T11:25:14Z</time>
      </trkpt>
      <trkpt lat="42.68289" lon="0.31445">
        <ele>2601</ele>
        <time>2011-07-10T11:25:19Z</time>
      </trkpt>
      <trkpt lat="42.68298" lon="0.31442">
        <ele>2603.9</ele>
        <time>2011-07-10T11:25:32Z</time>
      </trkpt>
      <trkpt lat="42.68303" lon="0.31443">
        <ele>2606.3</ele>
        <time>2011-07-10T11:25:38Z</time>
      </trkpt>
      <trkpt lat="42.68305" lon="0.31437">
        <ele>2606.8</ele>
        <time>2011-07-10T11:25:45Z</time>
      </trkpt>
      <trkpt lat="42.68311" lon="0.31434">
        <ele>2607.2</ele>
        <time>2011-07-10T11:25:55Z</time>
      </trkpt>
      <trkpt lat="42.68314" lon="0.31435">
        <ele>2611.1</ele>
        <time>2011-07-10T11:25:58Z</time>
      </trkpt>
      <trkpt lat="42.68317" lon="0.31436">
        <ele>2609.6</ele>
        <time>2011-07-10T11:26:01Z</time>
      </trkpt>
      <trkpt lat="42.68321" lon="0.31437">
        <ele>2611.1</ele>
        <time>2011-07-10T11:26:05Z</time>
      </trkpt>
      <trkpt lat="42.68332" lon="0.31434">
        <ele>2611.6</ele>
        <time>2011-07-10T11:26:17Z</time>
      </trkpt>
      <trkpt lat="42.68338" lon="0.31442">
        <ele>2615.4</ele>
        <time>2011-07-10T11:26:26Z</time>
      </trkpt>
      <trkpt lat="42.68338" lon="0.31443">
        <ele>2615.9</ele>
        <time>2011-07-10T11:26:27Z</time>
      </trkpt>
      <trkpt lat="42.6834" lon="0.31444">
        <ele>2614.4</ele>
        <time>2011-07-10T11:26:29Z</time>
      </trkpt>
      <trkpt lat="42.68344" lon="0.31448">
        <ele>2615.9</ele>
        <time>2011-07-10T11:26:33Z</time>
      </trkpt>
      <trkpt lat="42.68359" lon="0.31454">
        <ele>2615.9</ele>
        <time>2011-07-10T11:26:48Z</time>
      </trkpt>
      <trkpt lat="42.68379" lon="0.31464">
        <ele>2619.2</ele>
        <time>2011-07-10T11:27:10Z</time>
      </trkpt>
      <trkpt lat="42.68398" lon="0.31496">
        <ele>2616.8</ele>
        <time>2011-07-10T11:27:30Z</time>
      </trkpt>
      <trkpt lat="42.68401" lon="0.315">
        <ele>2616.8</ele>
        <time>2011-07-10T11:27:31Z</time>
      </trkpt>
      <trkpt lat="42.68424" lon="0.31524">
        <ele>2615.9</ele>
        <time>2011-07-10T11:27:39Z</time>
      </trkpt>
      <trkpt lat="42.68447" lon="0.3157">
        <ele>2613.5</ele>
        <time>2011-07-10T11:27:50Z</time>
      </trkpt>
      <trkpt lat="42.68462" lon="0.31605">
        <ele>2611.6</ele>
        <time>2011-07-10T11:28:01Z</time>
      </trkpt>
      <trkpt lat="42.6846" lon="0.31616">
        <ele>2613</ele>
        <time>2011-07-10T11:28:05Z</time>
      </trkpt>
      <trkpt lat="42.68458" lon="0.3162">
        <ele>2611.1</ele>
        <time>2011-07-10T11:28:08Z</time>
      </trkpt>
      <trkpt lat="42.68459" lon="0.3162">
        <ele>2613</ele>
        <time>2011-07-10T11:28:12Z</time>
      </trkpt>
      <trkpt lat="42.68459" lon="0.3162">
        <ele>2609.6</ele>
        <time>2011-07-10T11:28:17Z</time>
      </trkpt>
      <trkpt lat="42.68459" lon="0.31621">
        <ele>2611.6</ele>
        <time>2011-07-10T11:28:27Z</time>
      </trkpt>
      <trkpt lat="42.68459" lon="0.31622">
        <ele>2612</ele>
        <time>2011-07-10T11:29:13Z</time>
      </trkpt>
      <trkpt lat="42.68459" lon="0.31622">
        <ele>2611.1</ele>
        <time>2011-07-10T11:32:05Z</time>
      </trkpt>
      <trkpt lat="42.68459" lon="0.31622">
        <ele>2613</ele>
        <time>2011-07-10T11:38:15Z</time>
      </trkpt>
      <trkpt lat="42.68459" lon="0.31622">
        <ele>2611.1</ele>
        <time>2011-07-10T11:42:47Z</time>
      </trkpt>
      <trkpt lat="42.68458" lon="0.31626">
        <ele>2616.4</ele>
        <time>2011-07-10T11:42:58Z</time>
      </trkpt>
      <trkpt lat="42.68457" lon="0.31656">
        <ele>2617.8</ele>
        <time>2011-07-10T11:43:09Z</time>
      </trkpt>
      <trkpt lat="42.6845" lon="0.31681">
        <ele>2620.7</ele>
        <time>2011-07-10T11:43:21Z</time>
      </trkpt>
      <trkpt lat="42.68448" lon="0.31704">
        <ele>2620.2</ele>
        <time>2011-07-10T11:43:32Z</time>
      </trkpt>
      <trkpt lat="42.68436" lon="0.31739">
        <ele>2620.7</ele>
        <time>2011-07-10T11:43:50Z</time>
      </trkpt>
      <trkpt lat="42.68428" lon="0.31771">
        <ele>2623.1</ele>
        <time>2011-07-10T11:44:05Z</time>
      </trkpt>
      <trkpt lat="42.68417" lon="0.31823">
        <ele>2623.1</ele>
        <time>2011-07-10T11:44:34Z</time>
      </trkpt>
      <trkpt lat="42.68416" lon="0.31858">
        <ele>2621.7</ele>
        <time>2011-07-10T11:44:44Z</time>
      </trkpt>
      <trkpt lat="42.68413" lon="0.31884">
        <ele>2621.7</ele>
        <time>2011-07-10T11:44:55Z</time>
      </trkpt>
      <trkpt lat="42.68414" lon="0.31911">
        <ele>2623.1</ele>
        <time>2011-07-10T11:45:07Z</time>
      </trkpt>
      <trkpt lat="42.68415" lon="0.31916">
        <ele>2623.6</ele>
        <time>2011-07-10T11:45:16Z</time>
      </trkpt>
      <trkpt lat="42.68416" lon="0.31974">
        <ele>2624.5</ele>
        <time>2011-07-10T11:45:40Z</time>
      </trkpt>
      <trkpt lat="42.6842" lon="0.32007">
        <ele>2624.1</ele>
        <time>2011-07-10T11:45:53Z</time>
      </trkpt>
      <trkpt lat="42.68423" lon="0.32014">
        <ele>2622.6</ele>
        <time>2011-07-10T11:45:59Z</time>
      </trkpt>
      <trkpt lat="42.68423" lon="0.32014">
        <ele>2619.7</ele>
        <time>2011-07-10T11:46:18Z</time>
      </trkpt>
      <trkpt lat="42.68428" lon="0.32035">
        <ele>2618.8</ele>
        <time>2011-07-10T11:48:04Z</time>
      </trkpt>
      <trkpt lat="42.68428" lon="0.32052">
        <ele>2619.7</ele>
        <time>2011-07-10T11:48:11Z</time>
      </trkpt>
      <trkpt lat="42.68438" lon="0.32076">
        <ele>2616.4</ele>
        <time>2011-07-10T11:48:22Z</time>
      </trkpt>
      <trkpt lat="42.68442" lon="0.32091">
        <ele>2616.4</ele>
        <time>2011-07-10T11:48:31Z</time>
      </trkpt>
      <trkpt lat="42.68454" lon="0.32112">
        <ele>2616.8</ele>
        <time>2011-07-10T11:48:49Z</time>
      </trkpt>
      <trkpt lat="42.68463" lon="0.3214">
        <ele>2617.8</ele>
        <time>2011-07-10T11:49:17Z</time>
      </trkpt>
      <trkpt lat="42.68473" lon="0.32181">
        <ele>2615.9</ele>
        <time>2011-07-10T11:49:29Z</time>
      </trkpt>
      <trkpt lat="42.68487" lon="0.32203">
        <ele>2612</ele>
        <time>2011-07-10T11:49:38Z</time>
      </trkpt>
      <trkpt lat="42.68496" lon="0.3221">
        <ele>2609.6</ele>
        <time>2011-07-10T11:49:40Z</time>
      </trkpt>
      <trkpt lat="42.68516" lon="0.32227">
        <ele>2604.8</ele>
        <time>2011-07-10T11:49:45Z</time>
      </trkpt>
      <trkpt lat="42.68525" lon="0.32236">
        <ele>2600.5</ele>
        <time>2011-07-10T11:49:47Z</time>
      </trkpt>
      <trkpt lat="42.68531" lon="0.32239">
        <ele>2599.1</ele>
        <time>2011-07-10T11:49:48Z</time>
      </trkpt>
      <trkpt lat="42.68559" lon="0.32249">
        <ele>2594.7</ele>
        <time>2011-07-10T11:49:53Z</time>
      </trkpt>
      <trkpt lat="42.68564" lon="0.32251">
        <ele>2594.3</ele>
        <time>2011-07-10T11:49:54Z</time>
      </trkpt>
      <trkpt lat="42.68569" lon="0.32256">
        <ele>2595.2</ele>
        <time>2011-07-10T11:49:59Z</time>
      </trkpt>
      <trkpt lat="42.68571" lon="0.32256">
        <ele>2595.2</ele>
        <time>2011-07-10T11:50:24Z</time>
      </trkpt>
      <trkpt lat="42.68573" lon="0.32255">
        <ele>2595.2</ele>
        <time>2011-07-10T11:50:27Z</time>
      </trkpt>
      <trkpt lat="42.68574" lon="0.32255">
        <ele>2595.7</ele>
        <time>2011-07-10T11:50:39Z</time>
      </trkpt>
      <trkpt lat="42.68586" lon="0.32251">
        <ele>2594.3</ele>
        <time>2011-07-10T11:51:54Z</time>
      </trkpt>
      <trkpt lat="42.68591" lon="0.32251">
        <ele>2592.8</ele>
        <time>2011-07-10T11:52:06Z</time>
      </trkpt>
      <trkpt lat="42.68609" lon="0.3225">
        <ele>2589</ele>
        <time>2011-07-10T11:52:26Z</time>
      </trkpt>
      <trkpt lat="42.68626" lon="0.32255">
        <ele>2588.5</ele>
        <time>2011-07-10T11:52:43Z</time>
      </trkpt>
      <trkpt lat="42.68628" lon="0.32253">
        <ele>2588.5</ele>
        <time>2011-07-10T11:52:55Z</time>
      </trkpt>
      <trkpt lat="42.68647" lon="0.32257">
        <ele>2585.6</ele>
        <time>2011-07-10T11:53:07Z</time>
      </trkpt>
      <trkpt lat="42.68661" lon="0.32264">
        <ele>2583.7</ele>
        <time>2011-07-10T11:53:12Z</time>
      </trkpt>
      <trkpt lat="42.68682" lon="0.32272">
        <ele>2581.3</ele>
        <time>2011-07-10T11:53:22Z</time>
      </trkpt>
      <trkpt lat="42.68706" lon="0.32288">
        <ele>2577.9</ele>
        <time>2011-07-10T11:53:32Z</time>
      </trkpt>
      <trkpt lat="42.68708" lon="0.3229">
        <ele>2577.4</ele>
        <time>2011-07-10T11:53:39Z</time>
      </trkpt>
      <trkpt lat="42.68709" lon="0.3229">
        <ele>2577</ele>
        <time>2011-07-10T11:54:01Z</time>
      </trkpt>
      <trkpt lat="42.68712" lon="0.3229">
        <ele>2576.5</ele>
        <time>2011-07-10T11:54:06Z</time>
      </trkpt>
      <trkpt lat="42.68715" lon="0.32291">
        <ele>2575</ele>
        <time>2011-07-10T11:54:10Z</time>
      </trkpt>
      <trkpt lat="42.68726" lon="0.32299">
        <ele>2573.6</ele>
        <time>2011-07-10T11:54:18Z</time>
      </trkpt>
      <trkpt lat="42.68739" lon="0.32305">
        <ele>2570.2</ele>
        <time>2011-07-10T11:54:22Z</time>
      </trkpt>
      <trkpt lat="42.6875" lon="0.32308">
        <ele>2567.3</ele>
        <time>2011-07-10T11:54:26Z</time>
      </trkpt>
      <trkpt lat="42.68763" lon="0.32309">
        <ele>2563.5</ele>
        <time>2011-07-10T11:54:31Z</time>
      </trkpt>
      <trkpt lat="42.68781" lon="0.32307">
        <ele>2559.6</ele>
        <time>2011-07-10T11:54:38Z</time>
      </trkpt>
      <trkpt lat="42.68792" lon="0.32309">
        <ele>2556.3</ele>
        <time>2011-07-10T11:54:43Z</time>
      </trkpt>
      <trkpt lat="42.68792" lon="0.3231">
        <ele>2556.3</ele>
        <time>2011-07-10T11:54:44Z</time>
      </trkpt>
      <trkpt lat="42.68795" lon="0.3231">
        <ele>2554.8</ele>
        <time>2011-07-10T11:54:56Z</time>
      </trkpt>
      <trkpt lat="42.68798" lon="0.32312">
        <ele>2554.8</ele>
        <time>2011-07-10T11:55:05Z</time>
      </trkpt>
      <trkpt lat="42.68813" lon="0.32316">
        <ele>2551.5</ele>
        <time>2011-07-10T11:55:10Z</time>
      </trkpt>
      <trkpt lat="42.6882" lon="0.32316">
        <ele>2550</ele>
        <time>2011-07-10T11:55:12Z</time>
      </trkpt>
      <trkpt lat="42.68844" lon="0.32312">
        <ele>2549.6</ele>
        <time>2011-07-10T11:55:21Z</time>
      </trkpt>
      <trkpt lat="42.68845" lon="0.32312">
        <ele>2550</ele>
        <time>2011-07-10T11:55:31Z</time>
      </trkpt>
      <trkpt lat="42.68868" lon="0.32309">
        <ele>2554.4</ele>
        <time>2011-07-10T11:56:02Z</time>
      </trkpt>
      <trkpt lat="42.68877" lon="0.32308">
        <ele>2553.9</ele>
        <time>2011-07-10T11:56:17Z</time>
      </trkpt>
      <trkpt lat="42.6888" lon="0.32308">
        <ele>2554.4</ele>
        <time>2011-07-10T11:56:22Z</time>
      </trkpt>
      <trkpt lat="42.68892" lon="0.32311">
        <ele>2554.8</ele>
        <time>2011-07-10T11:56:35Z</time>
      </trkpt>
      <trkpt lat="42.68898" lon="0.32311">
        <ele>2555.3</ele>
        <time>2011-07-10T11:56:48Z</time>
      </trkpt>
      <trkpt lat="42.68905" lon="0.32307">
        <ele>2557.7</ele>
        <time>2011-07-10T11:57:00Z</time>
      </trkpt>
      <trkpt lat="42.68907" lon="0.32305">
        <ele>2558.2</ele>
        <time>2011-07-10T11:57:02Z</time>
      </trkpt>
      <trkpt lat="42.68921" lon="0.32298">
        <ele>2561.6</ele>
        <time>2011-07-10T11:57:18Z</time>
      </trkpt>
      <trkpt lat="42.68931" lon="0.32291">
        <ele>2561.1</ele>
        <time>2011-07-10T11:57:31Z</time>
      </trkpt>
      <trkpt lat="42.68931" lon="0.32291">
        <ele>2562.1</ele>
        <time>2011-07-10T11:57:52Z</time>
      </trkpt>
      <trkpt lat="42.68939" lon="0.32279">
        <ele>2562.5</ele>
        <time>2011-07-10T11:58:07Z</time>
      </trkpt>
      <trkpt lat="42.68963" lon="0.32257">
        <ele>2561.6</ele>
        <time>2011-07-10T11:58:19Z</time>
      </trkpt>
      <trkpt lat="42.68989" lon="0.32244">
        <ele>2562.1</ele>
        <time>2011-07-10T11:58:30Z</time>
      </trkpt>
      <trkpt lat="42.68996" lon="0.32236">
        <ele>2563</ele>
        <time>2011-07-10T11:58:36Z</time>
      </trkpt>
      <trkpt lat="42.68999" lon="0.32236">
        <ele>2563.5</ele>
        <time>2011-07-10T11:58:39Z</time>
      </trkpt>
      <trkpt lat="42.69017" lon="0.32248">
        <ele>2564.9</ele>
        <time>2011-07-10T11:58:55Z</time>
      </trkpt>
      <trkpt lat="42.69022" lon="0.32246">
        <ele>2564.9</ele>
        <time>2011-07-10T11:58:59Z</time>
      </trkpt>
      <trkpt lat="42.6903" lon="0.32232">
        <ele>2566.9</ele>
        <time>2011-07-10T11:59:50Z</time>
      </trkpt>
      <trkpt lat="42.69031" lon="0.32228">
        <ele>2566.4</ele>
        <time>2011-07-10T11:59:52Z</time>
      </trkpt>
      <trkpt lat="42.69036" lon="0.32227">
        <ele>2567.3</ele>
        <time>2011-07-10T11:59:56Z</time>
      </trkpt>
      <trkpt lat="42.69041" lon="0.3223">
        <ele>2567.8</ele>
        <time>2011-07-10T12:00:00Z</time>
      </trkpt>
      <trkpt lat="42.69045" lon="0.32232">
        <ele>2568.3</ele>
        <time>2011-07-10T12:00:04Z</time>
      </trkpt>
      <trkpt lat="42.69048" lon="0.32229">
        <ele>2568.8</ele>
        <time>2011-07-10T12:00:08Z</time>
      </trkpt>
      <trkpt lat="42.69056" lon="0.32223">
        <ele>2570.7</ele>
        <time>2011-07-10T12:00:16Z</time>
      </trkpt>
      <trkpt lat="42.69065" lon="0.32217">
        <ele>2572.1</ele>
        <time>2011-07-10T12:00:29Z</time>
      </trkpt>
      <trkpt lat="42.69066" lon="0.32218">
        <ele>2572.6</ele>
        <time>2011-07-10T12:00:30Z</time>
      </trkpt>
      <trkpt lat="42.69074" lon="0.32221">
        <ele>2574.1</ele>
        <time>2011-07-10T12:00:40Z</time>
      </trkpt>
      <trkpt lat="42.69078" lon="0.32214">
        <ele>2574.5</ele>
        <time>2011-07-10T12:00:46Z</time>
      </trkpt>
      <trkpt lat="42.69081" lon="0.32209">
        <ele>2575.5</ele>
        <time>2011-07-10T12:00:50Z</time>
      </trkpt>
      <trkpt lat="42.69095" lon="0.322">
        <ele>2577.9</ele>
        <time>2011-07-10T12:01:08Z</time>
      </trkpt>
      <trkpt lat="42.69094" lon="0.32201">
        <ele>2580.3</ele>
        <time>2011-07-10T12:01:24Z</time>
      </trkpt>
      <trkpt lat="42.69102" lon="0.32209">
        <ele>2579.8</ele>
        <time>2011-07-10T12:01:38Z</time>
      </trkpt>
      <trkpt lat="42.69102" lon="0.32209">
        <ele>2580.3</ele>
        <time>2011-07-10T12:02:00Z</time>
      </trkpt>
      <trkpt lat="42.69111" lon="0.32209">
        <ele>2580.3</ele>
        <time>2011-07-10T12:02:16Z</time>
      </trkpt>
      <trkpt lat="42.69111" lon="0.32209">
        <ele>2581.3</ele>
        <time>2011-07-10T12:02:26Z</time>
      </trkpt>
      <trkpt lat="42.69123" lon="0.32217">
        <ele>2576</ele>
        <time>2011-07-10T12:02:32Z</time>
      </trkpt>
      <trkpt lat="42.69128" lon="0.32219">
        <ele>2574.5</ele>
        <time>2011-07-10T12:02:33Z</time>
      </trkpt>
      <trkpt lat="42.69152" lon="0.32226">
        <ele>2566.9</ele>
        <time>2011-07-10T12:02:37Z</time>
      </trkpt>
      <trkpt lat="42.69162" lon="0.32237">
        <ele>2564.9</ele>
        <time>2011-07-10T12:02:39Z</time>
      </trkpt>
      <trkpt lat="42.69178" lon="0.32246">
        <ele>2560.1</ele>
        <time>2011-07-10T12:02:42Z</time>
      </trkpt>
      <trkpt lat="42.69183" lon="0.3225">
        <ele>2557.7</ele>
        <time>2011-07-10T12:02:43Z</time>
      </trkpt>
      <trkpt lat="42.69205" lon="0.32272">
        <ele>2552.9</ele>
        <time>2011-07-10T12:02:47Z</time>
      </trkpt>
      <trkpt lat="42.69224" lon="0.3229">
        <ele>2546.2</ele>
        <time>2011-07-10T12:02:50Z</time>
      </trkpt>
      <trkpt lat="42.6923" lon="0.32296">
        <ele>2543.8</ele>
        <time>2011-07-10T12:02:51Z</time>
      </trkpt>
      <trkpt lat="42.69252" lon="0.32316">
        <ele>2537.5</ele>
        <time>2011-07-10T12:02:56Z</time>
      </trkpt>
      <trkpt lat="42.69269" lon="0.32328">
        <ele>2530.8</ele>
        <time>2011-07-10T12:02:59Z</time>
      </trkpt>
      <trkpt lat="42.69298" lon="0.32344">
        <ele>2527.4</ele>
        <time>2011-07-10T12:03:04Z</time>
      </trkpt>
      <trkpt lat="42.69301" lon="0.32343">
        <ele>2527</ele>
        <time>2011-07-10T12:03:15Z</time>
      </trkpt>
      <trkpt lat="42.69301" lon="0.32343">
        <ele>2534.2</ele>
        <time>2011-07-10T12:10:00Z</time>
      </trkpt>
      <trkpt lat="42.69301" lon="0.32342">
        <ele>2527.9</ele>
        <time>2011-07-10T12:17:12Z</time>
      </trkpt>
      <trkpt lat="42.69301" lon="0.32342">
        <ele>2531.3</ele>
        <time>2011-07-10T12:20:59Z</time>
      </trkpt>
      <trkpt lat="42.69301" lon="0.32342">
        <ele>2528.4</ele>
        <time>2011-07-10T12:22:57Z</time>
      </trkpt>
      <trkpt lat="42.693" lon="0.32343">
        <ele>2528.9</ele>
        <time>2011-07-10T12:24:42Z</time>
      </trkpt>
      <trkpt lat="42.69299" lon="0.32342">
        <ele>2529.4</ele>
        <time>2011-07-10T12:25:43Z</time>
      </trkpt>
      <trkpt lat="42.69297" lon="0.32342">
        <ele>2527.9</ele>
        <time>2011-07-10T12:25:56Z</time>
      </trkpt>
      <trkpt lat="42.69295" lon="0.32345">
        <ele>2527.4</ele>
        <time>2011-07-10T12:26:11Z</time>
      </trkpt>
      <trkpt lat="42.69288" lon="0.32353">
        <ele>2524.1</ele>
        <time>2011-07-10T12:26:15Z</time>
      </trkpt>
      <trkpt lat="42.69261" lon="0.32373">
        <ele>2518.3</ele>
        <time>2011-07-10T12:26:21Z</time>
      </trkpt>
      <trkpt lat="42.6925" lon="0.32384">
        <ele>2517.3</ele>
        <time>2011-07-10T12:26:23Z</time>
      </trkpt>
      <trkpt lat="42.69238" lon="0.32398">
        <ele>2515.4</ele>
        <time>2011-07-10T12:26:26Z</time>
      </trkpt>
      <trkpt lat="42.69232" lon="0.32402">
        <ele>2517.3</ele>
        <time>2011-07-10T12:26:29Z</time>
      </trkpt>
      <trkpt lat="42.69222" lon="0.32399">
        <ele>2515.4</ele>
        <time>2011-07-10T12:26:34Z</time>
      </trkpt>
      <trkpt lat="42.69214" lon="0.32398">
        <ele>2513.5</ele>
        <time>2011-07-10T12:26:39Z</time>
      </trkpt>
      <trkpt lat="42.69212" lon="0.32398">
        <ele>2513</ele>
        <time>2011-07-10T12:26:46Z</time>
      </trkpt>
      <trkpt lat="42.69207" lon="0.32399">
        <ele>2513</ele>
        <time>2011-07-10T12:26:59Z</time>
      </trkpt>
      <trkpt lat="42.69199" lon="0.32403">
        <ele>2510.6</ele>
        <time>2011-07-10T12:27:15Z</time>
      </trkpt>
      <trkpt lat="42.69191" lon="0.32407">
        <ele>2511.6</ele>
        <time>2011-07-10T12:27:26Z</time>
      </trkpt>
      <trkpt lat="42.69187" lon="0.3241">
        <ele>2512.5</ele>
        <time>2011-07-10T12:27:40Z</time>
      </trkpt>
      <trkpt lat="42.69175" lon="0.32416">
        <ele>2512.1</ele>
        <time>2011-07-10T12:27:59Z</time>
      </trkpt>
      <trkpt lat="42.69156" lon="0.32417">
        <ele>2511.1</ele>
        <time>2011-07-10T12:28:06Z</time>
      </trkpt>
      <trkpt lat="42.69139" lon="0.32427">
        <ele>2508.7</ele>
        <time>2011-07-10T12:28:14Z</time>
      </trkpt>
      <trkpt lat="42.69139" lon="0.32427">
        <ele>2507.7</ele>
        <time>2011-07-10T12:28:16Z</time>
      </trkpt>
      <trkpt lat="42.69136" lon="0.32427">
        <ele>2507.7</ele>
        <time>2011-07-10T12:28:22Z</time>
      </trkpt>
      <trkpt lat="42.69132" lon="0.32431">
        <ele>2506.3</ele>
        <time>2011-07-10T12:28:33Z</time>
      </trkpt>
      <trkpt lat="42.69122" lon="0.32435">
        <ele>2503.9</ele>
        <time>2011-07-10T12:28:38Z</time>
      </trkpt>
      <trkpt lat="42.69076" lon="0.32443">
        <ele>2496.2</ele>
        <time>2011-07-10T12:28:46Z</time>
      </trkpt>
      <trkpt lat="42.69072" lon="0.32444">
        <ele>2496.2</ele>
        <time>2011-07-10T12:28:51Z</time>
      </trkpt>
      <trkpt lat="42.69067" lon="0.32442">
        <ele>2494.3</ele>
        <time>2011-07-10T12:28:59Z</time>
      </trkpt>
      <trkpt lat="42.69066" lon="0.3244">
        <ele>2494.8</ele>
        <time>2011-07-10T12:29:03Z</time>
      </trkpt>
      <trkpt lat="42.69054" lon="0.3245">
        <ele>2495.7</ele>
        <time>2011-07-10T12:29:16Z</time>
      </trkpt>
      <trkpt lat="42.69041" lon="0.32457">
        <ele>2496.2</ele>
        <time>2011-07-10T12:29:24Z</time>
      </trkpt>
      <trkpt lat="42.69027" lon="0.3246">
        <ele>2495.2</ele>
        <time>2011-07-10T12:29:47Z</time>
      </trkpt>
      <trkpt lat="42.69005" lon="0.32468">
        <ele>2495.7</ele>
        <time>2011-07-10T12:29:54Z</time>
      </trkpt>
      <trkpt lat="42.68993" lon="0.32466">
        <ele>2493.3</ele>
        <time>2011-07-10T12:29:58Z</time>
      </trkpt>
      <trkpt lat="42.68973" lon="0.32477">
        <ele>2491.9</ele>
        <time>2011-07-10T12:30:04Z</time>
      </trkpt>
      <trkpt lat="42.68959" lon="0.3248">
        <ele>2490.4</ele>
        <time>2011-07-10T12:30:07Z</time>
      </trkpt>
      <trkpt lat="42.68928" lon="0.32506">
        <ele>2488</ele>
        <time>2011-07-10T12:30:14Z</time>
      </trkpt>
      <trkpt lat="42.6892" lon="0.32524">
        <ele>2483.2</ele>
        <time>2011-07-10T12:30:17Z</time>
      </trkpt>
      <trkpt lat="42.68918" lon="0.32532">
        <ele>2483.2</ele>
        <time>2011-07-10T12:30:18Z</time>
      </trkpt>
      <trkpt lat="42.68913" lon="0.32558">
        <ele>2482.7</ele>
        <time>2011-07-10T12:30:24Z</time>
      </trkpt>
      <trkpt lat="42.68902" lon="0.32585">
        <ele>2477</ele>
        <time>2011-07-10T12:30:45Z</time>
      </trkpt>
      <trkpt lat="42.68879" lon="0.32635">
        <ele>2472.2</ele>
        <time>2011-07-10T12:30:52Z</time>
      </trkpt>
      <trkpt lat="42.68872" lon="0.32645">
        <ele>2469.3</ele>
        <time>2011-07-10T12:30:54Z</time>
      </trkpt>
      <trkpt lat="42.68855" lon="0.32673">
        <ele>2467.8</ele>
        <time>2011-07-10T12:31:01Z</time>
      </trkpt>
      <trkpt lat="42.6885" lon="0.32707">
        <ele>2466.4</ele>
        <time>2011-07-10T12:31:09Z</time>
      </trkpt>
      <trkpt lat="42.68834" lon="0.32745">
        <ele>2463</ele>
        <time>2011-07-10T12:31:17Z</time>
      </trkpt>
      <trkpt lat="42.68834" lon="0.3275">
        <ele>2463</ele>
        <time>2011-07-10T12:31:18Z</time>
      </trkpt>
      <trkpt lat="42.68836" lon="0.32763">
        <ele>2463.5</ele>
        <time>2011-07-10T12:31:22Z</time>
      </trkpt>
      <trkpt lat="42.68835" lon="0.32766">
        <ele>2463</ele>
        <time>2011-07-10T12:31:32Z</time>
      </trkpt>
      <trkpt lat="42.68836" lon="0.32766">
        <ele>2458.7</ele>
        <time>2011-07-10T12:32:30Z</time>
      </trkpt>
      <trkpt lat="42.68836" lon="0.32766">
        <ele>2462.6</ele>
        <time>2011-07-10T12:32:32Z</time>
      </trkpt>
      <trkpt lat="42.68836" lon="0.32765">
        <ele>2458.7</ele>
        <time>2011-07-10T12:32:34Z</time>
      </trkpt>
      <trkpt lat="42.68836" lon="0.32766">
        <ele>2463.5</ele>
        <time>2011-07-10T12:32:40Z</time>
      </trkpt>
      <trkpt lat="42.68836" lon="0.32766">
        <ele>2460.2</ele>
        <time>2011-07-10T12:32:41Z</time>
      </trkpt>
      <trkpt lat="42.68835" lon="0.32766">
        <ele>2463.5</ele>
        <time>2011-07-10T12:32:43Z</time>
      </trkpt>
      <trkpt lat="42.68835" lon="0.32767">
        <ele>2463</ele>
        <time>2011-07-10T12:32:55Z</time>
      </trkpt>
      <trkpt lat="42.68837" lon="0.32772">
        <ele>2462.1</ele>
        <time>2011-07-10T12:32:58Z</time>
      </trkpt>
      <trkpt lat="42.6884" lon="0.32796">
        <ele>2457.3</ele>
        <time>2011-07-10T12:33:03Z</time>
      </trkpt>
      <trkpt lat="42.68845" lon="0.32817">
        <ele>2452.5</ele>
        <time>2011-07-10T12:33:06Z</time>
      </trkpt>
      <trkpt lat="42.68852" lon="0.32854">
        <ele>2445.7</ele>
        <time>2011-07-10T12:33:10Z</time>
      </trkpt>
      <trkpt lat="42.68854" lon="0.32862">
        <ele>2445.3</ele>
        <time>2011-07-10T12:33:11Z</time>
      </trkpt>
      <trkpt lat="42.68857" lon="0.32887">
        <ele>2442.8</ele>
        <time>2011-07-10T12:33:14Z</time>
      </trkpt>
      <trkpt lat="42.68865" lon="0.32912">
        <ele>2438</ele>
        <time>2011-07-10T12:33:17Z</time>
      </trkpt>
      <trkpt lat="42.68874" lon="0.32955">
        <ele>2429.4</ele>
        <time>2011-07-10T12:33:22Z</time>
      </trkpt>
      <trkpt lat="42.6888" lon="0.32992">
        <ele>2422.2</ele>
        <time>2011-07-10T12:33:28Z</time>
      </trkpt>
      <trkpt lat="42.68882" lon="0.32997">
        <ele>2420.3</ele>
        <time>2011-07-10T12:33:29Z</time>
      </trkpt>
      <trkpt lat="42.68886" lon="0.33011">
        <ele>2417.9</ele>
        <time>2011-07-10T12:33:31Z</time>
      </trkpt>
      <trkpt lat="42.68898" lon="0.33066">
        <ele>2414</ele>
        <time>2011-07-10T12:33:37Z</time>
      </trkpt>
      <trkpt lat="42.689" lon="0.33086">
        <ele>2411.1</ele>
        <time>2011-07-10T12:33:39Z</time>
      </trkpt>
      <trkpt lat="42.68903" lon="0.33106">
        <ele>2413</ele>
        <time>2011-07-10T12:33:41Z</time>
      </trkpt>
      <trkpt lat="42.68907" lon="0.33131">
        <ele>2406.8</ele>
        <time>2011-07-10T12:33:44Z</time>
      </trkpt>
      <trkpt lat="42.68908" lon="0.33138">
        <ele>2405.4</ele>
        <time>2011-07-10T12:33:46Z</time>
      </trkpt>
      <trkpt lat="42.68907" lon="0.33137">
        <ele>2404.9</ele>
        <time>2011-07-10T12:33:55Z</time>
      </trkpt>
      <trkpt lat="42.68905" lon="0.33137">
        <ele>2400.5</ele>
        <time>2011-07-10T12:34:24Z</time>
      </trkpt>
      <trkpt lat="42.68905" lon="0.33137">
        <ele>2406.8</ele>
        <time>2011-07-10T12:34:25Z</time>
      </trkpt>
      <trkpt lat="42.68905" lon="0.33137">
        <ele>2397.7</ele>
        <time>2011-07-10T12:34:26Z</time>
      </trkpt>
      <trkpt lat="42.68905" lon="0.33137">
        <ele>2407.3</ele>
        <time>2011-07-10T12:34:27Z</time>
      </trkpt>
      <trkpt lat="42.68905" lon="0.33136">
        <ele>2405.4</ele>
        <time>2011-07-10T12:34:30Z</time>
      </trkpt>
      <trkpt lat="42.68906" lon="0.33137">
        <ele>2416.4</ele>
        <time>2011-07-10T12:34:32Z</time>
      </trkpt>
      <trkpt lat="42.68909" lon="0.33159">
        <ele>2401.5</ele>
        <time>2011-07-10T12:34:41Z</time>
      </trkpt>
      <trkpt lat="42.68909" lon="0.33187">
        <ele>2398.1</ele>
        <time>2011-07-10T12:34:44Z</time>
      </trkpt>
      <trkpt lat="42.68907" lon="0.33247">
        <ele>2389.5</ele>
        <time>2011-07-10T12:34:50Z</time>
      </trkpt>
      <trkpt lat="42.68906" lon="0.3327">
        <ele>2388.1</ele>
        <time>2011-07-10T12:34:52Z</time>
      </trkpt>
      <trkpt lat="42.68907" lon="0.333">
        <ele>2388.5</ele>
        <time>2011-07-10T12:34:55Z</time>
      </trkpt>
      <trkpt lat="42.68904" lon="0.33316">
        <ele>2389</ele>
        <time>2011-07-10T12:35:01Z</time>
      </trkpt>
      <trkpt lat="42.68903" lon="0.33315">
        <ele>2387.6</ele>
        <time>2011-07-10T12:35:56Z</time>
      </trkpt>
      <trkpt lat="42.68898" lon="0.33329">
        <ele>2386.6</ele>
        <time>2011-07-10T12:36:26Z</time>
      </trkpt>
      <trkpt lat="42.68885" lon="0.33353">
        <ele>2384.7</ele>
        <time>2011-07-10T12:36:31Z</time>
      </trkpt>
      <trkpt lat="42.68877" lon="0.33375">
        <ele>2382.3</ele>
        <time>2011-07-10T12:36:35Z</time>
      </trkpt>
      <trkpt lat="42.68866" lon="0.33384">
        <ele>2381.8</ele>
        <time>2011-07-10T12:36:38Z</time>
      </trkpt>
      <trkpt lat="42.68847" lon="0.33409">
        <ele>2374.1</ele>
        <time>2011-07-10T12:36:44Z</time>
      </trkpt>
      <trkpt lat="42.68837" lon="0.33428">
        <ele>2373.6</ele>
        <time>2011-07-10T12:36:48Z</time>
      </trkpt>
      <trkpt lat="42.68827" lon="0.33444">
        <ele>2372.7</ele>
        <time>2011-07-10T12:36:51Z</time>
      </trkpt>
      <trkpt lat="42.68807" lon="0.33486">
        <ele>2366.4</ele>
        <time>2011-07-10T12:36:58Z</time>
      </trkpt>
      <trkpt lat="42.68794" lon="0.33525">
        <ele>2359.7</ele>
        <time>2011-07-10T12:37:05Z</time>
      </trkpt>
      <trkpt lat="42.68794" lon="0.33538">
        <ele>2359.7</ele>
        <time>2011-07-10T12:37:07Z</time>
      </trkpt>
      <trkpt lat="42.68793" lon="0.33561">
        <ele>2357.3</ele>
        <time>2011-07-10T12:37:15Z</time>
      </trkpt>
      <trkpt lat="42.68793" lon="0.33563">
        <ele>2355.4</ele>
        <time>2011-07-10T12:37:45Z</time>
      </trkpt>
      <trkpt lat="42.68781" lon="0.33636">
        <ele>2350.6</ele>
        <time>2011-07-10T12:38:01Z</time>
      </trkpt>
      <trkpt lat="42.68769" lon="0.33662">
        <ele>2350.1</ele>
        <time>2011-07-10T12:38:06Z</time>
      </trkpt>
      <trkpt lat="42.68755" lon="0.33701">
        <ele>2346.2</ele>
        <time>2011-07-10T12:38:52Z</time>
      </trkpt>
      <trkpt lat="42.68747" lon="0.33717">
        <ele>2341.9</ele>
        <time>2011-07-10T12:38:57Z</time>
      </trkpt>
      <trkpt lat="42.68738" lon="0.33727">
        <ele>2339.5</ele>
        <time>2011-07-10T12:39:00Z</time>
      </trkpt>
      <trkpt lat="42.68728" lon="0.33747">
        <ele>2334.2</ele>
        <time>2011-07-10T12:39:04Z</time>
      </trkpt>
      <trkpt lat="42.68703" lon="0.33785">
        <ele>2327</ele>
        <time>2011-07-10T12:39:10Z</time>
      </trkpt>
      <trkpt lat="42.68699" lon="0.33792">
        <ele>2326</ele>
        <time>2011-07-10T12:39:11Z</time>
      </trkpt>
      <trkpt lat="42.68702" lon="0.33801">
        <ele>2325.6</ele>
        <time>2011-07-10T12:39:15Z</time>
      </trkpt>
      <trkpt lat="42.68707" lon="0.33799">
        <ele>2323.6</ele>
        <time>2011-07-10T12:39:16Z</time>
      </trkpt>
      <trkpt lat="42.68725" lon="0.33794">
        <ele>2321.7</ele>
        <time>2011-07-10T12:39:19Z</time>
      </trkpt>
      <trkpt lat="42.68733" lon="0.3379">
        <ele>2320.8</ele>
        <time>2011-07-10T12:39:24Z</time>
      </trkpt>
      <trkpt lat="42.68733" lon="0.33791">
        <ele>2320.3</ele>
        <time>2011-07-10T12:39:47Z</time>
      </trkpt>
      <trkpt lat="42.68745" lon="0.33789">
        <ele>2317.4</ele>
        <time>2011-07-10T12:39:52Z</time>
      </trkpt>
      <trkpt lat="42.68747" lon="0.33797">
        <ele>2314.5</ele>
        <time>2011-07-10T12:39:56Z</time>
      </trkpt>
      <trkpt lat="42.68741" lon="0.33804">
        <ele>2314</ele>
        <time>2011-07-10T12:39:58Z</time>
      </trkpt>
      <trkpt lat="42.68732" lon="0.33818">
        <ele>2313.5</ele>
        <time>2011-07-10T12:40:01Z</time>
      </trkpt>
      <trkpt lat="42.68719" lon="0.33834">
        <ele>2311.1</ele>
        <time>2011-07-10T12:40:04Z</time>
      </trkpt>
      <trkpt lat="42.68691" lon="0.33854">
        <ele>2306.3</ele>
        <time>2011-07-10T12:40:09Z</time>
      </trkpt>
      <trkpt lat="42.68682" lon="0.33863">
        <ele>2306.3</ele>
        <time>2011-07-10T12:40:12Z</time>
      </trkpt>
      <trkpt lat="42.6866" lon="0.33878">
        <ele>2303</ele>
        <time>2011-07-10T12:40:17Z</time>
      </trkpt>
      <trkpt lat="42.6865" lon="0.33888">
        <ele>2300.6</ele>
        <time>2011-07-10T12:40:23Z</time>
      </trkpt>
      <trkpt lat="42.6865" lon="0.33888">
        <ele>2297.2</ele>
        <time>2011-07-10T12:40:39Z</time>
      </trkpt>
      <trkpt lat="42.6865" lon="0.33888">
        <ele>2303</ele>
        <time>2011-07-10T12:40:41Z</time>
      </trkpt>
      <trkpt lat="42.68643" lon="0.33899">
        <ele>2300.1</ele>
        <time>2011-07-10T12:41:23Z</time>
      </trkpt>
      <trkpt lat="42.68629" lon="0.33916">
        <ele>2298.6</ele>
        <time>2011-07-10T12:41:32Z</time>
      </trkpt>
      <trkpt lat="42.68629" lon="0.33916">
        <ele>2299.1</ele>
        <time>2011-07-10T12:43:07Z</time>
      </trkpt>
      <trkpt lat="42.68621" lon="0.33928">
        <ele>2295.8</ele>
        <time>2011-07-10T12:43:12Z</time>
      </trkpt>
      <trkpt lat="42.68607" lon="0.3394">
        <ele>2291.4</ele>
        <time>2011-07-10T12:43:16Z</time>
      </trkpt>
      <trkpt lat="42.68603" lon="0.33944">
        <ele>2291</ele>
        <time>2011-07-10T12:43:17Z</time>
      </trkpt>
      <trkpt lat="42.68575" lon="0.33974">
        <ele>2291.9</ele>
        <time>2011-07-10T12:43:26Z</time>
      </trkpt>
      <trkpt lat="42.68556" lon="0.34005">
        <ele>2290</ele>
        <time>2011-07-10T12:43:33Z</time>
      </trkpt>
      <trkpt lat="42.68548" lon="0.34027">
        <ele>2288.6</ele>
        <time>2011-07-10T12:43:36Z</time>
      </trkpt>
      <trkpt lat="42.68537" lon="0.34054">
        <ele>2287.6</ele>
        <time>2011-07-10T12:43:40Z</time>
      </trkpt>
      <trkpt lat="42.68544" lon="0.34057">
        <ele>2283.7</ele>
        <time>2011-07-10T12:43:44Z</time>
      </trkpt>
      <trkpt lat="42.68564" lon="0.34043">
        <ele>2278.5</ele>
        <time>2011-07-10T12:43:48Z</time>
      </trkpt>
      <trkpt lat="42.68572" lon="0.34037">
        <ele>2278</ele>
        <time>2011-07-10T12:43:50Z</time>
      </trkpt>
      <trkpt lat="42.68574" lon="0.34047">
        <ele>2274.6</ele>
        <time>2011-07-10T12:43:54Z</time>
      </trkpt>
      <trkpt lat="42.68562" lon="0.34081">
        <ele>2271.3</ele>
        <time>2011-07-10T12:43:59Z</time>
      </trkpt>
      <trkpt lat="42.68545" lon="0.34133">
        <ele>2263.6</ele>
        <time>2011-07-10T12:44:05Z</time>
      </trkpt>
      <trkpt lat="42.68538" lon="0.34151">
        <ele>2262.6</ele>
        <time>2011-07-10T12:44:07Z</time>
      </trkpt>
      <trkpt lat="42.68535" lon="0.34161">
        <ele>2261.6</ele>
        <time>2011-07-10T12:44:08Z</time>
      </trkpt>
      <trkpt lat="42.68526" lon="0.34186">
        <ele>2257.8</ele>
        <time>2011-07-10T12:44:11Z</time>
      </trkpt>
      <trkpt lat="42.68519" lon="0.34207">
        <ele>2255.9</ele>
        <time>2011-07-10T12:44:14Z</time>
      </trkpt>
      <trkpt lat="42.68517" lon="0.3422">
        <ele>2253</ele>
        <time>2011-07-10T12:44:18Z</time>
      </trkpt>
      <trkpt lat="42.68505" lon="0.34248">
        <ele>2250.1</ele>
        <time>2011-07-10T12:44:26Z</time>
      </trkpt>
      <trkpt lat="42.68503" lon="0.34249">
        <ele>2249.6</ele>
        <time>2011-07-10T12:44:50Z</time>
      </trkpt>
      <trkpt lat="42.68503" lon="0.34249">
        <ele>2249.6</ele>
        <time>2011-07-10T12:45:14Z</time>
      </trkpt>
      <trkpt lat="42.68494" lon="0.34271">
        <ele>2242.9</ele>
        <time>2011-07-10T12:45:29Z</time>
      </trkpt>
      <trkpt lat="42.6849" lon="0.34283">
        <ele>2240</ele>
        <time>2011-07-10T12:45:34Z</time>
      </trkpt>
      <trkpt lat="42.68485" lon="0.34291">
        <ele>2238.6</ele>
        <time>2011-07-10T12:45:42Z</time>
      </trkpt>
      <trkpt lat="42.68481" lon="0.34301">
        <ele>2235.7</ele>
        <time>2011-07-10T12:45:52Z</time>
      </trkpt>
      <trkpt lat="42.6847" lon="0.34327">
        <ele>2229.9</ele>
        <time>2011-07-10T12:46:01Z</time>
      </trkpt>
      <trkpt lat="42.68468" lon="0.34331">
        <ele>2229</ele>
        <time>2011-07-10T12:46:10Z</time>
      </trkpt>
      <trkpt lat="42.68467" lon="0.34332">
        <ele>2228.5</ele>
        <time>2011-07-10T12:46:26Z</time>
      </trkpt>
      <trkpt lat="42.68466" lon="0.34332">
        <ele>2228.5</ele>
        <time>2011-07-10T12:46:47Z</time>
      </trkpt>
      <trkpt lat="42.68465" lon="0.34333">
        <ele>2225.1</ele>
        <time>2011-07-10T12:46:52Z</time>
      </trkpt>
      <trkpt lat="42.68465" lon="0.34338">
        <ele>2223.7</ele>
        <time>2011-07-10T12:46:58Z</time>
      </trkpt>
      <trkpt lat="42.68465" lon="0.3434">
        <ele>2224.1</ele>
        <time>2011-07-10T12:47:14Z</time>
      </trkpt>
      <trkpt lat="42.68464" lon="0.34343">
        <ele>2223.7</ele>
        <time>2011-07-10T12:47:28Z</time>
      </trkpt>
      <trkpt lat="42.68464" lon="0.34344">
        <ele>2223.7</ele>
        <time>2011-07-10T12:47:44Z</time>
      </trkpt>
      <trkpt lat="42.68462" lon="0.34351">
        <ele>2222.2</ele>
        <time>2011-07-10T12:47:52Z</time>
      </trkpt>
      <trkpt lat="42.68459" lon="0.34366">
        <ele>2219.8</ele>
        <time>2011-07-10T12:47:59Z</time>
      </trkpt>
      <trkpt lat="42.68452" lon="0.34391">
        <ele>2216</ele>
        <time>2011-07-10T12:48:03Z</time>
      </trkpt>
      <trkpt lat="42.68438" lon="0.3445">
        <ele>2211.2</ele>
        <time>2011-07-10T12:48:10Z</time>
      </trkpt>
      <trkpt lat="42.68425" lon="0.34497">
        <ele>2204.4</ele>
        <time>2011-07-10T12:48:16Z</time>
      </trkpt>
      <trkpt lat="42.68407" lon="0.34553">
        <ele>2197.7</ele>
        <time>2011-07-10T12:48:23Z</time>
      </trkpt>
      <trkpt lat="42.68399" lon="0.34607">
        <ele>2190</ele>
        <time>2011-07-10T12:48:32Z</time>
      </trkpt>
      <trkpt lat="42.68399" lon="0.34613">
        <ele>2188.6</ele>
        <time>2011-07-10T12:48:33Z</time>
      </trkpt>
      <trkpt lat="42.684" lon="0.34626">
        <ele>2186.2</ele>
        <time>2011-07-10T12:48:35Z</time>
      </trkpt>
      <trkpt lat="42.68399" lon="0.34641">
        <ele>2185.2</ele>
        <time>2011-07-10T12:48:37Z</time>
      </trkpt>
      <trkpt lat="42.68396" lon="0.34694">
        <ele>2180.4</ele>
        <time>2011-07-10T12:48:43Z</time>
      </trkpt>
      <trkpt lat="42.68396" lon="0.34713">
        <ele>2179.4</ele>
        <time>2011-07-10T12:48:45Z</time>
      </trkpt>
      <trkpt lat="42.68399" lon="0.34773">
        <ele>2174.6</ele>
        <time>2011-07-10T12:48:52Z</time>
      </trkpt>
      <trkpt lat="42.68399" lon="0.34792">
        <ele>2173.2</ele>
        <time>2011-07-10T12:48:54Z</time>
      </trkpt>
      <trkpt lat="42.68396" lon="0.3481">
        <ele>2174.6</ele>
        <time>2011-07-10T12:48:56Z</time>
      </trkpt>
      <trkpt lat="42.68395" lon="0.34857">
        <ele>2161.7</ele>
        <time>2011-07-10T12:49:02Z</time>
      </trkpt>
      <trkpt lat="42.68392" lon="0.34873">
        <ele>2159.7</ele>
        <time>2011-07-10T12:49:04Z</time>
      </trkpt>
      <trkpt lat="42.68393" lon="0.34891">
        <ele>2154</ele>
        <time>2011-07-10T12:49:07Z</time>
      </trkpt>
      <trkpt lat="42.68396" lon="0.34894">
        <ele>2155.9</ele>
        <time>2011-07-10T12:49:13Z</time>
      </trkpt>
      <trkpt lat="42.68397" lon="0.34895">
        <ele>2154</ele>
        <time>2011-07-10T12:50:22Z</time>
      </trkpt>
      <trkpt lat="42.68402" lon="0.34896">
        <ele>2153</ele>
        <time>2011-07-10T12:50:24Z</time>
      </trkpt>
      <trkpt lat="42.68418" lon="0.3489">
        <ele>2149.6</ele>
        <time>2011-07-10T12:50:28Z</time>
      </trkpt>
      <trkpt lat="42.68435" lon="0.34881">
        <ele>2146.3</ele>
        <time>2011-07-10T12:50:32Z</time>
      </trkpt>
      <trkpt lat="42.6845" lon="0.34869">
        <ele>2142.9</ele>
        <time>2011-07-10T12:50:35Z</time>
      </trkpt>
      <trkpt lat="42.68466" lon="0.34855">
        <ele>2138.1</ele>
        <time>2011-07-10T12:50:39Z</time>
      </trkpt>
      <trkpt lat="42.68492" lon="0.34845">
        <ele>2129.9</ele>
        <time>2011-07-10T12:50:46Z</time>
      </trkpt>
      <trkpt lat="42.68495" lon="0.34842">
        <ele>2129</ele>
        <time>2011-07-10T12:50:47Z</time>
      </trkpt>
      <trkpt lat="42.68502" lon="0.34833">
        <ele>2127.5</ele>
        <time>2011-07-10T12:50:50Z</time>
      </trkpt>
      <trkpt lat="42.68513" lon="0.34823">
        <ele>2124.2</ele>
        <time>2011-07-10T12:50:54Z</time>
      </trkpt>
      <trkpt lat="42.68522" lon="0.34814">
        <ele>2122.7</ele>
        <time>2011-07-10T12:50:57Z</time>
      </trkpt>
      <trkpt lat="42.68529" lon="0.34804">
        <ele>2119.8</ele>
        <time>2011-07-10T12:51:01Z</time>
      </trkpt>
      <trkpt lat="42.68547" lon="0.34788">
        <ele>2116.5</ele>
        <time>2011-07-10T12:51:06Z</time>
      </trkpt>
      <trkpt lat="42.68565" lon="0.34764">
        <ele>2110.7</ele>
        <time>2011-07-10T12:51:13Z</time>
      </trkpt>
      <trkpt lat="42.68579" lon="0.34742">
        <ele>2104.5</ele>
        <time>2011-07-10T12:51:19Z</time>
      </trkpt>
      <trkpt lat="42.68602" lon="0.3472">
        <ele>2097.7</ele>
        <time>2011-07-10T12:51:24Z</time>
      </trkpt>
      <trkpt lat="42.68615" lon="0.34704">
        <ele>2094.9</ele>
        <time>2011-07-10T12:51:27Z</time>
      </trkpt>
      <trkpt lat="42.68624" lon="0.34696">
        <ele>2092.4</ele>
        <time>2011-07-10T12:51:29Z</time>
      </trkpt>
      <trkpt lat="42.68638" lon="0.34688">
        <ele>2091.5</ele>
        <time>2011-07-10T12:51:32Z</time>
      </trkpt>
      <trkpt lat="42.68648" lon="0.34696">
        <ele>2089.1</ele>
        <time>2011-07-10T12:51:36Z</time>
      </trkpt>
      <trkpt lat="42.68661" lon="0.34699">
        <ele>2087.2</ele>
        <time>2011-07-10T12:51:39Z</time>
      </trkpt>
      <trkpt lat="42.68676" lon="0.34687">
        <ele>2083.8</ele>
        <time>2011-07-10T12:51:43Z</time>
      </trkpt>
      <trkpt lat="42.68689" lon="0.34663">
        <ele>2077.5</ele>
        <time>2011-07-10T12:51:48Z</time>
      </trkpt>
      <trkpt lat="42.687" lon="0.34655">
        <ele>2077.5</ele>
        <time>2011-07-10T12:51:56Z</time>
      </trkpt>
      <trkpt lat="42.687" lon="0.34656">
        <ele>2076.6</ele>
        <time>2011-07-10T12:54:02Z</time>
      </trkpt>
      <trkpt lat="42.68699" lon="0.34656">
        <ele>2076.1</ele>
        <time>2011-07-10T12:55:29Z</time>
      </trkpt>
      <trkpt lat="42.68717" lon="0.34641">
        <ele>2070.3</ele>
        <time>2011-07-10T12:56:41Z</time>
      </trkpt>
      <trkpt lat="42.68738" lon="0.3462">
        <ele>2064.6</ele>
        <time>2011-07-10T12:56:47Z</time>
      </trkpt>
      <trkpt lat="42.68751" lon="0.346">
        <ele>2063.6</ele>
        <time>2011-07-10T12:56:53Z</time>
      </trkpt>
      <trkpt lat="42.68757" lon="0.34605">
        <ele>2061.2</ele>
        <time>2011-07-10T12:57:03Z</time>
      </trkpt>
      <trkpt lat="42.68766" lon="0.34631">
        <ele>2055.9</ele>
        <time>2011-07-10T12:57:09Z</time>
      </trkpt>
      <trkpt lat="42.68768" lon="0.3465">
        <ele>2052.1</ele>
        <time>2011-07-10T12:57:12Z</time>
      </trkpt>
      <trkpt lat="42.68768" lon="0.34677">
        <ele>2049.7</ele>
        <time>2011-07-10T12:57:16Z</time>
      </trkpt>
      <trkpt lat="42.6877" lon="0.34689">
        <ele>2048.7</ele>
        <time>2011-07-10T12:57:18Z</time>
      </trkpt>
      <trkpt lat="42.6877" lon="0.34694">
        <ele>2047.7</ele>
        <time>2011-07-10T12:57:19Z</time>
      </trkpt>
      <trkpt lat="42.68767" lon="0.34721">
        <ele>2043.9</ele>
        <time>2011-07-10T12:57:24Z</time>
      </trkpt>
      <trkpt lat="42.68764" lon="0.34733">
        <ele>2042</ele>
        <time>2011-07-10T12:57:27Z</time>
      </trkpt>
      <trkpt lat="42.68761" lon="0.3474">
        <ele>2040.5</ele>
        <time>2011-07-10T12:57:29Z</time>
      </trkpt>
      <trkpt lat="42.68759" lon="0.34748">
        <ele>2036.7</ele>
        <time>2011-07-10T12:57:31Z</time>
      </trkpt>
      <trkpt lat="42.68751" lon="0.34768">
        <ele>2032.8</ele>
        <time>2011-07-10T12:57:34Z</time>
      </trkpt>
      <trkpt lat="42.68749" lon="0.34775">
        <ele>2031.9</ele>
        <time>2011-07-10T12:57:35Z</time>
      </trkpt>
      <trkpt lat="42.68747" lon="0.34792">
        <ele>2030.4</ele>
        <time>2011-07-10T12:57:37Z</time>
      </trkpt>
      <trkpt lat="42.68751" lon="0.34803">
        <ele>2029</ele>
        <time>2011-07-10T12:57:41Z</time>
      </trkpt>
      <trkpt lat="42.68763" lon="0.34801">
        <ele>2026.6</ele>
        <time>2011-07-10T12:57:45Z</time>
      </trkpt>
      <trkpt lat="42.68769" lon="0.34805">
        <ele>2024.2</ele>
        <time>2011-07-10T12:57:47Z</time>
      </trkpt>
      <trkpt lat="42.68779" lon="0.34813">
        <ele>2019.4</ele>
        <time>2011-07-10T12:57:50Z</time>
      </trkpt>
      <trkpt lat="42.6878" lon="0.34815">
        <ele>2018.9</ele>
        <time>2011-07-10T12:57:51Z</time>
      </trkpt>
      <trkpt lat="42.68792" lon="0.34815">
        <ele>2016</ele>
        <time>2011-07-10T12:57:55Z</time>
      </trkpt>
      <trkpt lat="42.68803" lon="0.34818">
        <ele>2013.6</ele>
        <time>2011-07-10T12:57:59Z</time>
      </trkpt>
      <trkpt lat="42.68818" lon="0.34831">
        <ele>2008.3</ele>
        <time>2011-07-10T12:58:05Z</time>
      </trkpt>
      <trkpt lat="42.68821" lon="0.34839">
        <ele>2005.9</ele>
        <time>2011-07-10T12:58:07Z</time>
      </trkpt>
      <trkpt lat="42.68833" lon="0.34854">
        <ele>2001.6</ele>
        <time>2011-07-10T12:58:11Z</time>
      </trkpt>
      <trkpt lat="42.68836" lon="0.34869">
        <ele>1999.2</ele>
        <time>2011-07-10T12:58:14Z</time>
      </trkpt>
      <trkpt lat="42.68837" lon="0.34884">
        <ele>1996.3</ele>
        <time>2011-07-10T12:58:17Z</time>
      </trkpt>
      <trkpt lat="42.68827" lon="0.34902">
        <ele>1993.4</ele>
        <time>2011-07-10T12:58:22Z</time>
      </trkpt>
      <trkpt lat="42.68822" lon="0.34922">
        <ele>1991</ele>
        <time>2011-07-10T12:58:25Z</time>
      </trkpt>
      <trkpt lat="42.68816" lon="0.34939">
        <ele>1989.6</ele>
        <time>2011-07-10T12:58:28Z</time>
      </trkpt>
      <trkpt lat="42.68805" lon="0.34985">
        <ele>1986.7</ele>
        <time>2011-07-10T12:58:35Z</time>
      </trkpt>
      <trkpt lat="42.68805" lon="0.3499">
        <ele>1985.3</ele>
        <time>2011-07-10T12:58:36Z</time>
      </trkpt>
      <trkpt lat="42.68798" lon="0.35015">
        <ele>1980.5</ele>
        <time>2011-07-10T12:58:40Z</time>
      </trkpt>
      <trkpt lat="42.68791" lon="0.35029">
        <ele>1976.6</ele>
        <time>2011-07-10T12:58:42Z</time>
      </trkpt>
      <trkpt lat="42.68782" lon="0.35056">
        <ele>1974.7</ele>
        <time>2011-07-10T12:58:45Z</time>
      </trkpt>
      <trkpt lat="42.68773" lon="0.35078">
        <ele>1968.9</ele>
        <time>2011-07-10T12:58:49Z</time>
      </trkpt>
      <trkpt lat="42.68765" lon="0.35091">
        <ele>1968.9</ele>
        <time>2011-07-10T12:58:54Z</time>
      </trkpt>
      <trkpt lat="42.68767" lon="0.35091">
        <ele>1968.9</ele>
        <time>2011-07-10T12:59:12Z</time>
      </trkpt>
      <trkpt lat="42.68765" lon="0.35098">
        <ele>1967</ele>
        <time>2011-07-10T12:59:16Z</time>
      </trkpt>
      <trkpt lat="42.68762" lon="0.35102">
        <ele>1966</ele>
        <time>2011-07-10T12:59:18Z</time>
      </trkpt>
      <trkpt lat="42.68761" lon="0.35106">
        <ele>1966.5</ele>
        <time>2011-07-10T12:59:26Z</time>
      </trkpt>
      <trkpt lat="42.68761" lon="0.35108">
        <ele>1965.6</ele>
        <time>2011-07-10T12:59:34Z</time>
      </trkpt>
      <trkpt lat="42.68738" lon="0.35128">
        <ele>1961.7</ele>
        <time>2011-07-10T12:59:38Z</time>
      </trkpt>
      <trkpt lat="42.68733" lon="0.35137">
        <ele>1960.7</ele>
        <time>2011-07-10T12:59:40Z</time>
      </trkpt>
      <trkpt lat="42.68732" lon="0.35149">
        <ele>1958.8</ele>
        <time>2011-07-10T12:59:46Z</time>
      </trkpt>
      <trkpt lat="42.6873" lon="0.35162">
        <ele>1954.5</ele>
        <time>2011-07-10T12:59:59Z</time>
      </trkpt>
      <trkpt lat="42.6873" lon="0.35168">
        <ele>1953.1</ele>
        <time>2011-07-10T13:00:00Z</time>
      </trkpt>
      <trkpt lat="42.68724" lon="0.35188">
        <ele>1949.7</ele>
        <time>2011-07-10T13:00:07Z</time>
      </trkpt>
      <trkpt lat="42.68724" lon="0.35188">
        <ele>1949.7</ele>
        <time>2011-07-10T13:00:22Z</time>
      </trkpt>
      <trkpt lat="42.68721" lon="0.35204">
        <ele>1947.3</ele>
        <time>2011-07-10T13:03:13Z</time>
      </trkpt>
      <trkpt lat="42.68717" lon="0.35219">
        <ele>1943.4</ele>
        <time>2011-07-10T13:03:16Z</time>
      </trkpt>
      <trkpt lat="42.68716" lon="0.35227">
        <ele>1942</ele>
        <time>2011-07-10T13:03:17Z</time>
      </trkpt>
      <trkpt lat="42.68718" lon="0.35249">
        <ele>1937.2</ele>
        <time>2011-07-10T13:03:20Z</time>
      </trkpt>
      <trkpt lat="42.68724" lon="0.3529">
        <ele>1928.5</ele>
        <time>2011-07-10T13:03:28Z</time>
      </trkpt>
      <trkpt lat="42.68735" lon="0.35309">
        <ele>1924.7</ele>
        <time>2011-07-10T13:03:33Z</time>
      </trkpt>
      <trkpt lat="42.68737" lon="0.35328">
        <ele>1920.4</ele>
        <time>2011-07-10T13:03:36Z</time>
      </trkpt>
      <trkpt lat="42.68737" lon="0.35339">
        <ele>1919.4</ele>
        <time>2011-07-10T13:03:38Z</time>
      </trkpt>
      <trkpt lat="42.68736" lon="0.35351">
        <ele>1917</ele>
        <time>2011-07-10T13:03:41Z</time>
      </trkpt>
      <trkpt lat="42.6873" lon="0.35369">
        <ele>1914.1</ele>
        <time>2011-07-10T13:03:44Z</time>
      </trkpt>
      <trkpt lat="42.68728" lon="0.35384">
        <ele>1911.7</ele>
        <time>2011-07-10T13:03:47Z</time>
      </trkpt>
      <trkpt lat="42.68733" lon="0.35391">
        <ele>1908.4</ele>
        <time>2011-07-10T13:03:50Z</time>
      </trkpt>
      <trkpt lat="42.68737" lon="0.35401">
        <ele>1904.5</ele>
        <time>2011-07-10T13:03:53Z</time>
      </trkpt>
      <trkpt lat="42.68734" lon="0.35414">
        <ele>1900.2</ele>
        <time>2011-07-10T13:03:56Z</time>
      </trkpt>
      <trkpt lat="42.68728" lon="0.35429">
        <ele>1896.3</ele>
        <time>2011-07-10T13:04:01Z</time>
      </trkpt>
      <trkpt lat="42.68726" lon="0.35437">
        <ele>1893.5</ele>
        <time>2011-07-10T13:04:05Z</time>
      </trkpt>
      <trkpt lat="42.68722" lon="0.35438">
        <ele>1893.5</ele>
        <time>2011-07-10T13:04:06Z</time>
      </trkpt>
      <trkpt lat="42.68717" lon="0.35447">
        <ele>1890.1</ele>
        <time>2011-07-10T13:04:09Z</time>
      </trkpt>
      <trkpt lat="42.68714" lon="0.35461">
        <ele>1885.8</ele>
        <time>2011-07-10T13:04:12Z</time>
      </trkpt>
      <trkpt lat="42.68707" lon="0.35475">
        <ele>1882.4</ele>
        <time>2011-07-10T13:04:16Z</time>
      </trkpt>
      <trkpt lat="42.68705" lon="0.35484">
        <ele>1879.5</ele>
        <time>2011-07-10T13:04:19Z</time>
      </trkpt>
      <trkpt lat="42.68707" lon="0.355">
        <ele>1873.7</ele>
        <time>2011-07-10T13:04:26Z</time>
      </trkpt>
      <trkpt lat="42.68708" lon="0.35507">
        <ele>1869.9</ele>
        <time>2011-07-10T13:04:28Z</time>
      </trkpt>
      <trkpt lat="42.68718" lon="0.35519">
        <ele>1866.1</ele>
        <time>2011-07-10T13:04:32Z</time>
      </trkpt>
      <trkpt lat="42.68722" lon="0.35521">
        <ele>1866.1</ele>
        <time>2011-07-10T13:04:33Z</time>
      </trkpt>
      <trkpt lat="42.68736" lon="0.35538">
        <ele>1859.8</ele>
        <time>2011-07-10T13:04:42Z</time>
      </trkpt>
      <trkpt lat="42.68734" lon="0.35548">
        <ele>1857.4</ele>
        <time>2011-07-10T13:04:45Z</time>
      </trkpt>
      <trkpt lat="42.68734" lon="0.35559">
        <ele>1856.4</ele>
        <time>2011-07-10T13:04:55Z</time>
      </trkpt>
      <trkpt lat="42.68743" lon="0.35559">
        <ele>1856.4</ele>
        <time>2011-07-10T13:05:46Z</time>
      </trkpt>
      <trkpt lat="42.68738" lon="0.35563">
        <ele>1855</ele>
        <time>2011-07-10T13:06:46Z</time>
      </trkpt>
      <trkpt lat="42.68728" lon="0.35578">
        <ele>1851.6</ele>
        <time>2011-07-10T13:06:51Z</time>
      </trkpt>
      <trkpt lat="42.68722" lon="0.35592">
        <ele>1846.8</ele>
        <time>2011-07-10T13:06:55Z</time>
      </trkpt>
      <trkpt lat="42.68715" lon="0.35611">
        <ele>1842.5</ele>
        <time>2011-07-10T13:06:58Z</time>
      </trkpt>
      <trkpt lat="42.68703" lon="0.35636">
        <ele>1839.6</ele>
        <time>2011-07-10T13:07:03Z</time>
      </trkpt>
      <trkpt lat="42.68674" lon="0.35647">
        <ele>1832.9</ele>
        <time>2011-07-10T13:07:12Z</time>
      </trkpt>
      <trkpt lat="42.68669" lon="0.3565">
        <ele>1831.4</ele>
        <time>2011-07-10T13:07:13Z</time>
      </trkpt>
      <trkpt lat="42.68653" lon="0.35671">
        <ele>1828.1</ele>
        <time>2011-07-10T13:07:17Z</time>
      </trkpt>
      <trkpt lat="42.68632" lon="0.35678">
        <ele>1826.2</ele>
        <time>2011-07-10T13:07:20Z</time>
      </trkpt>
      <trkpt lat="42.68612" lon="0.3569">
        <ele>1826.6</ele>
        <time>2011-07-10T13:07:26Z</time>
      </trkpt>
      <trkpt lat="42.68612" lon="0.3569">
        <ele>1825.2</ele>
        <time>2011-07-10T13:07:41Z</time>
      </trkpt>
      <trkpt lat="42.68599" lon="0.35691">
        <ele>1826.2</ele>
        <time>2011-07-10T13:08:12Z</time>
      </trkpt>
      <trkpt lat="42.68579" lon="0.35696">
        <ele>1824.7</ele>
        <time>2011-07-10T13:08:17Z</time>
      </trkpt>
      <trkpt lat="42.6856" lon="0.35709">
        <ele>1821.4</ele>
        <time>2011-07-10T13:08:21Z</time>
      </trkpt>
      <trkpt lat="42.68542" lon="0.35717">
        <ele>1823.8</ele>
        <time>2011-07-10T13:08:25Z</time>
      </trkpt>
      <trkpt lat="42.6853" lon="0.35722">
        <ele>1824.7</ele>
        <time>2011-07-10T13:08:28Z</time>
      </trkpt>
      <trkpt lat="42.68505" lon="0.35747">
        <ele>1825.7</ele>
        <time>2011-07-10T13:08:38Z</time>
      </trkpt>
      <trkpt lat="42.68481" lon="0.35762">
        <ele>1827.1</ele>
        <time>2011-07-10T13:08:46Z</time>
      </trkpt>
      <trkpt lat="42.68459" lon="0.35765">
        <ele>1826.6</ele>
        <time>2011-07-10T13:08:53Z</time>
      </trkpt>
      <trkpt lat="42.68449" lon="0.35762">
        <ele>1826.6</ele>
        <time>2011-07-10T13:09:01Z</time>
      </trkpt>
      <trkpt lat="42.68449" lon="0.35761">
        <ele>1826.6</ele>
        <time>2011-07-10T13:10:06Z</time>
      </trkpt>
      <trkpt lat="42.68432" lon="0.35758">
        <ele>1823.8</ele>
        <time>2011-07-10T13:10:13Z</time>
      </trkpt>
      <trkpt lat="42.68397" lon="0.35755">
        <ele>1824.2</ele>
        <time>2011-07-10T13:10:22Z</time>
      </trkpt>
      <trkpt lat="42.68395" lon="0.35752">
        <ele>1825.7</ele>
        <time>2011-07-10T13:10:31Z</time>
      </trkpt>
      <trkpt lat="42.68394" lon="0.35751">
        <ele>1826.6</ele>
        <time>2011-07-10T13:10:33Z</time>
      </trkpt>
      <trkpt lat="42.6838" lon="0.35754">
        <ele>1829</ele>
        <time>2011-07-10T13:10:57Z</time>
      </trkpt>
      <trkpt lat="42.68374" lon="0.35754">
        <ele>1828.1</ele>
        <time>2011-07-10T13:11:07Z</time>
      </trkpt>
      <trkpt lat="42.68349" lon="0.35757">
        <ele>1826.6</ele>
        <time>2011-07-10T13:11:16Z</time>
      </trkpt>
      <trkpt lat="42.68325" lon="0.35764">
        <ele>1825.7</ele>
        <time>2011-07-10T13:11:39Z</time>
      </trkpt>
      <trkpt lat="42.68307" lon="0.3577">
        <ele>1822.8</ele>
        <time>2011-07-10T13:11:47Z</time>
      </trkpt>
      <trkpt lat="42.68293" lon="0.35771">
        <ele>1821.4</ele>
        <time>2011-07-10T13:11:50Z</time>
      </trkpt>
      <trkpt lat="42.68269" lon="0.35768">
        <ele>1819</ele>
        <time>2011-07-10T13:11:55Z</time>
      </trkpt>
      <trkpt lat="42.68247" lon="0.35759">
        <ele>1820.9</ele>
        <time>2011-07-10T13:12:02Z</time>
      </trkpt>
      <trkpt lat="42.6824" lon="0.35756">
        <ele>1818.5</ele>
        <time>2011-07-10T13:12:05Z</time>
      </trkpt>
      <trkpt lat="42.68216" lon="0.35746">
        <ele>1819.9</ele>
        <time>2011-07-10T13:12:14Z</time>
      </trkpt>
      <trkpt lat="42.68195" lon="0.35733">
        <ele>1820.4</ele>
        <time>2011-07-10T13:12:22Z</time>
      </trkpt>
      <trkpt lat="42.68188" lon="0.35732">
        <ele>1821.8</ele>
        <time>2011-07-10T13:12:25Z</time>
      </trkpt>
      <trkpt lat="42.68185" lon="0.35731">
        <ele>1821.4</ele>
        <time>2011-07-10T13:12:27Z</time>
      </trkpt>
      <trkpt lat="42.6818" lon="0.35729">
        <ele>1821.8</ele>
        <time>2011-07-10T13:12:30Z</time>
      </trkpt>
      <trkpt lat="42.68171" lon="0.35734">
        <ele>1820.9</ele>
        <time>2011-07-10T13:12:36Z</time>
      </trkpt>
      <trkpt lat="42.68171" lon="0.35734">
        <ele>1820.9</ele>
        <time>2011-07-10T13:12:47Z</time>
      </trkpt>
      <trkpt lat="42.68168" lon="0.35732">
        <ele>1822.3</ele>
        <time>2011-07-10T13:12:59Z</time>
      </trkpt>
      <trkpt lat="42.68167" lon="0.35729">
        <ele>1825.2</ele>
        <time>2011-07-10T13:13:11Z</time>
      </trkpt>
      <trkpt lat="42.68165" lon="0.35729">
        <ele>1825.7</ele>
        <time>2011-07-10T13:13:24Z</time>
      </trkpt>
      <trkpt lat="42.68158" lon="0.35731">
        <ele>1826.6</ele>
        <time>2011-07-10T13:13:40Z</time>
      </trkpt>
      <trkpt lat="42.6815" lon="0.35733">
        <ele>1827.1</ele>
        <time>2011-07-10T13:13:49Z</time>
      </trkpt>
      <trkpt lat="42.68142" lon="0.3573">
        <ele>1828.6</ele>
        <time>2011-07-10T13:13:55Z</time>
      </trkpt>
      <trkpt lat="42.68123" lon="0.35726">
        <ele>1827.1</ele>
        <time>2011-07-10T13:14:01Z</time>
      </trkpt>
      <trkpt lat="42.68111" lon="0.35726">
        <ele>1826.2</ele>
        <time>2011-07-10T13:14:04Z</time>
      </trkpt>
      <trkpt lat="42.68101" lon="0.35725">
        <ele>1825.2</ele>
        <time>2011-07-10T13:14:06Z</time>
      </trkpt>
      <trkpt lat="42.68083" lon="0.35719">
        <ele>1823.3</ele>
        <time>2011-07-10T13:14:09Z</time>
      </trkpt>
      <trkpt lat="42.68079" lon="0.35719">
        <ele>1823.8</ele>
        <time>2011-07-10T13:14:10Z</time>
      </trkpt>
      <trkpt lat="42.68074" lon="0.3572">
        <ele>1827.1</ele>
        <time>2011-07-10T13:14:15Z</time>
      </trkpt>
      <trkpt lat="42.68063" lon="0.3573">
        <ele>1827.1</ele>
        <time>2011-07-10T13:14:25Z</time>
      </trkpt>
      <trkpt lat="42.68041" lon="0.35725">
        <ele>1826.2</ele>
        <time>2011-07-10T13:14:33Z</time>
      </trkpt>
      <trkpt lat="42.68024" lon="0.35716">
        <ele>1826.2</ele>
        <time>2011-07-10T13:14:39Z</time>
      </trkpt>
      <trkpt lat="42.68017" lon="0.35711">
        <ele>1826.2</ele>
        <time>2011-07-10T13:14:42Z</time>
      </trkpt>
      <trkpt lat="42.67988" lon="0.357">
        <ele>1827.1</ele>
        <time>2011-07-10T13:14:56Z</time>
      </trkpt>
      <trkpt lat="42.67974" lon="0.35694">
        <ele>1825.7</ele>
        <time>2011-07-10T13:15:03Z</time>
      </trkpt>
      <trkpt lat="42.67974" lon="0.35694">
        <ele>1826.2</ele>
        <time>2011-07-10T13:15:12Z</time>
      </trkpt>
      <trkpt lat="42.67975" lon="0.3569">
        <ele>1826.6</ele>
        <time>2011-07-10T13:15:19Z</time>
      </trkpt>
      <trkpt lat="42.67975" lon="0.35689">
        <ele>1826.6</ele>
        <time>2011-07-10T13:15:21Z</time>
      </trkpt>
      <trkpt lat="42.67967" lon="0.35671">
        <ele>1826.6</ele>
        <time>2011-07-10T13:15:29Z</time>
      </trkpt>
      <trkpt lat="42.67959" lon="0.35667">
        <ele>1827.1</ele>
        <time>2011-07-10T13:15:37Z</time>
      </trkpt>
      <trkpt lat="42.67946" lon="0.35662">
        <ele>1823.3</ele>
        <time>2011-07-10T13:15:46Z</time>
      </trkpt>
      <trkpt lat="42.67941" lon="0.35659">
        <ele>1823.3</ele>
        <time>2011-07-10T13:15:47Z</time>
      </trkpt>
      <trkpt lat="42.67931" lon="0.35643">
        <ele>1825.2</ele>
        <time>2011-07-10T13:15:52Z</time>
      </trkpt>
      <trkpt lat="42.67928" lon="0.35641">
        <ele>1826.6</ele>
        <time>2011-07-10T13:16:01Z</time>
      </trkpt>
      <trkpt lat="42.67924" lon="0.35636">
        <ele>1825.7</ele>
        <time>2011-07-10T13:16:10Z</time>
      </trkpt>
      <trkpt lat="42.67918" lon="0.35631">
        <ele>1824.7</ele>
        <time>2011-07-10T13:16:18Z</time>
      </trkpt>
      <trkpt lat="42.67914" lon="0.35628">
        <ele>1823.8</ele>
        <time>2011-07-10T13:16:21Z</time>
      </trkpt>
      <trkpt lat="42.67909" lon="0.35628">
        <ele>1822.8</ele>
        <time>2011-07-10T13:16:24Z</time>
      </trkpt>
      <trkpt lat="42.679" lon="0.35629">
        <ele>1820.4</ele>
        <time>2011-07-10T13:16:28Z</time>
      </trkpt>
      <trkpt lat="42.67898" lon="0.3563">
        <ele>1819.9</ele>
        <time>2011-07-10T13:16:34Z</time>
      </trkpt>
      <trkpt lat="42.67894" lon="0.3563">
        <ele>1817.5</ele>
        <time>2011-07-10T13:17:22Z</time>
      </trkpt>
      <trkpt lat="42.67893" lon="0.3563">
        <ele>1816.5</ele>
        <time>2011-07-10T13:17:53Z</time>
      </trkpt>
      <trkpt lat="42.67888" lon="0.35641">
        <ele>1814.6</ele>
        <time>2011-07-10T13:18:07Z</time>
      </trkpt>
      <trkpt lat="42.67884" lon="0.35639">
        <ele>1813.2</ele>
        <time>2011-07-10T13:18:12Z</time>
      </trkpt>
      <trkpt lat="42.67883" lon="0.35623">
        <ele>1809.8</ele>
        <time>2011-07-10T13:18:16Z</time>
      </trkpt>
      <trkpt lat="42.67882" lon="0.35617">
        <ele>1808.9</ele>
        <time>2011-07-10T13:18:18Z</time>
      </trkpt>
      <trkpt lat="42.67882" lon="0.35609">
        <ele>1807.4</ele>
        <time>2011-07-10T13:18:23Z</time>
      </trkpt>
      <trkpt lat="42.67877" lon="0.35602">
        <ele>1805.5</ele>
        <time>2011-07-10T13:18:27Z</time>
      </trkpt>
      <trkpt lat="42.67875" lon="0.35594">
        <ele>1804.1</ele>
        <time>2011-07-10T13:18:29Z</time>
      </trkpt>
      <trkpt lat="42.67872" lon="0.3559">
        <ele>1802.6</ele>
        <time>2011-07-10T13:18:34Z</time>
      </trkpt>
      <trkpt lat="42.67862" lon="0.35582">
        <ele>1801.2</ele>
        <time>2011-07-10T13:18:39Z</time>
      </trkpt>
      <trkpt lat="42.67856" lon="0.35584">
        <ele>1797.3</ele>
        <time>2011-07-10T13:18:44Z</time>
      </trkpt>
      <trkpt lat="42.67857" lon="0.35588">
        <ele>1797.8</ele>
        <time>2011-07-10T13:18:51Z</time>
      </trkpt>
      <trkpt lat="42.67856" lon="0.35591">
        <ele>1797.8</ele>
        <time>2011-07-10T13:19:02Z</time>
      </trkpt>
      <trkpt lat="42.67856" lon="0.35593">
        <ele>1794.9</ele>
        <time>2011-07-10T13:23:01Z</time>
      </trkpt>
      <trkpt lat="42.67842" lon="0.3561">
        <ele>1796.8</ele>
        <time>2011-07-10T13:23:17Z</time>
      </trkpt>
      <trkpt lat="42.67837" lon="0.35617">
        <ele>1796.8</ele>
        <time>2011-07-10T13:23:24Z</time>
      </trkpt>
      <trkpt lat="42.67835" lon="0.35621">
        <ele>1796.8</ele>
        <time>2011-07-10T13:23:27Z</time>
      </trkpt>
      <trkpt lat="42.67833" lon="0.35625">
        <ele>1797.8</ele>
        <time>2011-07-10T13:23:31Z</time>
      </trkpt>
      <trkpt lat="42.67836" lon="0.35636">
        <ele>1798.3</ele>
        <time>2011-07-10T13:23:36Z</time>
      </trkpt>
      <trkpt lat="42.67837" lon="0.35643">
        <ele>1798.3</ele>
        <time>2011-07-10T13:23:40Z</time>
      </trkpt>
      <trkpt lat="42.6783" lon="0.35649">
        <ele>1798.8</ele>
        <time>2011-07-10T13:23:46Z</time>
      </trkpt>
      <trkpt lat="42.67825" lon="0.35657">
        <ele>1800.7</ele>
        <time>2011-07-10T13:23:55Z</time>
      </trkpt>
      <trkpt lat="42.6783" lon="0.35664">
        <ele>1800.7</ele>
        <time>2011-07-10T13:23:58Z</time>
      </trkpt>
      <trkpt lat="42.67827" lon="0.35667">
        <ele>1801.6</ele>
        <time>2011-07-10T13:24:01Z</time>
      </trkpt>
      <trkpt lat="42.67826" lon="0.35672">
        <ele>1801.6</ele>
        <time>2011-07-10T13:24:05Z</time>
      </trkpt>
      <trkpt lat="42.67811" lon="0.35679">
        <ele>1803.1</ele>
        <time>2011-07-10T13:24:15Z</time>
      </trkpt>
      <trkpt lat="42.67806" lon="0.35681">
        <ele>1803.6</ele>
        <time>2011-07-10T13:24:19Z</time>
      </trkpt>
      <trkpt lat="42.67803" lon="0.35685">
        <ele>1804.1</ele>
        <time>2011-07-10T13:24:23Z</time>
      </trkpt>
      <trkpt lat="42.67794" lon="0.35696">
        <ele>1806</ele>
        <time>2011-07-10T13:24:36Z</time>
      </trkpt>
      <trkpt lat="42.67784" lon="0.35702">
        <ele>1806.9</ele>
        <time>2011-07-10T13:24:45Z</time>
      </trkpt>
      <trkpt lat="42.67781" lon="0.35705">
        <ele>1806.9</ele>
        <time>2011-07-10T13:24:56Z</time>
      </trkpt>
      <trkpt lat="42.67777" lon="0.3571">
        <ele>1806.9</ele>
        <time>2011-07-10T13:24:59Z</time>
      </trkpt>
      <trkpt lat="42.6776" lon="0.35721">
        <ele>1807.4</ele>
        <time>2011-07-10T13:25:06Z</time>
      </trkpt>
      <trkpt lat="42.67753" lon="0.35732">
        <ele>1807.9</ele>
        <time>2011-07-10T13:25:13Z</time>
      </trkpt>
      <trkpt lat="42.67738" lon="0.35742">
        <ele>1807.9</ele>
        <time>2011-07-10T13:25:19Z</time>
      </trkpt>
      <trkpt lat="42.67734" lon="0.35753">
        <ele>1808.4</ele>
        <time>2011-07-10T13:25:23Z</time>
      </trkpt>
      <trkpt lat="42.67716" lon="0.35764">
        <ele>1807.9</ele>
        <time>2011-07-10T13:25:32Z</time>
      </trkpt>
      <trkpt lat="42.67695" lon="0.35774">
        <ele>1808.9</ele>
        <time>2011-07-10T13:25:41Z</time>
      </trkpt>
      <trkpt lat="42.67676" lon="0.35781">
        <ele>1812.2</ele>
        <time>2011-07-10T13:25:52Z</time>
      </trkpt>
      <trkpt lat="42.67658" lon="0.35777">
        <ele>1811.7</ele>
        <time>2011-07-10T13:25:59Z</time>
      </trkpt>
      <trkpt lat="42.67659" lon="0.35785">
        <ele>1810.8</ele>
        <time>2011-07-10T13:26:19Z</time>
      </trkpt>
      <trkpt lat="42.6764" lon="0.35792">
        <ele>1806</ele>
        <time>2011-07-10T13:26:26Z</time>
      </trkpt>
      <trkpt lat="42.67632" lon="0.35799">
        <ele>1803.6</ele>
        <time>2011-07-10T13:26:28Z</time>
      </trkpt>
      <trkpt lat="42.67621" lon="0.35821">
        <ele>1800.7</ele>
        <time>2011-07-10T13:26:36Z</time>
      </trkpt>
      <trkpt lat="42.6762" lon="0.3582">
        <ele>1800.2</ele>
        <time>2011-07-10T13:26:53Z</time>
      </trkpt>
      <trkpt lat="42.67625" lon="0.3582">
        <ele>1801.2</ele>
        <time>2011-07-10T13:27:01Z</time>
      </trkpt>
      <trkpt lat="42.67627" lon="0.35819">
        <ele>1800.7</ele>
        <time>2011-07-10T13:27:09Z</time>
      </trkpt>
      <trkpt lat="42.67618" lon="0.3582">
        <ele>1798.3</ele>
        <time>2011-07-10T13:28:32Z</time>
      </trkpt>
      <trkpt lat="42.67619" lon="0.35826">
        <ele>1796.4</ele>
        <time>2011-07-10T13:28:43Z</time>
      </trkpt>
      <trkpt lat="42.67617" lon="0.35826">
        <ele>1794.9</ele>
        <time>2011-07-10T13:29:01Z</time>
      </trkpt>
      <trkpt lat="42.67617" lon="0.35826">
        <ele>1794.9</ele>
        <time>2011-07-10T13:29:02Z</time>
      </trkpt>
      <trkpt lat="42.67612" lon="0.35836">
        <ele>1791.1</ele>
        <time>2011-07-10T13:29:09Z</time>
      </trkpt>
      <trkpt lat="42.67607" lon="0.35841">
        <ele>1787.2</ele>
        <time>2011-07-10T13:29:13Z</time>
      </trkpt>
      <trkpt lat="42.67588" lon="0.35844">
        <ele>1782.9</ele>
        <time>2011-07-10T13:29:17Z</time>
      </trkpt>
      <trkpt lat="42.67575" lon="0.35849">
        <ele>1780.5</ele>
        <time>2011-07-10T13:29:20Z</time>
      </trkpt>
      <trkpt lat="42.67573" lon="0.35853">
        <ele>1779.5</ele>
        <time>2011-07-10T13:29:21Z</time>
      </trkpt>
      <trkpt lat="42.67569" lon="0.35876">
        <ele>1774.7</ele>
        <time>2011-07-10T13:29:24Z</time>
      </trkpt>
      <trkpt lat="42.67569" lon="0.35881">
        <ele>1773.8</ele>
        <time>2011-07-10T13:29:25Z</time>
      </trkpt>
      <trkpt lat="42.67563" lon="0.35908">
        <ele>1767</ele>
        <time>2011-07-10T13:29:32Z</time>
      </trkpt>
      <trkpt lat="42.67557" lon="0.3592">
        <ele>1762.7</ele>
        <time>2011-07-10T13:29:35Z</time>
      </trkpt>
      <trkpt lat="42.67556" lon="0.35924">
        <ele>1761.8</ele>
        <time>2011-07-10T13:29:36Z</time>
      </trkpt>
      <trkpt lat="42.67542" lon="0.35951">
        <ele>1756.9</ele>
        <time>2011-07-10T13:29:40Z</time>
      </trkpt>
      <trkpt lat="42.67509" lon="0.35963">
        <ele>1752.6</ele>
        <time>2011-07-10T13:29:47Z</time>
      </trkpt>
      <trkpt lat="42.67493" lon="0.35965">
        <ele>1750.2</ele>
        <time>2011-07-10T13:29:50Z</time>
      </trkpt>
      <trkpt lat="42.6747" lon="0.36009">
        <ele>1748.3</ele>
        <time>2011-07-10T13:30:02Z</time>
      </trkpt>
      <trkpt lat="42.67469" lon="0.36017">
        <ele>1748.3</ele>
        <time>2011-07-10T13:30:07Z</time>
      </trkpt>
      <trkpt lat="42.67471" lon="0.36018">
        <ele>1748.3</ele>
        <time>2011-07-10T13:30:20Z</time>
      </trkpt>
      <trkpt lat="42.67474" lon="0.36022">
        <ele>1747.3</ele>
        <time>2011-07-10T13:32:08Z</time>
      </trkpt>
      <trkpt lat="42.67462" lon="0.3602">
        <ele>1746.9</ele>
        <time>2011-07-10T13:32:15Z</time>
      </trkpt>
      <trkpt lat="42.67434" lon="0.36001">
        <ele>1747.3</ele>
        <time>2011-07-10T13:32:31Z</time>
      </trkpt>
      <trkpt lat="42.67426" lon="0.3599">
        <ele>1748.3</ele>
        <time>2011-07-10T13:32:53Z</time>
      </trkpt>
      <trkpt lat="42.6741" lon="0.35985">
        <ele>1748.3</ele>
        <time>2011-07-10T13:33:03Z</time>
      </trkpt>
      <trkpt lat="42.67356" lon="0.35994">
        <ele>1747.3</ele>
        <time>2011-07-10T13:33:29Z</time>
      </trkpt>
      <trkpt lat="42.67334" lon="0.36002">
        <ele>1747.8</ele>
        <time>2011-07-10T13:33:40Z</time>
      </trkpt>
      <trkpt lat="42.67279" lon="0.36031">
        <ele>1748.8</ele>
        <time>2011-07-10T13:34:05Z</time>
      </trkpt>
      <trkpt lat="42.67245" lon="0.36029">
        <ele>1746.4</ele>
        <time>2011-07-10T13:34:18Z</time>
      </trkpt>
      <trkpt lat="42.67248" lon="0.3603">
        <ele>1746.4</ele>
        <time>2011-07-10T13:35:31Z</time>
      </trkpt>
      <trkpt lat="42.67238" lon="0.36021">
        <ele>1743.5</ele>
        <time>2011-07-10T13:39:18Z</time>
      </trkpt>
      <trkpt lat="42.6723" lon="0.3601">
        <ele>1743</ele>
        <time>2011-07-10T13:39:22Z</time>
      </trkpt>
      <trkpt lat="42.6721" lon="0.35986">
        <ele>1740.6</ele>
        <time>2011-07-10T13:39:29Z</time>
      </trkpt>
      <trkpt lat="42.67189" lon="0.35969">
        <ele>1738.7</ele>
        <time>2011-07-10T13:39:33Z</time>
      </trkpt>
      <trkpt lat="42.67183" lon="0.35965">
        <ele>1737.7</ele>
        <time>2011-07-10T13:39:34Z</time>
      </trkpt>
      <trkpt lat="42.67146" lon="0.3597">
        <ele>1734.8</ele>
        <time>2011-07-10T13:39:39Z</time>
      </trkpt>
      <trkpt lat="42.67113" lon="0.35961">
        <ele>1730</ele>
        <time>2011-07-10T13:39:44Z</time>
      </trkpt>
      <trkpt lat="42.67093" lon="0.35945">
        <ele>1726.7</ele>
        <time>2011-07-10T13:39:47Z</time>
      </trkpt>
      <trkpt lat="42.67056" lon="0.35941">
        <ele>1723.3</ele>
        <time>2011-07-10T13:39:52Z</time>
      </trkpt>
      <trkpt lat="42.67041" lon="0.35942">
        <ele>1722.3</ele>
        <time>2011-07-10T13:39:54Z</time>
      </trkpt>
      <trkpt lat="42.67018" lon="0.35959">
        <ele>1718.5</ele>
        <time>2011-07-10T13:39:58Z</time>
      </trkpt>
      <trkpt lat="42.66995" lon="0.35971">
        <ele>1719.9</ele>
        <time>2011-07-10T13:40:06Z</time>
      </trkpt>
      <trkpt lat="42.66991" lon="0.35969">
        <ele>1719.5</ele>
        <time>2011-07-10T13:40:10Z</time>
      </trkpt>
      <trkpt lat="42.66984" lon="0.35971">
        <ele>1720.4</ele>
        <time>2011-07-10T13:40:14Z</time>
      </trkpt>
      <trkpt lat="42.66973" lon="0.35986">
        <ele>1720.4</ele>
        <time>2011-07-10T13:40:20Z</time>
      </trkpt>
      <trkpt lat="42.66944" lon="0.36033">
        <ele>1718</ele>
        <time>2011-07-10T13:40:36Z</time>
      </trkpt>
      <trkpt lat="42.66913" lon="0.36059">
        <ele>1713.7</ele>
        <time>2011-07-10T13:40:42Z</time>
      </trkpt>
      <trkpt lat="42.669" lon="0.36068">
        <ele>1710.8</ele>
        <time>2011-07-10T13:40:44Z</time>
      </trkpt>
      <trkpt lat="42.66868" lon="0.361">
        <ele>1707.4</ele>
        <time>2011-07-10T13:40:49Z</time>
      </trkpt>
      <trkpt lat="42.66855" lon="0.3611">
        <ele>1706</ele>
        <time>2011-07-10T13:40:51Z</time>
      </trkpt>
      <trkpt lat="42.66809" lon="0.36133">
        <ele>1700.7</ele>
        <time>2011-07-10T13:40:57Z</time>
      </trkpt>
      <trkpt lat="42.66802" lon="0.36137">
        <ele>1700.2</ele>
        <time>2011-07-10T13:40:58Z</time>
      </trkpt>
      <trkpt lat="42.66757" lon="0.36186">
        <ele>1694.9</ele>
        <time>2011-07-10T13:41:05Z</time>
      </trkpt>
      <trkpt lat="42.66725" lon="0.36199">
        <ele>1692.1</ele>
        <time>2011-07-10T13:41:09Z</time>
      </trkpt>
      <trkpt lat="42.66681" lon="0.36213">
        <ele>1688.2</ele>
        <time>2011-07-10T13:41:14Z</time>
      </trkpt>
      <trkpt lat="42.66662" lon="0.36211">
        <ele>1688.7</ele>
        <time>2011-07-10T13:41:19Z</time>
      </trkpt>
      <trkpt lat="42.66626" lon="0.36182">
        <ele>1686.8</ele>
        <time>2011-07-10T13:41:24Z</time>
      </trkpt>
      <trkpt lat="42.66606" lon="0.36163">
        <ele>1680</ele>
        <time>2011-07-10T13:41:52Z</time>
      </trkpt>
      <trkpt lat="42.66583" lon="0.36173">
        <ele>1670</ele>
        <time>2011-07-10T13:41:53Z</time>
      </trkpt>
      <trkpt lat="42.6657" lon="0.36189">
        <ele>1660</ele>
        <time>2011-07-10T13:41:53Z</time>
      </trkpt>
      <trkpt lat="42.66559" lon="0.36237">
        <ele>1655.5</ele>
        <time>2011-07-10T13:42:20Z</time>
      </trkpt>
      <trkpt lat="42.66548" lon="0.36255">
        <ele>1650</ele>
        <time>2011-07-10T13:42:41Z</time>
      </trkpt>
      <trkpt lat="42.6655" lon="0.36255">
        <ele>1640</ele>
        <time>2011-07-10T13:42:56Z</time>
      </trkpt>
      <trkpt lat="42.66542" lon="0.36261">
        <ele>1630</ele>
        <time>2011-07-10T13:43:01Z</time>
      </trkpt>
      <trkpt lat="42.6652" lon="0.3629">
        <ele>1620</ele>
        <time>2011-07-10T13:43:15Z</time>
      </trkpt>
      <trkpt lat="42.66519" lon="0.36294">
        <ele>1610</ele>
        <time>2011-07-10T13:43:19Z</time>
      </trkpt>
      <trkpt lat="42.6649" lon="0.36322">
        <ele>1600</ele>
        <time>2011-07-10T13:43:35Z</time>
      </trkpt>
      <trkpt lat="42.66451" lon="0.36354">
        <ele>1590</ele>
        <time>2011-07-10T13:43:45Z</time>
      </trkpt>
      <trkpt lat="42.66415" lon="0.3643">
        <ele>1570</ele>
        <time>2011-07-10T13:43:59Z</time>
      </trkpt>
      <trkpt lat="42.66409" lon="0.36464">
        <ele>1569</ele>
        <time>2011-07-10T13:44:08Z</time>
      </trkpt>
      <trkpt lat="42.66407" lon="0.36466">
        <ele>1572</ele>
        <time>2011-07-10T13:44:09Z</time>
      </trkpt>
      <trkpt lat="42.66403" lon="0.36471">
        <ele>1571</ele>
        <time>2011-07-10T13:44:12Z</time>
      </trkpt>
      <trkpt lat="42.66399" lon="0.36473">
        <ele>1570.5</ele>
        <time>2011-07-10T13:44:14Z</time>
      </trkpt>
      <trkpt lat="42.66399" lon="0.36476">
        <ele>1571.9</ele>
        <time>2011-07-10T13:44:15Z</time>
      </trkpt>
      <trkpt lat="42.66395" lon="0.3648">
        <ele>1573.8</ele>
        <time>2011-07-10T13:44:17Z</time>
      </trkpt>
      <trkpt lat="42.66388" lon="0.36483">
        <ele>1577.2</ele>
        <time>2011-07-10T13:44:21Z</time>
      </trkpt>
      <trkpt lat="42.66384" lon="0.36492">
        <ele>1581.5</ele>
        <time>2011-07-10T13:44:25Z</time>
      </trkpt>
      <trkpt lat="42.6638" lon="0.36512">
        <ele>1581.5</ele>
        <time>2011-07-10T13:44:33Z</time>
      </trkpt>
      <trkpt lat="42.66373" lon="0.36526">
        <ele>1579.6</ele>
        <time>2011-07-10T13:44:36Z</time>
      </trkpt>
      <trkpt lat="42.6635" lon="0.36556">
        <ele>1574.3</ele>
        <time>2011-07-10T13:44:42Z</time>
      </trkpt>
      <trkpt lat="42.66344" lon="0.36593">
        <ele>1573.8</ele>
        <time>2011-07-10T13:44:46Z</time>
      </trkpt>
      <trkpt lat="42.66343" lon="0.36599">
        <ele>1573.3</ele>
        <time>2011-07-10T13:44:48Z</time>
      </trkpt>
      <trkpt lat="42.66337" lon="0.36604">
        <ele>1572.4</ele>
        <time>2011-07-10T13:44:52Z</time>
      </trkpt>
      <trkpt lat="42.66318" lon="0.36638">
        <ele>1569.5</ele>
        <time>2011-07-10T13:45:01Z</time>
      </trkpt>
      <trkpt lat="42.66316" lon="0.36643">
        <ele>1569.5</ele>
        <time>2011-07-10T13:45:02Z</time>
      </trkpt>
      <trkpt lat="42.66301" lon="0.36655">
        <ele>1568.5</ele>
        <time>2011-07-10T13:45:05Z</time>
      </trkpt>
      <trkpt lat="42.66294" lon="0.36668">
        <ele>1569</ele>
        <time>2011-07-10T13:45:08Z</time>
      </trkpt>
      <trkpt lat="42.66264" lon="0.36683">
        <ele>1566.6</ele>
        <time>2011-07-10T13:45:13Z</time>
      </trkpt>
      <trkpt lat="42.66235" lon="0.36707">
        <ele>1564.7</ele>
        <time>2011-07-10T13:45:19Z</time>
      </trkpt>
      <trkpt lat="42.66205" lon="0.36705">
        <ele>1563.7</ele>
        <time>2011-07-10T13:45:36Z</time>
      </trkpt>
      <trkpt lat="42.66195" lon="0.36705">
        <ele>1563.7</ele>
        <time>2011-07-10T13:45:53Z</time>
      </trkpt>
      <trkpt lat="42.66189" lon="0.36709">
        <ele>1562.8</ele>
        <time>2011-07-10T13:45:56Z</time>
      </trkpt>
      <trkpt lat="42.6614" lon="0.36688">
        <ele>1555.1</ele>
        <time>2011-07-10T13:46:09Z</time>
      </trkpt>
      <trkpt lat="42.66123" lon="0.36692">
        <ele>1550.3</ele>
        <time>2011-07-10T13:46:14Z</time>
      </trkpt>
      <trkpt lat="42.66113" lon="0.36697">
        <ele>1546.4</ele>
        <time>2011-07-10T13:46:17Z</time>
      </trkpt>
      <trkpt lat="42.66101" lon="0.367">
        <ele>1544</ele>
        <time>2011-07-10T13:46:19Z</time>
      </trkpt>
      <trkpt lat="42.66083" lon="0.36723">
        <ele>1540.6</ele>
        <time>2011-07-10T13:46:23Z</time>
      </trkpt>
      <trkpt lat="42.66083" lon="0.36723">
        <ele>1540.6</ele>
        <time>2011-07-10T13:46:23Z</time>
      </trkpt>
      <trkpt lat="42.66074" lon="0.36728">
        <ele>1539.7</ele>
        <time>2011-07-10T13:46:25Z</time>
      </trkpt>
      <trkpt lat="42.66056" lon="0.36733">
        <ele>1537.3</ele>
        <time>2011-07-10T13:46:28Z</time>
      </trkpt>
      <trkpt lat="42.66035" lon="0.36742">
        <ele>1532</ele>
        <time>2011-07-10T13:46:32Z</time>
      </trkpt>
      <trkpt lat="42.66017" lon="0.36756">
        <ele>1529.6</ele>
        <time>2011-07-10T13:46:36Z</time>
      </trkpt>
      <trkpt lat="42.66017" lon="0.36756">
        <ele>1529.6</ele>
        <time>2011-07-10T13:46:36Z</time>
      </trkpt>
      <trkpt lat="42.66" lon="0.3675">
        <ele>1529.1</ele>
        <time>2011-07-10T13:46:44Z</time>
      </trkpt>
      <trkpt lat="42.66002" lon="0.3675">
        <ele>1532</ele>
        <time>2011-07-10T13:47:05Z</time>
      </trkpt>
      <trkpt lat="42.66002" lon="0.36751">
        <ele>1549.3</ele>
        <time>2011-07-10T13:48:47Z</time>
      </trkpt>
      <trkpt lat="42.66005" lon="0.36751">
        <ele>1549.3</ele>
        <time>2011-07-10T13:56:42Z</time>
      </trkpt>
      <trkpt lat="42.66004" lon="0.36751">
        <ele>1548.8</ele>
        <time>2011-07-10T13:57:44Z</time>
      </trkpt>
      <trkpt lat="42.66003" lon="0.36751">
        <ele>1548.3</ele>
        <time>2011-07-10T13:58:00Z</time>
      </trkpt>
      <trkpt lat="42.65956" lon="0.36733">
        <ele>1546.4</ele>
        <time>2011-07-10T13:58:24Z</time>
      </trkpt>
      <trkpt lat="42.65952" lon="0.36733">
        <ele>1546.4</ele>
        <time>2011-07-10T13:58:25Z</time>
      </trkpt>
      <trkpt lat="42.65928" lon="0.36723">
        <ele>1545.9</ele>
        <time>2011-07-10T13:58:31Z</time>
      </trkpt>
      <trkpt lat="42.65892" lon="0.36695">
        <ele>1542.6</ele>
        <time>2011-07-10T13:58:39Z</time>
      </trkpt>
      <trkpt lat="42.6587" lon="0.36687">
        <ele>1542.6</ele>
        <time>2011-07-10T13:58:43Z</time>
      </trkpt>
      <trkpt lat="42.65795" lon="0.36668">
        <ele>1540.6</ele>
        <time>2011-07-10T13:58:57Z</time>
      </trkpt>
      <trkpt lat="42.6578" lon="0.36662">
        <ele>1539.7</ele>
        <time>2011-07-10T13:59:00Z</time>
      </trkpt>
      <trkpt lat="42.65758" lon="0.36657">
        <ele>1538.7</ele>
        <time>2011-07-10T13:59:04Z</time>
      </trkpt>
      <trkpt lat="42.65647" lon="0.36603">
        <ele>1534.4</ele>
        <time>2011-07-10T13:59:30Z</time>
      </trkpt>
      <trkpt lat="42.65638" lon="0.36595">
        <ele>1533</ele>
        <time>2011-07-10T13:59:32Z</time>
      </trkpt>
      <trkpt lat="42.65607" lon="0.36563">
        <ele>1529.1</ele>
        <time>2011-07-10T13:59:38Z</time>
      </trkpt>
      <trkpt lat="42.65582" lon="0.36539">
        <ele>1529.1</ele>
        <time>2011-07-10T13:59:43Z</time>
      </trkpt>
      <trkpt lat="42.65503" lon="0.36442">
        <ele>1527.7</ele>
        <time>2011-07-10T14:00:02Z</time>
      </trkpt>
      <trkpt lat="42.65475" lon="0.3642">
        <ele>1525.7</ele>
        <time>2011-07-10T14:00:08Z</time>
      </trkpt>
      <trkpt lat="42.65447" lon="0.36381">
        <ele>1526.2</ele>
        <time>2011-07-10T14:00:15Z</time>
      </trkpt>
      <trkpt lat="42.65429" lon="0.36342">
        <ele>1525.3</ele>
        <time>2011-07-10T14:00:21Z</time>
      </trkpt>
      <trkpt lat="42.65397" lon="0.36295">
        <ele>1526.2</ele>
        <time>2011-07-10T14:00:30Z</time>
      </trkpt>
      <trkpt lat="42.65361" lon="0.36255">
        <ele>1525.7</ele>
        <time>2011-07-10T14:00:39Z</time>
      </trkpt>
      <trkpt lat="42.65336" lon="0.36222">
        <ele>1527.2</ele>
        <time>2011-07-10T14:00:48Z</time>
      </trkpt>
      <trkpt lat="42.65318" lon="0.36195">
        <ele>1525.3</ele>
        <time>2011-07-10T14:00:55Z</time>
      </trkpt>
      <trkpt lat="42.65283" lon="0.3615">
        <ele>1523.3</ele>
        <time>2011-07-10T14:01:08Z</time>
      </trkpt>
      <trkpt lat="42.6527" lon="0.36124">
        <ele>1521.9</ele>
        <time>2011-07-10T14:01:14Z</time>
      </trkpt>
      <trkpt lat="42.65248" lon="0.36048">
        <ele>1519</ele>
        <time>2011-07-10T14:01:25Z</time>
      </trkpt>
      <trkpt lat="42.65232" lon="0.36002">
        <ele>1515.2</ele>
        <time>2011-07-10T14:01:31Z</time>
      </trkpt>
      <trkpt lat="42.65229" lon="0.35961">
        <ele>1511.8</ele>
        <time>2011-07-10T14:01:35Z</time>
      </trkpt>
      <trkpt lat="42.65206" lon="0.35904">
        <ele>1508.4</ele>
        <time>2011-07-10T14:01:41Z</time>
      </trkpt>
      <trkpt lat="42.652" lon="0.35895">
        <ele>1508.4</ele>
        <time>2011-07-10T14:01:42Z</time>
      </trkpt>
      <trkpt lat="42.65193" lon="0.35877">
        <ele>1508</ele>
        <time>2011-07-10T14:01:44Z</time>
      </trkpt>
      <trkpt lat="42.65177" lon="0.35849">
        <ele>1509.4</ele>
        <time>2011-07-10T14:01:48Z</time>
      </trkpt>
      <trkpt lat="42.65153" lon="0.35819">
        <ele>1507</ele>
        <time>2011-07-10T14:01:54Z</time>
      </trkpt>
      <trkpt lat="42.65144" lon="0.35805">
        <ele>1505.6</ele>
        <time>2011-07-10T14:01:56Z</time>
      </trkpt>
      <trkpt lat="42.65137" lon="0.3579">
        <ele>1503.6</ele>
        <time>2011-07-10T14:01:58Z</time>
      </trkpt>
      <trkpt lat="42.65128" lon="0.35746">
        <ele>1503.2</ele>
        <time>2011-07-10T14:02:05Z</time>
      </trkpt>
      <trkpt lat="42.65126" lon="0.35716">
        <ele>1499.8</ele>
        <time>2011-07-10T14:02:14Z</time>
      </trkpt>
      <trkpt lat="42.65127" lon="0.35671">
        <ele>1495.9</ele>
        <time>2011-07-10T14:02:20Z</time>
      </trkpt>
      <trkpt lat="42.65127" lon="0.35646">
        <ele>1493.5</ele>
        <time>2011-07-10T14:02:23Z</time>
      </trkpt>
      <trkpt lat="42.65119" lon="0.35602">
        <ele>1488.7</ele>
        <time>2011-07-10T14:02:27Z</time>
      </trkpt>
      <trkpt lat="42.65115" lon="0.35567">
        <ele>1486.3</ele>
        <time>2011-07-10T14:02:30Z</time>
      </trkpt>
      <trkpt lat="42.65098" lon="0.35532">
        <ele>1485.4</ele>
        <time>2011-07-10T14:02:34Z</time>
      </trkpt>
      <trkpt lat="42.65088" lon="0.35471">
        <ele>1484.9</ele>
        <time>2011-07-10T14:02:41Z</time>
      </trkpt>
      <trkpt lat="42.65087" lon="0.35462">
        <ele>1484.4</ele>
        <time>2011-07-10T14:02:42Z</time>
      </trkpt>
      <trkpt lat="42.65072" lon="0.35417">
        <ele>1483.9</ele>
        <time>2011-07-10T14:02:47Z</time>
      </trkpt>
      <trkpt lat="42.65064" lon="0.35402">
        <ele>1483.5</ele>
        <time>2011-07-10T14:02:49Z</time>
      </trkpt>
      <trkpt lat="42.65047" lon="0.35343">
        <ele>1482.5</ele>
        <time>2011-07-10T14:02:58Z</time>
      </trkpt>
      <trkpt lat="42.6503" lon="0.35312">
        <ele>1482</ele>
        <time>2011-07-10T14:03:02Z</time>
      </trkpt>
      <trkpt lat="42.65009" lon="0.35257">
        <ele>1480.6</ele>
        <time>2011-07-10T14:03:09Z</time>
      </trkpt>
      <trkpt lat="42.64996" lon="0.35228">
        <ele>1479.1</ele>
        <time>2011-07-10T14:03:12Z</time>
      </trkpt>
      <trkpt lat="42.64985" lon="0.35194">
        <ele>1478.6</ele>
        <time>2011-07-10T14:03:16Z</time>
      </trkpt>
      <trkpt lat="42.6497" lon="0.35164">
        <ele>1477.7</ele>
        <time>2011-07-10T14:03:20Z</time>
      </trkpt>
      <trkpt lat="42.64929" lon="0.35135">
        <ele>1477.2</ele>
        <time>2011-07-10T14:03:26Z</time>
      </trkpt>
      <trkpt lat="42.64914" lon="0.35113">
        <ele>1476.2</ele>
        <time>2011-07-10T14:03:30Z</time>
      </trkpt>
      <trkpt lat="42.64914" lon="0.35113">
        <ele>1476.2</ele>
        <time>2011-07-10T14:03:30Z</time>
      </trkpt>
      <trkpt lat="42.64909" lon="0.35055">
        <ele>1475.8</ele>
        <time>2011-07-10T14:03:39Z</time>
      </trkpt>
      <trkpt lat="42.64905" lon="0.35033">
        <ele>1473.4</ele>
        <time>2011-07-10T14:03:42Z</time>
      </trkpt>
      <trkpt lat="42.64909" lon="0.35016">
        <ele>1471.4</ele>
        <time>2011-07-10T14:03:45Z</time>
      </trkpt>
      <trkpt lat="42.64921" lon="0.34982">
        <ele>1474.3</ele>
        <time>2011-07-10T14:03:55Z</time>
      </trkpt>
      <trkpt lat="42.64922" lon="0.34979">
        <ele>1474.8</ele>
        <time>2011-07-10T14:03:57Z</time>
      </trkpt>
      <trkpt lat="42.64947" lon="0.34922">
        <ele>1478.2</ele>
        <time>2011-07-10T14:04:22Z</time>
      </trkpt>
      <trkpt lat="42.64949" lon="0.34882">
        <ele>1480.1</ele>
        <time>2011-07-10T14:04:36Z</time>
      </trkpt>
      <trkpt lat="42.64946" lon="0.34847">
        <ele>1482</ele>
        <time>2011-07-10T14:04:51Z</time>
      </trkpt>
      <trkpt lat="42.64942" lon="0.34834">
        <ele>1482.5</ele>
        <time>2011-07-10T14:05:26Z</time>
      </trkpt>
      <trkpt lat="42.6493" lon="0.34805">
        <ele>1484.9</ele>
        <time>2011-07-10T14:05:42Z</time>
      </trkpt>
      <trkpt lat="42.64919" lon="0.34786">
        <ele>1485.9</ele>
        <time>2011-07-10T14:05:52Z</time>
      </trkpt>
      <trkpt lat="42.64904" lon="0.34762">
        <ele>1488.3</ele>
        <time>2011-07-10T14:06:07Z</time>
      </trkpt>
      <trkpt lat="42.64906" lon="0.34759">
        <ele>1488.7</ele>
        <time>2011-07-10T14:06:10Z</time>
      </trkpt>
      <trkpt lat="42.64888" lon="0.34728">
        <ele>1490.7</ele>
        <time>2011-07-10T14:06:23Z</time>
      </trkpt>
      <trkpt lat="42.64864" lon="0.34706">
        <ele>1491.6</ele>
        <time>2011-07-10T14:06:36Z</time>
      </trkpt>
      <trkpt lat="42.6485" lon="0.34692">
        <ele>1491.6</ele>
        <time>2011-07-10T14:06:44Z</time>
      </trkpt>
      <trkpt lat="42.64833" lon="0.3467">
        <ele>1492.1</ele>
        <time>2011-07-10T14:06:55Z</time>
      </trkpt>
      <trkpt lat="42.64807" lon="0.34651">
        <ele>1493.1</ele>
        <time>2011-07-10T14:07:08Z</time>
      </trkpt>
      <trkpt lat="42.64805" lon="0.3465">
        <ele>1493.5</ele>
        <time>2011-07-10T14:07:09Z</time>
      </trkpt>
      <trkpt lat="42.64796" lon="0.34633">
        <ele>1493.1</ele>
        <time>2011-07-10T14:07:19Z</time>
      </trkpt>
      <trkpt lat="42.64784" lon="0.34602">
        <ele>1489.7</ele>
        <time>2011-07-10T14:07:27Z</time>
      </trkpt>
      <trkpt lat="42.64777" lon="0.34588">
        <ele>1488.7</ele>
        <time>2011-07-10T14:07:30Z</time>
      </trkpt>
      <trkpt lat="42.64737" lon="0.34562">
        <ele>1488.3</ele>
        <time>2011-07-10T14:07:39Z</time>
      </trkpt>
      <trkpt lat="42.64724" lon="0.34548">
        <ele>1490.2</ele>
        <time>2011-07-10T14:07:48Z</time>
      </trkpt>
      <trkpt lat="42.64724" lon="0.34546">
        <ele>1490.7</ele>
        <time>2011-07-10T14:07:53Z</time>
      </trkpt>
      <trkpt lat="42.64719" lon="0.34537">
        <ele>1492.1</ele>
        <time>2011-07-10T14:08:00Z</time>
      </trkpt>
      <trkpt lat="42.64717" lon="0.34526">
        <ele>1493.1</ele>
        <time>2011-07-10T14:08:07Z</time>
      </trkpt>
      <trkpt lat="42.64718" lon="0.34511">
        <ele>1494</ele>
        <time>2011-07-10T14:08:19Z</time>
      </trkpt>
      <trkpt lat="42.64718" lon="0.34511">
        <ele>1493.5</ele>
        <time>2011-07-10T14:10:44Z</time>
      </trkpt>
      <trkpt lat="42.64717" lon="0.34504">
        <ele>1493.1</ele>
        <time>2011-07-10T14:10:49Z</time>
      </trkpt>
      <trkpt lat="42.64719" lon="0.34494">
        <ele>1492.1</ele>
        <time>2011-07-10T14:10:53Z</time>
      </trkpt>
      <trkpt lat="42.64719" lon="0.34487">
        <ele>1491.6</ele>
        <time>2011-07-10T14:10:56Z</time>
      </trkpt>
      <trkpt lat="42.64684" lon="0.3444">
        <ele>1487.3</ele>
        <time>2011-07-10T14:11:15Z</time>
      </trkpt>
      <trkpt lat="42.64661" lon="0.34406">
        <ele>1483.9</ele>
        <time>2011-07-10T14:11:27Z</time>
      </trkpt>
      <trkpt lat="42.64656" lon="0.34402">
        <ele>1483.5</ele>
        <time>2011-07-10T14:11:29Z</time>
      </trkpt>
      <trkpt lat="42.6463" lon="0.34386">
        <ele>1480.1</ele>
        <time>2011-07-10T14:11:40Z</time>
      </trkpt>
      <trkpt lat="42.64619" lon="0.34365">
        <ele>1476.7</ele>
        <time>2011-07-10T14:11:46Z</time>
      </trkpt>
      <trkpt lat="42.64617" lon="0.34361">
        <ele>1476.2</ele>
        <time>2011-07-10T14:11:47Z</time>
      </trkpt>
      <trkpt lat="42.64607" lon="0.34346">
        <ele>1474.8</ele>
        <time>2011-07-10T14:11:51Z</time>
      </trkpt>
      <trkpt lat="42.6459" lon="0.34343">
        <ele>1475.3</ele>
        <time>2011-07-10T14:11:58Z</time>
      </trkpt>
      <trkpt lat="42.64577" lon="0.34357">
        <ele>1477.7</ele>
        <time>2011-07-10T14:12:10Z</time>
      </trkpt>
      <trkpt lat="42.64564" lon="0.34368">
        <ele>1479.1</ele>
        <time>2011-07-10T14:12:20Z</time>
      </trkpt>
      <trkpt lat="42.64539" lon="0.34386">
        <ele>1481</ele>
        <time>2011-07-10T14:12:37Z</time>
      </trkpt>
      <trkpt lat="42.64521" lon="0.34392">
        <ele>1483.5</ele>
        <time>2011-07-10T14:12:50Z</time>
      </trkpt>
      <trkpt lat="42.64501" lon="0.34395">
        <ele>1486.8</ele>
        <time>2011-07-10T14:13:05Z</time>
      </trkpt>
      <trkpt lat="42.64481" lon="0.34393">
        <ele>1489.7</ele>
        <time>2011-07-10T14:13:19Z</time>
      </trkpt>
      <trkpt lat="42.64463" lon="0.34382">
        <ele>1491.6</ele>
        <time>2011-07-10T14:13:35Z</time>
      </trkpt>
      <trkpt lat="42.64449" lon="0.34355">
        <ele>1495.5</ele>
        <time>2011-07-10T14:13:54Z</time>
      </trkpt>
      <trkpt lat="42.64449" lon="0.34353">
        <ele>1495.5</ele>
        <time>2011-07-10T14:13:55Z</time>
      </trkpt>
      <trkpt lat="42.64455" lon="0.34321">
        <ele>1499.3</ele>
        <time>2011-07-10T14:14:14Z</time>
      </trkpt>
      <trkpt lat="42.64444" lon="0.34297">
        <ele>1500.8</ele>
        <time>2011-07-10T14:14:27Z</time>
      </trkpt>
      <trkpt lat="42.64435" lon="0.34286">
        <ele>1502.2</ele>
        <time>2011-07-10T14:14:36Z</time>
      </trkpt>
      <trkpt lat="42.64426" lon="0.34268">
        <ele>1504.6</ele>
        <time>2011-07-10T14:14:48Z</time>
      </trkpt>
      <trkpt lat="42.64419" lon="0.3426">
        <ele>1506.5</ele>
        <time>2011-07-10T14:14:55Z</time>
      </trkpt>
      <trkpt lat="42.64402" lon="0.34236">
        <ele>1509.4</ele>
        <time>2011-07-10T14:15:12Z</time>
      </trkpt>
      <trkpt lat="42.64401" lon="0.34235">
        <ele>1509.9</ele>
        <time>2011-07-10T14:15:13Z</time>
      </trkpt>
      <trkpt lat="42.64399" lon="0.3423">
        <ele>1510.8</ele>
        <time>2011-07-10T14:15:16Z</time>
      </trkpt>
      <trkpt lat="42.64398" lon="0.34224">
        <ele>1511.3</ele>
        <time>2011-07-10T14:15:20Z</time>
      </trkpt>
      <trkpt lat="42.64389" lon="0.34182">
        <ele>1515.2</ele>
        <time>2011-07-10T14:15:43Z</time>
      </trkpt>
      <trkpt lat="42.64368" lon="0.34128">
        <ele>1520</ele>
        <time>2011-07-10T14:16:16Z</time>
      </trkpt>
      <trkpt lat="42.64348" lon="0.34094">
        <ele>1521.9</ele>
        <time>2011-07-10T14:16:36Z</time>
      </trkpt>
      <trkpt lat="42.64329" lon="0.34082">
        <ele>1522.4</ele>
        <time>2011-07-10T14:16:50Z</time>
      </trkpt>
      <trkpt lat="42.64315" lon="0.34076">
        <ele>1523.3</ele>
        <time>2011-07-10T14:16:58Z</time>
      </trkpt>
      <trkpt lat="42.64288" lon="0.34052">
        <ele>1524.3</ele>
        <time>2011-07-10T14:17:18Z</time>
      </trkpt>
      <trkpt lat="42.64271" lon="0.34035">
        <ele>1526.7</ele>
        <time>2011-07-10T14:17:32Z</time>
      </trkpt>
      <trkpt lat="42.64268" lon="0.34031">
        <ele>1527.2</ele>
        <time>2011-07-10T14:17:35Z</time>
      </trkpt>
      <trkpt lat="42.64263" lon="0.34008">
        <ele>1530.6</ele>
        <time>2011-07-10T14:17:48Z</time>
      </trkpt>
      <trkpt lat="42.64264" lon="0.33999">
        <ele>1531.5</ele>
        <time>2011-07-10T14:17:54Z</time>
      </trkpt>
      <trkpt lat="42.64273" lon="0.33993">
        <ele>1533</ele>
        <time>2011-07-10T14:18:03Z</time>
      </trkpt>
      <trkpt lat="42.6428" lon="0.33993">
        <ele>1533.9</ele>
        <time>2011-07-10T14:18:08Z</time>
      </trkpt>
      <trkpt lat="42.64285" lon="0.33997">
        <ele>1534.9</ele>
        <time>2011-07-10T14:18:13Z</time>
      </trkpt>
      <trkpt lat="42.64313" lon="0.34">
        <ele>1538.2</ele>
        <time>2011-07-10T14:18:33Z</time>
      </trkpt>
      <trkpt lat="42.64341" lon="0.34012">
        <ele>1540.6</ele>
        <time>2011-07-10T14:18:50Z</time>
      </trkpt>
      <trkpt lat="42.64368" lon="0.3402">
        <ele>1543.1</ele>
        <time>2011-07-10T14:19:06Z</time>
      </trkpt>
      <trkpt lat="42.64385" lon="0.34048">
        <ele>1545</ele>
        <time>2011-07-10T14:19:22Z</time>
      </trkpt>
      <trkpt lat="42.64406" lon="0.34062">
        <ele>1547.4</ele>
        <time>2011-07-10T14:19:37Z</time>
      </trkpt>
      <trkpt lat="42.64435" lon="0.34069">
        <ele>1550.3</ele>
        <time>2011-07-10T14:19:56Z</time>
      </trkpt>
      <trkpt lat="42.64472" lon="0.34116">
        <ele>1555.1</ele>
        <time>2011-07-10T14:20:27Z</time>
      </trkpt>
      <trkpt lat="42.64482" lon="0.34127">
        <ele>1556</ele>
        <time>2011-07-10T14:20:35Z</time>
      </trkpt>
      <trkpt lat="42.64487" lon="0.34132">
        <ele>1556.5</ele>
        <time>2011-07-10T14:20:39Z</time>
      </trkpt>
      <trkpt lat="42.64506" lon="0.34163">
        <ele>1559.9</ele>
        <time>2011-07-10T14:20:58Z</time>
      </trkpt>
      <trkpt lat="42.64526" lon="0.3418">
        <ele>1562.8</ele>
        <time>2011-07-10T14:21:14Z</time>
      </trkpt>
      <trkpt lat="42.64529" lon="0.34183">
        <ele>1563.2</ele>
        <time>2011-07-10T14:21:17Z</time>
      </trkpt>
      <trkpt lat="42.64539" lon="0.34173">
        <ele>1565.2</ele>
        <time>2011-07-10T14:21:29Z</time>
      </trkpt>
      <trkpt lat="42.64526" lon="0.34132">
        <ele>1568.5</ele>
        <time>2011-07-10T14:21:50Z</time>
      </trkpt>
      <trkpt lat="42.64512" lon="0.34055">
        <ele>1573.3</ele>
        <time>2011-07-10T14:22:26Z</time>
      </trkpt>
      <trkpt lat="42.645" lon="0.3403">
        <ele>1575.7</ele>
        <time>2011-07-10T14:22:39Z</time>
      </trkpt>
      <trkpt lat="42.64493" lon="0.34004">
        <ele>1577.7</ele>
        <time>2011-07-10T14:22:53Z</time>
      </trkpt>
      <trkpt lat="42.64483" lon="0.33978">
        <ele>1579.6</ele>
        <time>2011-07-10T14:23:06Z</time>
      </trkpt>
      <trkpt lat="42.64466" lon="0.33941">
        <ele>1582.5</ele>
        <time>2011-07-10T14:23:27Z</time>
      </trkpt>
      <trkpt lat="42.64452" lon="0.33922">
        <ele>1584.4</ele>
        <time>2011-07-10T14:23:41Z</time>
      </trkpt>
      <trkpt lat="42.64448" lon="0.3392">
        <ele>1585.4</ele>
        <time>2011-07-10T14:23:44Z</time>
      </trkpt>
      <trkpt lat="42.64438" lon="0.3391">
        <ele>1586.8</ele>
        <time>2011-07-10T14:23:53Z</time>
      </trkpt>
      <trkpt lat="42.64417" lon="0.33891">
        <ele>1589.2</ele>
        <time>2011-07-10T14:24:11Z</time>
      </trkpt>
      <trkpt lat="42.64394" lon="0.33874">
        <ele>1592.1</ele>
        <time>2011-07-10T14:24:28Z</time>
      </trkpt>
      <trkpt lat="42.64347" lon="0.33823">
        <ele>1596.9</ele>
        <time>2011-07-10T14:25:04Z</time>
      </trkpt>
      <trkpt lat="42.64305" lon="0.33783">
        <ele>1602.7</ele>
        <time>2011-07-10T14:25:38Z</time>
      </trkpt>
      <trkpt lat="42.64281" lon="0.33765">
        <ele>1605.5</ele>
        <time>2011-07-10T14:25:56Z</time>
      </trkpt>
      <trkpt lat="42.64265" lon="0.33752">
        <ele>1607.5</ele>
        <time>2011-07-10T14:26:08Z</time>
      </trkpt>
      <trkpt lat="42.6425" lon="0.33731">
        <ele>1609.4</ele>
        <time>2011-07-10T14:26:21Z</time>
      </trkpt>
      <trkpt lat="42.64231" lon="0.3369">
        <ele>1613.7</ele>
        <time>2011-07-10T14:26:44Z</time>
      </trkpt>
      <trkpt lat="42.64224" lon="0.33667">
        <ele>1615.6</ele>
        <time>2011-07-10T14:26:58Z</time>
      </trkpt>
      <trkpt lat="42.6422" lon="0.33636">
        <ele>1618.5</ele>
        <time>2011-07-10T14:27:14Z</time>
      </trkpt>
      <trkpt lat="42.64212" lon="0.33619">
        <ele>1621.4</ele>
        <time>2011-07-10T14:27:25Z</time>
      </trkpt>
      <trkpt lat="42.64218" lon="0.33607">
        <ele>1621.9</ele>
        <time>2011-07-10T14:27:35Z</time>
      </trkpt>
      <trkpt lat="42.64222" lon="0.33606">
        <ele>1622.4</ele>
        <time>2011-07-10T14:27:38Z</time>
      </trkpt>
      <trkpt lat="42.64243" lon="0.33627">
        <ele>1625.7</ele>
        <time>2011-07-10T14:27:55Z</time>
      </trkpt>
      <trkpt lat="42.64263" lon="0.33661">
        <ele>1628.1</ele>
        <time>2011-07-10T14:28:14Z</time>
      </trkpt>
      <trkpt lat="42.6431" lon="0.33683">
        <ele>1632</ele>
        <time>2011-07-10T14:28:43Z</time>
      </trkpt>
      <trkpt lat="42.64332" lon="0.337">
        <ele>1634.4</ele>
        <time>2011-07-10T14:28:58Z</time>
      </trkpt>
      <trkpt lat="42.64355" lon="0.33714">
        <ele>1636.8</ele>
        <time>2011-07-10T14:29:12Z</time>
      </trkpt>
      <trkpt lat="42.64376" lon="0.33723">
        <ele>1638.7</ele>
        <time>2011-07-10T14:29:25Z</time>
      </trkpt>
      <trkpt lat="42.64379" lon="0.33712">
        <ele>1638.7</ele>
        <time>2011-07-10T14:29:33Z</time>
      </trkpt>
      <trkpt lat="42.64375" lon="0.3371">
        <ele>1639.2</ele>
        <time>2011-07-10T14:29:36Z</time>
      </trkpt>
      <trkpt lat="42.64359" lon="0.33692">
        <ele>1642.1</ele>
        <time>2011-07-10T14:29:49Z</time>
      </trkpt>
      <trkpt lat="42.64344" lon="0.33672">
        <ele>1644</ele>
        <time>2011-07-10T14:30:01Z</time>
      </trkpt>
      <trkpt lat="42.64317" lon="0.3362">
        <ele>1648.8</ele>
        <time>2011-07-10T14:30:29Z</time>
      </trkpt>
      <trkpt lat="42.64326" lon="0.33608">
        <ele>1650.7</ele>
        <time>2011-07-10T14:30:40Z</time>
      </trkpt>
      <trkpt lat="42.64327" lon="0.3361">
        <ele>1650.7</ele>
        <time>2011-07-10T14:30:41Z</time>
      </trkpt>
      <trkpt lat="42.64344" lon="0.33634">
        <ele>1653.1</ele>
        <time>2011-07-10T14:30:56Z</time>
      </trkpt>
      <trkpt lat="42.6437" lon="0.33648">
        <ele>1656</ele>
        <time>2011-07-10T14:31:13Z</time>
      </trkpt>
      <trkpt lat="42.64395" lon="0.33653">
        <ele>1659.4</ele>
        <time>2011-07-10T14:31:29Z</time>
      </trkpt>
      <trkpt lat="42.64417" lon="0.33669">
        <ele>1662.3</ele>
        <time>2011-07-10T14:31:47Z</time>
      </trkpt>
      <trkpt lat="42.64433" lon="0.33678">
        <ele>1664.2</ele>
        <time>2011-07-10T14:31:59Z</time>
      </trkpt>
      <trkpt lat="42.64454" lon="0.33679">
        <ele>1665.6</ele>
        <time>2011-07-10T14:32:13Z</time>
      </trkpt>
      <trkpt lat="42.64477" lon="0.33672">
        <ele>1667.5</ele>
        <time>2011-07-10T14:32:28Z</time>
      </trkpt>
      <trkpt lat="42.64529" lon="0.33637">
        <ele>1673.3</ele>
        <time>2011-07-10T14:33:05Z</time>
      </trkpt>
      <trkpt lat="42.64547" lon="0.33629">
        <ele>1676.7</ele>
        <time>2011-07-10T14:33:19Z</time>
      </trkpt>
      <trkpt lat="42.64564" lon="0.33626">
        <ele>1679.1</ele>
        <time>2011-07-10T14:33:33Z</time>
      </trkpt>
      <trkpt lat="42.64576" lon="0.33641">
        <ele>1680.5</ele>
        <time>2011-07-10T14:33:45Z</time>
      </trkpt>
      <trkpt lat="42.64581" lon="0.33655">
        <ele>1682</ele>
        <time>2011-07-10T14:33:53Z</time>
      </trkpt>
      <trkpt lat="42.64594" lon="0.33677">
        <ele>1684.8</ele>
        <time>2011-07-10T14:34:08Z</time>
      </trkpt>
      <trkpt lat="42.64596" lon="0.33682">
        <ele>1685.3</ele>
        <time>2011-07-10T14:34:11Z</time>
      </trkpt>
      <trkpt lat="42.64623" lon="0.33695">
        <ele>1687.7</ele>
        <time>2011-07-10T14:34:28Z</time>
      </trkpt>
      <trkpt lat="42.64641" lon="0.33688">
        <ele>1688.7</ele>
        <time>2011-07-10T14:34:39Z</time>
      </trkpt>
      <trkpt lat="42.64644" lon="0.33681">
        <ele>1689.7</ele>
        <time>2011-07-10T14:34:43Z</time>
      </trkpt>
      <trkpt lat="42.64644" lon="0.33648">
        <ele>1691.6</ele>
        <time>2011-07-10T14:34:58Z</time>
      </trkpt>
      <trkpt lat="42.6463" lon="0.33581">
        <ele>1694.5</ele>
        <time>2011-07-10T14:35:25Z</time>
      </trkpt>
      <trkpt lat="42.64629" lon="0.33541">
        <ele>1697.3</ele>
        <time>2011-07-10T14:35:41Z</time>
      </trkpt>
      <trkpt lat="42.64633" lon="0.33519">
        <ele>1699.3</ele>
        <time>2011-07-10T14:35:51Z</time>
      </trkpt>
      <trkpt lat="42.64626" lon="0.33488">
        <ele>1700.7</ele>
        <time>2011-07-10T14:36:04Z</time>
      </trkpt>
      <trkpt lat="42.64627" lon="0.33448">
        <ele>1703.1</ele>
        <time>2011-07-10T14:36:21Z</time>
      </trkpt>
      <trkpt lat="42.64635" lon="0.33431">
        <ele>1705</ele>
        <time>2011-07-10T14:36:31Z</time>
      </trkpt>
      <trkpt lat="42.6466" lon="0.33423">
        <ele>1707</ele>
        <time>2011-07-10T14:36:46Z</time>
      </trkpt>
      <trkpt lat="42.6467" lon="0.33432">
        <ele>1708.4</ele>
        <time>2011-07-10T14:36:53Z</time>
      </trkpt>
      <trkpt lat="42.64693" lon="0.33444">
        <ele>1710.8</ele>
        <time>2011-07-10T14:37:07Z</time>
      </trkpt>
      <trkpt lat="42.64706" lon="0.33458">
        <ele>1712.2</ele>
        <time>2011-07-10T14:37:17Z</time>
      </trkpt>
      <trkpt lat="42.6473" lon="0.33471">
        <ele>1715.1</ele>
        <time>2011-07-10T14:37:34Z</time>
      </trkpt>
      <trkpt lat="42.64752" lon="0.3347">
        <ele>1717.5</ele>
        <time>2011-07-10T14:37:47Z</time>
      </trkpt>
      <trkpt lat="42.64768" lon="0.33451">
        <ele>1719.5</ele>
        <time>2011-07-10T14:38:02Z</time>
      </trkpt>
      <trkpt lat="42.64791" lon="0.33443">
        <ele>1721.9</ele>
        <time>2011-07-10T14:38:16Z</time>
      </trkpt>
      <trkpt lat="42.648" lon="0.33442">
        <ele>1722.8</ele>
        <time>2011-07-10T14:38:22Z</time>
      </trkpt>
      <trkpt lat="42.64805" lon="0.33441">
        <ele>1723.3</ele>
        <time>2011-07-10T14:38:26Z</time>
      </trkpt>
      <trkpt lat="42.64811" lon="0.33438">
        <ele>1724.7</ele>
        <time>2011-07-10T14:38:32Z</time>
      </trkpt>
      <trkpt lat="42.64814" lon="0.33431">
        <ele>1725.7</ele>
        <time>2011-07-10T14:38:36Z</time>
      </trkpt>
      <trkpt lat="42.64812" lon="0.33423">
        <ele>1726.2</ele>
        <time>2011-07-10T14:38:40Z</time>
      </trkpt>
      <trkpt lat="42.64797" lon="0.33422">
        <ele>1727.6</ele>
        <time>2011-07-10T14:38:50Z</time>
      </trkpt>
      <trkpt lat="42.64778" lon="0.33413">
        <ele>1729.5</ele>
        <time>2011-07-10T14:39:04Z</time>
      </trkpt>
      <trkpt lat="42.64751" lon="0.33383">
        <ele>1730.5</ele>
        <time>2011-07-10T14:39:21Z</time>
      </trkpt>
      <trkpt lat="42.64723" lon="0.33368">
        <ele>1732</ele>
        <time>2011-07-10T14:39:35Z</time>
      </trkpt>
      <trkpt lat="42.64697" lon="0.33343">
        <ele>1734.4</ele>
        <time>2011-07-10T14:39:49Z</time>
      </trkpt>
      <trkpt lat="42.64675" lon="0.3331">
        <ele>1736.8</ele>
        <time>2011-07-10T14:40:04Z</time>
      </trkpt>
      <trkpt lat="42.64642" lon="0.33282">
        <ele>1740.1</ele>
        <time>2011-07-10T14:40:22Z</time>
      </trkpt>
      <trkpt lat="42.64626" lon="0.33265">
        <ele>1741.6</ele>
        <time>2011-07-10T14:40:32Z</time>
      </trkpt>
      <trkpt lat="42.64618" lon="0.33266">
        <ele>1742</ele>
        <time>2011-07-10T14:40:36Z</time>
      </trkpt>
      <trkpt lat="42.64612" lon="0.3327">
        <ele>1742.5</ele>
        <time>2011-07-10T14:40:39Z</time>
      </trkpt>
      <trkpt lat="42.64579" lon="0.33264">
        <ele>1744.9</ele>
        <time>2011-07-10T14:40:55Z</time>
      </trkpt>
      <trkpt lat="42.64514" lon="0.33275">
        <ele>1750.2</ele>
        <time>2011-07-10T14:41:25Z</time>
      </trkpt>
      <trkpt lat="42.64483" lon="0.33285">
        <ele>1750.7</ele>
        <time>2011-07-10T14:41:38Z</time>
      </trkpt>
      <trkpt lat="42.64425" lon="0.33248">
        <ele>1754.1</ele>
        <time>2011-07-10T14:42:07Z</time>
      </trkpt>
      <trkpt lat="42.64413" lon="0.33213">
        <ele>1755</ele>
        <time>2011-07-10T14:42:21Z</time>
      </trkpt>
      <trkpt lat="42.64412" lon="0.33165">
        <ele>1757.4</ele>
        <time>2011-07-10T14:42:38Z</time>
      </trkpt>
      <trkpt lat="42.64414" lon="0.33115">
        <ele>1760.8</ele>
        <time>2011-07-10T14:42:56Z</time>
      </trkpt>
      <trkpt lat="42.64422" lon="0.33076">
        <ele>1762.2</ele>
        <time>2011-07-10T14:43:13Z</time>
      </trkpt>
      <trkpt lat="42.64424" lon="0.33071">
        <ele>1763.7</ele>
        <time>2011-07-10T14:43:16Z</time>
      </trkpt>
      <trkpt lat="42.64427" lon="0.33067">
        <ele>1764.6</ele>
        <time>2011-07-10T14:43:18Z</time>
      </trkpt>
      <trkpt lat="42.64433" lon="0.33043">
        <ele>1765.1</ele>
        <time>2011-07-10T14:43:32Z</time>
      </trkpt>
      <trkpt lat="42.64445" lon="0.33007">
        <ele>1768</ele>
        <time>2011-07-10T14:43:50Z</time>
      </trkpt>
      <trkpt lat="42.64444" lon="0.32964">
        <ele>1769.4</ele>
        <time>2011-07-10T14:44:04Z</time>
      </trkpt>
      <trkpt lat="42.64429" lon="0.32939">
        <ele>1769.4</ele>
        <time>2011-07-10T14:44:14Z</time>
      </trkpt>
      <trkpt lat="42.64425" lon="0.32936">
        <ele>1769</ele>
        <time>2011-07-10T14:44:17Z</time>
      </trkpt>
      <trkpt lat="42.64403" lon="0.32908">
        <ele>1769.4</ele>
        <time>2011-07-10T14:44:32Z</time>
      </trkpt>
      <trkpt lat="42.64399" lon="0.32903">
        <ele>1769.9</ele>
        <time>2011-07-10T14:44:35Z</time>
      </trkpt>
      <trkpt lat="42.64383" lon="0.32867">
        <ele>1769.4</ele>
        <time>2011-07-10T14:44:49Z</time>
      </trkpt>
      <trkpt lat="42.6436" lon="0.32828">
        <ele>1770.9</ele>
        <time>2011-07-10T14:45:05Z</time>
      </trkpt>
      <trkpt lat="42.64341" lon="0.32818">
        <ele>1772.3</ele>
        <time>2011-07-10T14:45:15Z</time>
      </trkpt>
      <trkpt lat="42.64319" lon="0.3279">
        <ele>1774.7</ele>
        <time>2011-07-10T14:45:32Z</time>
      </trkpt>
      <trkpt lat="42.64306" lon="0.32755">
        <ele>1777.1</ele>
        <time>2011-07-10T14:45:48Z</time>
      </trkpt>
      <trkpt lat="42.64288" lon="0.3269">
        <ele>1781.9</ele>
        <time>2011-07-10T14:46:15Z</time>
      </trkpt>
      <trkpt lat="42.64271" lon="0.32665">
        <ele>1783.9</ele>
        <time>2011-07-10T14:46:30Z</time>
      </trkpt>
      <trkpt lat="42.64268" lon="0.32659">
        <ele>1784.8</ele>
        <time>2011-07-10T14:46:34Z</time>
      </trkpt>
      <trkpt lat="42.64258" lon="0.32665">
        <ele>1786.3</ele>
        <time>2011-07-10T14:46:42Z</time>
      </trkpt>
      <trkpt lat="42.64253" lon="0.327">
        <ele>1787.7</ele>
        <time>2011-07-10T14:46:54Z</time>
      </trkpt>
      <trkpt lat="42.64251" lon="0.32718">
        <ele>1787.7</ele>
        <time>2011-07-10T14:47:00Z</time>
      </trkpt>
      <trkpt lat="42.64243" lon="0.32719">
        <ele>1789.2</ele>
        <time>2011-07-10T14:47:07Z</time>
      </trkpt>
      <trkpt lat="42.64242" lon="0.32717">
        <ele>1789.2</ele>
        <time>2011-07-10T14:47:08Z</time>
      </trkpt>
      <trkpt lat="42.64245" lon="0.32711">
        <ele>1789.6</ele>
        <time>2011-07-10T14:47:12Z</time>
      </trkpt>
      <trkpt lat="42.64245" lon="0.32702">
        <ele>1791.1</ele>
        <time>2011-07-10T14:47:16Z</time>
      </trkpt>
      <trkpt lat="42.64237" lon="0.32676">
        <ele>1793.5</ele>
        <time>2011-07-10T14:47:28Z</time>
      </trkpt>
      <trkpt lat="42.64235" lon="0.32644">
        <ele>1795.4</ele>
        <time>2011-07-10T14:47:43Z</time>
      </trkpt>
      <trkpt lat="42.64238" lon="0.32613">
        <ele>1797.3</ele>
        <time>2011-07-10T14:47:58Z</time>
      </trkpt>
      <trkpt lat="42.64239" lon="0.3258">
        <ele>1799.2</ele>
        <time>2011-07-10T14:48:13Z</time>
      </trkpt>
      <trkpt lat="42.64237" lon="0.3255">
        <ele>1801.6</ele>
        <time>2011-07-10T14:48:27Z</time>
      </trkpt>
      <trkpt lat="42.64233" lon="0.32533">
        <ele>1802.6</ele>
        <time>2011-07-10T14:48:34Z</time>
      </trkpt>
      <trkpt lat="42.6424" lon="0.32508">
        <ele>1804.5</ele>
        <time>2011-07-10T14:48:46Z</time>
      </trkpt>
      <trkpt lat="42.64246" lon="0.32502">
        <ele>1805.5</ele>
        <time>2011-07-10T14:48:52Z</time>
      </trkpt>
      <trkpt lat="42.64245" lon="0.32485">
        <ele>1806.5</ele>
        <time>2011-07-10T14:49:00Z</time>
      </trkpt>
      <trkpt lat="42.64237" lon="0.32485">
        <ele>1807.9</ele>
        <time>2011-07-10T14:49:06Z</time>
      </trkpt>
      <trkpt lat="42.6422" lon="0.32513">
        <ele>1810.8</ele>
        <time>2011-07-10T14:49:24Z</time>
      </trkpt>
      <trkpt lat="42.6422" lon="0.32515">
        <ele>1811.3</ele>
        <time>2011-07-10T14:49:25Z</time>
      </trkpt>
      <trkpt lat="42.64217" lon="0.32521">
        <ele>1811.3</ele>
        <time>2011-07-10T14:49:28Z</time>
      </trkpt>
      <trkpt lat="42.64206" lon="0.32551">
        <ele>1813.2</ele>
        <time>2011-07-10T14:49:44Z</time>
      </trkpt>
      <trkpt lat="42.64202" lon="0.32559">
        <ele>1813.7</ele>
        <time>2011-07-10T14:49:48Z</time>
      </trkpt>
      <trkpt lat="42.64195" lon="0.32559">
        <ele>1813.7</ele>
        <time>2011-07-10T14:49:53Z</time>
      </trkpt>
      <trkpt lat="42.64185" lon="0.32546">
        <ele>1815.6</ele>
        <time>2011-07-10T14:50:04Z</time>
      </trkpt>
      <trkpt lat="42.64183" lon="0.32521">
        <ele>1819</ele>
        <time>2011-07-10T14:50:19Z</time>
      </trkpt>
      <trkpt lat="42.64183" lon="0.32499">
        <ele>1820.9</ele>
        <time>2011-07-10T14:50:31Z</time>
      </trkpt>
      <trkpt lat="42.64181" lon="0.32449">
        <ele>1825.2</ele>
        <time>2011-07-10T14:50:57Z</time>
      </trkpt>
      <trkpt lat="42.64181" lon="0.32419">
        <ele>1827.1</ele>
        <time>2011-07-10T14:51:13Z</time>
      </trkpt>
      <trkpt lat="42.64178" lon="0.32393">
        <ele>1830</ele>
        <time>2011-07-10T14:51:28Z</time>
      </trkpt>
      <trkpt lat="42.64174" lon="0.32368">
        <ele>1831.9</ele>
        <time>2011-07-10T14:51:40Z</time>
      </trkpt>
      <trkpt lat="42.64169" lon="0.32363">
        <ele>1833.4</ele>
        <time>2011-07-10T14:51:46Z</time>
      </trkpt>
      <trkpt lat="42.6415" lon="0.32375">
        <ele>1835.3</ele>
        <time>2011-07-10T14:52:01Z</time>
      </trkpt>
      <trkpt lat="42.64139" lon="0.324">
        <ele>1837.2</ele>
        <time>2011-07-10T14:52:15Z</time>
      </trkpt>
      <trkpt lat="42.64114" lon="0.3248">
        <ele>1842</ele>
        <time>2011-07-10T14:52:52Z</time>
      </trkpt>
      <trkpt lat="42.641" lon="0.32518">
        <ele>1844.4</ele>
        <time>2011-07-10T14:53:08Z</time>
      </trkpt>
      <trkpt lat="42.641" lon="0.32544">
        <ele>1846.8</ele>
        <time>2011-07-10T14:53:23Z</time>
      </trkpt>
      <trkpt lat="42.64097" lon="0.32563">
        <ele>1848.3</ele>
        <time>2011-07-10T14:53:33Z</time>
      </trkpt>
      <trkpt lat="42.64089" lon="0.32589">
        <ele>1850.7</ele>
        <time>2011-07-10T14:53:48Z</time>
      </trkpt>
      <trkpt lat="42.64089" lon="0.3259">
        <ele>1850.7</ele>
        <time>2011-07-10T14:54:01Z</time>
      </trkpt>
      <trkpt lat="42.64081" lon="0.32605">
        <ele>1852.1</ele>
        <time>2011-07-10T14:54:30Z</time>
      </trkpt>
      <trkpt lat="42.64055" lon="0.32635">
        <ele>1855.5</ele>
        <time>2011-07-10T14:54:51Z</time>
      </trkpt>
      <trkpt lat="42.64039" lon="0.32659">
        <ele>1857.4</ele>
        <time>2011-07-10T14:55:05Z</time>
      </trkpt>
      <trkpt lat="42.64014" lon="0.32668">
        <ele>1860.3</ele>
        <time>2011-07-10T14:55:22Z</time>
      </trkpt>
      <trkpt lat="42.63993" lon="0.32673">
        <ele>1863.2</ele>
        <time>2011-07-10T14:55:38Z</time>
      </trkpt>
      <trkpt lat="42.6397" lon="0.32668">
        <ele>1865.6</ele>
        <time>2011-07-10T14:55:55Z</time>
      </trkpt>
      <trkpt lat="42.63955" lon="0.32659">
        <ele>1867.5</ele>
        <time>2011-07-10T14:56:09Z</time>
      </trkpt>
      <trkpt lat="42.63954" lon="0.32657">
        <ele>1867.5</ele>
        <time>2011-07-10T14:56:10Z</time>
      </trkpt>
      <trkpt lat="42.63924" lon="0.32649">
        <ele>1870.9</ele>
        <time>2011-07-10T14:56:30Z</time>
      </trkpt>
      <trkpt lat="42.63902" lon="0.32637">
        <ele>1873.7</ele>
        <time>2011-07-10T14:56:47Z</time>
      </trkpt>
      <trkpt lat="42.63901" lon="0.32635">
        <ele>1873.7</ele>
        <time>2011-07-10T14:56:48Z</time>
      </trkpt>
      <trkpt lat="42.63901" lon="0.32628">
        <ele>1874.7</ele>
        <time>2011-07-10T14:56:52Z</time>
      </trkpt>
      <trkpt lat="42.63902" lon="0.32623">
        <ele>1875.2</ele>
        <time>2011-07-10T14:56:56Z</time>
      </trkpt>
      <trkpt lat="42.6392" lon="0.32615">
        <ele>1877.1</ele>
        <time>2011-07-10T14:57:10Z</time>
      </trkpt>
      <trkpt lat="42.63985" lon="0.32618">
        <ele>1881</ele>
        <time>2011-07-10T14:57:46Z</time>
      </trkpt>
      <trkpt lat="42.64006" lon="0.326">
        <ele>1883.4</ele>
        <time>2011-07-10T14:58:01Z</time>
      </trkpt>
      <trkpt lat="42.64016" lon="0.32571">
        <ele>1885.3</ele>
        <time>2011-07-10T14:58:17Z</time>
      </trkpt>
      <trkpt lat="42.64018" lon="0.32561">
        <ele>1885.3</ele>
        <time>2011-07-10T14:58:22Z</time>
      </trkpt>
      <trkpt lat="42.64018" lon="0.32525">
        <ele>1887.7</ele>
        <time>2011-07-10T14:58:40Z</time>
      </trkpt>
      <trkpt lat="42.64013" lon="0.32477">
        <ele>1891.1</ele>
        <time>2011-07-10T14:59:02Z</time>
      </trkpt>
      <trkpt lat="42.64014" lon="0.32449">
        <ele>1893</ele>
        <time>2011-07-10T14:59:15Z</time>
      </trkpt>
      <trkpt lat="42.64007" lon="0.32369">
        <ele>1898.3</ele>
        <time>2011-07-10T14:59:52Z</time>
      </trkpt>
      <trkpt lat="42.64009" lon="0.32353">
        <ele>1900.2</ele>
        <time>2011-07-10T14:59:59Z</time>
      </trkpt>
      <trkpt lat="42.64013" lon="0.32332">
        <ele>1901.6</ele>
        <time>2011-07-10T15:00:09Z</time>
      </trkpt>
      <trkpt lat="42.64014" lon="0.32276">
        <ele>1905.5</ele>
        <time>2011-07-10T15:00:36Z</time>
      </trkpt>
      <trkpt lat="42.64015" lon="0.32268">
        <ele>1906</ele>
        <time>2011-07-10T15:00:39Z</time>
      </trkpt>
      <trkpt lat="42.6402" lon="0.32241">
        <ele>1907.9</ele>
        <time>2011-07-10T15:00:53Z</time>
      </trkpt>
      <trkpt lat="42.64024" lon="0.32203">
        <ele>1910.3</ele>
        <time>2011-07-10T15:01:11Z</time>
      </trkpt>
      <trkpt lat="42.64028" lon="0.32185">
        <ele>1912.7</ele>
        <time>2011-07-10T15:01:20Z</time>
      </trkpt>
      <trkpt lat="42.64033" lon="0.32176">
        <ele>1913.6</ele>
        <time>2011-07-10T15:01:27Z</time>
      </trkpt>
      <trkpt lat="42.64035" lon="0.32171">
        <ele>1914.6</ele>
        <time>2011-07-10T15:01:30Z</time>
      </trkpt>
      <trkpt lat="42.64035" lon="0.32166">
        <ele>1915.1</ele>
        <time>2011-07-10T15:01:33Z</time>
      </trkpt>
      <trkpt lat="42.64024" lon="0.32167">
        <ele>1916.5</ele>
        <time>2011-07-10T15:01:42Z</time>
      </trkpt>
      <trkpt lat="42.64007" lon="0.32187">
        <ele>1918.4</ele>
        <time>2011-07-10T15:01:56Z</time>
      </trkpt>
      <trkpt lat="42.64" lon="0.32213">
        <ele>1920.9</ele>
        <time>2011-07-10T15:02:08Z</time>
      </trkpt>
      <trkpt lat="42.6399" lon="0.32235">
        <ele>1922.8</ele>
        <time>2011-07-10T15:02:20Z</time>
      </trkpt>
      <trkpt lat="42.63977" lon="0.32256">
        <ele>1924.7</ele>
        <time>2011-07-10T15:02:32Z</time>
      </trkpt>
      <trkpt lat="42.63975" lon="0.32265">
        <ele>1925.2</ele>
        <time>2011-07-10T15:02:37Z</time>
      </trkpt>
      <trkpt lat="42.63966" lon="0.32285">
        <ele>1927.1</ele>
        <time>2011-07-10T15:02:49Z</time>
      </trkpt>
      <trkpt lat="42.63955" lon="0.32314">
        <ele>1929</ele>
        <time>2011-07-10T15:03:03Z</time>
      </trkpt>
      <trkpt lat="42.63939" lon="0.32338">
        <ele>1930.9</ele>
        <time>2011-07-10T15:03:18Z</time>
      </trkpt>
      <trkpt lat="42.63919" lon="0.32354">
        <ele>1932.9</ele>
        <time>2011-07-10T15:03:31Z</time>
      </trkpt>
      <trkpt lat="42.63887" lon="0.32359">
        <ele>1935.3</ele>
        <time>2011-07-10T15:03:50Z</time>
      </trkpt>
      <trkpt lat="42.63864" lon="0.32355">
        <ele>1937.2</ele>
        <time>2011-07-10T15:04:04Z</time>
      </trkpt>
      <trkpt lat="42.63856" lon="0.32351">
        <ele>1938.2</ele>
        <time>2011-07-10T15:04:09Z</time>
      </trkpt>
      <trkpt lat="42.63829" lon="0.3234">
        <ele>1941.5</ele>
        <time>2011-07-10T15:04:28Z</time>
      </trkpt>
      <trkpt lat="42.63815" lon="0.32325">
        <ele>1943.4</ele>
        <time>2011-07-10T15:04:40Z</time>
      </trkpt>
      <trkpt lat="42.63792" lon="0.32295">
        <ele>1946.3</ele>
        <time>2011-07-10T15:05:00Z</time>
      </trkpt>
      <trkpt lat="42.63782" lon="0.32284">
        <ele>1948.2</ele>
        <time>2011-07-10T15:05:09Z</time>
      </trkpt>
      <trkpt lat="42.63778" lon="0.32283">
        <ele>1948.7</ele>
        <time>2011-07-10T15:05:12Z</time>
      </trkpt>
      <trkpt lat="42.63774" lon="0.32277">
        <ele>1949.2</ele>
        <time>2011-07-10T15:05:16Z</time>
      </trkpt>
      <trkpt lat="42.63767" lon="0.3227">
        <ele>1950.2</ele>
        <time>2011-07-10T15:05:22Z</time>
      </trkpt>
      <trkpt lat="42.63762" lon="0.32263">
        <ele>1951.6</ele>
        <time>2011-07-10T15:05:34Z</time>
      </trkpt>
      <trkpt lat="42.63759" lon="0.32257">
        <ele>1951.1</ele>
        <time>2011-07-10T15:06:16Z</time>
      </trkpt>
      <trkpt lat="42.63731" lon="0.32206">
        <ele>1955.9</ele>
        <time>2011-07-10T15:06:44Z</time>
      </trkpt>
      <trkpt lat="42.63724" lon="0.32198">
        <ele>1956.9</ele>
        <time>2011-07-10T15:06:49Z</time>
      </trkpt>
      <trkpt lat="42.63732" lon="0.32188">
        <ele>1957.9</ele>
        <time>2011-07-10T15:06:59Z</time>
      </trkpt>
      <trkpt lat="42.63765" lon="0.3222">
        <ele>1959.3</ele>
        <time>2011-07-10T15:07:18Z</time>
      </trkpt>
      <trkpt lat="42.63783" lon="0.32209">
        <ele>1960.3</ele>
        <time>2011-07-10T15:07:28Z</time>
      </trkpt>
      <trkpt lat="42.63815" lon="0.322">
        <ele>1962.7</ele>
        <time>2011-07-10T15:07:45Z</time>
      </trkpt>
      <trkpt lat="42.63823" lon="0.32191">
        <ele>1963.1</ele>
        <time>2011-07-10T15:07:51Z</time>
      </trkpt>
      <trkpt lat="42.63843" lon="0.32161">
        <ele>1962.2</ele>
        <time>2011-07-10T15:08:06Z</time>
      </trkpt>
      <trkpt lat="42.63851" lon="0.32136">
        <ele>1964.6</ele>
        <time>2011-07-10T15:08:21Z</time>
      </trkpt>
      <trkpt lat="42.63852" lon="0.32109">
        <ele>1966.5</ele>
        <time>2011-07-10T15:08:37Z</time>
      </trkpt>
      <trkpt lat="42.63845" lon="0.32041">
        <ele>1971.8</ele>
        <time>2011-07-10T15:09:17Z</time>
      </trkpt>
      <trkpt lat="42.63844" lon="0.31999">
        <ele>1977.1</ele>
        <time>2011-07-10T15:09:49Z</time>
      </trkpt>
      <trkpt lat="42.63845" lon="0.31993">
        <ele>1977.6</ele>
        <time>2011-07-10T15:09:54Z</time>
      </trkpt>
      <trkpt lat="42.63843" lon="0.31968">
        <ele>1980</ele>
        <time>2011-07-10T15:10:11Z</time>
      </trkpt>
      <trkpt lat="42.63837" lon="0.31916">
        <ele>1982.9</ele>
        <time>2011-07-10T15:10:42Z</time>
      </trkpt>
      <trkpt lat="42.63836" lon="0.31879">
        <ele>1989.6</ele>
        <time>2011-07-10T15:11:03Z</time>
      </trkpt>
      <trkpt lat="42.63836" lon="0.31878">
        <ele>1989.6</ele>
        <time>2011-07-10T15:11:05Z</time>
      </trkpt>
      <trkpt lat="42.63836" lon="0.31864">
        <ele>1991.5</ele>
        <time>2011-07-10T15:11:18Z</time>
      </trkpt>
      <trkpt lat="42.63823" lon="0.3183">
        <ele>1995.4</ele>
        <time>2011-07-10T15:11:44Z</time>
      </trkpt>
      <trkpt lat="42.63809" lon="0.31814">
        <ele>1997.8</ele>
        <time>2011-07-10T15:12:02Z</time>
      </trkpt>
      <trkpt lat="42.6378" lon="0.31789">
        <ele>2002.6</ele>
        <time>2011-07-10T15:12:38Z</time>
      </trkpt>
      <trkpt lat="42.63777" lon="0.31786">
        <ele>2003.5</ele>
        <time>2011-07-10T15:13:37Z</time>
      </trkpt>
      <trkpt lat="42.63767" lon="0.31778">
        <ele>2005.4</ele>
        <time>2011-07-10T15:13:48Z</time>
      </trkpt>
      <trkpt lat="42.63753" lon="0.31765">
        <ele>2007.9</ele>
        <time>2011-07-10T15:14:02Z</time>
      </trkpt>
      <trkpt lat="42.63741" lon="0.31751">
        <ele>2011.2</ele>
        <time>2011-07-10T15:14:17Z</time>
      </trkpt>
      <trkpt lat="42.63719" lon="0.31729">
        <ele>2015.1</ele>
        <time>2011-07-10T15:14:44Z</time>
      </trkpt>
      <trkpt lat="42.63707" lon="0.31706">
        <ele>2017.5</ele>
        <time>2011-07-10T15:15:01Z</time>
      </trkpt>
      <trkpt lat="42.63695" lon="0.31682">
        <ele>2021.3</ele>
        <time>2011-07-10T15:15:33Z</time>
      </trkpt>
      <trkpt lat="42.63685" lon="0.31666">
        <ele>2024.7</ele>
        <time>2011-07-10T15:15:45Z</time>
      </trkpt>
      <trkpt lat="42.63667" lon="0.31627">
        <ele>2028.5</ele>
        <time>2011-07-10T15:16:17Z</time>
      </trkpt>
      <trkpt lat="42.63645" lon="0.31599">
        <ele>2032.4</ele>
        <time>2011-07-10T15:16:43Z</time>
      </trkpt>
      <trkpt lat="42.63636" lon="0.31583">
        <ele>2034.3</ele>
        <time>2011-07-10T15:16:56Z</time>
      </trkpt>
      <trkpt lat="42.63636" lon="0.31583">
        <ele>2034.3</ele>
        <time>2011-07-10T15:16:56Z</time>
      </trkpt>
      <trkpt lat="42.63633" lon="0.31568">
        <ele>2036.2</ele>
        <time>2011-07-10T15:17:07Z</time>
      </trkpt>
      <trkpt lat="42.63632" lon="0.31545">
        <ele>2040.1</ele>
        <time>2011-07-10T15:17:59Z</time>
      </trkpt>
      <trkpt lat="42.63626" lon="0.3153">
        <ele>2043.4</ele>
        <time>2011-07-10T15:18:14Z</time>
      </trkpt>
      <trkpt lat="42.63627" lon="0.31528">
        <ele>2043.9</ele>
        <time>2011-07-10T15:18:28Z</time>
      </trkpt>
      <trkpt lat="42.63625" lon="0.31515">
        <ele>2045.3</ele>
        <time>2011-07-10T15:18:49Z</time>
      </trkpt>
      <trkpt lat="42.63624" lon="0.31501">
        <ele>2047.7</ele>
        <time>2011-07-10T15:19:01Z</time>
      </trkpt>
      <trkpt lat="42.63621" lon="0.31471">
        <ele>2050.6</ele>
        <time>2011-07-10T15:19:30Z</time>
      </trkpt>
      <trkpt lat="42.63626" lon="0.31464">
        <ele>2052.6</ele>
        <time>2011-07-10T15:19:38Z</time>
      </trkpt>
      <trkpt lat="42.63631" lon="0.3146">
        <ele>2052.6</ele>
        <time>2011-07-10T15:19:45Z</time>
      </trkpt>
      <trkpt lat="42.63632" lon="0.31437">
        <ele>2054</ele>
        <time>2011-07-10T15:20:02Z</time>
      </trkpt>
      <trkpt lat="42.63621" lon="0.31419">
        <ele>2056.4</ele>
        <time>2011-07-10T15:20:20Z</time>
      </trkpt>
      <trkpt lat="42.63609" lon="0.3139">
        <ele>2058.8</ele>
        <time>2011-07-10T15:20:46Z</time>
      </trkpt>
      <trkpt lat="42.63605" lon="0.3138">
        <ele>2060.7</ele>
        <time>2011-07-10T15:21:11Z</time>
      </trkpt>
      <trkpt lat="42.63599" lon="0.31369">
        <ele>2061.7</ele>
        <time>2011-07-10T15:21:35Z</time>
      </trkpt>
      <trkpt lat="42.63592" lon="0.31357">
        <ele>2063.1</ele>
        <time>2011-07-10T15:21:46Z</time>
      </trkpt>
      <trkpt lat="42.6359" lon="0.31352">
        <ele>2063.1</ele>
        <time>2011-07-10T15:21:50Z</time>
      </trkpt>
      <trkpt lat="42.63589" lon="0.3135">
        <ele>2063.1</ele>
        <time>2011-07-10T15:21:52Z</time>
      </trkpt>
      <trkpt lat="42.63588" lon="0.31341">
        <ele>2063.6</ele>
        <time>2011-07-10T15:21:58Z</time>
      </trkpt>
      <trkpt lat="42.6359" lon="0.3133">
        <ele>2065</ele>
        <time>2011-07-10T15:22:06Z</time>
      </trkpt>
      <trkpt lat="42.63592" lon="0.31325">
        <ele>2064.6</ele>
        <time>2011-07-10T15:22:11Z</time>
      </trkpt>
      <trkpt lat="42.63594" lon="0.31283">
        <ele>2067</ele>
        <time>2011-07-10T15:22:42Z</time>
      </trkpt>
      <trkpt lat="42.63598" lon="0.3126">
        <ele>2067.5</ele>
        <time>2011-07-10T15:23:01Z</time>
      </trkpt>
      <trkpt lat="42.63597" lon="0.31245">
        <ele>2068.9</ele>
        <time>2011-07-10T15:23:16Z</time>
      </trkpt>
      <trkpt lat="42.63595" lon="0.31229">
        <ele>2069.4</ele>
        <time>2011-07-10T15:23:51Z</time>
      </trkpt>
      <trkpt lat="42.63587" lon="0.31214">
        <ele>2070.3</ele>
        <time>2011-07-10T15:24:04Z</time>
      </trkpt>
      <trkpt lat="42.63581" lon="0.31197">
        <ele>2071.3</ele>
        <time>2011-07-10T15:24:18Z</time>
      </trkpt>
      <trkpt lat="42.6358" lon="0.31192">
        <ele>2071.3</ele>
        <time>2011-07-10T15:24:22Z</time>
      </trkpt>
      <trkpt lat="42.63572" lon="0.31175">
        <ele>2071.8</ele>
        <time>2011-07-10T15:24:36Z</time>
      </trkpt>
      <trkpt lat="42.63569" lon="0.3116">
        <ele>2072.7</ele>
        <time>2011-07-10T15:24:49Z</time>
      </trkpt>
      <trkpt lat="42.63564" lon="0.31125">
        <ele>2076.1</ele>
        <time>2011-07-10T15:25:17Z</time>
      </trkpt>
      <trkpt lat="42.63563" lon="0.3112">
        <ele>2076.1</ele>
        <time>2011-07-10T15:25:19Z</time>
      </trkpt>
      <trkpt lat="42.6356" lon="0.31113">
        <ele>2076.6</ele>
        <time>2011-07-10T15:25:37Z</time>
      </trkpt>
      <trkpt lat="42.63546" lon="0.31089">
        <ele>2077.1</ele>
        <time>2011-07-10T15:26:02Z</time>
      </trkpt>
      <trkpt lat="42.63538" lon="0.31073">
        <ele>2077.1</ele>
        <time>2011-07-10T15:26:14Z</time>
      </trkpt>
      <trkpt lat="42.63529" lon="0.3106">
        <ele>2078</ele>
        <time>2011-07-10T15:26:27Z</time>
      </trkpt>
      <trkpt lat="42.63529" lon="0.31049">
        <ele>2079.5</ele>
        <time>2011-07-10T15:26:37Z</time>
      </trkpt>
      <trkpt lat="42.63526" lon="0.31047">
        <ele>2079.5</ele>
        <time>2011-07-10T15:26:43Z</time>
      </trkpt>
      <trkpt lat="42.63522" lon="0.31037">
        <ele>2079.9</ele>
        <time>2011-07-10T15:26:52Z</time>
      </trkpt>
      <trkpt lat="42.63521" lon="0.31028">
        <ele>2078.5</ele>
        <time>2011-07-10T15:27:00Z</time>
      </trkpt>
      <trkpt lat="42.63524" lon="0.31024">
        <ele>2078.5</ele>
        <time>2011-07-10T15:27:05Z</time>
      </trkpt>
      <trkpt lat="42.63545" lon="0.31017">
        <ele>2079.5</ele>
        <time>2011-07-10T15:27:34Z</time>
      </trkpt>
      <trkpt lat="42.63551" lon="0.31017">
        <ele>2079.9</ele>
        <time>2011-07-10T15:27:43Z</time>
      </trkpt>
      <trkpt lat="42.63574" lon="0.3102">
        <ele>2080.9</ele>
        <time>2011-07-10T15:28:08Z</time>
      </trkpt>
      <trkpt lat="42.63582" lon="0.31023">
        <ele>2081.4</ele>
        <time>2011-07-10T15:28:18Z</time>
      </trkpt>
      <trkpt lat="42.63593" lon="0.31029">
        <ele>2082.4</ele>
        <time>2011-07-10T15:28:30Z</time>
      </trkpt>
      <trkpt lat="42.63603" lon="0.31032">
        <ele>2082.8</ele>
        <time>2011-07-10T15:28:41Z</time>
      </trkpt>
      <trkpt lat="42.63609" lon="0.31022">
        <ele>2082.8</ele>
        <time>2011-07-10T15:28:51Z</time>
      </trkpt>
      <trkpt lat="42.63613" lon="0.31019">
        <ele>2082.8</ele>
        <time>2011-07-10T15:28:56Z</time>
      </trkpt>
      <trkpt lat="42.63617" lon="0.31021">
        <ele>2083.3</ele>
        <time>2011-07-10T15:29:01Z</time>
      </trkpt>
      <trkpt lat="42.63623" lon="0.31033">
        <ele>2084.3</ele>
        <time>2011-07-10T15:29:14Z</time>
      </trkpt>
      <trkpt lat="42.63628" lon="0.31033">
        <ele>2085.2</ele>
        <time>2011-07-10T15:29:26Z</time>
      </trkpt>
      <trkpt lat="42.63635" lon="0.31031">
        <ele>2085.2</ele>
        <time>2011-07-10T15:29:34Z</time>
      </trkpt>
      <trkpt lat="42.63637" lon="0.31033">
        <ele>2085.7</ele>
        <time>2011-07-10T15:29:37Z</time>
      </trkpt>
      <trkpt lat="42.63639" lon="0.31038">
        <ele>2086.2</ele>
        <time>2011-07-10T15:29:50Z</time>
      </trkpt>
      <trkpt lat="42.63654" lon="0.31055">
        <ele>2085.7</ele>
        <time>2011-07-10T15:30:27Z</time>
      </trkpt>
      <trkpt lat="42.6366" lon="0.31066">
        <ele>2086.2</ele>
        <time>2011-07-10T15:30:46Z</time>
      </trkpt>
      <trkpt lat="42.63663" lon="0.31072">
        <ele>2086.2</ele>
        <time>2011-07-10T15:30:56Z</time>
      </trkpt>
      <trkpt lat="42.63664" lon="0.31079">
        <ele>2085.7</ele>
        <time>2011-07-10T15:31:15Z</time>
      </trkpt>
      <trkpt lat="42.63669" lon="0.3108">
        <ele>2087.2</ele>
        <time>2011-07-10T15:34:20Z</time>
      </trkpt>
      <trkpt lat="42.63671" lon="0.31081">
        <ele>2087.2</ele>
        <time>2011-07-10T15:34:22Z</time>
      </trkpt>
      <trkpt lat="42.63685" lon="0.31082">
        <ele>2087.6</ele>
        <time>2011-07-10T15:34:36Z</time>
      </trkpt>
      <trkpt lat="42.63698" lon="0.31086">
        <ele>2089.1</ele>
        <time>2011-07-10T15:34:58Z</time>
      </trkpt>
      <trkpt lat="42.63707" lon="0.31091">
        <ele>2090</ele>
        <time>2011-07-10T15:35:15Z</time>
      </trkpt>
      <trkpt lat="42.6373" lon="0.311">
        <ele>2092.4</ele>
        <time>2011-07-10T15:35:43Z</time>
      </trkpt>
      <trkpt lat="42.63741" lon="0.31102">
        <ele>2093.4</ele>
        <time>2011-07-10T15:35:55Z</time>
      </trkpt>
      <trkpt lat="42.63751" lon="0.31108">
        <ele>2094.9</ele>
        <time>2011-07-10T15:36:07Z</time>
      </trkpt>
      <trkpt lat="42.63763" lon="0.31112">
        <ele>2095.3</ele>
        <time>2011-07-10T15:36:17Z</time>
      </trkpt>
      <trkpt lat="42.63781" lon="0.31124">
        <ele>2097.3</ele>
        <time>2011-07-10T15:36:40Z</time>
      </trkpt>
      <trkpt lat="42.6379" lon="0.31128">
        <ele>2098.2</ele>
        <time>2011-07-10T15:36:55Z</time>
      </trkpt>
      <trkpt lat="42.63802" lon="0.31137">
        <ele>2100.6</ele>
        <time>2011-07-10T15:37:26Z</time>
      </trkpt>
      <trkpt lat="42.63802" lon="0.31134">
        <ele>2101.1</ele>
        <time>2011-07-10T15:37:45Z</time>
      </trkpt>
      <trkpt lat="42.63788" lon="0.31101">
        <ele>2105.4</ele>
        <time>2011-07-10T15:38:22Z</time>
      </trkpt>
      <trkpt lat="42.63773" lon="0.31075">
        <ele>2110.7</ele>
        <time>2011-07-10T15:38:57Z</time>
      </trkpt>
      <trkpt lat="42.63767" lon="0.31065">
        <ele>2112.2</ele>
        <time>2011-07-10T15:39:11Z</time>
      </trkpt>
      <trkpt lat="42.63763" lon="0.31057">
        <ele>2114.6</ele>
        <time>2011-07-10T15:39:28Z</time>
      </trkpt>
      <trkpt lat="42.63757" lon="0.31041">
        <ele>2117</ele>
        <time>2011-07-10T15:39:47Z</time>
      </trkpt>
      <trkpt lat="42.6374" lon="0.31011">
        <ele>2121.3</ele>
        <time>2011-07-10T15:40:27Z</time>
      </trkpt>
      <trkpt lat="42.63737" lon="0.31">
        <ele>2122.7</ele>
        <time>2011-07-10T15:40:40Z</time>
      </trkpt>
      <trkpt lat="42.63718" lon="0.30969">
        <ele>2127.1</ele>
        <time>2011-07-10T15:41:19Z</time>
      </trkpt>
      <trkpt lat="42.63704" lon="0.30962">
        <ele>2129</ele>
        <time>2011-07-10T15:41:38Z</time>
      </trkpt>
      <trkpt lat="42.63692" lon="0.3096">
        <ele>2130.4</ele>
        <time>2011-07-10T15:41:55Z</time>
      </trkpt>
      <trkpt lat="42.63682" lon="0.30951">
        <ele>2130.9</ele>
        <time>2011-07-10T15:42:10Z</time>
      </trkpt>
      <trkpt lat="42.63686" lon="0.30928">
        <ele>2136.2</ele>
        <time>2011-07-10T15:42:45Z</time>
      </trkpt>
      <trkpt lat="42.63683" lon="0.30908">
        <ele>2139.1</ele>
        <time>2011-07-10T15:43:06Z</time>
      </trkpt>
      <trkpt lat="42.63679" lon="0.30888">
        <ele>2139.6</ele>
        <time>2011-07-10T15:43:26Z</time>
      </trkpt>
      <trkpt lat="42.63671" lon="0.30878">
        <ele>2142.4</ele>
        <time>2011-07-10T15:43:44Z</time>
      </trkpt>
      <trkpt lat="42.63668" lon="0.30865">
        <ele>2143.9</ele>
        <time>2011-07-10T15:44:00Z</time>
      </trkpt>
      <trkpt lat="42.63668" lon="0.30859">
        <ele>2144.4</ele>
        <time>2011-07-10T15:44:18Z</time>
      </trkpt>
      <trkpt lat="42.63668" lon="0.30841">
        <ele>2145.8</ele>
        <time>2011-07-10T15:44:33Z</time>
      </trkpt>
      <trkpt lat="42.63665" lon="0.30825">
        <ele>2146.3</ele>
        <time>2011-07-10T15:44:48Z</time>
      </trkpt>
      <trkpt lat="42.63661" lon="0.30814">
        <ele>2148.7</ele>
        <time>2011-07-10T15:45:02Z</time>
      </trkpt>
      <trkpt lat="42.63659" lon="0.30805">
        <ele>2150.1</ele>
        <time>2011-07-10T15:45:10Z</time>
      </trkpt>
      <trkpt lat="42.63656" lon="0.30796">
        <ele>2152</ele>
        <time>2011-07-10T15:45:28Z</time>
      </trkpt>
      <trkpt lat="42.63653" lon="0.30785">
        <ele>2154</ele>
        <time>2011-07-10T15:45:48Z</time>
      </trkpt>
      <trkpt lat="42.63646" lon="0.30766">
        <ele>2154.5</ele>
        <time>2011-07-10T15:46:04Z</time>
      </trkpt>
      <trkpt lat="42.63635" lon="0.30749">
        <ele>2156.4</ele>
        <time>2011-07-10T15:46:21Z</time>
      </trkpt>
      <trkpt lat="42.6363" lon="0.30737">
        <ele>2158.3</ele>
        <time>2011-07-10T15:46:33Z</time>
      </trkpt>
      <trkpt lat="42.63627" lon="0.30732">
        <ele>2159.3</ele>
        <time>2011-07-10T15:46:39Z</time>
      </trkpt>
      <trkpt lat="42.63624" lon="0.30713">
        <ele>2159.3</ele>
        <time>2011-07-10T15:46:54Z</time>
      </trkpt>
      <trkpt lat="42.63624" lon="0.30697">
        <ele>2159.3</ele>
        <time>2011-07-10T15:47:08Z</time>
      </trkpt>
      <trkpt lat="42.63615" lon="0.3067">
        <ele>2161.2</ele>
        <time>2011-07-10T15:47:35Z</time>
      </trkpt>
      <trkpt lat="42.63607" lon="0.30656">
        <ele>2162.1</ele>
        <time>2011-07-10T15:47:49Z</time>
      </trkpt>
      <trkpt lat="42.63603" lon="0.30644">
        <ele>2162.6</ele>
        <time>2011-07-10T15:47:59Z</time>
      </trkpt>
      <trkpt lat="42.63602" lon="0.30635">
        <ele>2163.6</ele>
        <time>2011-07-10T15:48:13Z</time>
      </trkpt>
      <trkpt lat="42.63601" lon="0.3063">
        <ele>2164.1</ele>
        <time>2011-07-10T15:48:47Z</time>
      </trkpt>
      <trkpt lat="42.63601" lon="0.30619">
        <ele>2164.5</ele>
        <time>2011-07-10T15:49:05Z</time>
      </trkpt>
      <trkpt lat="42.63603" lon="0.30604">
        <ele>2166.5</ele>
        <time>2011-07-10T15:49:25Z</time>
      </trkpt>
      <trkpt lat="42.636" lon="0.30565">
        <ele>2170.8</ele>
        <time>2011-07-10T15:50:10Z</time>
      </trkpt>
      <trkpt lat="42.63597" lon="0.30533">
        <ele>2175.1</ele>
        <time>2011-07-10T15:50:48Z</time>
      </trkpt>
      <trkpt lat="42.63591" lon="0.30505">
        <ele>2177</ele>
        <time>2011-07-10T15:51:19Z</time>
      </trkpt>
      <trkpt lat="42.63585" lon="0.30484">
        <ele>2179.9</ele>
        <time>2011-07-10T15:51:42Z</time>
      </trkpt>
      <trkpt lat="42.63584" lon="0.30473">
        <ele>2181.4</ele>
        <time>2011-07-10T15:52:01Z</time>
      </trkpt>
      <trkpt lat="42.63585" lon="0.30466">
        <ele>2183.3</ele>
        <time>2011-07-10T15:52:13Z</time>
      </trkpt>
      <trkpt lat="42.63589" lon="0.30462">
        <ele>2185.7</ele>
        <time>2011-07-10T15:52:29Z</time>
      </trkpt>
      <trkpt lat="42.6359" lon="0.30454">
        <ele>2196.3</ele>
        <time>2011-07-10T15:53:00Z</time>
      </trkpt>
      <trkpt lat="42.63574" lon="0.30353">
        <ele>2196.3</ele>
        <time>2011-07-10T15:54:42Z</time>
      </trkpt>
      <trkpt lat="42.63573" lon="0.30335">
        <ele>2199.6</ele>
        <time>2011-07-10T15:54:57Z</time>
      </trkpt>
      <trkpt lat="42.63572" lon="0.3033">
        <ele>2201.1</ele>
        <time>2011-07-10T15:55:01Z</time>
      </trkpt>
      <trkpt lat="42.63571" lon="0.30317">
        <ele>2203.5</ele>
        <time>2011-07-10T15:55:19Z</time>
      </trkpt>
      <trkpt lat="42.63569" lon="0.30282">
        <ele>2207.8</ele>
        <time>2011-07-10T15:56:06Z</time>
      </trkpt>
      <trkpt lat="42.63567" lon="0.30265">
        <ele>2209.7</ele>
        <time>2011-07-10T15:56:20Z</time>
      </trkpt>
      <trkpt lat="42.63569" lon="0.30257">
        <ele>2210.2</ele>
        <time>2011-07-10T15:56:34Z</time>
      </trkpt>
      <trkpt lat="42.63569" lon="0.30253">
        <ele>2210.7</ele>
        <time>2011-07-10T15:56:46Z</time>
      </trkpt>
      <trkpt lat="42.63569" lon="0.30242">
        <ele>2211.7</ele>
        <time>2011-07-10T15:56:54Z</time>
      </trkpt>
      <trkpt lat="42.63562" lon="0.30226">
        <ele>2213.1</ele>
        <time>2011-07-10T15:57:09Z</time>
      </trkpt>
      <trkpt lat="42.6356" lon="0.30213">
        <ele>2213.6</ele>
        <time>2011-07-10T15:57:18Z</time>
      </trkpt>
      <trkpt lat="42.63556" lon="0.30201">
        <ele>2213.1</ele>
        <time>2011-07-10T15:57:33Z</time>
      </trkpt>
      <trkpt lat="42.63552" lon="0.30181">
        <ele>2214.1</ele>
        <time>2011-07-10T15:57:48Z</time>
      </trkpt>
      <trkpt lat="42.63549" lon="0.30156">
        <ele>2219.8</ele>
        <time>2011-07-10T15:58:09Z</time>
      </trkpt>
      <trkpt lat="42.63547" lon="0.30147">
        <ele>2219.3</ele>
        <time>2011-07-10T15:58:16Z</time>
      </trkpt>
      <trkpt lat="42.63543" lon="0.30131">
        <ele>2222.2</ele>
        <time>2011-07-10T15:58:33Z</time>
      </trkpt>
      <trkpt lat="42.63545" lon="0.30121">
        <ele>2222.7</ele>
        <time>2011-07-10T15:58:41Z</time>
      </trkpt>
      <trkpt lat="42.63536" lon="0.30107">
        <ele>2224.6</ele>
        <time>2011-07-10T15:59:00Z</time>
      </trkpt>
      <trkpt lat="42.63534" lon="0.30096">
        <ele>2225.1</ele>
        <time>2011-07-10T15:59:11Z</time>
      </trkpt>
      <trkpt lat="42.63535" lon="0.30087">
        <ele>2228</ele>
        <time>2011-07-10T15:59:22Z</time>
      </trkpt>
      <trkpt lat="42.63535" lon="0.30069">
        <ele>2228.5</ele>
        <time>2011-07-10T15:59:38Z</time>
      </trkpt>
      <trkpt lat="42.63534" lon="0.30064">
        <ele>2228.5</ele>
        <time>2011-07-10T15:59:42Z</time>
      </trkpt>
      <trkpt lat="42.63529" lon="0.30048">
        <ele>2230.9</ele>
        <time>2011-07-10T15:59:57Z</time>
      </trkpt>
      <trkpt lat="42.63532" lon="0.30034">
        <ele>2231.4</ele>
        <time>2011-07-10T16:00:08Z</time>
      </trkpt>
      <trkpt lat="42.63531" lon="0.3003">
        <ele>2231.4</ele>
        <time>2011-07-10T16:00:24Z</time>
      </trkpt>
      <trkpt lat="42.63524" lon="0.30021">
        <ele>2234.2</ele>
        <time>2011-07-10T16:00:38Z</time>
      </trkpt>
      <trkpt lat="42.63523" lon="0.30015">
        <ele>2234.7</ele>
        <time>2011-07-10T16:00:42Z</time>
      </trkpt>
      <trkpt lat="42.6352" lon="0.29999">
        <ele>2236.2</ele>
        <time>2011-07-10T16:00:56Z</time>
      </trkpt>
      <trkpt lat="42.63514" lon="0.29977">
        <ele>2239.5</ele>
        <time>2011-07-10T16:01:24Z</time>
      </trkpt>
      <trkpt lat="42.63511" lon="0.29963">
        <ele>2241.5</ele>
        <time>2011-07-10T16:01:37Z</time>
      </trkpt>
      <trkpt lat="42.63505" lon="0.29946">
        <ele>2243.9</ele>
        <time>2011-07-10T16:01:53Z</time>
      </trkpt>
      <trkpt lat="42.63504" lon="0.2994">
        <ele>2244.3</ele>
        <time>2011-07-10T16:01:58Z</time>
      </trkpt>
      <trkpt lat="42.63504" lon="0.29932">
        <ele>2244.8</ele>
        <time>2011-07-10T16:02:03Z</time>
      </trkpt>
      <trkpt lat="42.63499" lon="0.2991">
        <ele>2245.3</ele>
        <time>2011-07-10T16:02:20Z</time>
      </trkpt>
      <trkpt lat="42.63493" lon="0.29891">
        <ele>2247.2</ele>
        <time>2011-07-10T16:02:35Z</time>
      </trkpt>
      <trkpt lat="42.63486" lon="0.29849">
        <ele>2250.1</ele>
        <time>2011-07-10T16:03:07Z</time>
      </trkpt>
      <trkpt lat="42.63485" lon="0.29842">
        <ele>2250.6</ele>
        <time>2011-07-10T16:03:12Z</time>
      </trkpt>
      <trkpt lat="42.63469" lon="0.2981">
        <ele>2253.9</ele>
        <time>2011-07-10T16:03:40Z</time>
      </trkpt>
      <trkpt lat="42.63469" lon="0.2981">
        <ele>2253.9</ele>
        <time>2011-07-10T16:03:40Z</time>
      </trkpt>
      <trkpt lat="42.63467" lon="0.29805">
        <ele>2253.9</ele>
        <time>2011-07-10T16:03:55Z</time>
      </trkpt>
      <trkpt lat="42.63467" lon="0.29801">
        <ele>2253.9</ele>
        <time>2011-07-10T16:04:04Z</time>
      </trkpt>
      <trkpt lat="42.63468" lon="0.29801">
        <ele>2255.4</ele>
        <time>2011-07-10T16:04:16Z</time>
      </trkpt>
      <trkpt lat="42.63468" lon="0.298">
        <ele>2254.9</ele>
        <time>2011-07-10T16:33:53Z</time>
      </trkpt>
      <trkpt lat="42.63465" lon="0.29797">
        <ele>2255.4</ele>
        <time>2011-07-10T16:35:51Z</time>
      </trkpt>
      <trkpt lat="42.63455" lon="0.29784">
        <ele>2252</ele>
        <time>2011-07-10T16:36:18Z</time>
      </trkpt>
      <trkpt lat="42.63442" lon="0.29768">
        <ele>2252</ele>
        <time>2011-07-10T16:36:29Z</time>
      </trkpt>
      <trkpt lat="42.6344" lon="0.29762">
        <ele>2249.1</ele>
        <time>2011-07-10T16:37:41Z</time>
      </trkpt>
      <trkpt lat="42.63439" lon="0.29759">
        <ele>2248.7</ele>
        <time>2011-07-10T16:37:42Z</time>
      </trkpt>
      <trkpt lat="42.6343" lon="0.29746">
        <ele>2249.1</ele>
        <time>2011-07-10T16:37:51Z</time>
      </trkpt>
      <trkpt lat="42.63425" lon="0.29737">
        <ele>2247.7</ele>
        <time>2011-07-10T16:37:55Z</time>
      </trkpt>
      <trkpt lat="42.63416" lon="0.29727">
        <ele>2245.8</ele>
        <time>2011-07-10T16:38:03Z</time>
      </trkpt>
      <trkpt lat="42.63409" lon="0.29717">
        <ele>2244.3</ele>
        <time>2011-07-10T16:38:06Z</time>
      </trkpt>
      <trkpt lat="42.63396" lon="0.29699">
        <ele>2241</ele>
        <time>2011-07-10T16:38:12Z</time>
      </trkpt>
      <trkpt lat="42.63394" lon="0.29695">
        <ele>2241</ele>
        <time>2011-07-10T16:38:13Z</time>
      </trkpt>
      <trkpt lat="42.63391" lon="0.2969">
        <ele>2239.5</ele>
        <time>2011-07-10T16:38:15Z</time>
      </trkpt>
      <trkpt lat="42.63375" lon="0.29671">
        <ele>2237.1</ele>
        <time>2011-07-10T16:38:23Z</time>
      </trkpt>
      <trkpt lat="42.63371" lon="0.29661">
        <ele>2233.8</ele>
        <time>2011-07-10T16:38:26Z</time>
      </trkpt>
      <trkpt lat="42.63364" lon="0.29642">
        <ele>2230.9</ele>
        <time>2011-07-10T16:38:31Z</time>
      </trkpt>
      <trkpt lat="42.63362" lon="0.29637">
        <ele>2229.4</ele>
        <time>2011-07-10T16:38:33Z</time>
      </trkpt>
      <trkpt lat="42.63361" lon="0.29635">
        <ele>2229.4</ele>
        <time>2011-07-10T16:38:34Z</time>
      </trkpt>
      <trkpt lat="42.63356" lon="0.29626">
        <ele>2228.5</ele>
        <time>2011-07-10T16:38:38Z</time>
      </trkpt>
      <trkpt lat="42.63348" lon="0.29608">
        <ele>2225.6</ele>
        <time>2011-07-10T16:38:44Z</time>
      </trkpt>
      <trkpt lat="42.63346" lon="0.29605">
        <ele>2224.1</ele>
        <time>2011-07-10T16:38:45Z</time>
      </trkpt>
      <trkpt lat="42.63334" lon="0.2959">
        <ele>2221.3</ele>
        <time>2011-07-10T16:38:50Z</time>
      </trkpt>
      <trkpt lat="42.63322" lon="0.29578">
        <ele>2218.4</ele>
        <time>2011-07-10T16:38:54Z</time>
      </trkpt>
      <trkpt lat="42.6331" lon="0.29561">
        <ele>2216.5</ele>
        <time>2011-07-10T16:38:59Z</time>
      </trkpt>
      <trkpt lat="42.63293" lon="0.29537">
        <ele>2214.5</ele>
        <time>2011-07-10T16:39:09Z</time>
      </trkpt>
      <trkpt lat="42.63293" lon="0.29537">
        <ele>2214.5</ele>
        <time>2011-07-10T16:39:54Z</time>
      </trkpt>
      <trkpt lat="42.63262" lon="0.29508">
        <ele>2207.3</ele>
        <time>2011-07-10T16:40:06Z</time>
      </trkpt>
      <trkpt lat="42.63247" lon="0.29493">
        <ele>2204.9</ele>
        <time>2011-07-10T16:40:14Z</time>
      </trkpt>
      <trkpt lat="42.63247" lon="0.2949">
        <ele>2204.9</ele>
        <time>2011-07-10T16:40:15Z</time>
      </trkpt>
      <trkpt lat="42.63245" lon="0.29484">
        <ele>2203</ele>
        <time>2011-07-10T16:40:17Z</time>
      </trkpt>
      <trkpt lat="42.63224" lon="0.2945">
        <ele>2195.3</ele>
        <time>2011-07-10T16:40:24Z</time>
      </trkpt>
      <trkpt lat="42.63196" lon="0.29413">
        <ele>2190.5</ele>
        <time>2011-07-10T16:40:30Z</time>
      </trkpt>
      <trkpt lat="42.63173" lon="0.29394">
        <ele>2187.6</ele>
        <time>2011-07-10T16:40:35Z</time>
      </trkpt>
      <trkpt lat="42.63166" lon="0.29385">
        <ele>2186.7</ele>
        <time>2011-07-10T16:40:37Z</time>
      </trkpt>
      <trkpt lat="42.63153" lon="0.29362">
        <ele>2184.7</ele>
        <time>2011-07-10T16:40:42Z</time>
      </trkpt>
      <trkpt lat="42.63136" lon="0.29339">
        <ele>2180.9</ele>
        <time>2011-07-10T16:40:47Z</time>
      </trkpt>
      <trkpt lat="42.63122" lon="0.29327">
        <ele>2180.9</ele>
        <time>2011-07-10T16:40:51Z</time>
      </trkpt>
      <trkpt lat="42.63115" lon="0.29317">
        <ele>2179</ele>
        <time>2011-07-10T16:40:54Z</time>
      </trkpt>
      <trkpt lat="42.63101" lon="0.29305">
        <ele>2177</ele>
        <time>2011-07-10T16:40:58Z</time>
      </trkpt>
      <trkpt lat="42.63094" lon="0.29293">
        <ele>2175.6</ele>
        <time>2011-07-10T16:41:01Z</time>
      </trkpt>
      <trkpt lat="42.63087" lon="0.29287">
        <ele>2175.6</ele>
        <time>2011-07-10T16:41:08Z</time>
      </trkpt>
      <trkpt lat="42.63082" lon="0.29283">
        <ele>2175.1</ele>
        <time>2011-07-10T16:41:35Z</time>
      </trkpt>
      <trkpt lat="42.63081" lon="0.29279">
        <ele>2174.2</ele>
        <time>2011-07-10T16:41:38Z</time>
      </trkpt>
      <trkpt lat="42.63082" lon="0.29276">
        <ele>2173.7</ele>
        <time>2011-07-10T16:41:40Z</time>
      </trkpt>
      <trkpt lat="42.63081" lon="0.29272">
        <ele>2173.7</ele>
        <time>2011-07-10T16:41:42Z</time>
      </trkpt>
      <trkpt lat="42.63061" lon="0.29256">
        <ele>2171.3</ele>
        <time>2011-07-10T16:41:52Z</time>
      </trkpt>
      <trkpt lat="42.63045" lon="0.2924">
        <ele>2169.8</ele>
        <time>2011-07-10T16:41:57Z</time>
      </trkpt>
      <trkpt lat="42.63022" lon="0.29224">
        <ele>2167.4</ele>
        <time>2011-07-10T16:42:04Z</time>
      </trkpt>
      <trkpt lat="42.63017" lon="0.29221">
        <ele>2166.5</ele>
        <time>2011-07-10T16:42:07Z</time>
      </trkpt>
      <trkpt lat="42.63006" lon="0.29224">
        <ele>2165</ele>
        <time>2011-07-10T16:42:12Z</time>
      </trkpt>
      <trkpt lat="42.63005" lon="0.29221">
        <ele>2164.5</ele>
        <time>2011-07-10T16:42:14Z</time>
      </trkpt>
      <trkpt lat="42.63001" lon="0.29217">
        <ele>2164.5</ele>
        <time>2011-07-10T16:42:24Z</time>
      </trkpt>
      <trkpt lat="42.62997" lon="0.29216">
        <ele>2163.1</ele>
        <time>2011-07-10T16:44:01Z</time>
      </trkpt>
      <trkpt lat="42.62994" lon="0.29213">
        <ele>2163.6</ele>
        <time>2011-07-10T16:44:10Z</time>
      </trkpt>
      <trkpt lat="42.6299" lon="0.2921">
        <ele>2163.6</ele>
        <time>2011-07-10T16:44:21Z</time>
      </trkpt>
      <trkpt lat="42.62981" lon="0.29208">
        <ele>2163.1</ele>
        <time>2011-07-10T16:44:31Z</time>
      </trkpt>
      <trkpt lat="42.62979" lon="0.29208">
        <ele>2162.6</ele>
        <time>2011-07-10T16:44:44Z</time>
      </trkpt>
      <trkpt lat="42.62971" lon="0.29202">
        <ele>2163.1</ele>
        <time>2011-07-10T16:44:54Z</time>
      </trkpt>
      <trkpt lat="42.62966" lon="0.29196">
        <ele>2163.1</ele>
        <time>2011-07-10T16:44:59Z</time>
      </trkpt>
      <trkpt lat="42.62942" lon="0.29176">
        <ele>2158.8</ele>
        <time>2011-07-10T16:45:09Z</time>
      </trkpt>
      <trkpt lat="42.62935" lon="0.29169">
        <ele>2157.3</ele>
        <time>2011-07-10T16:45:11Z</time>
      </trkpt>
      <trkpt lat="42.629" lon="0.29124">
        <ele>2154.5</ele>
        <time>2011-07-10T16:45:24Z</time>
      </trkpt>
      <trkpt lat="42.629" lon="0.29125">
        <ele>2155.4</ele>
        <time>2011-07-10T16:45:44Z</time>
      </trkpt>
      <trkpt lat="42.629" lon="0.29125">
        <ele>2155.4</ele>
        <time>2011-07-10T16:46:05Z</time>
      </trkpt>
      <trkpt lat="42.62919" lon="0.29127">
        <ele>2152.5</ele>
        <time>2011-07-10T16:46:14Z</time>
      </trkpt>
      <trkpt lat="42.62925" lon="0.29126">
        <ele>2150.6</ele>
        <time>2011-07-10T16:46:17Z</time>
      </trkpt>
      <trkpt lat="42.62937" lon="0.29126">
        <ele>2147.2</ele>
        <time>2011-07-10T16:46:23Z</time>
      </trkpt>
      <trkpt lat="42.6294" lon="0.29124">
        <ele>2146.8</ele>
        <time>2011-07-10T16:46:25Z</time>
      </trkpt>
      <trkpt lat="42.62944" lon="0.29119">
        <ele>2143.9</ele>
        <time>2011-07-10T16:46:29Z</time>
      </trkpt>
      <trkpt lat="42.62943" lon="0.29116">
        <ele>2142.9</ele>
        <time>2011-07-10T16:46:31Z</time>
      </trkpt>
      <trkpt lat="42.62949" lon="0.29113">
        <ele>2142</ele>
        <time>2011-07-10T16:46:35Z</time>
      </trkpt>
      <trkpt lat="42.62965" lon="0.29112">
        <ele>2138.6</ele>
        <time>2011-07-10T16:46:43Z</time>
      </trkpt>
      <trkpt lat="42.62973" lon="0.29104">
        <ele>2133.3</ele>
        <time>2011-07-10T16:46:49Z</time>
      </trkpt>
      <trkpt lat="42.62977" lon="0.29098">
        <ele>2129</ele>
        <time>2011-07-10T16:46:53Z</time>
      </trkpt>
      <trkpt lat="42.6298" lon="0.29093">
        <ele>2126.1</ele>
        <time>2011-07-10T16:46:56Z</time>
      </trkpt>
      <trkpt lat="42.6298" lon="0.29093">
        <ele>2126.1</ele>
        <time>2011-07-10T16:46:56Z</time>
      </trkpt>
      <trkpt lat="42.62983" lon="0.29092">
        <ele>2125.1</ele>
        <time>2011-07-10T16:46:58Z</time>
      </trkpt>
      <trkpt lat="42.62982" lon="0.29092">
        <ele>2125.1</ele>
        <time>2011-07-10T16:47:05Z</time>
      </trkpt>
      <trkpt lat="42.62972" lon="0.29085">
        <ele>2125.1</ele>
        <time>2011-07-10T16:47:20Z</time>
      </trkpt>
      <trkpt lat="42.62973" lon="0.29084">
        <ele>2123.7</ele>
        <time>2011-07-10T16:47:24Z</time>
      </trkpt>
      <trkpt lat="42.62978" lon="0.29083">
        <ele>2122.2</ele>
        <time>2011-07-10T16:47:34Z</time>
      </trkpt>
      <trkpt lat="42.62977" lon="0.29081">
        <ele>2121.8</ele>
        <time>2011-07-10T16:47:44Z</time>
      </trkpt>
      <trkpt lat="42.62977" lon="0.29081">
        <ele>2121.8</ele>
        <time>2011-07-10T16:47:50Z</time>
      </trkpt>
      <trkpt lat="42.62974" lon="0.29078">
        <ele>2121.8</ele>
        <time>2011-07-10T16:48:03Z</time>
      </trkpt>
      <trkpt lat="42.62963" lon="0.29071">
        <ele>2121.8</ele>
        <time>2011-07-10T16:48:12Z</time>
      </trkpt>
      <trkpt lat="42.62928" lon="0.29057">
        <ele>2121.8</ele>
        <time>2011-07-10T16:48:25Z</time>
      </trkpt>
      <trkpt lat="42.62904" lon="0.29025">
        <ele>2122.7</ele>
        <time>2011-07-10T16:48:36Z</time>
      </trkpt>
      <trkpt lat="42.62882" lon="0.28985">
        <ele>2123.7</ele>
        <time>2011-07-10T16:48:47Z</time>
      </trkpt>
      <trkpt lat="42.62857" lon="0.28971">
        <ele>2124.2</ele>
        <time>2011-07-10T16:48:55Z</time>
      </trkpt>
      <trkpt lat="42.62827" lon="0.2895">
        <ele>2125.6</ele>
        <time>2011-07-10T16:49:06Z</time>
      </trkpt>
      <trkpt lat="42.62806" lon="0.28927">
        <ele>2127.1</ele>
        <time>2011-07-10T16:49:18Z</time>
      </trkpt>
      <trkpt lat="42.62787" lon="0.28872">
        <ele>2126.1</ele>
        <time>2011-07-10T16:49:32Z</time>
      </trkpt>
      <trkpt lat="42.62758" lon="0.28819">
        <ele>2126.6</ele>
        <time>2011-07-10T16:49:46Z</time>
      </trkpt>
      <trkpt lat="42.62741" lon="0.28826">
        <ele>2127.5</ele>
        <time>2011-07-10T16:49:53Z</time>
      </trkpt>
      <trkpt lat="42.6272" lon="0.28865">
        <ele>2128.5</ele>
        <time>2011-07-10T16:50:05Z</time>
      </trkpt>
      <trkpt lat="42.62708" lon="0.28898">
        <ele>2129</ele>
        <time>2011-07-10T16:50:16Z</time>
      </trkpt>
      <trkpt lat="42.62709" lon="0.289">
        <ele>2129.5</ele>
        <time>2011-07-10T16:51:33Z</time>
      </trkpt>
      <trkpt lat="42.62691" lon="0.28926">
        <ele>2129.5</ele>
        <time>2011-07-10T16:51:42Z</time>
      </trkpt>
      <trkpt lat="42.62668" lon="0.28953">
        <ele>2130.4</ele>
        <time>2011-07-10T16:51:50Z</time>
      </trkpt>
      <trkpt lat="42.62651" lon="0.29007">
        <ele>2130.9</ele>
        <time>2011-07-10T16:52:02Z</time>
      </trkpt>
      <trkpt lat="42.62627" lon="0.29051">
        <ele>2131.4</ele>
        <time>2011-07-10T16:52:13Z</time>
      </trkpt>
      <trkpt lat="42.62621" lon="0.29055">
        <ele>2131.9</ele>
        <time>2011-07-10T16:52:20Z</time>
      </trkpt>
      <trkpt lat="42.62621" lon="0.29055">
        <ele>2132.3</ele>
        <time>2011-07-10T16:52:33Z</time>
      </trkpt>
      <trkpt lat="42.626" lon="0.2907">
        <ele>2132.3</ele>
        <time>2011-07-10T16:52:43Z</time>
      </trkpt>
      <trkpt lat="42.62565" lon="0.29122">
        <ele>2133.8</ele>
        <time>2011-07-10T16:52:57Z</time>
      </trkpt>
      <trkpt lat="42.62544" lon="0.29164">
        <ele>2134.3</ele>
        <time>2011-07-10T16:53:06Z</time>
      </trkpt>
      <trkpt lat="42.62534" lon="0.29206">
        <ele>2134.7</ele>
        <time>2011-07-10T16:53:15Z</time>
      </trkpt>
      <trkpt lat="42.62527" lon="0.2923">
        <ele>2135.2</ele>
        <time>2011-07-10T16:53:22Z</time>
      </trkpt>
      <trkpt lat="42.62506" lon="0.2927">
        <ele>2136.2</ele>
        <time>2011-07-10T16:53:38Z</time>
      </trkpt>
      <trkpt lat="42.62499" lon="0.2931">
        <ele>2136.7</ele>
        <time>2011-07-10T16:53:53Z</time>
      </trkpt>
      <trkpt lat="42.62483" lon="0.29337">
        <ele>2136.7</ele>
        <time>2011-07-10T16:54:04Z</time>
      </trkpt>
      <trkpt lat="42.62465" lon="0.2933">
        <ele>2137.1</ele>
        <time>2011-07-10T16:54:12Z</time>
      </trkpt>
      <trkpt lat="42.62454" lon="0.29317">
        <ele>2138.1</ele>
        <time>2011-07-10T16:54:25Z</time>
      </trkpt>
      <trkpt lat="42.62453" lon="0.29317">
        <ele>2138.6</ele>
        <time>2011-07-10T16:54:31Z</time>
      </trkpt>
      <trkpt lat="42.62431" lon="0.29321">
        <ele>2139.1</ele>
        <time>2011-07-10T16:54:41Z</time>
      </trkpt>
      <trkpt lat="42.62403" lon="0.29339">
        <ele>2140.5</ele>
        <time>2011-07-10T16:54:53Z</time>
      </trkpt>
      <trkpt lat="42.62402" lon="0.29339">
        <ele>2141.5</ele>
        <time>2011-07-10T16:55:01Z</time>
      </trkpt>
      <trkpt lat="42.62394" lon="0.29367">
        <ele>2141</ele>
        <time>2011-07-10T16:55:35Z</time>
      </trkpt>
      <trkpt lat="42.62403" lon="0.29408">
        <ele>2140.5</ele>
        <time>2011-07-10T16:55:46Z</time>
      </trkpt>
      <trkpt lat="42.62422" lon="0.29454">
        <ele>2140.5</ele>
        <time>2011-07-10T16:55:57Z</time>
      </trkpt>
      <trkpt lat="42.62434" lon="0.29513">
        <ele>2141</ele>
        <time>2011-07-10T16:56:10Z</time>
      </trkpt>
      <trkpt lat="42.62431" lon="0.29538">
        <ele>2140.5</ele>
        <time>2011-07-10T16:56:16Z</time>
      </trkpt>
      <trkpt lat="42.62412" lon="0.29589">
        <ele>2139.6</ele>
        <time>2011-07-10T16:56:26Z</time>
      </trkpt>
      <trkpt lat="42.6241" lon="0.29595">
        <ele>2140</ele>
        <time>2011-07-10T16:56:27Z</time>
      </trkpt>
      <trkpt lat="42.62399" lon="0.29623">
        <ele>2140</ele>
        <time>2011-07-10T16:56:32Z</time>
      </trkpt>
      <trkpt lat="42.62391" lon="0.29647">
        <ele>2139.6</ele>
        <time>2011-07-10T16:56:36Z</time>
      </trkpt>
      <trkpt lat="42.6237" lon="0.29656">
        <ele>2139.6</ele>
        <time>2011-07-10T16:56:41Z</time>
      </trkpt>
      <trkpt lat="42.62334" lon="0.29652">
        <ele>2139.1</ele>
        <time>2011-07-10T16:56:49Z</time>
      </trkpt>
      <trkpt lat="42.62302" lon="0.29661">
        <ele>2139.6</ele>
        <time>2011-07-10T16:56:56Z</time>
      </trkpt>
      <trkpt lat="42.62233" lon="0.29689">
        <ele>2140.5</ele>
        <time>2011-07-10T16:57:12Z</time>
      </trkpt>
      <trkpt lat="42.62205" lon="0.29727">
        <ele>2141.5</ele>
        <time>2011-07-10T16:57:22Z</time>
      </trkpt>
      <trkpt lat="42.62191" lon="0.2974">
        <ele>2141.5</ele>
        <time>2011-07-10T16:57:26Z</time>
      </trkpt>
      <trkpt lat="42.62175" lon="0.29766">
        <ele>2142</ele>
        <time>2011-07-10T16:57:32Z</time>
      </trkpt>
      <trkpt lat="42.6216" lon="0.29772">
        <ele>2141.5</ele>
        <time>2011-07-10T16:57:36Z</time>
      </trkpt>
      <trkpt lat="42.6214" lon="0.2976">
        <ele>2141</ele>
        <time>2011-07-10T16:57:41Z</time>
      </trkpt>
      <trkpt lat="42.62112" lon="0.29758">
        <ele>2141</ele>
        <time>2011-07-10T16:57:47Z</time>
      </trkpt>
      <trkpt lat="42.6207" lon="0.29781">
        <ele>2141.5</ele>
        <time>2011-07-10T16:57:57Z</time>
      </trkpt>
      <trkpt lat="42.62057" lon="0.29794">
        <ele>2141.5</ele>
        <time>2011-07-10T16:58:01Z</time>
      </trkpt>
      <trkpt lat="42.62048" lon="0.29805">
        <ele>2141</ele>
        <time>2011-07-10T16:58:04Z</time>
      </trkpt>
      <trkpt lat="42.62033" lon="0.29815">
        <ele>2140.5</ele>
        <time>2011-07-10T16:58:08Z</time>
      </trkpt>
      <trkpt lat="42.61986" lon="0.29835">
        <ele>2137.1</ele>
        <time>2011-07-10T16:58:17Z</time>
      </trkpt>
      <trkpt lat="42.61973" lon="0.29838">
        <ele>2136.2</ele>
        <time>2011-07-10T16:58:19Z</time>
      </trkpt>
      <trkpt lat="42.61967" lon="0.2984">
        <ele>2136.7</ele>
        <time>2011-07-10T16:58:20Z</time>
      </trkpt>
      <trkpt lat="42.61897" lon="0.29867">
        <ele>2131.4</ele>
        <time>2011-07-10T16:58:30Z</time>
      </trkpt>
      <trkpt lat="42.61855" lon="0.2988">
        <ele>2129.9</ele>
        <time>2011-07-10T16:58:37Z</time>
      </trkpt>
      <trkpt lat="42.61843" lon="0.29882">
        <ele>2133.8</ele>
        <time>2011-07-10T16:58:41Z</time>
      </trkpt>
      <trkpt lat="42.61839" lon="0.29881">
        <ele>2133.8</ele>
        <time>2011-07-10T16:58:53Z</time>
      </trkpt>
      <trkpt lat="42.6183" lon="0.29881">
        <ele>2129.9</ele>
        <time>2011-07-10T16:59:17Z</time>
      </trkpt>
      <trkpt lat="42.618" lon="0.29859">
        <ele>2129.5</ele>
        <time>2011-07-10T16:59:26Z</time>
      </trkpt>
      <trkpt lat="42.61799" lon="0.29858">
        <ele>2129.5</ele>
        <time>2011-07-10T16:59:27Z</time>
      </trkpt>
      <trkpt lat="42.61795" lon="0.29859">
        <ele>2129.9</ele>
        <time>2011-07-10T16:59:30Z</time>
      </trkpt>
      <trkpt lat="42.61786" lon="0.29849">
        <ele>2129.9</ele>
        <time>2011-07-10T16:59:36Z</time>
      </trkpt>
      <trkpt lat="42.61771" lon="0.29838">
        <ele>2127.1</ele>
        <time>2011-07-10T16:59:42Z</time>
      </trkpt>
      <trkpt lat="42.61762" lon="0.29836">
        <ele>2124.2</ele>
        <time>2011-07-10T16:59:46Z</time>
      </trkpt>
      <trkpt lat="42.61754" lon="0.29833">
        <ele>2121.3</ele>
        <time>2011-07-10T17:00:29Z</time>
      </trkpt>
      <trkpt lat="42.61737" lon="0.29825">
        <ele>2116.5</ele>
        <time>2011-07-10T17:00:36Z</time>
      </trkpt>
      <trkpt lat="42.61718" lon="0.2981">
        <ele>2110.7</ele>
        <time>2011-07-10T17:00:44Z</time>
      </trkpt>
      <trkpt lat="42.61712" lon="0.29801">
        <ele>2111.2</ele>
        <time>2011-07-10T17:00:50Z</time>
      </trkpt>
      <trkpt lat="42.61712" lon="0.29802">
        <ele>2110.7</ele>
        <time>2011-07-10T17:02:16Z</time>
      </trkpt>
      <trkpt lat="42.61712" lon="0.29802">
        <ele>2110.7</ele>
        <time>2011-07-10T17:02:16Z</time>
      </trkpt>
      <trkpt lat="42.61712" lon="0.298">
        <ele>2109.8</ele>
        <time>2011-07-10T17:02:25Z</time>
      </trkpt>
      <trkpt lat="42.61713" lon="0.29798">
        <ele>2109.8</ele>
        <time>2011-07-10T17:03:17Z</time>
      </trkpt>
      <trkpt lat="42.61713" lon="0.29798">
        <ele>2108.8</ele>
        <time>2011-07-10T17:03:54Z</time>
      </trkpt>
      <trkpt lat="42.61719" lon="0.29792">
        <ele>2106.4</ele>
        <time>2011-07-10T17:03:59Z</time>
      </trkpt>
      <trkpt lat="42.6174" lon="0.29782">
        <ele>2101.6</ele>
        <time>2011-07-10T17:04:08Z</time>
      </trkpt>
      <trkpt lat="42.61754" lon="0.29772">
        <ele>2098.2</ele>
        <time>2011-07-10T17:04:15Z</time>
      </trkpt>
      <trkpt lat="42.61758" lon="0.2977">
        <ele>2096.8</ele>
        <time>2011-07-10T17:04:17Z</time>
      </trkpt>
      <trkpt lat="42.61764" lon="0.29764">
        <ele>2094.4</ele>
        <time>2011-07-10T17:04:20Z</time>
      </trkpt>
      <trkpt lat="42.61768" lon="0.29762">
        <ele>2092.9</ele>
        <time>2011-07-10T17:04:22Z</time>
      </trkpt>
      <trkpt lat="42.61785" lon="0.29753">
        <ele>2088.1</ele>
        <time>2011-07-10T17:04:30Z</time>
      </trkpt>
      <trkpt lat="42.61792" lon="0.29745">
        <ele>2085.2</ele>
        <time>2011-07-10T17:04:34Z</time>
      </trkpt>
      <trkpt lat="42.618" lon="0.29738">
        <ele>2081.9</ele>
        <time>2011-07-10T17:04:38Z</time>
      </trkpt>
      <trkpt lat="42.61803" lon="0.29735">
        <ele>2079.5</ele>
        <time>2011-07-10T17:04:40Z</time>
      </trkpt>
      <trkpt lat="42.61811" lon="0.29728">
        <ele>2077.1</ele>
        <time>2011-07-10T17:04:44Z</time>
      </trkpt>
      <trkpt lat="42.61817" lon="0.2972">
        <ele>2073.7</ele>
        <time>2011-07-10T17:04:48Z</time>
      </trkpt>
      <trkpt lat="42.61824" lon="0.29717">
        <ele>2072.3</ele>
        <time>2011-07-10T17:04:56Z</time>
      </trkpt>
      <trkpt lat="42.6183" lon="0.29711">
        <ele>2067.9</ele>
        <time>2011-07-10T17:05:24Z</time>
      </trkpt>
      <trkpt lat="42.61841" lon="0.29704">
        <ele>2065.5</ele>
        <time>2011-07-10T17:05:29Z</time>
      </trkpt>
      <trkpt lat="42.61844" lon="0.29698">
        <ele>2063.6</ele>
        <time>2011-07-10T17:05:32Z</time>
      </trkpt>
      <trkpt lat="42.61849" lon="0.29691">
        <ele>2061.2</ele>
        <time>2011-07-10T17:05:42Z</time>
      </trkpt>
      <trkpt lat="42.6185" lon="0.29692">
        <ele>2062.2</ele>
        <time>2011-07-10T17:05:57Z</time>
      </trkpt>
      <trkpt lat="42.61852" lon="0.29691">
        <ele>2060.7</ele>
        <time>2011-07-10T17:06:29Z</time>
      </trkpt>
      <trkpt lat="42.61853" lon="0.29689">
        <ele>2058.8</ele>
        <time>2011-07-10T17:06:31Z</time>
      </trkpt>
      <trkpt lat="42.61855" lon="0.29688">
        <ele>2058.8</ele>
        <time>2011-07-10T17:06:33Z</time>
      </trkpt>
      <trkpt lat="42.61858" lon="0.29688">
        <ele>2057.4</ele>
        <time>2011-07-10T17:06:37Z</time>
      </trkpt>
      <trkpt lat="42.61867" lon="0.29689">
        <ele>2054.5</ele>
        <time>2011-07-10T17:06:42Z</time>
      </trkpt>
      <trkpt lat="42.61889" lon="0.29676">
        <ele>2045.8</ele>
        <time>2011-07-10T17:06:51Z</time>
      </trkpt>
      <trkpt lat="42.61891" lon="0.29674">
        <ele>2045.3</ele>
        <time>2011-07-10T17:07:00Z</time>
      </trkpt>
      <trkpt lat="42.61891" lon="0.29674">
        <ele>2045.3</ele>
        <time>2011-07-10T17:08:00Z</time>
      </trkpt>
      <trkpt lat="42.61891" lon="0.29673">
        <ele>2044.9</ele>
        <time>2011-07-10T17:10:08Z</time>
      </trkpt>
      <trkpt lat="42.61892" lon="0.29669">
        <ele>2042.9</ele>
        <time>2011-07-10T17:10:11Z</time>
      </trkpt>
      <trkpt lat="42.61893" lon="0.29669">
        <ele>2042.9</ele>
        <time>2011-07-10T17:10:13Z</time>
      </trkpt>
      <trkpt lat="42.61899" lon="0.2966">
        <ele>2040.1</ele>
        <time>2011-07-10T17:10:18Z</time>
      </trkpt>
      <trkpt lat="42.61907" lon="0.2965">
        <ele>2037.2</ele>
        <time>2011-07-10T17:10:23Z</time>
      </trkpt>
      <trkpt lat="42.61914" lon="0.2964">
        <ele>2033.8</ele>
        <time>2011-07-10T17:10:27Z</time>
      </trkpt>
      <trkpt lat="42.61918" lon="0.29631">
        <ele>2031.9</ele>
        <time>2011-07-10T17:10:31Z</time>
      </trkpt>
      <trkpt lat="42.61921" lon="0.29627">
        <ele>2030.9</ele>
        <time>2011-07-10T17:10:33Z</time>
      </trkpt>
      <trkpt lat="42.61923" lon="0.29623">
        <ele>2029.5</ele>
        <time>2011-07-10T17:10:35Z</time>
      </trkpt>
      <trkpt lat="42.61939" lon="0.29613">
        <ele>2027.6</ele>
        <time>2011-07-10T17:10:42Z</time>
      </trkpt>
      <trkpt lat="42.61941" lon="0.2961">
        <ele>2027.1</ele>
        <time>2011-07-10T17:10:45Z</time>
      </trkpt>
      <trkpt lat="42.61939" lon="0.29603">
        <ele>2024.2</ele>
        <time>2011-07-10T17:10:49Z</time>
      </trkpt>
      <trkpt lat="42.61937" lon="0.29601">
        <ele>2023.2</ele>
        <time>2011-07-10T17:10:51Z</time>
      </trkpt>
      <trkpt lat="42.61936" lon="0.29602">
        <ele>2023.7</ele>
        <time>2011-07-10T17:11:00Z</time>
      </trkpt>
      <trkpt lat="42.61926" lon="0.29595">
        <ele>2020.8</ele>
        <time>2011-07-10T17:11:06Z</time>
      </trkpt>
      <trkpt lat="42.61926" lon="0.2959">
        <ele>2018.9</ele>
        <time>2011-07-10T17:11:09Z</time>
      </trkpt>
      <trkpt lat="42.61927" lon="0.29589">
        <ele>2018.4</ele>
        <time>2011-07-10T17:11:10Z</time>
      </trkpt>
      <trkpt lat="42.61934" lon="0.29584">
        <ele>2016</ele>
        <time>2011-07-10T17:11:14Z</time>
      </trkpt>
      <trkpt lat="42.6194" lon="0.29573">
        <ele>2012.2</ele>
        <time>2011-07-10T17:11:19Z</time>
      </trkpt>
      <trkpt lat="42.61941" lon="0.29571">
        <ele>2012.2</ele>
        <time>2011-07-10T17:11:20Z</time>
      </trkpt>
      <trkpt lat="42.61948" lon="0.29559">
        <ele>2008.3</ele>
        <time>2011-07-10T17:11:24Z</time>
      </trkpt>
      <trkpt lat="42.61956" lon="0.29532">
        <ele>2003</ele>
        <time>2011-07-10T17:11:32Z</time>
      </trkpt>
      <trkpt lat="42.61962" lon="0.29515">
        <ele>1999.7</ele>
        <time>2011-07-10T17:11:36Z</time>
      </trkpt>
      <trkpt lat="42.61975" lon="0.29498">
        <ele>1995.8</ele>
        <time>2011-07-10T17:11:41Z</time>
      </trkpt>
      <trkpt lat="42.61976" lon="0.29497">
        <ele>1996.3</ele>
        <time>2011-07-10T17:11:48Z</time>
      </trkpt>
      <trkpt lat="42.61976" lon="0.29497">
        <ele>1996.3</ele>
        <time>2011-07-10T17:11:49Z</time>
      </trkpt>
      <trkpt lat="42.6197" lon="0.29489">
        <ele>1994.4</ele>
        <time>2011-07-10T17:11:53Z</time>
      </trkpt>
      <trkpt lat="42.6196" lon="0.29482">
        <ele>1992</ele>
        <time>2011-07-10T17:11:58Z</time>
      </trkpt>
      <trkpt lat="42.61956" lon="0.29476">
        <ele>1989.6</ele>
        <time>2011-07-10T17:12:02Z</time>
      </trkpt>
      <trkpt lat="42.61955" lon="0.29473">
        <ele>1988.6</ele>
        <time>2011-07-10T17:12:04Z</time>
      </trkpt>
      <trkpt lat="42.61958" lon="0.29471">
        <ele>1988.6</ele>
        <time>2011-07-10T17:12:16Z</time>
      </trkpt>
      <trkpt lat="42.61958" lon="0.29469">
        <ele>1986.2</ele>
        <time>2011-07-10T17:14:43Z</time>
      </trkpt>
      <trkpt lat="42.61962" lon="0.29443">
        <ele>1980</ele>
        <time>2011-07-10T17:14:49Z</time>
      </trkpt>
      <trkpt lat="42.61973" lon="0.29413">
        <ele>1976.6</ele>
        <time>2011-07-10T17:14:54Z</time>
      </trkpt>
      <trkpt lat="42.61978" lon="0.29382">
        <ele>1973.2</ele>
        <time>2011-07-10T17:14:59Z</time>
      </trkpt>
      <trkpt lat="42.61984" lon="0.29355">
        <ele>1969.4</ele>
        <time>2011-07-10T17:15:04Z</time>
      </trkpt>
      <trkpt lat="42.61997" lon="0.29319">
        <ele>1962.7</ele>
        <time>2011-07-10T17:15:10Z</time>
      </trkpt>
      <trkpt lat="42.62007" lon="0.29303">
        <ele>1961.2</ele>
        <time>2011-07-10T17:15:14Z</time>
      </trkpt>
      <trkpt lat="42.62012" lon="0.29292">
        <ele>1958.8</ele>
        <time>2011-07-10T17:15:17Z</time>
      </trkpt>
      <trkpt lat="42.62019" lon="0.29271">
        <ele>1954.5</ele>
        <time>2011-07-10T17:15:21Z</time>
      </trkpt>
      <trkpt lat="42.62025" lon="0.29253">
        <ele>1952.1</ele>
        <time>2011-07-10T17:15:24Z</time>
      </trkpt>
      <trkpt lat="42.62032" lon="0.29223">
        <ele>1947.3</ele>
        <time>2011-07-10T17:15:29Z</time>
      </trkpt>
      <trkpt lat="42.62035" lon="0.29196">
        <ele>1943.9</ele>
        <time>2011-07-10T17:15:33Z</time>
      </trkpt>
      <trkpt lat="42.62031" lon="0.29173">
        <ele>1940.6</ele>
        <time>2011-07-10T17:15:39Z</time>
      </trkpt>
      <trkpt lat="42.62026" lon="0.29164">
        <ele>1938.6</ele>
        <time>2011-07-10T17:15:42Z</time>
      </trkpt>
      <trkpt lat="42.62025" lon="0.29164">
        <ele>1938.6</ele>
        <time>2011-07-10T17:15:49Z</time>
      </trkpt>
      <trkpt lat="42.62021" lon="0.29152">
        <ele>1935.3</ele>
        <time>2011-07-10T17:16:29Z</time>
      </trkpt>
      <trkpt lat="42.62019" lon="0.29142">
        <ele>1933.3</ele>
        <time>2011-07-10T17:16:32Z</time>
      </trkpt>
      <trkpt lat="42.62015" lon="0.29126">
        <ele>1930</ele>
        <time>2011-07-10T17:16:36Z</time>
      </trkpt>
      <trkpt lat="42.62003" lon="0.29093">
        <ele>1922.8</ele>
        <time>2011-07-10T17:16:44Z</time>
      </trkpt>
      <trkpt lat="42.61987" lon="0.29062">
        <ele>1916</ele>
        <time>2011-07-10T17:16:51Z</time>
      </trkpt>
      <trkpt lat="42.61979" lon="0.2904">
        <ele>1911.7</ele>
        <time>2011-07-10T17:16:55Z</time>
      </trkpt>
      <trkpt lat="42.61975" lon="0.29022">
        <ele>1908.8</ele>
        <time>2011-07-10T17:16:58Z</time>
      </trkpt>
      <trkpt lat="42.61972" lon="0.28995">
        <ele>1906</ele>
        <time>2011-07-10T17:17:03Z</time>
      </trkpt>
      <trkpt lat="42.61973" lon="0.28983">
        <ele>1904.5</ele>
        <time>2011-07-10T17:17:10Z</time>
      </trkpt>
      <trkpt lat="42.61973" lon="0.28983">
        <ele>1904.5</ele>
        <time>2011-07-10T17:17:11Z</time>
      </trkpt>
      <trkpt lat="42.61975" lon="0.28977">
        <ele>1904</ele>
        <time>2011-07-10T17:17:22Z</time>
      </trkpt>
      <trkpt lat="42.61976" lon="0.28976">
        <ele>1903.1</ele>
        <time>2011-07-10T17:19:00Z</time>
      </trkpt>
      <trkpt lat="42.6198" lon="0.28942">
        <ele>1898.7</ele>
        <time>2011-07-10T17:19:25Z</time>
      </trkpt>
      <trkpt lat="42.61988" lon="0.28919">
        <ele>1895.9</ele>
        <time>2011-07-10T17:19:29Z</time>
      </trkpt>
      <trkpt lat="42.61998" lon="0.28893">
        <ele>1892</ele>
        <time>2011-07-10T17:19:35Z</time>
      </trkpt>
      <trkpt lat="42.62002" lon="0.28878">
        <ele>1889.1</ele>
        <time>2011-07-10T17:19:38Z</time>
      </trkpt>
      <trkpt lat="42.62006" lon="0.28864">
        <ele>1886.7</ele>
        <time>2011-07-10T17:19:41Z</time>
      </trkpt>
      <trkpt lat="42.62011" lon="0.28846">
        <ele>1882.4</ele>
        <time>2011-07-10T17:19:44Z</time>
      </trkpt>
      <trkpt lat="42.62026" lon="0.28816">
        <ele>1877.1</ele>
        <time>2011-07-10T17:19:50Z</time>
      </trkpt>
      <trkpt lat="42.62044" lon="0.2877">
        <ele>1870.4</ele>
        <time>2011-07-10T17:19:59Z</time>
      </trkpt>
      <trkpt lat="42.62044" lon="0.28744">
        <ele>1866.1</ele>
        <time>2011-07-10T17:20:04Z</time>
      </trkpt>
      <trkpt lat="42.6204" lon="0.28715">
        <ele>1862.7</ele>
        <time>2011-07-10T17:20:09Z</time>
      </trkpt>
      <trkpt lat="42.6204" lon="0.28705">
        <ele>1861.2</ele>
        <time>2011-07-10T17:20:15Z</time>
      </trkpt>
      <trkpt lat="42.62041" lon="0.28706">
        <ele>1861.2</ele>
        <time>2011-07-10T17:21:05Z</time>
      </trkpt>
      <trkpt lat="42.6204" lon="0.28699">
        <ele>1859.8</ele>
        <time>2011-07-10T17:21:28Z</time>
      </trkpt>
      <trkpt lat="42.6205" lon="0.28671">
        <ele>1855.5</ele>
        <time>2011-07-10T17:21:35Z</time>
      </trkpt>
      <trkpt lat="42.62049" lon="0.28634">
        <ele>1853.6</ele>
        <time>2011-07-10T17:21:43Z</time>
      </trkpt>
      <trkpt lat="42.62054" lon="0.28614">
        <ele>1850.2</ele>
        <time>2011-07-10T17:21:49Z</time>
      </trkpt>
      <trkpt lat="42.62055" lon="0.28589">
        <ele>1844.4</ele>
        <time>2011-07-10T17:21:57Z</time>
      </trkpt>
      <trkpt lat="42.62074" lon="0.2857">
        <ele>1842</ele>
        <time>2011-07-10T17:22:05Z</time>
      </trkpt>
      <trkpt lat="42.62084" lon="0.28554">
        <ele>1840.6</ele>
        <time>2011-07-10T17:22:14Z</time>
      </trkpt>
      <trkpt lat="42.62105" lon="0.28524">
        <ele>1840.1</ele>
        <time>2011-07-10T17:22:33Z</time>
      </trkpt>
      <trkpt lat="42.62107" lon="0.2852">
        <ele>1840.1</ele>
        <time>2011-07-10T17:22:36Z</time>
      </trkpt>
      <trkpt lat="42.6211" lon="0.28509">
        <ele>1839.1</ele>
        <time>2011-07-10T17:22:44Z</time>
      </trkpt>
      <trkpt lat="42.62117" lon="0.28504">
        <ele>1836.3</ele>
        <time>2011-07-10T17:26:04Z</time>
      </trkpt>
      <trkpt lat="42.62118" lon="0.28499">
        <ele>1836.3</ele>
        <time>2011-07-10T17:26:06Z</time>
      </trkpt>
      <trkpt lat="42.62116" lon="0.28489">
        <ele>1836.7</ele>
        <time>2011-07-10T17:26:14Z</time>
      </trkpt>
      <trkpt lat="42.62121" lon="0.28471">
        <ele>1835.8</ele>
        <time>2011-07-10T17:26:24Z</time>
      </trkpt>
      <trkpt lat="42.62131" lon="0.28448">
        <ele>1835.8</ele>
        <time>2011-07-10T17:26:36Z</time>
      </trkpt>
      <trkpt lat="42.62136" lon="0.28439">
        <ele>1838.2</ele>
        <time>2011-07-10T17:26:49Z</time>
      </trkpt>
      <trkpt lat="42.6214" lon="0.28421">
        <ele>1839.1</ele>
        <time>2011-07-10T17:27:00Z</time>
      </trkpt>
      <trkpt lat="42.6214" lon="0.2842">
        <ele>1838.7</ele>
        <time>2011-07-10T17:27:01Z</time>
      </trkpt>
      <trkpt lat="42.62151" lon="0.28398">
        <ele>1841.5</ele>
        <time>2011-07-10T17:27:22Z</time>
      </trkpt>
      <trkpt lat="42.62154" lon="0.28384">
        <ele>1842</ele>
        <time>2011-07-10T17:27:37Z</time>
      </trkpt>
      <trkpt lat="42.62157" lon="0.28375">
        <ele>1842.5</ele>
        <time>2011-07-10T17:27:47Z</time>
      </trkpt>
      <trkpt lat="42.62156" lon="0.28371">
        <ele>1842.5</ele>
        <time>2011-07-10T17:27:51Z</time>
      </trkpt>
      <trkpt lat="42.62157" lon="0.28361">
        <ele>1843</ele>
        <time>2011-07-10T17:27:58Z</time>
      </trkpt>
      <trkpt lat="42.6216" lon="0.28355">
        <ele>1842.5</ele>
        <time>2011-07-10T17:28:10Z</time>
      </trkpt>
      <trkpt lat="42.62165" lon="0.28345">
        <ele>1842</ele>
        <time>2011-07-10T17:28:15Z</time>
      </trkpt>
      <trkpt lat="42.62183" lon="0.28317">
        <ele>1842</ele>
        <time>2011-07-10T17:28:31Z</time>
      </trkpt>
      <trkpt lat="42.62193" lon="0.28316">
        <ele>1842.5</ele>
        <time>2011-07-10T17:28:37Z</time>
      </trkpt>
      <trkpt lat="42.622" lon="0.2831">
        <ele>1842</ele>
        <time>2011-07-10T17:28:41Z</time>
      </trkpt>
      <trkpt lat="42.62207" lon="0.28305">
        <ele>1840.1</ele>
        <time>2011-07-10T17:28:45Z</time>
      </trkpt>
      <trkpt lat="42.62247" lon="0.28289">
        <ele>1836.7</ele>
        <time>2011-07-10T17:29:02Z</time>
      </trkpt>
      <trkpt lat="42.62272" lon="0.28278">
        <ele>1834.8</ele>
        <time>2011-07-10T17:29:13Z</time>
      </trkpt>
      <trkpt lat="42.62277" lon="0.28277">
        <ele>1834.8</ele>
        <time>2011-07-10T17:29:16Z</time>
      </trkpt>
      <trkpt lat="42.62282" lon="0.28274">
        <ele>1833.9</ele>
        <time>2011-07-10T17:29:19Z</time>
      </trkpt>
      <trkpt lat="42.62295" lon="0.28275">
        <ele>1832.4</ele>
        <time>2011-07-10T17:29:27Z</time>
      </trkpt>
      <trkpt lat="42.62301" lon="0.28276">
        <ele>1833.4</ele>
        <time>2011-07-10T17:29:37Z</time>
      </trkpt>
      <trkpt lat="42.62304" lon="0.28267">
        <ele>1832.4</ele>
        <time>2011-07-10T17:29:46Z</time>
      </trkpt>
      <trkpt lat="42.62305" lon="0.2825">
        <ele>1831.9</ele>
        <time>2011-07-10T17:29:57Z</time>
      </trkpt>
      <trkpt lat="42.62309" lon="0.28242">
        <ele>1832.9</ele>
        <time>2011-07-10T17:30:06Z</time>
      </trkpt>
      <trkpt lat="42.62307" lon="0.28241">
        <ele>1832.9</ele>
        <time>2011-07-10T17:30:08Z</time>
      </trkpt>
      <trkpt lat="42.62315" lon="0.28227">
        <ele>1833.4</ele>
        <time>2011-07-10T17:30:16Z</time>
      </trkpt>
      <trkpt lat="42.62317" lon="0.2822">
        <ele>1832.4</ele>
        <time>2011-07-10T17:30:19Z</time>
      </trkpt>
      <trkpt lat="42.62326" lon="0.28201">
        <ele>1833.4</ele>
        <time>2011-07-10T17:30:26Z</time>
      </trkpt>
      <trkpt lat="42.62333" lon="0.28179">
        <ele>1832.4</ele>
        <time>2011-07-10T17:30:34Z</time>
      </trkpt>
      <trkpt lat="42.62335" lon="0.28171">
        <ele>1832.4</ele>
        <time>2011-07-10T17:30:36Z</time>
      </trkpt>
      <trkpt lat="42.62343" lon="0.28163">
        <ele>1832.4</ele>
        <time>2011-07-10T17:30:40Z</time>
      </trkpt>
      <trkpt lat="42.62349" lon="0.28155">
        <ele>1831</ele>
        <time>2011-07-10T17:30:44Z</time>
      </trkpt>
      <trkpt lat="42.62356" lon="0.28128">
        <ele>1827.6</ele>
        <time>2011-07-10T17:30:49Z</time>
      </trkpt>
      <trkpt lat="42.62362" lon="0.2811">
        <ele>1824.7</ele>
        <time>2011-07-10T17:30:54Z</time>
      </trkpt>
      <trkpt lat="42.62371" lon="0.2811">
        <ele>1821.4</ele>
        <time>2011-07-10T17:30:59Z</time>
      </trkpt>
      <trkpt lat="42.62374" lon="0.28109">
        <ele>1819.9</ele>
        <time>2011-07-10T17:31:01Z</time>
      </trkpt>
      <trkpt lat="42.62384" lon="0.28113">
        <ele>1816.5</ele>
        <time>2011-07-10T17:31:05Z</time>
      </trkpt>
      <trkpt lat="42.62389" lon="0.28111">
        <ele>1815.6</ele>
        <time>2011-07-10T17:31:07Z</time>
      </trkpt>
      <trkpt lat="42.62392" lon="0.28107">
        <ele>1815.6</ele>
        <time>2011-07-10T17:31:09Z</time>
      </trkpt>
      <trkpt lat="42.62395" lon="0.28103">
        <ele>1814.6</ele>
        <time>2011-07-10T17:31:11Z</time>
      </trkpt>
      <trkpt lat="42.62394" lon="0.28085">
        <ele>1813.7</ele>
        <time>2011-07-10T17:31:21Z</time>
      </trkpt>
      <trkpt lat="42.62393" lon="0.28083">
        <ele>1813.7</ele>
        <time>2011-07-10T17:31:22Z</time>
      </trkpt>
      <trkpt lat="42.62393" lon="0.28079">
        <ele>1814.1</ele>
        <time>2011-07-10T17:31:24Z</time>
      </trkpt>
      <trkpt lat="42.62391" lon="0.28074">
        <ele>1814.1</ele>
        <time>2011-07-10T17:31:27Z</time>
      </trkpt>
      <trkpt lat="42.6239" lon="0.28049">
        <ele>1814.6</ele>
        <time>2011-07-10T17:31:36Z</time>
      </trkpt>
      <trkpt lat="42.62389" lon="0.28042">
        <ele>1814.6</ele>
        <time>2011-07-10T17:31:39Z</time>
      </trkpt>
      <trkpt lat="42.62389" lon="0.28033">
        <ele>1815.6</ele>
        <time>2011-07-10T17:31:46Z</time>
      </trkpt>
      <trkpt lat="42.62389" lon="0.28029">
        <ele>1814.6</ele>
        <time>2011-07-10T17:32:00Z</time>
      </trkpt>
      <trkpt lat="42.62388" lon="0.28021">
        <ele>1815.1</ele>
        <time>2011-07-10T17:33:51Z</time>
      </trkpt>
      <trkpt lat="42.62385" lon="0.28021">
        <ele>1815.1</ele>
        <time>2011-07-10T17:34:40Z</time>
      </trkpt>
      <trkpt lat="42.62391" lon="0.28002">
        <ele>1811.7</ele>
        <time>2011-07-10T17:34:46Z</time>
      </trkpt>
      <trkpt lat="42.62391" lon="0.27978">
        <ele>1808.4</ele>
        <time>2011-07-10T17:34:51Z</time>
      </trkpt>
      <trkpt lat="42.6239" lon="0.27933">
        <ele>1802.1</ele>
        <time>2011-07-10T17:34:58Z</time>
      </trkpt>
      <trkpt lat="42.6239" lon="0.27893">
        <ele>1799.7</ele>
        <time>2011-07-10T17:35:07Z</time>
      </trkpt>
      <trkpt lat="42.6239" lon="0.27888">
        <ele>1798.8</ele>
        <time>2011-07-10T17:35:09Z</time>
      </trkpt>
      <trkpt lat="42.62396" lon="0.27862">
        <ele>1795.9</ele>
        <time>2011-07-10T17:35:19Z</time>
      </trkpt>
      <trkpt lat="42.62397" lon="0.27857">
        <ele>1795.4</ele>
        <time>2011-07-10T17:35:27Z</time>
      </trkpt>
      <trkpt lat="42.62396" lon="0.27857">
        <ele>1794.4</ele>
        <time>2011-07-10T17:36:16Z</time>
      </trkpt>
      <trkpt lat="42.624" lon="0.27837">
        <ele>1790.6</ele>
        <time>2011-07-10T17:36:23Z</time>
      </trkpt>
      <trkpt lat="42.62406" lon="0.27826">
        <ele>1788.7</ele>
        <time>2011-07-10T17:36:26Z</time>
      </trkpt>
      <trkpt lat="42.62407" lon="0.27805">
        <ele>1783.9</ele>
        <time>2011-07-10T17:36:31Z</time>
      </trkpt>
      <trkpt lat="42.62405" lon="0.27798">
        <ele>1783.4</ele>
        <time>2011-07-10T17:36:40Z</time>
      </trkpt>
      <trkpt lat="42.62406" lon="0.27792">
        <ele>1781.5</ele>
        <time>2011-07-10T17:37:01Z</time>
      </trkpt>
      <trkpt lat="42.62402" lon="0.27789">
        <ele>1780</ele>
        <time>2011-07-10T17:37:10Z</time>
      </trkpt>
      <trkpt lat="42.62388" lon="0.27787">
        <ele>1775.7</ele>
        <time>2011-07-10T17:37:16Z</time>
      </trkpt>
      <trkpt lat="42.62379" lon="0.27791">
        <ele>1771.4</ele>
        <time>2011-07-10T17:37:19Z</time>
      </trkpt>
      <trkpt lat="42.62373" lon="0.27795">
        <ele>1768.5</ele>
        <time>2011-07-10T17:37:21Z</time>
      </trkpt>
      <trkpt lat="42.62363" lon="0.27805">
        <ele>1765.6</ele>
        <time>2011-07-10T17:37:24Z</time>
      </trkpt>
      <trkpt lat="42.62358" lon="0.2781">
        <ele>1764.2</ele>
        <time>2011-07-10T17:37:26Z</time>
      </trkpt>
      <trkpt lat="42.62352" lon="0.27805">
        <ele>1762.7</ele>
        <time>2011-07-10T17:37:41Z</time>
      </trkpt>
      <trkpt lat="42.62354" lon="0.2779">
        <ele>1757.9</ele>
        <time>2011-07-10T17:38:00Z</time>
      </trkpt>
      <trkpt lat="42.62356" lon="0.27782">
        <ele>1755.5</ele>
        <time>2011-07-10T17:38:02Z</time>
      </trkpt>
      <trkpt lat="42.62362" lon="0.27767">
        <ele>1751.2</ele>
        <time>2011-07-10T17:38:05Z</time>
      </trkpt>
      <trkpt lat="42.62375" lon="0.27743">
        <ele>1745.9</ele>
        <time>2011-07-10T17:38:10Z</time>
      </trkpt>
      <trkpt lat="42.62375" lon="0.27723">
        <ele>1742.5</ele>
        <time>2011-07-10T17:38:14Z</time>
      </trkpt>
      <trkpt lat="42.62372" lon="0.27718">
        <ele>1741.1</ele>
        <time>2011-07-10T17:38:15Z</time>
      </trkpt>
      <trkpt lat="42.62368" lon="0.27689">
        <ele>1736.8</ele>
        <time>2011-07-10T17:38:19Z</time>
      </trkpt>
      <trkpt lat="42.62366" lon="0.27677">
        <ele>1734.4</ele>
        <time>2011-07-10T17:38:21Z</time>
      </trkpt>
      <trkpt lat="42.62362" lon="0.2763">
        <ele>1724.3</ele>
        <time>2011-07-10T17:38:28Z</time>
      </trkpt>
      <trkpt lat="42.62367" lon="0.27604">
        <ele>1720.4</ele>
        <time>2011-07-10T17:38:32Z</time>
      </trkpt>
      <trkpt lat="42.62369" lon="0.27564">
        <ele>1712.2</ele>
        <time>2011-07-10T17:38:38Z</time>
      </trkpt>
      <trkpt lat="42.62368" lon="0.27559">
        <ele>1712.2</ele>
        <time>2011-07-10T17:38:39Z</time>
      </trkpt>
      <trkpt lat="42.62364" lon="0.27542">
        <ele>1708.4</ele>
        <time>2011-07-10T17:38:43Z</time>
      </trkpt>
      <trkpt lat="42.62365" lon="0.27532">
        <ele>1707</ele>
        <time>2011-07-10T17:38:45Z</time>
      </trkpt>
      <trkpt lat="42.62358" lon="0.27531">
        <ele>1703.6</ele>
        <time>2011-07-10T17:38:50Z</time>
      </trkpt>
      <trkpt lat="42.62358" lon="0.27533">
        <ele>1703.1</ele>
        <time>2011-07-10T17:38:51Z</time>
      </trkpt>
      <trkpt lat="42.62352" lon="0.27546">
        <ele>1698.8</ele>
        <time>2011-07-10T17:38:57Z</time>
      </trkpt>
      <trkpt lat="42.62347" lon="0.27548">
        <ele>1697.3</ele>
        <time>2011-07-10T17:39:00Z</time>
      </trkpt>
      <trkpt lat="42.62341" lon="0.27529">
        <ele>1693.5</ele>
        <time>2011-07-10T17:39:05Z</time>
      </trkpt>
      <trkpt lat="42.62342" lon="0.27522">
        <ele>1692.5</ele>
        <time>2011-07-10T17:39:07Z</time>
      </trkpt>
      <trkpt lat="42.62341" lon="0.27517">
        <ele>1693</ele>
        <time>2011-07-10T17:41:25Z</time>
      </trkpt>
      <trkpt lat="42.6234" lon="0.27515">
        <ele>1693</ele>
        <time>2011-07-10T17:41:41Z</time>
      </trkpt>
      <trkpt lat="42.6234" lon="0.27513">
        <ele>1693</ele>
        <time>2011-07-10T17:41:56Z</time>
      </trkpt>
      <trkpt lat="42.62342" lon="0.27495">
        <ele>1690.1</ele>
        <time>2011-07-10T17:42:34Z</time>
      </trkpt>
      <trkpt lat="42.62342" lon="0.27484">
        <ele>1689.7</ele>
        <time>2011-07-10T17:42:37Z</time>
      </trkpt>
      <trkpt lat="42.62347" lon="0.27463">
        <ele>1684.8</ele>
        <time>2011-07-10T17:42:40Z</time>
      </trkpt>
      <trkpt lat="42.62346" lon="0.27436">
        <ele>1680</ele>
        <time>2011-07-10T17:42:44Z</time>
      </trkpt>
      <trkpt lat="42.62344" lon="0.27429">
        <ele>1678.1</ele>
        <time>2011-07-10T17:42:45Z</time>
      </trkpt>
      <trkpt lat="42.62343" lon="0.27415">
        <ele>1676.2</ele>
        <time>2011-07-10T17:42:47Z</time>
      </trkpt>
      <trkpt lat="42.62337" lon="0.27397">
        <ele>1670.9</ele>
        <time>2011-07-10T17:42:51Z</time>
      </trkpt>
      <trkpt lat="42.62336" lon="0.27387">
        <ele>1668</ele>
        <time>2011-07-10T17:42:53Z</time>
      </trkpt>
      <trkpt lat="42.62335" lon="0.27363">
        <ele>1662.7</ele>
        <time>2011-07-10T17:42:57Z</time>
      </trkpt>
      <trkpt lat="42.62336" lon="0.27352">
        <ele>1660.8</ele>
        <time>2011-07-10T17:42:59Z</time>
      </trkpt>
      <trkpt lat="42.62325" lon="0.27346">
        <ele>1660.3</ele>
        <time>2011-07-10T17:43:07Z</time>
      </trkpt>
      <trkpt lat="42.62327" lon="0.27343">
        <ele>1659.9</ele>
        <time>2011-07-10T17:43:15Z</time>
      </trkpt>
      <trkpt lat="42.62326" lon="0.27342">
        <ele>1659.4</ele>
        <time>2011-07-10T17:43:21Z</time>
      </trkpt>
      <trkpt lat="42.62337" lon="0.27322">
        <ele>1655</ele>
        <time>2011-07-10T17:43:27Z</time>
      </trkpt>
      <trkpt lat="42.62338" lon="0.27313">
        <ele>1654.6</ele>
        <time>2011-07-10T17:43:29Z</time>
      </trkpt>
      <trkpt lat="42.62343" lon="0.273">
        <ele>1651.2</ele>
        <time>2011-07-10T17:43:33Z</time>
      </trkpt>
      <trkpt lat="42.62347" lon="0.2727">
        <ele>1646.4</ele>
        <time>2011-07-10T17:43:38Z</time>
      </trkpt>
      <trkpt lat="42.62348" lon="0.27266">
        <ele>1645.9</ele>
        <time>2011-07-10T17:43:39Z</time>
      </trkpt>
      <trkpt lat="42.62347" lon="0.27234">
        <ele>1639.7</ele>
        <time>2011-07-10T17:43:45Z</time>
      </trkpt>
      <trkpt lat="42.62351" lon="0.2722">
        <ele>1634.9</ele>
        <time>2011-07-10T17:43:49Z</time>
      </trkpt>
      <trkpt lat="42.62349" lon="0.27208">
        <ele>1630.5</ele>
        <time>2011-07-10T17:43:52Z</time>
      </trkpt>
      <trkpt lat="42.62346" lon="0.27195">
        <ele>1626.2</ele>
        <time>2011-07-10T17:43:55Z</time>
      </trkpt>
      <trkpt lat="42.62336" lon="0.27155">
        <ele>1618.5</ele>
        <time>2011-07-10T17:44:00Z</time>
      </trkpt>
      <trkpt lat="42.62331" lon="0.27126">
        <ele>1613.2</ele>
        <time>2011-07-10T17:44:04Z</time>
      </trkpt>
      <trkpt lat="42.62332" lon="0.27113">
        <ele>1610.3</ele>
        <time>2011-07-10T17:44:06Z</time>
      </trkpt>
      <trkpt lat="42.62339" lon="0.27091">
        <ele>1604.6</ele>
        <time>2011-07-10T17:44:10Z</time>
      </trkpt>
      <trkpt lat="42.62345" lon="0.27059">
        <ele>1597.8</ele>
        <time>2011-07-10T17:44:15Z</time>
      </trkpt>
      <trkpt lat="42.62357" lon="0.27017">
        <ele>1593</ele>
        <time>2011-07-10T17:44:21Z</time>
      </trkpt>
      <trkpt lat="42.62379" lon="0.26987">
        <ele>1583.4</ele>
        <time>2011-07-10T17:44:29Z</time>
      </trkpt>
      <trkpt lat="42.62382" lon="0.26984">
        <ele>1581</ele>
        <time>2011-07-10T17:44:30Z</time>
      </trkpt>
      <trkpt lat="42.62399" lon="0.26975">
        <ele>1576.7</ele>
        <time>2011-07-10T17:44:34Z</time>
      </trkpt>
      <trkpt lat="42.62417" lon="0.26952">
        <ele>1570.9</ele>
        <time>2011-07-10T17:44:42Z</time>
      </trkpt>
      <trkpt lat="42.62436" lon="0.26933">
        <ele>1568</ele>
        <time>2011-07-10T17:46:12Z</time>
      </trkpt>
      <trkpt lat="42.62441" lon="0.26916">
        <ele>1568</ele>
        <time>2011-07-10T17:46:27Z</time>
      </trkpt>
      <trkpt lat="42.62427" lon="0.26889">
        <ele>1549.3</ele>
        <time>2011-07-10T17:50:59Z</time>
      </trkpt>
      <trkpt lat="42.62409" lon="0.26869">
        <ele>1542.1</ele>
        <time>2011-07-10T17:51:07Z</time>
      </trkpt>
      <trkpt lat="42.62404" lon="0.26858">
        <ele>1538.7</ele>
        <time>2011-07-10T17:51:09Z</time>
      </trkpt>
      <trkpt lat="42.62402" lon="0.26854">
        <ele>1537.8</ele>
        <time>2011-07-10T17:51:10Z</time>
      </trkpt>
      <trkpt lat="42.624" lon="0.26847">
        <ele>1535.8</ele>
        <time>2011-07-10T17:51:12Z</time>
      </trkpt>
      <trkpt lat="42.62384" lon="0.26811">
        <ele>1530.1</ele>
        <time>2011-07-10T17:51:18Z</time>
      </trkpt>
      <trkpt lat="42.62376" lon="0.26789">
        <ele>1525.7</ele>
        <time>2011-07-10T17:51:22Z</time>
      </trkpt>
      <trkpt lat="42.62374" lon="0.26776">
        <ele>1522.4</ele>
        <time>2011-07-10T17:51:24Z</time>
      </trkpt>
      <trkpt lat="42.62376" lon="0.26734">
        <ele>1517.6</ele>
        <time>2011-07-10T17:51:30Z</time>
      </trkpt>
      <trkpt lat="42.62379" lon="0.26717">
        <ele>1515.2</ele>
        <time>2011-07-10T17:51:32Z</time>
      </trkpt>
      <trkpt lat="42.62379" lon="0.26687">
        <ele>1509.9</ele>
        <time>2011-07-10T17:51:36Z</time>
      </trkpt>
      <trkpt lat="42.62375" lon="0.26662">
        <ele>1504.6</ele>
        <time>2011-07-10T17:51:40Z</time>
      </trkpt>
      <trkpt lat="42.62373" lon="0.26631">
        <ele>1500.3</ele>
        <time>2011-07-10T17:51:47Z</time>
      </trkpt>
      <trkpt lat="42.62372" lon="0.2662">
        <ele>1498.8</ele>
        <time>2011-07-10T17:51:50Z</time>
      </trkpt>
      <trkpt lat="42.62372" lon="0.26614">
        <ele>1498.4</ele>
        <time>2011-07-10T17:52:02Z</time>
      </trkpt>
      <trkpt lat="42.62373" lon="0.26614">
        <ele>1496.4</ele>
        <time>2011-07-10T17:53:43Z</time>
      </trkpt>
      <trkpt lat="42.62378" lon="0.26588">
        <ele>1490.2</ele>
        <time>2011-07-10T17:53:50Z</time>
      </trkpt>
      <trkpt lat="42.62378" lon="0.26578">
        <ele>1485.9</ele>
        <time>2011-07-10T17:53:53Z</time>
      </trkpt>
      <trkpt lat="42.6238" lon="0.26568">
        <ele>1482</ele>
        <time>2011-07-10T17:53:56Z</time>
      </trkpt>
      <trkpt lat="42.62389" lon="0.26547">
        <ele>1477.2</ele>
        <time>2011-07-10T17:54:01Z</time>
      </trkpt>
      <trkpt lat="42.62392" lon="0.2653">
        <ele>1475.3</ele>
        <time>2011-07-10T17:54:04Z</time>
      </trkpt>
      <trkpt lat="42.62396" lon="0.26515">
        <ele>1471.4</ele>
        <time>2011-07-10T17:54:07Z</time>
      </trkpt>
      <trkpt lat="42.62401" lon="0.26495">
        <ele>1468.6</ele>
        <time>2011-07-10T17:54:11Z</time>
      </trkpt>
      <trkpt lat="42.62404" lon="0.2646">
        <ele>1462.3</ele>
        <time>2011-07-10T17:54:17Z</time>
      </trkpt>
      <trkpt lat="42.62407" lon="0.26412">
        <ele>1454.6</ele>
        <time>2011-07-10T17:54:23Z</time>
      </trkpt>
      <trkpt lat="42.6241" lon="0.26389">
        <ele>1450.8</ele>
        <time>2011-07-10T17:54:27Z</time>
      </trkpt>
      <trkpt lat="42.62411" lon="0.26386">
        <ele>1450.8</ele>
        <time>2011-07-10T17:54:28Z</time>
      </trkpt>
      <trkpt lat="42.62411" lon="0.26382">
        <ele>1449.3</ele>
        <time>2011-07-10T17:54:38Z</time>
      </trkpt>
      <trkpt lat="42.62412" lon="0.26376">
        <ele>1447.4</ele>
        <time>2011-07-10T17:54:49Z</time>
      </trkpt>
      <trkpt lat="42.62408" lon="0.26369">
        <ele>1447.4</ele>
        <time>2011-07-10T17:55:03Z</time>
      </trkpt>
      <trkpt lat="42.62416" lon="0.26359">
        <ele>1446</ele>
        <time>2011-07-10T17:56:03Z</time>
      </trkpt>
      <trkpt lat="42.62415" lon="0.26356">
        <ele>1444.5</ele>
        <time>2011-07-10T17:56:05Z</time>
      </trkpt>
      <trkpt lat="42.62412" lon="0.26341">
        <ele>1442.6</ele>
        <time>2011-07-10T17:56:08Z</time>
      </trkpt>
      <trkpt lat="42.62393" lon="0.26317">
        <ele>1440.2</ele>
        <time>2011-07-10T17:56:16Z</time>
      </trkpt>
      <trkpt lat="42.62387" lon="0.26295">
        <ele>1439.7</ele>
        <time>2011-07-10T17:56:23Z</time>
      </trkpt>
      <trkpt lat="42.62386" lon="0.26269">
        <ele>1438.3</ele>
        <time>2011-07-10T17:56:32Z</time>
      </trkpt>
      <trkpt lat="42.62382" lon="0.26251">
        <ele>1436.3</ele>
        <time>2011-07-10T17:56:36Z</time>
      </trkpt>
      <trkpt lat="42.62383" lon="0.26216">
        <ele>1436.3</ele>
        <time>2011-07-10T17:56:45Z</time>
      </trkpt>
      <trkpt lat="42.62389" lon="0.26202">
        <ele>1435.9</ele>
        <time>2011-07-10T17:56:55Z</time>
      </trkpt>
      <trkpt lat="42.62385" lon="0.26206">
        <ele>1435.4</ele>
        <time>2011-07-10T17:57:57Z</time>
      </trkpt>
      <trkpt lat="42.62384" lon="0.26192">
        <ele>1431.5</ele>
        <time>2011-07-10T17:58:01Z</time>
      </trkpt>
      <trkpt lat="42.62391" lon="0.26165">
        <ele>1426.7</ele>
        <time>2011-07-10T17:58:05Z</time>
      </trkpt>
      <trkpt lat="42.62388" lon="0.26123">
        <ele>1422.9</ele>
        <time>2011-07-10T17:58:09Z</time>
      </trkpt>
      <trkpt lat="42.62391" lon="0.26109">
        <ele>1421</ele>
        <time>2011-07-10T17:58:12Z</time>
      </trkpt>
      <trkpt lat="42.62393" lon="0.26096">
        <ele>1417.6</ele>
        <time>2011-07-10T17:58:16Z</time>
      </trkpt>
      <trkpt lat="42.62388" lon="0.26088">
        <ele>1416.2</ele>
        <time>2011-07-10T17:58:19Z</time>
      </trkpt>
      <trkpt lat="42.62368" lon="0.2607">
        <ele>1415.2</ele>
        <time>2011-07-10T17:58:25Z</time>
      </trkpt>
      <trkpt lat="42.6236" lon="0.26061">
        <ele>1414.2</ele>
        <time>2011-07-10T17:58:27Z</time>
      </trkpt>
      <trkpt lat="42.6235" lon="0.26053">
        <ele>1413.8</ele>
        <time>2011-07-10T17:58:29Z</time>
      </trkpt>
      <trkpt lat="42.6234" lon="0.26048">
        <ele>1413.3</ele>
        <time>2011-07-10T17:58:31Z</time>
      </trkpt>
      <trkpt lat="42.62308" lon="0.26002">
        <ele>1411.4</ele>
        <time>2011-07-10T17:58:42Z</time>
      </trkpt>
      <trkpt lat="42.62317" lon="0.2596">
        <ele>1412.3</ele>
        <time>2011-07-10T17:58:50Z</time>
      </trkpt>
      <trkpt lat="42.62322" lon="0.25957">
        <ele>1411.4</ele>
        <time>2011-07-10T17:59:48Z</time>
      </trkpt>
      <trkpt lat="42.62329" lon="0.25942">
        <ele>1409.4</ele>
        <time>2011-07-10T17:59:52Z</time>
      </trkpt>
      <trkpt lat="42.62337" lon="0.25931">
        <ele>1408</ele>
        <time>2011-07-10T17:59:55Z</time>
      </trkpt>
      <trkpt lat="42.62343" lon="0.25922">
        <ele>1407</ele>
        <time>2011-07-10T17:59:57Z</time>
      </trkpt>
      <trkpt lat="42.62354" lon="0.25897">
        <ele>1402.2</ele>
        <time>2011-07-10T18:00:02Z</time>
      </trkpt>
      <trkpt lat="42.62363" lon="0.25863">
        <ele>1394.5</ele>
        <time>2011-07-10T18:00:08Z</time>
      </trkpt>
      <trkpt lat="42.62363" lon="0.2585">
        <ele>1391.6</ele>
        <time>2011-07-10T18:00:10Z</time>
      </trkpt>
      <trkpt lat="42.62372" lon="0.25826">
        <ele>1386.8</ele>
        <time>2011-07-10T18:00:14Z</time>
      </trkpt>
      <trkpt lat="42.62378" lon="0.25815">
        <ele>1385.4</ele>
        <time>2011-07-10T18:00:16Z</time>
      </trkpt>
      <trkpt lat="42.62386" lon="0.25787">
        <ele>1381.1</ele>
        <time>2011-07-10T18:00:20Z</time>
      </trkpt>
      <trkpt lat="42.62396" lon="0.25752">
        <ele>1376.3</ele>
        <time>2011-07-10T18:00:26Z</time>
      </trkpt>
      <trkpt lat="42.62396" lon="0.25729">
        <ele>1373.9</ele>
        <time>2011-07-10T18:00:30Z</time>
      </trkpt>
      <trkpt lat="42.62395" lon="0.25709">
        <ele>1369.1</ele>
        <time>2011-07-10T18:00:34Z</time>
      </trkpt>
      <trkpt lat="42.62396" lon="0.2569">
        <ele>1365.7</ele>
        <time>2011-07-10T18:00:37Z</time>
      </trkpt>
      <trkpt lat="42.62402" lon="0.25673">
        <ele>1361.8</ele>
        <time>2011-07-10T18:00:41Z</time>
      </trkpt>
      <trkpt lat="42.62411" lon="0.25665">
        <ele>1358.5</ele>
        <time>2011-07-10T18:00:44Z</time>
      </trkpt>
      <trkpt lat="42.62415" lon="0.25662">
        <ele>1358.5</ele>
        <time>2011-07-10T18:00:45Z</time>
      </trkpt>
      <trkpt lat="42.62422" lon="0.25649">
        <ele>1355.6</ele>
        <time>2011-07-10T18:00:49Z</time>
      </trkpt>
      <trkpt lat="42.62431" lon="0.25645">
        <ele>1351.3</ele>
        <time>2011-07-10T18:00:54Z</time>
      </trkpt>
      <trkpt lat="42.62428" lon="0.25647">
        <ele>1349.8</ele>
        <time>2011-07-10T18:01:52Z</time>
      </trkpt>
      <trkpt lat="42.62432" lon="0.25614">
        <ele>1350.3</ele>
        <time>2011-07-10T18:02:37Z</time>
      </trkpt>
      <trkpt lat="42.62421" lon="0.25572">
        <ele>1354.6</ele>
        <time>2011-07-10T18:03:00Z</time>
      </trkpt>
      <trkpt lat="42.62423" lon="0.25559">
        <ele>1355.6</ele>
        <time>2011-07-10T18:03:06Z</time>
      </trkpt>
      <trkpt lat="42.62418" lon="0.25536">
        <ele>1357</ele>
        <time>2011-07-10T18:03:17Z</time>
      </trkpt>
      <trkpt lat="42.62419" lon="0.25521">
        <ele>1358.5</ele>
        <time>2011-07-10T18:03:23Z</time>
      </trkpt>
      <trkpt lat="42.62418" lon="0.25508">
        <ele>1357.5</ele>
        <time>2011-07-10T18:03:29Z</time>
      </trkpt>
      <trkpt lat="42.62416" lon="0.25504">
        <ele>1358</ele>
        <time>2011-07-10T18:03:31Z</time>
      </trkpt>
      <trkpt lat="42.62409" lon="0.25477">
        <ele>1357</ele>
        <time>2011-07-10T18:03:41Z</time>
      </trkpt>
      <trkpt lat="42.62407" lon="0.25474">
        <ele>1357</ele>
        <time>2011-07-10T18:03:42Z</time>
      </trkpt>
      <trkpt lat="42.62401" lon="0.25456">
        <ele>1359.4</ele>
        <time>2011-07-10T18:03:50Z</time>
      </trkpt>
      <trkpt lat="42.62407" lon="0.2543">
        <ele>1360.4</ele>
        <time>2011-07-10T18:04:01Z</time>
      </trkpt>
      <trkpt lat="42.62403" lon="0.25406">
        <ele>1360.4</ele>
        <time>2011-07-10T18:04:12Z</time>
      </trkpt>
      <trkpt lat="42.62402" lon="0.25404">
        <ele>1360.9</ele>
        <time>2011-07-10T18:04:13Z</time>
      </trkpt>
      <trkpt lat="42.62387" lon="0.25395">
        <ele>1361.4</ele>
        <time>2011-07-10T18:04:21Z</time>
      </trkpt>
      <trkpt lat="42.62379" lon="0.25381">
        <ele>1361.8</ele>
        <time>2011-07-10T18:04:25Z</time>
      </trkpt>
      <trkpt lat="42.6237" lon="0.2537">
        <ele>1363.3</ele>
        <time>2011-07-10T18:04:35Z</time>
      </trkpt>
      <trkpt lat="42.62344" lon="0.25328">
        <ele>1365.2</ele>
        <time>2011-07-10T18:04:53Z</time>
      </trkpt>
      <trkpt lat="42.62329" lon="0.25306">
        <ele>1365.7</ele>
        <time>2011-07-10T18:05:01Z</time>
      </trkpt>
      <trkpt lat="42.62313" lon="0.25269">
        <ele>1367.6</ele>
        <time>2011-07-10T18:05:35Z</time>
      </trkpt>
      <trkpt lat="42.62292" lon="0.25251">
        <ele>1352.2</ele>
        <time>2011-07-10T18:06:10Z</time>
      </trkpt>
      <trkpt lat="42.62287" lon="0.25194">
        <ele>1350.8</ele>
        <time>2011-07-10T18:11:07Z</time>
      </trkpt>
      <trkpt lat="42.62326" lon="0.25162">
        <ele>1344.5</ele>
        <time>2011-07-10T18:11:17Z</time>
      </trkpt>
      <trkpt lat="42.62341" lon="0.25156">
        <ele>1333.5</ele>
        <time>2011-07-10T18:11:38Z</time>
      </trkpt>
      <trkpt lat="42.62343" lon="0.25142">
        <ele>1330.6</ele>
        <time>2011-07-10T18:11:42Z</time>
      </trkpt>
      <trkpt lat="42.62336" lon="0.25117">
        <ele>1326.8</ele>
        <time>2011-07-10T18:11:46Z</time>
      </trkpt>
      <trkpt lat="42.62336" lon="0.251">
        <ele>1325.3</ele>
        <time>2011-07-10T18:11:48Z</time>
      </trkpt>
      <trkpt lat="42.62333" lon="0.25087">
        <ele>1324.4</ele>
        <time>2011-07-10T18:11:50Z</time>
      </trkpt>
      <trkpt lat="42.62336" lon="0.25078">
        <ele>1323.4</ele>
        <time>2011-07-10T18:11:56Z</time>
      </trkpt>
      <trkpt lat="42.62337" lon="0.25077">
        <ele>1322.4</ele>
        <time>2011-07-10T18:13:20Z</time>
      </trkpt>
      <trkpt lat="42.6234" lon="0.2507">
        <ele>1321</ele>
        <time>2011-07-10T18:13:22Z</time>
      </trkpt>
      <trkpt lat="42.62347" lon="0.25062">
        <ele>1318.6</ele>
        <time>2011-07-10T18:13:24Z</time>
      </trkpt>
      <trkpt lat="42.62358" lon="0.25049">
        <ele>1315.2</ele>
        <time>2011-07-10T18:13:27Z</time>
      </trkpt>
      <trkpt lat="42.62378" lon="0.2503">
        <ele>1311.4</ele>
        <time>2011-07-10T18:13:31Z</time>
      </trkpt>
      <trkpt lat="42.62393" lon="0.25019">
        <ele>1309</ele>
        <time>2011-07-10T18:13:34Z</time>
      </trkpt>
      <trkpt lat="42.62406" lon="0.25014">
        <ele>1304.6</ele>
        <time>2011-07-10T18:13:39Z</time>
      </trkpt>
      <trkpt lat="42.62409" lon="0.25012">
        <ele>1304.2</ele>
        <time>2011-07-10T18:13:41Z</time>
      </trkpt>
      <trkpt lat="42.62404" lon="0.2501">
        <ele>1305.6</ele>
        <time>2011-07-10T18:13:54Z</time>
      </trkpt>
      <trkpt lat="42.624" lon="0.25005">
        <ele>1305.1</ele>
        <time>2011-07-10T18:14:00Z</time>
      </trkpt>
      <trkpt lat="42.6238" lon="0.24986">
        <ele>1305.1</ele>
        <time>2011-07-10T18:14:10Z</time>
      </trkpt>
      <trkpt lat="42.6238" lon="0.24979">
        <ele>1304.2</ele>
        <time>2011-07-10T18:14:12Z</time>
      </trkpt>
      <trkpt lat="42.62376" lon="0.24945">
        <ele>1307.5</ele>
        <time>2011-07-10T18:14:22Z</time>
      </trkpt>
      <trkpt lat="42.62392" lon="0.24895">
        <ele>1306.6</ele>
        <time>2011-07-10T18:14:35Z</time>
      </trkpt>
      <trkpt lat="42.62387" lon="0.24863">
        <ele>1304.2</ele>
        <time>2011-07-10T18:15:13Z</time>
      </trkpt>
      <trkpt lat="42.62386" lon="0.24862">
        <ele>1304.2</ele>
        <time>2011-07-10T18:15:15Z</time>
      </trkpt>
      <trkpt lat="42.62371" lon="0.24853">
        <ele>1302.2</ele>
        <time>2011-07-10T18:15:20Z</time>
      </trkpt>
      <trkpt lat="42.62355" lon="0.24841">
        <ele>1302.2</ele>
        <time>2011-07-10T18:15:23Z</time>
      </trkpt>
      <trkpt lat="42.62332" lon="0.24833">
        <ele>1301.8</ele>
        <time>2011-07-10T18:15:30Z</time>
      </trkpt>
      <trkpt lat="42.62316" lon="0.2483">
        <ele>1301.3</ele>
        <time>2011-07-10T18:15:35Z</time>
      </trkpt>
      <trkpt lat="42.62295" lon="0.24807">
        <ele>1300.3</ele>
        <time>2011-07-10T18:15:42Z</time>
      </trkpt>
      <trkpt lat="42.62289" lon="0.24794">
        <ele>1301.3</ele>
        <time>2011-07-10T18:15:46Z</time>
      </trkpt>
      <trkpt lat="42.62286" lon="0.24785">
        <ele>1302.7</ele>
        <time>2011-07-10T18:15:51Z</time>
      </trkpt>
      <trkpt lat="42.623" lon="0.24764">
        <ele>1304.2</ele>
        <time>2011-07-10T18:16:01Z</time>
      </trkpt>
      <trkpt lat="42.62302" lon="0.24759">
        <ele>1304.6</ele>
        <time>2011-07-10T18:16:03Z</time>
      </trkpt>
      <trkpt lat="42.62305" lon="0.24749">
        <ele>1306.1</ele>
        <time>2011-07-10T18:16:15Z</time>
      </trkpt>
      <trkpt lat="42.6231" lon="0.24736">
        <ele>1308</ele>
        <time>2011-07-10T18:16:29Z</time>
      </trkpt>
      <trkpt lat="42.62316" lon="0.24726">
        <ele>1310.9</ele>
        <time>2011-07-10T18:16:45Z</time>
      </trkpt>
      <trkpt lat="42.62314" lon="0.2472">
        <ele>1310.9</ele>
        <time>2011-07-10T18:16:52Z</time>
      </trkpt>
      <trkpt lat="42.6231" lon="0.24713">
        <ele>1309.5</ele>
        <time>2011-07-10T18:16:57Z</time>
      </trkpt>
      <trkpt lat="42.62304" lon="0.24707">
        <ele>1310.4</ele>
        <time>2011-07-10T18:17:02Z</time>
      </trkpt>
      <trkpt lat="42.62283" lon="0.24696">
        <ele>1312.3</ele>
        <time>2011-07-10T18:17:13Z</time>
      </trkpt>
      <trkpt lat="42.62229" lon="0.2469">
        <ele>1313.8</ele>
        <time>2011-07-10T18:17:34Z</time>
      </trkpt>
      <trkpt lat="42.62209" lon="0.24676">
        <ele>1313.3</ele>
        <time>2011-07-10T18:26:50Z</time>
      </trkpt>
      <trkpt lat="42.6219" lon="0.24659">
        <ele>1315.7</ele>
        <time>2011-07-10T18:27:03Z</time>
      </trkpt>
      <trkpt lat="42.62148" lon="0.2461">
        <ele>1318.6</ele>
        <time>2011-07-10T18:27:23Z</time>
      </trkpt>
      <trkpt lat="42.6211" lon="0.24568">
        <ele>1320</ele>
        <time>2011-07-10T18:27:31Z</time>
      </trkpt>
      <trkpt lat="42.6214" lon="0.24523">
        <ele>1319.5</ele>
        <time>2011-07-10T18:27:39Z</time>
      </trkpt>
      <trkpt lat="42.6217" lon="0.24504">
        <ele>1318.1</ele>
        <time>2011-07-10T18:27:46Z</time>
      </trkpt>
      <trkpt lat="42.62213" lon="0.2449">
        <ele>1314.3</ele>
        <time>2011-07-10T18:27:52Z</time>
      </trkpt>
      <trkpt lat="42.62216" lon="0.24486">
        <ele>1314.3</ele>
        <time>2011-07-10T18:27:53Z</time>
      </trkpt>
      <trkpt lat="42.62228" lon="0.24467">
        <ele>1311.9</ele>
        <time>2011-07-10T18:27:57Z</time>
      </trkpt>
      <trkpt lat="42.62232" lon="0.24452">
        <ele>1311.4</ele>
        <time>2011-07-10T18:27:59Z</time>
      </trkpt>
      <trkpt lat="42.62229" lon="0.24415">
        <ele>1307.5</ele>
        <time>2011-07-10T18:28:03Z</time>
      </trkpt>
      <trkpt lat="42.62227" lon="0.24404">
        <ele>1306.6</ele>
        <time>2011-07-10T18:28:05Z</time>
      </trkpt>
      <trkpt lat="42.62234" lon="0.24394">
        <ele>1304.6</ele>
        <time>2011-07-10T18:28:08Z</time>
      </trkpt>
      <trkpt lat="42.62242" lon="0.24386">
        <ele>1303.7</ele>
        <time>2011-07-10T18:28:11Z</time>
      </trkpt>
      <trkpt lat="42.62249" lon="0.24382">
        <ele>1301.8</ele>
        <time>2011-07-10T18:28:13Z</time>
      </trkpt>
      <trkpt lat="42.6226" lon="0.24358">
        <ele>1297.4</ele>
        <time>2011-07-10T18:28:19Z</time>
      </trkpt>
      <trkpt lat="42.6227" lon="0.24326">
        <ele>1293.1</ele>
        <time>2011-07-10T18:28:25Z</time>
      </trkpt>
      <trkpt lat="42.62272" lon="0.24309">
        <ele>1291.2</ele>
        <time>2011-07-10T18:28:28Z</time>
      </trkpt>
      <trkpt lat="42.62272" lon="0.24305">
        <ele>1291.7</ele>
        <time>2011-07-10T18:28:29Z</time>
      </trkpt>
      <trkpt lat="42.62267" lon="0.24289">
        <ele>1292.6</ele>
        <time>2011-07-10T18:28:36Z</time>
      </trkpt>
      <trkpt lat="42.62264" lon="0.24266">
        <ele>1289.7</ele>
        <time>2011-07-10T18:28:42Z</time>
      </trkpt>
      <trkpt lat="42.62246" lon="0.24238">
        <ele>1287.3</ele>
        <time>2011-07-10T18:28:50Z</time>
      </trkpt>
      <trkpt lat="42.62239" lon="0.24234">
        <ele>1286.4</ele>
        <time>2011-07-10T18:28:52Z</time>
      </trkpt>
      <trkpt lat="42.62238" lon="0.2423">
        <ele>1285.9</ele>
        <time>2011-07-10T18:28:53Z</time>
      </trkpt>
      <trkpt lat="42.62235" lon="0.24213">
        <ele>1287.3</ele>
        <time>2011-07-10T18:28:56Z</time>
      </trkpt>
      <trkpt lat="42.62225" lon="0.2418">
        <ele>1286.4</ele>
        <time>2011-07-10T18:29:04Z</time>
      </trkpt>
      <trkpt lat="42.62224" lon="0.24151">
        <ele>1284</ele>
        <time>2011-07-10T18:29:09Z</time>
      </trkpt>
      <trkpt lat="42.6223" lon="0.24079">
        <ele>1281.6</ele>
        <time>2011-07-10T18:29:18Z</time>
      </trkpt>
      <trkpt lat="42.62225" lon="0.24043">
        <ele>1278.2</ele>
        <time>2011-07-10T18:29:27Z</time>
      </trkpt>
      <trkpt lat="42.6222" lon="0.24021">
        <ele>1275.8</ele>
        <time>2011-07-10T18:29:30Z</time>
      </trkpt>
      <trkpt lat="42.62219" lon="0.24001">
        <ele>1275.3</ele>
        <time>2011-07-10T18:29:32Z</time>
      </trkpt>
      <trkpt lat="42.62211" lon="0.23916">
        <ele>1271</ele>
        <time>2011-07-10T18:29:44Z</time>
      </trkpt>
      <trkpt lat="42.62205" lon="0.23902">
        <ele>1271</ele>
        <time>2011-07-10T18:29:47Z</time>
      </trkpt>
      <trkpt lat="42.62199" lon="0.23869">
        <ele>1271</ele>
        <time>2011-07-10T18:29:54Z</time>
      </trkpt>
      <trkpt lat="42.62195" lon="0.23822">
        <ele>1272</ele>
        <time>2011-07-10T18:30:04Z</time>
      </trkpt>
      <trkpt lat="42.62192" lon="0.23818">
        <ele>1271.5</ele>
        <time>2011-07-10T18:30:06Z</time>
      </trkpt>
      <trkpt lat="42.62193" lon="0.23804">
        <ele>1269.1</ele>
        <time>2011-07-10T18:30:12Z</time>
      </trkpt>
      <trkpt lat="42.62186" lon="0.23787">
        <ele>1263.3</ele>
        <time>2011-07-10T18:30:19Z</time>
      </trkpt>
      <trkpt lat="42.62177" lon="0.23781">
        <ele>1260.9</ele>
        <time>2011-07-10T18:30:22Z</time>
      </trkpt>
      <trkpt lat="42.62181" lon="0.23773">
        <ele>1256.6</ele>
        <time>2011-07-10T18:30:25Z</time>
      </trkpt>
      <trkpt lat="42.62184" lon="0.2377">
        <ele>1254.7</ele>
        <time>2011-07-10T18:30:26Z</time>
      </trkpt>
      <trkpt lat="42.62189" lon="0.23757">
        <ele>1251.3</ele>
        <time>2011-07-10T18:30:30Z</time>
      </trkpt>
      <trkpt lat="42.62194" lon="0.23753">
        <ele>1249.9</ele>
        <time>2011-07-10T18:30:31Z</time>
      </trkpt>
      <trkpt lat="42.622" lon="0.23747">
        <ele>1249.4</ele>
        <time>2011-07-10T18:30:33Z</time>
      </trkpt>
      <trkpt lat="42.622" lon="0.23734">
        <ele>1247.9</ele>
        <time>2011-07-10T18:30:38Z</time>
      </trkpt>
      <trkpt lat="42.62196" lon="0.2373">
        <ele>1244.1</ele>
        <time>2011-07-10T18:30:40Z</time>
      </trkpt>
      <trkpt lat="42.622" lon="0.2372">
        <ele>1240.7</ele>
        <time>2011-07-10T18:30:43Z</time>
      </trkpt>
      <trkpt lat="42.62217" lon="0.23712">
        <ele>1234.5</ele>
        <time>2011-07-10T18:30:48Z</time>
      </trkpt>
      <trkpt lat="42.62233" lon="0.237">
        <ele>1231.6</ele>
        <time>2011-07-10T18:30:52Z</time>
      </trkpt>
      <trkpt lat="42.62247" lon="0.23693">
        <ele>1228.7</ele>
        <time>2011-07-10T18:30:55Z</time>
      </trkpt>
      <trkpt lat="42.62265" lon="0.23701">
        <ele>1223.9</ele>
        <time>2011-07-10T18:31:02Z</time>
      </trkpt>
      <trkpt lat="42.62274" lon="0.23705">
        <ele>1220.5</ele>
        <time>2011-07-10T18:31:06Z</time>
      </trkpt>
      <trkpt lat="42.62281" lon="0.23703">
        <ele>1220.1</ele>
        <time>2011-07-10T18:31:08Z</time>
      </trkpt>
      <trkpt lat="42.62305" lon="0.2369">
        <ele>1221.5</ele>
        <time>2011-07-10T18:31:19Z</time>
      </trkpt>
      <trkpt lat="42.62313" lon="0.23679">
        <ele>1222.5</ele>
        <time>2011-07-10T18:31:30Z</time>
      </trkpt>
      <trkpt lat="42.62314" lon="0.23672">
        <ele>1221.5</ele>
        <time>2011-07-10T18:31:43Z</time>
      </trkpt>
      <trkpt lat="42.62315" lon="0.23669">
        <ele>1221</ele>
        <time>2011-07-10T18:31:44Z</time>
      </trkpt>
      <trkpt lat="42.62314" lon="0.23663">
        <ele>1219.6</ele>
        <time>2011-07-10T18:31:46Z</time>
      </trkpt>
      <trkpt lat="42.62315" lon="0.23656">
        <ele>1218.6</ele>
        <time>2011-07-10T18:31:48Z</time>
      </trkpt>
      <trkpt lat="42.62319" lon="0.23635">
        <ele>1215.2</ele>
        <time>2011-07-10T18:31:52Z</time>
      </trkpt>
      <trkpt lat="42.62322" lon="0.23622">
        <ele>1213.3</ele>
        <time>2011-07-10T18:31:55Z</time>
      </trkpt>
      <trkpt lat="42.62318" lon="0.23611">
        <ele>1210</ele>
        <time>2011-07-10T18:32:01Z</time>
      </trkpt>
      <trkpt lat="42.62319" lon="0.23602">
        <ele>1208</ele>
        <time>2011-07-10T18:32:04Z</time>
      </trkpt>
      <trkpt lat="42.62317" lon="0.23598">
        <ele>1206.6</ele>
        <time>2011-07-10T18:32:07Z</time>
      </trkpt>
      <trkpt lat="42.62316" lon="0.23583">
        <ele>1203.7</ele>
        <time>2011-07-10T18:32:11Z</time>
      </trkpt>
      <trkpt lat="42.62321" lon="0.2357">
        <ele>1199.4</ele>
        <time>2011-07-10T18:32:15Z</time>
      </trkpt>
      <trkpt lat="42.62317" lon="0.23562">
        <ele>1197</ele>
        <time>2011-07-10T18:32:19Z</time>
      </trkpt>
      <trkpt lat="42.62307" lon="0.23562">
        <ele>1195.1</ele>
        <time>2011-07-10T18:32:22Z</time>
      </trkpt>
      <trkpt lat="42.6231" lon="0.23547">
        <ele>1190.7</ele>
        <time>2011-07-10T18:32:27Z</time>
      </trkpt>
      <trkpt lat="42.62322" lon="0.23512">
        <ele>1184</ele>
        <time>2011-07-10T18:32:35Z</time>
      </trkpt>
      <trkpt lat="42.62324" lon="0.23501">
        <ele>1181.1</ele>
        <time>2011-07-10T18:32:38Z</time>
      </trkpt>
      <trkpt lat="42.6232" lon="0.23497">
        <ele>1180.2</ele>
        <time>2011-07-10T18:32:40Z</time>
      </trkpt>
      <trkpt lat="42.62315" lon="0.23488">
        <ele>1177.3</ele>
        <time>2011-07-10T18:32:43Z</time>
      </trkpt>
      <trkpt lat="42.62315" lon="0.23484">
        <ele>1176.8</ele>
        <time>2011-07-10T18:32:45Z</time>
      </trkpt>
      <trkpt lat="42.62323" lon="0.23477">
        <ele>1173.4</ele>
        <time>2011-07-10T18:32:49Z</time>
      </trkpt>
      <trkpt lat="42.62336" lon="0.2346">
        <ele>1169.1</ele>
        <time>2011-07-10T18:32:53Z</time>
      </trkpt>
      <trkpt lat="42.6234" lon="0.23457">
        <ele>1169.1</ele>
        <time>2011-07-10T18:32:54Z</time>
      </trkpt>
      <trkpt lat="42.62357" lon="0.23461">
        <ele>1165.3</ele>
        <time>2011-07-10T18:33:00Z</time>
      </trkpt>
      <trkpt lat="42.62372" lon="0.23446">
        <ele>1160.9</ele>
        <time>2011-07-10T18:33:05Z</time>
      </trkpt>
      <trkpt lat="42.62375" lon="0.23441">
        <ele>1160</ele>
        <time>2011-07-10T18:33:06Z</time>
      </trkpt>
      <trkpt lat="42.62384" lon="0.23418">
        <ele>1156.1</ele>
        <time>2011-07-10T18:33:12Z</time>
      </trkpt>
      <trkpt lat="42.62391" lon="0.23402">
        <ele>1152.3</ele>
        <time>2011-07-10T18:33:16Z</time>
      </trkpt>
      <trkpt lat="42.62395" lon="0.23394">
        <ele>1150.8</ele>
        <time>2011-07-10T18:33:18Z</time>
      </trkpt>
      <trkpt lat="42.62399" lon="0.23386">
        <ele>1148.9</ele>
        <time>2011-07-10T18:33:20Z</time>
      </trkpt>
      <trkpt lat="42.62406" lon="0.23366">
        <ele>1145.5</ele>
        <time>2011-07-10T18:33:26Z</time>
      </trkpt>
      <trkpt lat="42.62412" lon="0.23335">
        <ele>1140.3</ele>
        <time>2011-07-10T18:33:33Z</time>
      </trkpt>
      <trkpt lat="42.62419" lon="0.2332">
        <ele>1137.9</ele>
        <time>2011-07-10T18:33:37Z</time>
      </trkpt>
      <trkpt lat="42.62423" lon="0.23314">
        <ele>1135.5</ele>
        <time>2011-07-10T18:33:39Z</time>
      </trkpt>
      <trkpt lat="42.62425" lon="0.23302">
        <ele>1133.5</ele>
        <time>2011-07-10T18:33:42Z</time>
      </trkpt>
      <trkpt lat="42.6243" lon="0.23283">
        <ele>1127.3</ele>
        <time>2011-07-10T18:33:48Z</time>
      </trkpt>
      <trkpt lat="42.62431" lon="0.23278">
        <ele>1125.4</ele>
        <time>2011-07-10T18:33:49Z</time>
      </trkpt>
      <trkpt lat="42.62438" lon="0.23254">
        <ele>1120.1</ele>
        <time>2011-07-10T18:33:54Z</time>
      </trkpt>
      <trkpt lat="42.62445" lon="0.23237">
        <ele>1116.7</ele>
        <time>2011-07-10T18:33:58Z</time>
      </trkpt>
      <trkpt lat="42.62462" lon="0.23215">
        <ele>1109.5</ele>
        <time>2011-07-10T18:34:06Z</time>
      </trkpt>
      <trkpt lat="42.62462" lon="0.23215">
        <ele>1109</ele>
        <time>2011-07-10T18:34:07Z</time>
      </trkpt>
      <trkpt lat="42.62454" lon="0.23214">
        <ele>1106.6</ele>
        <time>2011-07-10T18:34:11Z</time>
      </trkpt>
      <trkpt lat="42.62447" lon="0.23212">
        <ele>1104.7</ele>
        <time>2011-07-10T18:34:14Z</time>
      </trkpt>
      <trkpt lat="42.62447" lon="0.23212">
        <ele>1104.7</ele>
        <time>2011-07-10T18:34:14Z</time>
      </trkpt>
      <trkpt lat="42.62446" lon="0.23208">
        <ele>1103.3</ele>
        <time>2011-07-10T18:34:16Z</time>
      </trkpt>
      <trkpt lat="42.62448" lon="0.23204">
        <ele>1101.8</ele>
        <time>2011-07-10T18:34:19Z</time>
      </trkpt>
      <trkpt lat="42.62452" lon="0.23204">
        <ele>1100.4</ele>
        <time>2011-07-10T18:34:21Z</time>
      </trkpt>
      <trkpt lat="42.62461" lon="0.23203">
        <ele>1097.5</ele>
        <time>2011-07-10T18:34:23Z</time>
      </trkpt>
      <trkpt lat="42.62484" lon="0.2319">
        <ele>1091.7</ele>
        <time>2011-07-10T18:34:29Z</time>
      </trkpt>
      <trkpt lat="42.62505" lon="0.23178">
        <ele>1086.9</ele>
        <time>2011-07-10T18:34:36Z</time>
      </trkpt>
      <trkpt lat="42.62507" lon="0.23178">
        <ele>1085.5</ele>
        <time>2011-07-10T18:34:37Z</time>
      </trkpt>
      <trkpt lat="42.62512" lon="0.23172">
        <ele>1082.6</ele>
        <time>2011-07-10T18:34:41Z</time>
      </trkpt>
      <trkpt lat="42.62524" lon="0.23165">
        <ele>1079.2</ele>
        <time>2011-07-10T18:34:47Z</time>
      </trkpt>
      <trkpt lat="42.62528" lon="0.23156">
        <ele>1076.3</ele>
        <time>2011-07-10T18:34:52Z</time>
      </trkpt>
      <trkpt lat="42.6253" lon="0.23156">
        <ele>1076.3</ele>
        <time>2011-07-10T18:34:53Z</time>
      </trkpt>
      <trkpt lat="42.62553" lon="0.2315">
        <ele>1075.4</ele>
        <time>2011-07-10T18:35:31Z</time>
      </trkpt>
      <trkpt lat="42.62554" lon="0.23151">
        <ele>1075.4</ele>
        <time>2011-07-10T18:35:47Z</time>
      </trkpt>
      <trkpt lat="42.62554" lon="0.23151">
        <ele>1075.9</ele>
        <time>2011-07-10T18:36:15Z</time>
      </trkpt>
      <trkpt lat="42.62586" lon="0.23135">
        <ele>1071</ele>
        <time>2011-07-10T18:37:39Z</time>
      </trkpt>
      <trkpt lat="42.62643" lon="0.23084">
        <ele>1068.2</ele>
        <time>2011-07-10T18:37:50Z</time>
      </trkpt>
      <trkpt lat="42.62662" lon="0.23034">
        <ele>1064.3</ele>
        <time>2011-07-10T18:37:56Z</time>
      </trkpt>
      <trkpt lat="42.6269" lon="0.23018">
        <ele>1061</ele>
        <time>2011-07-10T18:38:01Z</time>
      </trkpt>
      <trkpt lat="42.62718" lon="0.22996">
        <ele>1057.1</ele>
        <time>2011-07-10T18:38:05Z</time>
      </trkpt>
      <trkpt lat="42.62731" lon="0.22982">
        <ele>1055.2</ele>
        <time>2011-07-10T18:38:07Z</time>
      </trkpt>
      <trkpt lat="42.62759" lon="0.22961">
        <ele>1052.8</ele>
        <time>2011-07-10T18:38:12Z</time>
      </trkpt>
      <trkpt lat="42.62777" lon="0.22927">
        <ele>1050.4</ele>
        <time>2011-07-10T18:38:20Z</time>
      </trkpt>
      <trkpt lat="42.62779" lon="0.22923">
        <ele>1050.4</ele>
        <time>2011-07-10T18:38:22Z</time>
      </trkpt>
      <trkpt lat="42.62781" lon="0.22887">
        <ele>1048.5</ele>
        <time>2011-07-10T18:38:31Z</time>
      </trkpt>
      <trkpt lat="42.62788" lon="0.22848">
        <ele>1044.6</ele>
        <time>2011-07-10T18:38:36Z</time>
      </trkpt>
      <trkpt lat="42.62803" lon="0.22815">
        <ele>1042.7</ele>
        <time>2011-07-10T18:38:40Z</time>
      </trkpt>
      <trkpt lat="42.62833" lon="0.22768">
        <ele>1045.1</ele>
        <time>2011-07-10T18:38:48Z</time>
      </trkpt>
      <trkpt lat="42.62845" lon="0.22725">
        <ele>1044.6</ele>
        <time>2011-07-10T18:38:56Z</time>
      </trkpt>
      <trkpt lat="42.62866" lon="0.22673">
        <ele>1045.6</ele>
        <time>2011-07-10T18:39:07Z</time>
      </trkpt>
      <trkpt lat="42.62893" lon="0.22629">
        <ele>1046.5</ele>
        <time>2011-07-10T18:39:18Z</time>
      </trkpt>
      <trkpt lat="42.62955" lon="0.22548">
        <ele>1050.9</ele>
        <time>2011-07-10T18:39:44Z</time>
      </trkpt>
      <trkpt lat="42.62945" lon="0.22524">
        <ele>1051.3</ele>
        <time>2011-07-10T18:39:51Z</time>
      </trkpt>
      <trkpt lat="42.62881" lon="0.22456">
        <ele>1053.7</ele>
        <time>2011-07-10T18:40:19Z</time>
      </trkpt>
      <trkpt lat="42.62875" lon="0.22451">
        <ele>1054.7</ele>
        <time>2011-07-10T18:40:22Z</time>
      </trkpt>
      <trkpt lat="42.62882" lon="0.22423">
        <ele>1055.2</ele>
        <time>2011-07-10T18:40:30Z</time>
      </trkpt>
      <trkpt lat="42.62925" lon="0.22368">
        <ele>1054.7</ele>
        <time>2011-07-10T18:40:45Z</time>
      </trkpt>
      <trkpt lat="42.6304" lon="0.2225">
        <ele>1058.5</ele>
        <time>2011-07-10T18:41:23Z</time>
      </trkpt>
      <trkpt lat="42.63127" lon="0.22167">
        <ele>1061.4</ele>
        <time>2011-07-10T18:41:52Z</time>
      </trkpt>
      <trkpt lat="42.63129" lon="0.22116">
        <ele>1062.9</ele>
        <time>2011-07-10T18:42:04Z</time>
      </trkpt>
      <trkpt lat="42.63193" lon="0.21994">
        <ele>1067.7</ele>
        <time>2011-07-10T18:42:37Z</time>
      </trkpt>
      <trkpt lat="42.63223" lon="0.21959">
        <ele>1068.6</ele>
        <time>2011-07-10T18:42:48Z</time>
      </trkpt>
    </trkseg>
  </trk>
</gpx>